<?xml version="1.0" encoding="UTF-8" standalone="no" ?>
<gpx xmlns="http://www.topografix.com/GPX/1/1" xmlns:xsi="http://www.w3.org/2001/XMLSchema-instance" xsi:schemaLocation="http://www.topografix.com/GPX/1/1 http://www.topografix.com/GPX/1/1/gpx.xsd" version="1.1" creator="VisuGPX - https://www.visugpx.com">
  <metadata>
    <name>(83-Var) Mons</name>
    <desc><![CDATA[Pas loin de Mons un beau parcours descendant vraiment magnifique !
]]></desc>
  </metadata>
  <trk>
    <name><![CDATA[Sortie à vélo du midi]]></name>
    <trkseg>
      <trkpt lat="43.73988" lon="6.71243">
        <ele>1176.4</ele>
        <time>2020-02-09T10:04:25Z</time>
      </trkpt>
      <trkpt lat="43.73993" lon="6.71234">
        <ele>1176.2</ele>
        <time>2020-02-09T10:08:23Z</time>
      </trkpt>
      <trkpt lat="43.73992" lon="6.71228">
        <ele>1176.1</ele>
        <time>2020-02-09T10:08:25Z</time>
      </trkpt>
      <trkpt lat="43.73991" lon="6.71224">
        <ele>1176</ele>
        <time>2020-02-09T10:08:28Z</time>
      </trkpt>
      <trkpt lat="43.73988" lon="6.7122">
        <ele>1176</ele>
        <time>2020-02-09T10:08:30Z</time>
      </trkpt>
      <trkpt lat="43.73993" lon="6.71239">
        <ele>1175.6</ele>
        <time>2020-02-09T10:10:08Z</time>
      </trkpt>
      <trkpt lat="43.73989" lon="6.7124">
        <ele>1175.5</ele>
        <time>2020-02-09T10:10:13Z</time>
      </trkpt>
      <trkpt lat="43.73992" lon="6.71242">
        <ele>1175.4</ele>
        <time>2020-02-09T10:10:21Z</time>
      </trkpt>
      <trkpt lat="43.73991" lon="6.71261">
        <ele>1175</ele>
        <time>2020-02-09T10:11:44Z</time>
      </trkpt>
      <trkpt lat="43.73988" lon="6.71266">
        <ele>1174.8</ele>
        <time>2020-02-09T10:11:47Z</time>
      </trkpt>
      <trkpt lat="43.73987" lon="6.71262">
        <ele>1174.7</ele>
        <time>2020-02-09T10:11:48Z</time>
      </trkpt>
      <trkpt lat="43.73988" lon="6.71258">
        <ele>1174.5</ele>
        <time>2020-02-09T10:11:51Z</time>
      </trkpt>
      <trkpt lat="43.7399" lon="6.71254">
        <ele>1174.4</ele>
        <time>2020-02-09T10:11:54Z</time>
      </trkpt>
      <trkpt lat="43.73993" lon="6.71252">
        <ele>1174.3</ele>
        <time>2020-02-09T10:11:56Z</time>
      </trkpt>
      <trkpt lat="43.73992" lon="6.71256">
        <ele>1174.1</ele>
        <time>2020-02-09T10:12:03Z</time>
      </trkpt>
      <trkpt lat="43.7399" lon="6.71256">
        <ele>1174</ele>
        <time>2020-02-09T10:12:05Z</time>
      </trkpt>
      <trkpt lat="43.7399" lon="6.71252">
        <ele>1173.9</ele>
        <time>2020-02-09T10:12:10Z</time>
      </trkpt>
      <trkpt lat="43.73993" lon="6.71249">
        <ele>1173.8</ele>
        <time>2020-02-09T10:12:13Z</time>
      </trkpt>
      <trkpt lat="43.73994" lon="6.71254">
        <ele>1173.7</ele>
        <time>2020-02-09T10:12:20Z</time>
      </trkpt>
      <trkpt lat="43.73991" lon="6.71254">
        <ele>1173.5</ele>
        <time>2020-02-09T10:12:22Z</time>
      </trkpt>
      <trkpt lat="43.73991" lon="6.71258">
        <ele>1173.4</ele>
        <time>2020-02-09T10:12:40Z</time>
      </trkpt>
      <trkpt lat="43.7399" lon="6.71265">
        <ele>1173.3</ele>
        <time>2020-02-09T10:12:55Z</time>
      </trkpt>
      <trkpt lat="43.73988" lon="6.71269">
        <ele>1173.1</ele>
        <time>2020-02-09T10:12:58Z</time>
      </trkpt>
      <trkpt lat="43.73985" lon="6.71277">
        <ele>1172.9</ele>
        <time>2020-02-09T10:13:04Z</time>
      </trkpt>
      <trkpt lat="43.73982" lon="6.71285">
        <ele>1172.8</ele>
        <time>2020-02-09T10:13:07Z</time>
      </trkpt>
      <trkpt lat="43.73978" lon="6.71296">
        <ele>1172.5</ele>
        <time>2020-02-09T10:13:10Z</time>
      </trkpt>
      <trkpt lat="43.73975" lon="6.71303">
        <ele>1172.4</ele>
        <time>2020-02-09T10:13:11Z</time>
      </trkpt>
      <trkpt lat="43.73972" lon="6.71314">
        <ele>1172.2</ele>
        <time>2020-02-09T10:13:13Z</time>
      </trkpt>
      <trkpt lat="43.7397" lon="6.71323">
        <ele>1172</ele>
        <time>2020-02-09T10:13:16Z</time>
      </trkpt>
      <trkpt lat="43.73969" lon="6.71329">
        <ele>1172</ele>
        <time>2020-02-09T10:13:17Z</time>
      </trkpt>
      <trkpt lat="43.73966" lon="6.71348">
        <ele>1171.7</ele>
        <time>2020-02-09T10:13:20Z</time>
      </trkpt>
      <trkpt lat="43.73964" lon="6.71354">
        <ele>1171.6</ele>
        <time>2020-02-09T10:13:21Z</time>
      </trkpt>
      <trkpt lat="43.7396" lon="6.71364">
        <ele>1171.3</ele>
        <time>2020-02-09T10:13:23Z</time>
      </trkpt>
      <trkpt lat="43.73957" lon="6.71371">
        <ele>1170.7</ele>
        <time>2020-02-09T10:13:24Z</time>
      </trkpt>
      <trkpt lat="43.7395" lon="6.71388">
        <ele>1168.7</ele>
        <time>2020-02-09T10:13:26Z</time>
      </trkpt>
      <trkpt lat="43.73949" lon="6.71397">
        <ele>1169.1</ele>
        <time>2020-02-09T10:13:29Z</time>
      </trkpt>
      <trkpt lat="43.73948" lon="6.71406">
        <ele>1169.4</ele>
        <time>2020-02-09T10:13:31Z</time>
      </trkpt>
      <trkpt lat="43.73947" lon="6.71413">
        <ele>1169.6</ele>
        <time>2020-02-09T10:13:32Z</time>
      </trkpt>
      <trkpt lat="43.73945" lon="6.71427">
        <ele>1170.1</ele>
        <time>2020-02-09T10:13:34Z</time>
      </trkpt>
      <trkpt lat="43.73943" lon="6.71443">
        <ele>1170.7</ele>
        <time>2020-02-09T10:13:37Z</time>
      </trkpt>
      <trkpt lat="43.7394" lon="6.71455">
        <ele>1171.1</ele>
        <time>2020-02-09T10:13:38Z</time>
      </trkpt>
      <trkpt lat="43.73937" lon="6.71464">
        <ele>1171.4</ele>
        <time>2020-02-09T10:13:41Z</time>
      </trkpt>
      <trkpt lat="43.73934" lon="6.71472">
        <ele>1171.7</ele>
        <time>2020-02-09T10:13:42Z</time>
      </trkpt>
      <trkpt lat="43.7393" lon="6.71483">
        <ele>1172.2</ele>
        <time>2020-02-09T10:13:44Z</time>
      </trkpt>
      <trkpt lat="43.73928" lon="6.71488">
        <ele>1172.4</ele>
        <time>2020-02-09T10:13:46Z</time>
      </trkpt>
      <trkpt lat="43.73924" lon="6.715">
        <ele>1173</ele>
        <time>2020-02-09T10:13:49Z</time>
      </trkpt>
      <trkpt lat="43.73922" lon="6.71504">
        <ele>1173.2</ele>
        <time>2020-02-09T10:13:50Z</time>
      </trkpt>
      <trkpt lat="43.73918" lon="6.71516">
        <ele>1173.6</ele>
        <time>2020-02-09T10:13:53Z</time>
      </trkpt>
      <trkpt lat="43.73917" lon="6.7152">
        <ele>1173.8</ele>
        <time>2020-02-09T10:13:54Z</time>
      </trkpt>
      <trkpt lat="43.73912" lon="6.71531">
        <ele>1174.1</ele>
        <time>2020-02-09T10:13:57Z</time>
      </trkpt>
      <trkpt lat="43.73911" lon="6.71535">
        <ele>1174.3</ele>
        <time>2020-02-09T10:13:58Z</time>
      </trkpt>
      <trkpt lat="43.73909" lon="6.71539">
        <ele>1174.4</ele>
        <time>2020-02-09T10:13:59Z</time>
      </trkpt>
      <trkpt lat="43.73907" lon="6.71542">
        <ele>1174.5</ele>
        <time>2020-02-09T10:14:00Z</time>
      </trkpt>
      <trkpt lat="43.73901" lon="6.71548">
        <ele>1174.7</ele>
        <time>2020-02-09T10:14:02Z</time>
      </trkpt>
      <trkpt lat="43.73895" lon="6.71553">
        <ele>1174.8</ele>
        <time>2020-02-09T10:14:04Z</time>
      </trkpt>
      <trkpt lat="43.73891" lon="6.71555">
        <ele>1174.8</ele>
        <time>2020-02-09T10:14:05Z</time>
      </trkpt>
      <trkpt lat="43.73886" lon="6.7156">
        <ele>1174.8</ele>
        <time>2020-02-09T10:14:07Z</time>
      </trkpt>
      <trkpt lat="43.73882" lon="6.71564">
        <ele>1174.7</ele>
        <time>2020-02-09T10:14:10Z</time>
      </trkpt>
      <trkpt lat="43.73879" lon="6.71567">
        <ele>1174.7</ele>
        <time>2020-02-09T10:14:11Z</time>
      </trkpt>
      <trkpt lat="43.73875" lon="6.71571">
        <ele>1174.6</ele>
        <time>2020-02-09T10:14:13Z</time>
      </trkpt>
      <trkpt lat="43.73873" lon="6.71575">
        <ele>1174.5</ele>
        <time>2020-02-09T10:14:14Z</time>
      </trkpt>
      <trkpt lat="43.73869" lon="6.71586">
        <ele>1174.3</ele>
        <time>2020-02-09T10:14:17Z</time>
      </trkpt>
      <trkpt lat="43.73866" lon="6.71602">
        <ele>1174.1</ele>
        <time>2020-02-09T10:14:20Z</time>
      </trkpt>
      <trkpt lat="43.73865" lon="6.71609">
        <ele>1174</ele>
        <time>2020-02-09T10:14:22Z</time>
      </trkpt>
      <trkpt lat="43.73863" lon="6.71621">
        <ele>1173.8</ele>
        <time>2020-02-09T10:14:25Z</time>
      </trkpt>
      <trkpt lat="43.7386" lon="6.71633">
        <ele>1173.7</ele>
        <time>2020-02-09T10:14:28Z</time>
      </trkpt>
      <trkpt lat="43.73857" lon="6.71639">
        <ele>1173.6</ele>
        <time>2020-02-09T10:14:44Z</time>
      </trkpt>
      <trkpt lat="43.73855" lon="6.71643">
        <ele>1173.5</ele>
        <time>2020-02-09T10:14:45Z</time>
      </trkpt>
      <trkpt lat="43.73852" lon="6.71652">
        <ele>1173.4</ele>
        <time>2020-02-09T10:14:48Z</time>
      </trkpt>
      <trkpt lat="43.7385" lon="6.71657">
        <ele>1173.3</ele>
        <time>2020-02-09T10:14:49Z</time>
      </trkpt>
      <trkpt lat="43.73849" lon="6.71663">
        <ele>1173.3</ele>
        <time>2020-02-09T10:14:50Z</time>
      </trkpt>
      <trkpt lat="43.73846" lon="6.71671">
        <ele>1173.2</ele>
        <time>2020-02-09T10:14:52Z</time>
      </trkpt>
      <trkpt lat="43.73845" lon="6.71676">
        <ele>1173.1</ele>
        <time>2020-02-09T10:14:53Z</time>
      </trkpt>
      <trkpt lat="43.73841" lon="6.71693">
        <ele>1172.9</ele>
        <time>2020-02-09T10:14:56Z</time>
      </trkpt>
      <trkpt lat="43.73838" lon="6.71711">
        <ele>1172.6</ele>
        <time>2020-02-09T10:14:59Z</time>
      </trkpt>
      <trkpt lat="43.73837" lon="6.71718">
        <ele>1172.5</ele>
        <time>2020-02-09T10:15:00Z</time>
      </trkpt>
      <trkpt lat="43.73836" lon="6.71724">
        <ele>1172.5</ele>
        <time>2020-02-09T10:15:01Z</time>
      </trkpt>
      <trkpt lat="43.73835" lon="6.71734">
        <ele>1172.5</ele>
        <time>2020-02-09T10:15:02Z</time>
      </trkpt>
      <trkpt lat="43.7383" lon="6.71745">
        <ele>1172.4</ele>
        <time>2020-02-09T10:15:05Z</time>
      </trkpt>
      <trkpt lat="43.73827" lon="6.71751">
        <ele>1172.3</ele>
        <time>2020-02-09T10:15:06Z</time>
      </trkpt>
      <trkpt lat="43.73824" lon="6.71756">
        <ele>1172.3</ele>
        <time>2020-02-09T10:15:07Z</time>
      </trkpt>
      <trkpt lat="43.73818" lon="6.71766">
        <ele>1172.3</ele>
        <time>2020-02-09T10:15:08Z</time>
      </trkpt>
      <trkpt lat="43.73812" lon="6.71774">
        <ele>1172.2</ele>
        <time>2020-02-09T10:15:11Z</time>
      </trkpt>
      <trkpt lat="43.7381" lon="6.71779">
        <ele>1172.2</ele>
        <time>2020-02-09T10:15:12Z</time>
      </trkpt>
      <trkpt lat="43.73803" lon="6.71792">
        <ele>1172.2</ele>
        <time>2020-02-09T10:15:15Z</time>
      </trkpt>
      <trkpt lat="43.73797" lon="6.71814">
        <ele>1172.3</ele>
        <time>2020-02-09T10:15:18Z</time>
      </trkpt>
      <trkpt lat="43.73793" lon="6.71832">
        <ele>1172.3</ele>
        <time>2020-02-09T10:15:19Z</time>
      </trkpt>
      <trkpt lat="43.7379" lon="6.71846">
        <ele>1172.3</ele>
        <time>2020-02-09T10:15:21Z</time>
      </trkpt>
      <trkpt lat="43.73788" lon="6.71859">
        <ele>1172.1</ele>
        <time>2020-02-09T10:15:23Z</time>
      </trkpt>
      <trkpt lat="43.73786" lon="6.71871">
        <ele>1172</ele>
        <time>2020-02-09T10:15:25Z</time>
      </trkpt>
      <trkpt lat="43.73783" lon="6.71882">
        <ele>1171.8</ele>
        <time>2020-02-09T10:15:27Z</time>
      </trkpt>
      <trkpt lat="43.73785" lon="6.71886">
        <ele>1171.7</ele>
        <time>2020-02-09T10:15:30Z</time>
      </trkpt>
      <trkpt lat="43.73783" lon="6.7189">
        <ele>1171.7</ele>
        <time>2020-02-09T10:15:31Z</time>
      </trkpt>
      <trkpt lat="43.73777" lon="6.71903">
        <ele>1171.4</ele>
        <time>2020-02-09T10:15:34Z</time>
      </trkpt>
      <trkpt lat="43.73775" lon="6.71906">
        <ele>1171.3</ele>
        <time>2020-02-09T10:15:35Z</time>
      </trkpt>
      <trkpt lat="43.7377" lon="6.71912">
        <ele>1171.2</ele>
        <time>2020-02-09T10:15:38Z</time>
      </trkpt>
      <trkpt lat="43.73768" lon="6.71916">
        <ele>1171.1</ele>
        <time>2020-02-09T10:15:39Z</time>
      </trkpt>
      <trkpt lat="43.73766" lon="6.7192">
        <ele>1171</ele>
        <time>2020-02-09T10:15:40Z</time>
      </trkpt>
      <trkpt lat="43.73761" lon="6.71931">
        <ele>1170.8</ele>
        <time>2020-02-09T10:15:41Z</time>
      </trkpt>
      <trkpt lat="43.73759" lon="6.71936">
        <ele>1170.7</ele>
        <time>2020-02-09T10:15:44Z</time>
      </trkpt>
      <trkpt lat="43.73757" lon="6.71941">
        <ele>1170.6</ele>
        <time>2020-02-09T10:15:45Z</time>
      </trkpt>
      <trkpt lat="43.73754" lon="6.7195">
        <ele>1170.4</ele>
        <time>2020-02-09T10:15:47Z</time>
      </trkpt>
      <trkpt lat="43.73752" lon="6.71958">
        <ele>1170.4</ele>
        <time>2020-02-09T10:15:48Z</time>
      </trkpt>
      <trkpt lat="43.7375" lon="6.71963">
        <ele>1170.3</ele>
        <time>2020-02-09T10:15:49Z</time>
      </trkpt>
      <trkpt lat="43.73747" lon="6.71974">
        <ele>1170.3</ele>
        <time>2020-02-09T10:15:50Z</time>
      </trkpt>
      <trkpt lat="43.73743" lon="6.71987">
        <ele>1170.3</ele>
        <time>2020-02-09T10:15:53Z</time>
      </trkpt>
      <trkpt lat="43.73739" lon="6.72006">
        <ele>1170.4</ele>
        <time>2020-02-09T10:15:56Z</time>
      </trkpt>
      <trkpt lat="43.73735" lon="6.72024">
        <ele>1170.5</ele>
        <time>2020-02-09T10:15:59Z</time>
      </trkpt>
      <trkpt lat="43.7373" lon="6.72043">
        <ele>1170.7</ele>
        <time>2020-02-09T10:16:02Z</time>
      </trkpt>
      <trkpt lat="43.73728" lon="6.72052">
        <ele>1170.8</ele>
        <time>2020-02-09T10:16:03Z</time>
      </trkpt>
      <trkpt lat="43.73723" lon="6.72069">
        <ele>1171</ele>
        <time>2020-02-09T10:16:04Z</time>
      </trkpt>
      <trkpt lat="43.73719" lon="6.72082">
        <ele>1171.2</ele>
        <time>2020-02-09T10:16:06Z</time>
      </trkpt>
      <trkpt lat="43.73715" lon="6.72095">
        <ele>1171.5</ele>
        <time>2020-02-09T10:16:08Z</time>
      </trkpt>
      <trkpt lat="43.73714" lon="6.72101">
        <ele>1171.6</ele>
        <time>2020-02-09T10:16:09Z</time>
      </trkpt>
      <trkpt lat="43.73711" lon="6.72111">
        <ele>1171.8</ele>
        <time>2020-02-09T10:16:11Z</time>
      </trkpt>
      <trkpt lat="43.73709" lon="6.72116">
        <ele>1171.8</ele>
        <time>2020-02-09T10:16:12Z</time>
      </trkpt>
      <trkpt lat="43.73711" lon="6.72123">
        <ele>1171.9</ele>
        <time>2020-02-09T10:16:15Z</time>
      </trkpt>
      <trkpt lat="43.7371" lon="6.72126">
        <ele>1171.9</ele>
        <time>2020-02-09T10:16:16Z</time>
      </trkpt>
      <trkpt lat="43.73708" lon="6.72131">
        <ele>1171.9</ele>
        <time>2020-02-09T10:16:17Z</time>
      </trkpt>
      <trkpt lat="43.73706" lon="6.72143">
        <ele>1171.9</ele>
        <time>2020-02-09T10:16:20Z</time>
      </trkpt>
      <trkpt lat="43.73706" lon="6.72148">
        <ele>1171.9</ele>
        <time>2020-02-09T10:16:21Z</time>
      </trkpt>
      <trkpt lat="43.73707" lon="6.72157">
        <ele>1171.9</ele>
        <time>2020-02-09T10:16:22Z</time>
      </trkpt>
      <trkpt lat="43.73708" lon="6.7217">
        <ele>1171.9</ele>
        <time>2020-02-09T10:16:26Z</time>
      </trkpt>
      <trkpt lat="43.73708" lon="6.72174">
        <ele>1171.9</ele>
        <time>2020-02-09T10:16:27Z</time>
      </trkpt>
      <trkpt lat="43.73708" lon="6.72188">
        <ele>1171.9</ele>
        <time>2020-02-09T10:16:30Z</time>
      </trkpt>
      <trkpt lat="43.73709" lon="6.72196">
        <ele>1171.9</ele>
        <time>2020-02-09T10:16:31Z</time>
      </trkpt>
      <trkpt lat="43.73709" lon="6.72208">
        <ele>1172</ele>
        <time>2020-02-09T10:16:32Z</time>
      </trkpt>
      <trkpt lat="43.7371" lon="6.72214">
        <ele>1172</ele>
        <time>2020-02-09T10:16:33Z</time>
      </trkpt>
      <trkpt lat="43.7371" lon="6.7222">
        <ele>1172</ele>
        <time>2020-02-09T10:16:36Z</time>
      </trkpt>
      <trkpt lat="43.7371" lon="6.72226">
        <ele>1172.1</ele>
        <time>2020-02-09T10:16:37Z</time>
      </trkpt>
      <trkpt lat="43.73709" lon="6.7224">
        <ele>1172.1</ele>
        <time>2020-02-09T10:16:40Z</time>
      </trkpt>
      <trkpt lat="43.73708" lon="6.7225">
        <ele>1172</ele>
        <time>2020-02-09T10:16:41Z</time>
      </trkpt>
      <trkpt lat="43.73706" lon="6.72266">
        <ele>1172.1</ele>
        <time>2020-02-09T10:16:43Z</time>
      </trkpt>
      <trkpt lat="43.73703" lon="6.72273">
        <ele>1172.2</ele>
        <time>2020-02-09T10:16:44Z</time>
      </trkpt>
      <trkpt lat="43.737" lon="6.72279">
        <ele>1172.3</ele>
        <time>2020-02-09T10:16:45Z</time>
      </trkpt>
      <trkpt lat="43.73696" lon="6.72285">
        <ele>1172.5</ele>
        <time>2020-02-09T10:16:48Z</time>
      </trkpt>
      <trkpt lat="43.73692" lon="6.72289">
        <ele>1172.6</ele>
        <time>2020-02-09T10:16:49Z</time>
      </trkpt>
      <trkpt lat="43.73689" lon="6.72294">
        <ele>1172.7</ele>
        <time>2020-02-09T10:16:50Z</time>
      </trkpt>
      <trkpt lat="43.73685" lon="6.72308">
        <ele>1172.8</ele>
        <time>2020-02-09T10:16:53Z</time>
      </trkpt>
      <trkpt lat="43.73685" lon="6.72313">
        <ele>1172.9</ele>
        <time>2020-02-09T10:16:54Z</time>
      </trkpt>
      <trkpt lat="43.73686" lon="6.72319">
        <ele>1173</ele>
        <time>2020-02-09T10:16:55Z</time>
      </trkpt>
      <trkpt lat="43.73687" lon="6.72325">
        <ele>1173.1</ele>
        <time>2020-02-09T10:16:56Z</time>
      </trkpt>
      <trkpt lat="43.73689" lon="6.72334">
        <ele>1173.4</ele>
        <time>2020-02-09T10:16:57Z</time>
      </trkpt>
      <trkpt lat="43.73691" lon="6.72345">
        <ele>1173.7</ele>
        <time>2020-02-09T10:17:00Z</time>
      </trkpt>
      <trkpt lat="43.73693" lon="6.72351">
        <ele>1173.8</ele>
        <time>2020-02-09T10:17:01Z</time>
      </trkpt>
      <trkpt lat="43.73694" lon="6.72355">
        <ele>1173.9</ele>
        <time>2020-02-09T10:17:02Z</time>
      </trkpt>
      <trkpt lat="43.73695" lon="6.72363">
        <ele>1174.2</ele>
        <time>2020-02-09T10:17:04Z</time>
      </trkpt>
      <trkpt lat="43.73696" lon="6.72368">
        <ele>1174.3</ele>
        <time>2020-02-09T10:17:05Z</time>
      </trkpt>
      <trkpt lat="43.73698" lon="6.72382">
        <ele>1174.8</ele>
        <time>2020-02-09T10:17:08Z</time>
      </trkpt>
      <trkpt lat="43.73699" lon="6.72389">
        <ele>1175</ele>
        <time>2020-02-09T10:17:09Z</time>
      </trkpt>
      <trkpt lat="43.737" lon="6.72399">
        <ele>1175.4</ele>
        <time>2020-02-09T10:17:11Z</time>
      </trkpt>
      <trkpt lat="43.73701" lon="6.72406">
        <ele>1175.6</ele>
        <time>2020-02-09T10:17:12Z</time>
      </trkpt>
      <trkpt lat="43.73702" lon="6.72411">
        <ele>1175.7</ele>
        <time>2020-02-09T10:17:13Z</time>
      </trkpt>
      <trkpt lat="43.73703" lon="6.7242">
        <ele>1176</ele>
        <time>2020-02-09T10:17:15Z</time>
      </trkpt>
      <trkpt lat="43.73706" lon="6.72434">
        <ele>1176.2</ele>
        <time>2020-02-09T10:17:16Z</time>
      </trkpt>
      <trkpt lat="43.73707" lon="6.7244">
        <ele>1176.3</ele>
        <time>2020-02-09T10:17:18Z</time>
      </trkpt>
      <trkpt lat="43.73706" lon="6.72455">
        <ele>1176.3</ele>
        <time>2020-02-09T10:17:19Z</time>
      </trkpt>
      <trkpt lat="43.73705" lon="6.72466">
        <ele>1176.5</ele>
        <time>2020-02-09T10:17:22Z</time>
      </trkpt>
      <trkpt lat="43.73703" lon="6.72485">
        <ele>1176.9</ele>
        <time>2020-02-09T10:17:25Z</time>
      </trkpt>
      <trkpt lat="43.73702" lon="6.72491">
        <ele>1177</ele>
        <time>2020-02-09T10:17:26Z</time>
      </trkpt>
      <trkpt lat="43.737" lon="6.72501">
        <ele>1177</ele>
        <time>2020-02-09T10:17:28Z</time>
      </trkpt>
      <trkpt lat="43.73698" lon="6.7251">
        <ele>1177.1</ele>
        <time>2020-02-09T10:17:29Z</time>
      </trkpt>
      <trkpt lat="43.73697" lon="6.7253">
        <ele>1177.5</ele>
        <time>2020-02-09T10:17:33Z</time>
      </trkpt>
      <trkpt lat="43.73698" lon="6.72535">
        <ele>1177.7</ele>
        <time>2020-02-09T10:17:34Z</time>
      </trkpt>
      <trkpt lat="43.73698" lon="6.72541">
        <ele>1177.9</ele>
        <time>2020-02-09T10:17:35Z</time>
      </trkpt>
      <trkpt lat="43.737" lon="6.72554">
        <ele>1178.1</ele>
        <time>2020-02-09T10:17:36Z</time>
      </trkpt>
      <trkpt lat="43.73699" lon="6.72564">
        <ele>1178.3</ele>
        <time>2020-02-09T10:17:38Z</time>
      </trkpt>
      <trkpt lat="43.73699" lon="6.72575">
        <ele>1178.5</ele>
        <time>2020-02-09T10:17:40Z</time>
      </trkpt>
      <trkpt lat="43.73699" lon="6.72582">
        <ele>1178.7</ele>
        <time>2020-02-09T10:17:42Z</time>
      </trkpt>
      <trkpt lat="43.73699" lon="6.72598">
        <ele>1179.2</ele>
        <time>2020-02-09T10:17:43Z</time>
      </trkpt>
      <trkpt lat="43.73699" lon="6.72607">
        <ele>1179.5</ele>
        <time>2020-02-09T10:17:46Z</time>
      </trkpt>
      <trkpt lat="43.73699" lon="6.72621">
        <ele>1179.9</ele>
        <time>2020-02-09T10:17:48Z</time>
      </trkpt>
      <trkpt lat="43.737" lon="6.72632">
        <ele>1180.2</ele>
        <time>2020-02-09T10:17:50Z</time>
      </trkpt>
      <trkpt lat="43.737" lon="6.72641">
        <ele>1180.4</ele>
        <time>2020-02-09T10:17:53Z</time>
      </trkpt>
      <trkpt lat="43.737" lon="6.72647">
        <ele>1180.7</ele>
        <time>2020-02-09T10:17:54Z</time>
      </trkpt>
      <trkpt lat="43.737" lon="6.72653">
        <ele>1180.9</ele>
        <time>2020-02-09T10:17:55Z</time>
      </trkpt>
      <trkpt lat="43.73702" lon="6.7267">
        <ele>1181.5</ele>
        <time>2020-02-09T10:17:58Z</time>
      </trkpt>
      <trkpt lat="43.73703" lon="6.72681">
        <ele>1181.9</ele>
        <time>2020-02-09T10:18:00Z</time>
      </trkpt>
      <trkpt lat="43.73704" lon="6.7269">
        <ele>1182.3</ele>
        <time>2020-02-09T10:18:01Z</time>
      </trkpt>
      <trkpt lat="43.73704" lon="6.72702">
        <ele>1182.9</ele>
        <time>2020-02-09T10:18:04Z</time>
      </trkpt>
      <trkpt lat="43.73704" lon="6.72708">
        <ele>1183.2</ele>
        <time>2020-02-09T10:18:05Z</time>
      </trkpt>
      <trkpt lat="43.73704" lon="6.72713">
        <ele>1183.4</ele>
        <time>2020-02-09T10:18:06Z</time>
      </trkpt>
      <trkpt lat="43.73703" lon="6.72729">
        <ele>1184</ele>
        <time>2020-02-09T10:18:09Z</time>
      </trkpt>
      <trkpt lat="43.73704" lon="6.7274">
        <ele>1184.3</ele>
        <time>2020-02-09T10:18:10Z</time>
      </trkpt>
      <trkpt lat="43.73703" lon="6.72751">
        <ele>1184.7</ele>
        <time>2020-02-09T10:18:12Z</time>
      </trkpt>
      <trkpt lat="43.73703" lon="6.72759">
        <ele>1184.9</ele>
        <time>2020-02-09T10:18:15Z</time>
      </trkpt>
      <trkpt lat="43.73703" lon="6.72765">
        <ele>1185.1</ele>
        <time>2020-02-09T10:18:16Z</time>
      </trkpt>
      <trkpt lat="43.73703" lon="6.72779">
        <ele>1185.8</ele>
        <time>2020-02-09T10:18:17Z</time>
      </trkpt>
      <trkpt lat="43.73703" lon="6.72788">
        <ele>1186.1</ele>
        <time>2020-02-09T10:18:20Z</time>
      </trkpt>
      <trkpt lat="43.73702" lon="6.72802">
        <ele>1186.7</ele>
        <time>2020-02-09T10:18:23Z</time>
      </trkpt>
      <trkpt lat="43.737" lon="6.72816">
        <ele>1187</ele>
        <time>2020-02-09T10:18:26Z</time>
      </trkpt>
      <trkpt lat="43.73699" lon="6.72824">
        <ele>1187.2</ele>
        <time>2020-02-09T10:18:28Z</time>
      </trkpt>
      <trkpt lat="43.73696" lon="6.72836">
        <ele>1187.5</ele>
        <time>2020-02-09T10:18:29Z</time>
      </trkpt>
      <trkpt lat="43.73693" lon="6.72844">
        <ele>1187.7</ele>
        <time>2020-02-09T10:18:32Z</time>
      </trkpt>
      <trkpt lat="43.7369" lon="6.72848">
        <ele>1187.8</ele>
        <time>2020-02-09T10:18:33Z</time>
      </trkpt>
      <trkpt lat="43.73686" lon="6.72857">
        <ele>1188.2</ele>
        <time>2020-02-09T10:18:34Z</time>
      </trkpt>
      <trkpt lat="43.73684" lon="6.72867">
        <ele>1188.5</ele>
        <time>2020-02-09T10:18:37Z</time>
      </trkpt>
      <trkpt lat="43.73682" lon="6.72877">
        <ele>1188.9</ele>
        <time>2020-02-09T10:18:38Z</time>
      </trkpt>
      <trkpt lat="43.73683" lon="6.7289">
        <ele>1189.5</ele>
        <time>2020-02-09T10:18:42Z</time>
      </trkpt>
      <trkpt lat="43.73686" lon="6.729">
        <ele>1190</ele>
        <time>2020-02-09T10:18:45Z</time>
      </trkpt>
      <trkpt lat="43.73689" lon="6.72906">
        <ele>1190.3</ele>
        <time>2020-02-09T10:18:46Z</time>
      </trkpt>
      <trkpt lat="43.73692" lon="6.72914">
        <ele>1190</ele>
        <time>2020-02-09T10:18:49Z</time>
      </trkpt>
      <trkpt lat="43.73694" lon="6.7292">
        <ele>1189.8</ele>
        <time>2020-02-09T10:18:50Z</time>
      </trkpt>
      <trkpt lat="43.737" lon="6.72927">
        <ele>1189.6</ele>
        <time>2020-02-09T10:18:52Z</time>
      </trkpt>
      <trkpt lat="43.73704" lon="6.72932">
        <ele>1189.5</ele>
        <time>2020-02-09T10:18:54Z</time>
      </trkpt>
      <trkpt lat="43.7371" lon="6.72939">
        <ele>1189.4</ele>
        <time>2020-02-09T10:18:55Z</time>
      </trkpt>
      <trkpt lat="43.73713" lon="6.72943">
        <ele>1189.4</ele>
        <time>2020-02-09T10:18:57Z</time>
      </trkpt>
      <trkpt lat="43.73716" lon="6.72947">
        <ele>1189.4</ele>
        <time>2020-02-09T10:18:59Z</time>
      </trkpt>
      <trkpt lat="43.73719" lon="6.72952">
        <ele>1189.3</ele>
        <time>2020-02-09T10:19:00Z</time>
      </trkpt>
      <trkpt lat="43.73721" lon="6.72956">
        <ele>1189.3</ele>
        <time>2020-02-09T10:19:01Z</time>
      </trkpt>
      <trkpt lat="43.73726" lon="6.72965">
        <ele>1189.3</ele>
        <time>2020-02-09T10:19:03Z</time>
      </trkpt>
      <trkpt lat="43.73729" lon="6.72971">
        <ele>1189.2</ele>
        <time>2020-02-09T10:19:05Z</time>
      </trkpt>
      <trkpt lat="43.73732" lon="6.72981">
        <ele>1189.2</ele>
        <time>2020-02-09T10:19:08Z</time>
      </trkpt>
      <trkpt lat="43.73733" lon="6.72987">
        <ele>1189.2</ele>
        <time>2020-02-09T10:19:10Z</time>
      </trkpt>
      <trkpt lat="43.73734" lon="6.72991">
        <ele>1189.2</ele>
        <time>2020-02-09T10:19:11Z</time>
      </trkpt>
      <trkpt lat="43.73735" lon="6.72994">
        <ele>1189.2</ele>
        <time>2020-02-09T10:19:12Z</time>
      </trkpt>
      <trkpt lat="43.73736" lon="6.72998">
        <ele>1189.1</ele>
        <time>2020-02-09T10:19:13Z</time>
      </trkpt>
      <trkpt lat="43.73739" lon="6.73012">
        <ele>1189.1</ele>
        <time>2020-02-09T10:19:16Z</time>
      </trkpt>
      <trkpt lat="43.7374" lon="6.73016">
        <ele>1189.1</ele>
        <time>2020-02-09T10:19:17Z</time>
      </trkpt>
      <trkpt lat="43.7374" lon="6.7302">
        <ele>1189.1</ele>
        <time>2020-02-09T10:19:18Z</time>
      </trkpt>
      <trkpt lat="43.73741" lon="6.73025">
        <ele>1189.2</ele>
        <time>2020-02-09T10:19:21Z</time>
      </trkpt>
      <trkpt lat="43.73742" lon="6.7303">
        <ele>1189.3</ele>
        <time>2020-02-09T10:19:22Z</time>
      </trkpt>
      <trkpt lat="43.73743" lon="6.73035">
        <ele>1189.4</ele>
        <time>2020-02-09T10:19:24Z</time>
      </trkpt>
      <trkpt lat="43.73744" lon="6.73042">
        <ele>1189.6</ele>
        <time>2020-02-09T10:19:26Z</time>
      </trkpt>
      <trkpt lat="43.73746" lon="6.73053">
        <ele>1189.9</ele>
        <time>2020-02-09T10:19:29Z</time>
      </trkpt>
      <trkpt lat="43.73746" lon="6.73057">
        <ele>1190.1</ele>
        <time>2020-02-09T10:19:30Z</time>
      </trkpt>
      <trkpt lat="43.73747" lon="6.73067">
        <ele>1190.4</ele>
        <time>2020-02-09T10:19:32Z</time>
      </trkpt>
      <trkpt lat="43.73748" lon="6.73071">
        <ele>1190.6</ele>
        <time>2020-02-09T10:19:34Z</time>
      </trkpt>
      <trkpt lat="43.73749" lon="6.73074">
        <ele>1190.7</ele>
        <time>2020-02-09T10:19:35Z</time>
      </trkpt>
      <trkpt lat="43.73752" lon="6.73081">
        <ele>1190.9</ele>
        <time>2020-02-09T10:19:38Z</time>
      </trkpt>
      <trkpt lat="43.73754" lon="6.73083">
        <ele>1190.9</ele>
        <time>2020-02-09T10:19:39Z</time>
      </trkpt>
      <trkpt lat="43.73757" lon="6.73089">
        <ele>1191</ele>
        <time>2020-02-09T10:19:40Z</time>
      </trkpt>
      <trkpt lat="43.73758" lon="6.73093">
        <ele>1191</ele>
        <time>2020-02-09T10:19:41Z</time>
      </trkpt>
      <trkpt lat="43.7376" lon="6.73098">
        <ele>1190.9</ele>
        <time>2020-02-09T10:19:43Z</time>
      </trkpt>
      <trkpt lat="43.7376" lon="6.73103">
        <ele>1190.9</ele>
        <time>2020-02-09T10:19:46Z</time>
      </trkpt>
      <trkpt lat="43.73762" lon="6.73116">
        <ele>1190.8</ele>
        <time>2020-02-09T10:19:49Z</time>
      </trkpt>
      <trkpt lat="43.73763" lon="6.73126">
        <ele>1191.1</ele>
        <time>2020-02-09T10:19:50Z</time>
      </trkpt>
      <trkpt lat="43.73765" lon="6.73133">
        <ele>1191.3</ele>
        <time>2020-02-09T10:19:53Z</time>
      </trkpt>
      <trkpt lat="43.73765" lon="6.73143">
        <ele>1191.6</ele>
        <time>2020-02-09T10:19:55Z</time>
      </trkpt>
      <trkpt lat="43.73766" lon="6.73152">
        <ele>1191.8</ele>
        <time>2020-02-09T10:19:58Z</time>
      </trkpt>
      <trkpt lat="43.73766" lon="6.73163">
        <ele>1192.2</ele>
        <time>2020-02-09T10:20:02Z</time>
      </trkpt>
      <trkpt lat="43.73766" lon="6.73165">
        <ele>1192.3</ele>
        <time>2020-02-09T10:20:03Z</time>
      </trkpt>
      <trkpt lat="43.73765" lon="6.73172">
        <ele>1192.7</ele>
        <time>2020-02-09T10:20:04Z</time>
      </trkpt>
      <trkpt lat="43.73764" lon="6.73176">
        <ele>1192.9</ele>
        <time>2020-02-09T10:20:07Z</time>
      </trkpt>
      <trkpt lat="43.73764" lon="6.73184">
        <ele>1193.3</ele>
        <time>2020-02-09T10:20:08Z</time>
      </trkpt>
      <trkpt lat="43.73764" lon="6.73188">
        <ele>1193.6</ele>
        <time>2020-02-09T10:20:10Z</time>
      </trkpt>
      <trkpt lat="43.73764" lon="6.73195">
        <ele>1194</ele>
        <time>2020-02-09T10:20:14Z</time>
      </trkpt>
      <trkpt lat="43.73764" lon="6.73203">
        <ele>1194.4</ele>
        <time>2020-02-09T10:20:17Z</time>
      </trkpt>
      <trkpt lat="43.73764" lon="6.7321">
        <ele>1194.7</ele>
        <time>2020-02-09T10:20:19Z</time>
      </trkpt>
      <trkpt lat="43.73764" lon="6.73215">
        <ele>1194.9</ele>
        <time>2020-02-09T10:20:21Z</time>
      </trkpt>
      <trkpt lat="43.73765" lon="6.73221">
        <ele>1195.2</ele>
        <time>2020-02-09T10:20:22Z</time>
      </trkpt>
      <trkpt lat="43.73767" lon="6.73232">
        <ele>1195.6</ele>
        <time>2020-02-09T10:20:28Z</time>
      </trkpt>
      <trkpt lat="43.73767" lon="6.73243">
        <ele>1196.1</ele>
        <time>2020-02-09T10:20:32Z</time>
      </trkpt>
      <trkpt lat="43.73768" lon="6.7325">
        <ele>1196.4</ele>
        <time>2020-02-09T10:20:34Z</time>
      </trkpt>
      <trkpt lat="43.73768" lon="6.73261">
        <ele>1196.9</ele>
        <time>2020-02-09T10:20:38Z</time>
      </trkpt>
      <trkpt lat="43.73768" lon="6.73267">
        <ele>1197.1</ele>
        <time>2020-02-09T10:20:39Z</time>
      </trkpt>
      <trkpt lat="43.73768" lon="6.73272">
        <ele>1197.3</ele>
        <time>2020-02-09T10:20:41Z</time>
      </trkpt>
      <trkpt lat="43.73768" lon="6.73278">
        <ele>1197.6</ele>
        <time>2020-02-09T10:20:43Z</time>
      </trkpt>
      <trkpt lat="43.73768" lon="6.73289">
        <ele>1198.1</ele>
        <time>2020-02-09T10:20:46Z</time>
      </trkpt>
      <trkpt lat="43.73767" lon="6.73295">
        <ele>1198.4</ele>
        <time>2020-02-09T10:20:48Z</time>
      </trkpt>
      <trkpt lat="43.73767" lon="6.73304">
        <ele>1198.9</ele>
        <time>2020-02-09T10:20:51Z</time>
      </trkpt>
      <trkpt lat="43.73767" lon="6.73311">
        <ele>1199.4</ele>
        <time>2020-02-09T10:20:54Z</time>
      </trkpt>
      <trkpt lat="43.73768" lon="6.7332">
        <ele>1200</ele>
        <time>2020-02-09T10:20:55Z</time>
      </trkpt>
      <trkpt lat="43.73768" lon="6.73323">
        <ele>1200.3</ele>
        <time>2020-02-09T10:20:58Z</time>
      </trkpt>
      <trkpt lat="43.7377" lon="6.73332">
        <ele>1200.9</ele>
        <time>2020-02-09T10:21:01Z</time>
      </trkpt>
      <trkpt lat="43.7377" lon="6.73337">
        <ele>1201.2</ele>
        <time>2020-02-09T10:21:02Z</time>
      </trkpt>
      <trkpt lat="43.73771" lon="6.73341">
        <ele>1201.4</ele>
        <time>2020-02-09T10:21:03Z</time>
      </trkpt>
      <trkpt lat="43.73772" lon="6.73351">
        <ele>1202</ele>
        <time>2020-02-09T10:21:06Z</time>
      </trkpt>
      <trkpt lat="43.73773" lon="6.73354">
        <ele>1202.3</ele>
        <time>2020-02-09T10:21:10Z</time>
      </trkpt>
      <trkpt lat="43.73773" lon="6.73358">
        <ele>1202.5</ele>
        <time>2020-02-09T10:21:11Z</time>
      </trkpt>
      <trkpt lat="43.73772" lon="6.73364">
        <ele>1202.8</ele>
        <time>2020-02-09T10:21:14Z</time>
      </trkpt>
      <trkpt lat="43.73772" lon="6.73373">
        <ele>1203.4</ele>
        <time>2020-02-09T10:21:17Z</time>
      </trkpt>
      <trkpt lat="43.73772" lon="6.7338">
        <ele>1203.9</ele>
        <time>2020-02-09T10:21:19Z</time>
      </trkpt>
      <trkpt lat="43.73772" lon="6.73382">
        <ele>1204.1</ele>
        <time>2020-02-09T10:21:20Z</time>
      </trkpt>
      <trkpt lat="43.73772" lon="6.73387">
        <ele>1204.4</ele>
        <time>2020-02-09T10:21:22Z</time>
      </trkpt>
      <trkpt lat="43.73771" lon="6.73391">
        <ele>1204.7</ele>
        <time>2020-02-09T10:21:24Z</time>
      </trkpt>
      <trkpt lat="43.73771" lon="6.73396">
        <ele>1205</ele>
        <time>2020-02-09T10:21:26Z</time>
      </trkpt>
      <trkpt lat="43.7377" lon="6.73401">
        <ele>1205.3</ele>
        <time>2020-02-09T10:21:28Z</time>
      </trkpt>
      <trkpt lat="43.73769" lon="6.73407">
        <ele>1205.7</ele>
        <time>2020-02-09T10:21:31Z</time>
      </trkpt>
      <trkpt lat="43.73768" lon="6.73411">
        <ele>1205.9</ele>
        <time>2020-02-09T10:21:32Z</time>
      </trkpt>
      <trkpt lat="43.73767" lon="6.73418">
        <ele>1206.3</ele>
        <time>2020-02-09T10:21:33Z</time>
      </trkpt>
      <trkpt lat="43.73766" lon="6.73422">
        <ele>1206.5</ele>
        <time>2020-02-09T10:21:34Z</time>
      </trkpt>
      <trkpt lat="43.73764" lon="6.73428">
        <ele>1206.9</ele>
        <time>2020-02-09T10:21:38Z</time>
      </trkpt>
      <trkpt lat="43.73762" lon="6.73436">
        <ele>1207.4</ele>
        <time>2020-02-09T10:21:41Z</time>
      </trkpt>
      <trkpt lat="43.7376" lon="6.73441">
        <ele>1207.8</ele>
        <time>2020-02-09T10:21:43Z</time>
      </trkpt>
      <trkpt lat="43.73758" lon="6.73449">
        <ele>1208.3</ele>
        <time>2020-02-09T10:21:46Z</time>
      </trkpt>
      <trkpt lat="43.73757" lon="6.73454">
        <ele>1208.7</ele>
        <time>2020-02-09T10:21:47Z</time>
      </trkpt>
      <trkpt lat="43.73756" lon="6.73459">
        <ele>1209</ele>
        <time>2020-02-09T10:21:48Z</time>
      </trkpt>
      <trkpt lat="43.73755" lon="6.73464">
        <ele>1209.3</ele>
        <time>2020-02-09T10:21:51Z</time>
      </trkpt>
      <trkpt lat="43.73754" lon="6.73469">
        <ele>1209.7</ele>
        <time>2020-02-09T10:21:53Z</time>
      </trkpt>
      <trkpt lat="43.73751" lon="6.73479">
        <ele>1210.2</ele>
        <time>2020-02-09T10:21:57Z</time>
      </trkpt>
      <trkpt lat="43.7375" lon="6.73483">
        <ele>1210.4</ele>
        <time>2020-02-09T10:21:58Z</time>
      </trkpt>
      <trkpt lat="43.73749" lon="6.73489">
        <ele>1210.7</ele>
        <time>2020-02-09T10:21:59Z</time>
      </trkpt>
      <trkpt lat="43.73748" lon="6.73494">
        <ele>1210.8</ele>
        <time>2020-02-09T10:22:02Z</time>
      </trkpt>
      <trkpt lat="43.73747" lon="6.735">
        <ele>1211.1</ele>
        <time>2020-02-09T10:22:03Z</time>
      </trkpt>
      <trkpt lat="43.73746" lon="6.73505">
        <ele>1211.3</ele>
        <time>2020-02-09T10:22:06Z</time>
      </trkpt>
      <trkpt lat="43.73746" lon="6.73512">
        <ele>1211.7</ele>
        <time>2020-02-09T10:22:08Z</time>
      </trkpt>
      <trkpt lat="43.73745" lon="6.73518">
        <ele>1212</ele>
        <time>2020-02-09T10:22:11Z</time>
      </trkpt>
      <trkpt lat="43.73745" lon="6.73525">
        <ele>1212.5</ele>
        <time>2020-02-09T10:22:13Z</time>
      </trkpt>
      <trkpt lat="43.73745" lon="6.73531">
        <ele>1213</ele>
        <time>2020-02-09T10:22:15Z</time>
      </trkpt>
      <trkpt lat="43.73744" lon="6.73538">
        <ele>1213.6</ele>
        <time>2020-02-09T10:22:18Z</time>
      </trkpt>
      <trkpt lat="43.73743" lon="6.73549">
        <ele>1214.4</ele>
        <time>2020-02-09T10:22:20Z</time>
      </trkpt>
      <trkpt lat="43.73742" lon="6.73553">
        <ele>1214.9</ele>
        <time>2020-02-09T10:22:23Z</time>
      </trkpt>
      <trkpt lat="43.7374" lon="6.7356">
        <ele>1215.5</ele>
        <time>2020-02-09T10:22:26Z</time>
      </trkpt>
      <trkpt lat="43.73738" lon="6.73569">
        <ele>1216.3</ele>
        <time>2020-02-09T10:22:29Z</time>
      </trkpt>
      <trkpt lat="43.73739" lon="6.73573">
        <ele>1216.7</ele>
        <time>2020-02-09T10:22:33Z</time>
      </trkpt>
      <trkpt lat="43.7374" lon="6.73582">
        <ele>1217.5</ele>
        <time>2020-02-09T10:22:36Z</time>
      </trkpt>
      <trkpt lat="43.73741" lon="6.73589">
        <ele>1218.1</ele>
        <time>2020-02-09T10:22:37Z</time>
      </trkpt>
      <trkpt lat="43.73742" lon="6.73595">
        <ele>1218.6</ele>
        <time>2020-02-09T10:22:39Z</time>
      </trkpt>
      <trkpt lat="43.73743" lon="6.73599">
        <ele>1219</ele>
        <time>2020-02-09T10:22:42Z</time>
      </trkpt>
      <trkpt lat="43.73746" lon="6.73606">
        <ele>1219.8</ele>
        <time>2020-02-09T10:22:46Z</time>
      </trkpt>
      <trkpt lat="43.73751" lon="6.73613">
        <ele>1220.7</ele>
        <time>2020-02-09T10:22:48Z</time>
      </trkpt>
      <trkpt lat="43.73754" lon="6.73618">
        <ele>1221.2</ele>
        <time>2020-02-09T10:22:53Z</time>
      </trkpt>
      <trkpt lat="43.73755" lon="6.73621">
        <ele>1221.6</ele>
        <time>2020-02-09T10:22:56Z</time>
      </trkpt>
      <trkpt lat="43.73757" lon="6.7363">
        <ele>1222.5</ele>
        <time>2020-02-09T10:22:58Z</time>
      </trkpt>
      <trkpt lat="43.73758" lon="6.73636">
        <ele>1223.1</ele>
        <time>2020-02-09T10:23:02Z</time>
      </trkpt>
      <trkpt lat="43.73759" lon="6.73641">
        <ele>1223.6</ele>
        <time>2020-02-09T10:23:03Z</time>
      </trkpt>
      <trkpt lat="43.7376" lon="6.73645">
        <ele>1224</ele>
        <time>2020-02-09T10:23:05Z</time>
      </trkpt>
      <trkpt lat="43.73761" lon="6.73651">
        <ele>1224.6</ele>
        <time>2020-02-09T10:23:09Z</time>
      </trkpt>
      <trkpt lat="43.73761" lon="6.73662">
        <ele>1225.8</ele>
        <time>2020-02-09T10:23:13Z</time>
      </trkpt>
      <trkpt lat="43.73761" lon="6.73667">
        <ele>1226.3</ele>
        <time>2020-02-09T10:23:15Z</time>
      </trkpt>
      <trkpt lat="43.73761" lon="6.73672">
        <ele>1226.8</ele>
        <time>2020-02-09T10:23:18Z</time>
      </trkpt>
      <trkpt lat="43.73762" lon="6.73677">
        <ele>1227.3</ele>
        <time>2020-02-09T10:23:19Z</time>
      </trkpt>
      <trkpt lat="43.73763" lon="6.73683">
        <ele>1227.9</ele>
        <time>2020-02-09T10:23:23Z</time>
      </trkpt>
      <trkpt lat="43.73763" lon="6.73688">
        <ele>1228.4</ele>
        <time>2020-02-09T10:23:26Z</time>
      </trkpt>
      <trkpt lat="43.73764" lon="6.73692">
        <ele>1228.8</ele>
        <time>2020-02-09T10:23:28Z</time>
      </trkpt>
      <trkpt lat="43.73764" lon="6.73698">
        <ele>1229.3</ele>
        <time>2020-02-09T10:23:31Z</time>
      </trkpt>
      <trkpt lat="43.73764" lon="6.73701">
        <ele>1229.7</ele>
        <time>2020-02-09T10:23:34Z</time>
      </trkpt>
      <trkpt lat="43.73765" lon="6.73706">
        <ele>1230</ele>
        <time>2020-02-09T10:23:36Z</time>
      </trkpt>
      <trkpt lat="43.73765" lon="6.73709">
        <ele>1230.3</ele>
        <time>2020-02-09T10:23:39Z</time>
      </trkpt>
      <trkpt lat="43.73766" lon="6.73713">
        <ele>1230.7</ele>
        <time>2020-02-09T10:23:41Z</time>
      </trkpt>
      <trkpt lat="43.73766" lon="6.7372">
        <ele>1231.2</ele>
        <time>2020-02-09T10:23:42Z</time>
      </trkpt>
      <trkpt lat="43.73766" lon="6.73723">
        <ele>1231.4</ele>
        <time>2020-02-09T10:23:44Z</time>
      </trkpt>
      <trkpt lat="43.73767" lon="6.73728">
        <ele>1231.8</ele>
        <time>2020-02-09T10:23:46Z</time>
      </trkpt>
      <trkpt lat="43.73766" lon="6.73739">
        <ele>1232.5</ele>
        <time>2020-02-09T10:23:49Z</time>
      </trkpt>
      <trkpt lat="43.73765" lon="6.73743">
        <ele>1232.6</ele>
        <time>2020-02-09T10:23:51Z</time>
      </trkpt>
      <trkpt lat="43.7376" lon="6.73744">
        <ele>1232.8</ele>
        <time>2020-02-09T10:23:55Z</time>
      </trkpt>
      <trkpt lat="43.73756" lon="6.73741">
        <ele>1233</ele>
        <time>2020-02-09T10:23:57Z</time>
      </trkpt>
      <trkpt lat="43.7375" lon="6.73736">
        <ele>1233.1</ele>
        <time>2020-02-09T10:24:01Z</time>
      </trkpt>
      <trkpt lat="43.73747" lon="6.73734">
        <ele>1233.2</ele>
        <time>2020-02-09T10:24:03Z</time>
      </trkpt>
      <trkpt lat="43.73744" lon="6.73732">
        <ele>1233.2</ele>
        <time>2020-02-09T10:24:04Z</time>
      </trkpt>
      <trkpt lat="43.73739" lon="6.7373">
        <ele>1233.3</ele>
        <time>2020-02-09T10:24:06Z</time>
      </trkpt>
      <trkpt lat="43.73734" lon="6.73728">
        <ele>1233.3</ele>
        <time>2020-02-09T10:24:08Z</time>
      </trkpt>
      <trkpt lat="43.73731" lon="6.73727">
        <ele>1233.3</ele>
        <time>2020-02-09T10:24:10Z</time>
      </trkpt>
      <trkpt lat="43.73728" lon="6.73726">
        <ele>1233.3</ele>
        <time>2020-02-09T10:24:13Z</time>
      </trkpt>
      <trkpt lat="43.73722" lon="6.73724">
        <ele>1233.2</ele>
        <time>2020-02-09T10:24:15Z</time>
      </trkpt>
      <trkpt lat="43.73719" lon="6.73722">
        <ele>1233.2</ele>
        <time>2020-02-09T10:24:18Z</time>
      </trkpt>
      <trkpt lat="43.73712" lon="6.73716">
        <ele>1233.1</ele>
        <time>2020-02-09T10:24:20Z</time>
      </trkpt>
      <trkpt lat="43.73708" lon="6.73713">
        <ele>1233</ele>
        <time>2020-02-09T10:24:22Z</time>
      </trkpt>
      <trkpt lat="43.73704" lon="6.73708">
        <ele>1233</ele>
        <time>2020-02-09T10:24:25Z</time>
      </trkpt>
      <trkpt lat="43.73696" lon="6.73702">
        <ele>1233</ele>
        <time>2020-02-09T10:24:30Z</time>
      </trkpt>
      <trkpt lat="43.73693" lon="6.73699">
        <ele>1233.1</ele>
        <time>2020-02-09T10:24:32Z</time>
      </trkpt>
      <trkpt lat="43.73689" lon="6.73697">
        <ele>1233.2</ele>
        <time>2020-02-09T10:24:34Z</time>
      </trkpt>
      <trkpt lat="43.73685" lon="6.73696">
        <ele>1233.3</ele>
        <time>2020-02-09T10:24:37Z</time>
      </trkpt>
      <trkpt lat="43.73682" lon="6.73693">
        <ele>1233.5</ele>
        <time>2020-02-09T10:24:39Z</time>
      </trkpt>
      <trkpt lat="43.73679" lon="6.73691">
        <ele>1233.6</ele>
        <time>2020-02-09T10:24:41Z</time>
      </trkpt>
      <trkpt lat="43.73674" lon="6.73688">
        <ele>1233.8</ele>
        <time>2020-02-09T10:24:44Z</time>
      </trkpt>
      <trkpt lat="43.73673" lon="6.73688">
        <ele>1233.8</ele>
        <time>2020-02-09T10:24:45Z</time>
      </trkpt>
      <trkpt lat="43.73668" lon="6.73686">
        <ele>1234</ele>
        <time>2020-02-09T10:24:48Z</time>
      </trkpt>
      <trkpt lat="43.73663" lon="6.73685">
        <ele>1234.1</ele>
        <time>2020-02-09T10:24:50Z</time>
      </trkpt>
      <trkpt lat="43.73653" lon="6.73682">
        <ele>1234.1</ele>
        <time>2020-02-09T10:24:53Z</time>
      </trkpt>
      <trkpt lat="43.7365" lon="6.73681">
        <ele>1234</ele>
        <time>2020-02-09T10:24:56Z</time>
      </trkpt>
      <trkpt lat="43.73647" lon="6.7368">
        <ele>1234</ele>
        <time>2020-02-09T10:24:57Z</time>
      </trkpt>
      <trkpt lat="43.73638" lon="6.73671">
        <ele>1234.3</ele>
        <time>2020-02-09T10:25:00Z</time>
      </trkpt>
      <trkpt lat="43.73631" lon="6.73662">
        <ele>1235</ele>
        <time>2020-02-09T10:25:03Z</time>
      </trkpt>
      <trkpt lat="43.73629" lon="6.73659">
        <ele>1235.2</ele>
        <time>2020-02-09T10:25:04Z</time>
      </trkpt>
      <trkpt lat="43.73625" lon="6.73654">
        <ele>1235.5</ele>
        <time>2020-02-09T10:25:06Z</time>
      </trkpt>
      <trkpt lat="43.73619" lon="6.73645">
        <ele>1235.9</ele>
        <time>2020-02-09T10:25:09Z</time>
      </trkpt>
      <trkpt lat="43.73613" lon="6.73633">
        <ele>1236.4</ele>
        <time>2020-02-09T10:25:11Z</time>
      </trkpt>
      <trkpt lat="43.73611" lon="6.73628">
        <ele>1236.5</ele>
        <time>2020-02-09T10:25:14Z</time>
      </trkpt>
      <trkpt lat="43.73609" lon="6.73624">
        <ele>1236.7</ele>
        <time>2020-02-09T10:25:15Z</time>
      </trkpt>
      <trkpt lat="43.73604" lon="6.73613">
        <ele>1237</ele>
        <time>2020-02-09T10:25:18Z</time>
      </trkpt>
      <trkpt lat="43.73601" lon="6.73606">
        <ele>1237.2</ele>
        <time>2020-02-09T10:25:20Z</time>
      </trkpt>
      <trkpt lat="43.73597" lon="6.73599">
        <ele>1237.5</ele>
        <time>2020-02-09T10:25:23Z</time>
      </trkpt>
      <trkpt lat="43.73596" lon="6.73595">
        <ele>1237.6</ele>
        <time>2020-02-09T10:25:24Z</time>
      </trkpt>
      <trkpt lat="43.73588" lon="6.73584">
        <ele>1238.1</ele>
        <time>2020-02-09T10:25:28Z</time>
      </trkpt>
      <trkpt lat="43.73582" lon="6.73575">
        <ele>1238.4</ele>
        <time>2020-02-09T10:25:31Z</time>
      </trkpt>
      <trkpt lat="43.73576" lon="6.73564">
        <ele>1238.7</ele>
        <time>2020-02-09T10:25:32Z</time>
      </trkpt>
      <trkpt lat="43.73572" lon="6.73555">
        <ele>1238.9</ele>
        <time>2020-02-09T10:25:35Z</time>
      </trkpt>
      <trkpt lat="43.73571" lon="6.73551">
        <ele>1239</ele>
        <time>2020-02-09T10:25:36Z</time>
      </trkpt>
      <trkpt lat="43.73569" lon="6.73545">
        <ele>1239.2</ele>
        <time>2020-02-09T10:25:39Z</time>
      </trkpt>
      <trkpt lat="43.73567" lon="6.73541">
        <ele>1239.4</ele>
        <time>2020-02-09T10:25:40Z</time>
      </trkpt>
      <trkpt lat="43.73566" lon="6.73537">
        <ele>1239.5</ele>
        <time>2020-02-09T10:25:41Z</time>
      </trkpt>
      <trkpt lat="43.73565" lon="6.73533">
        <ele>1239.7</ele>
        <time>2020-02-09T10:25:42Z</time>
      </trkpt>
      <trkpt lat="43.73562" lon="6.73524">
        <ele>1240.1</ele>
        <time>2020-02-09T10:25:43Z</time>
      </trkpt>
      <trkpt lat="43.73559" lon="6.73516">
        <ele>1240.5</ele>
        <time>2020-02-09T10:25:46Z</time>
      </trkpt>
      <trkpt lat="43.73556" lon="6.73508">
        <ele>1241</ele>
        <time>2020-02-09T10:25:47Z</time>
      </trkpt>
      <trkpt lat="43.73553" lon="6.73497">
        <ele>1241.7</ele>
        <time>2020-02-09T10:25:50Z</time>
      </trkpt>
      <trkpt lat="43.73552" lon="6.73493">
        <ele>1242</ele>
        <time>2020-02-09T10:25:51Z</time>
      </trkpt>
      <trkpt lat="43.73551" lon="6.73489">
        <ele>1242.3</ele>
        <time>2020-02-09T10:25:54Z</time>
      </trkpt>
      <trkpt lat="43.7355" lon="6.73485">
        <ele>1242.5</ele>
        <time>2020-02-09T10:25:55Z</time>
      </trkpt>
      <trkpt lat="43.73545" lon="6.73474">
        <ele>1243.4</ele>
        <time>2020-02-09T10:25:58Z</time>
      </trkpt>
      <trkpt lat="43.73543" lon="6.73468">
        <ele>1243.8</ele>
        <time>2020-02-09T10:26:00Z</time>
      </trkpt>
      <trkpt lat="43.73538" lon="6.73458">
        <ele>1244.1</ele>
        <time>2020-02-09T10:26:03Z</time>
      </trkpt>
      <trkpt lat="43.73537" lon="6.73455">
        <ele>1244.1</ele>
        <time>2020-02-09T10:26:04Z</time>
      </trkpt>
      <trkpt lat="43.73534" lon="6.73445">
        <ele>1244.2</ele>
        <time>2020-02-09T10:26:07Z</time>
      </trkpt>
      <trkpt lat="43.73532" lon="6.7344">
        <ele>1244.2</ele>
        <time>2020-02-09T10:26:08Z</time>
      </trkpt>
      <trkpt lat="43.73531" lon="6.73435">
        <ele>1244.3</ele>
        <time>2020-02-09T10:26:10Z</time>
      </trkpt>
      <trkpt lat="43.73529" lon="6.73425">
        <ele>1244.5</ele>
        <time>2020-02-09T10:26:13Z</time>
      </trkpt>
      <trkpt lat="43.73529" lon="6.73417">
        <ele>1244.7</ele>
        <time>2020-02-09T10:26:16Z</time>
      </trkpt>
      <trkpt lat="43.73525" lon="6.73404">
        <ele>1245</ele>
        <time>2020-02-09T10:26:19Z</time>
      </trkpt>
      <trkpt lat="43.73524" lon="6.734">
        <ele>1245.1</ele>
        <time>2020-02-09T10:26:20Z</time>
      </trkpt>
      <trkpt lat="43.73522" lon="6.73396">
        <ele>1245.1</ele>
        <time>2020-02-09T10:26:21Z</time>
      </trkpt>
      <trkpt lat="43.73521" lon="6.73393">
        <ele>1245.2</ele>
        <time>2020-02-09T10:26:22Z</time>
      </trkpt>
      <trkpt lat="43.73517" lon="6.73385">
        <ele>1245.4</ele>
        <time>2020-02-09T10:26:23Z</time>
      </trkpt>
      <trkpt lat="43.73515" lon="6.73381">
        <ele>1245.5</ele>
        <time>2020-02-09T10:26:25Z</time>
      </trkpt>
      <trkpt lat="43.73512" lon="6.73375">
        <ele>1245.7</ele>
        <time>2020-02-09T10:26:26Z</time>
      </trkpt>
      <trkpt lat="43.7351" lon="6.7337">
        <ele>1245.8</ele>
        <time>2020-02-09T10:26:28Z</time>
      </trkpt>
      <trkpt lat="43.73508" lon="6.73366">
        <ele>1245.9</ele>
        <time>2020-02-09T10:26:29Z</time>
      </trkpt>
      <trkpt lat="43.73506" lon="6.73363">
        <ele>1246</ele>
        <time>2020-02-09T10:26:30Z</time>
      </trkpt>
      <trkpt lat="43.73503" lon="6.73357">
        <ele>1246.1</ele>
        <time>2020-02-09T10:26:32Z</time>
      </trkpt>
      <trkpt lat="43.73501" lon="6.73351">
        <ele>1246.3</ele>
        <time>2020-02-09T10:26:33Z</time>
      </trkpt>
      <trkpt lat="43.73499" lon="6.73341">
        <ele>1246.5</ele>
        <time>2020-02-09T10:26:36Z</time>
      </trkpt>
      <trkpt lat="43.73496" lon="6.73334">
        <ele>1246.7</ele>
        <time>2020-02-09T10:26:37Z</time>
      </trkpt>
      <trkpt lat="43.73493" lon="6.73323">
        <ele>1247</ele>
        <time>2020-02-09T10:26:40Z</time>
      </trkpt>
      <trkpt lat="43.73492" lon="6.73319">
        <ele>1247.1</ele>
        <time>2020-02-09T10:26:41Z</time>
      </trkpt>
      <trkpt lat="43.73488" lon="6.73306">
        <ele>1247.6</ele>
        <time>2020-02-09T10:26:43Z</time>
      </trkpt>
      <trkpt lat="43.73486" lon="6.73301">
        <ele>1247.8</ele>
        <time>2020-02-09T10:26:46Z</time>
      </trkpt>
      <trkpt lat="43.73483" lon="6.73289">
        <ele>1248.4</ele>
        <time>2020-02-09T10:26:49Z</time>
      </trkpt>
      <trkpt lat="43.73481" lon="6.73279">
        <ele>1248.8</ele>
        <time>2020-02-09T10:26:52Z</time>
      </trkpt>
      <trkpt lat="43.73481" lon="6.73269">
        <ele>1249.2</ele>
        <time>2020-02-09T10:26:55Z</time>
      </trkpt>
      <trkpt lat="43.7348" lon="6.73266">
        <ele>1249.3</ele>
        <time>2020-02-09T10:26:56Z</time>
      </trkpt>
      <trkpt lat="43.73478" lon="6.73255">
        <ele>1249.6</ele>
        <time>2020-02-09T10:26:59Z</time>
      </trkpt>
      <trkpt lat="43.73476" lon="6.73244">
        <ele>1250</ele>
        <time>2020-02-09T10:27:02Z</time>
      </trkpt>
      <trkpt lat="43.73475" lon="6.7324">
        <ele>1250.1</ele>
        <time>2020-02-09T10:27:03Z</time>
      </trkpt>
      <trkpt lat="43.73474" lon="6.73236">
        <ele>1250.2</ele>
        <time>2020-02-09T10:27:04Z</time>
      </trkpt>
      <trkpt lat="43.73472" lon="6.73228">
        <ele>1250.5</ele>
        <time>2020-02-09T10:27:05Z</time>
      </trkpt>
      <trkpt lat="43.73471" lon="6.73222">
        <ele>1250.7</ele>
        <time>2020-02-09T10:27:09Z</time>
      </trkpt>
      <trkpt lat="43.73469" lon="6.73219">
        <ele>1250.8</ele>
        <time>2020-02-09T10:27:10Z</time>
      </trkpt>
      <trkpt lat="43.73467" lon="6.73216">
        <ele>1250.9</ele>
        <time>2020-02-09T10:27:11Z</time>
      </trkpt>
      <trkpt lat="43.73465" lon="6.73212">
        <ele>1251</ele>
        <time>2020-02-09T10:27:12Z</time>
      </trkpt>
      <trkpt lat="43.73463" lon="6.73206">
        <ele>1251.2</ele>
        <time>2020-02-09T10:27:13Z</time>
      </trkpt>
      <trkpt lat="43.73461" lon="6.73202">
        <ele>1251.3</ele>
        <time>2020-02-09T10:27:15Z</time>
      </trkpt>
      <trkpt lat="43.7346" lon="6.73199">
        <ele>1251.3</ele>
        <time>2020-02-09T10:27:16Z</time>
      </trkpt>
      <trkpt lat="43.73457" lon="6.73189">
        <ele>1251.5</ele>
        <time>2020-02-09T10:27:17Z</time>
      </trkpt>
      <trkpt lat="43.73455" lon="6.73182">
        <ele>1251.6</ele>
        <time>2020-02-09T10:27:20Z</time>
      </trkpt>
      <trkpt lat="43.73452" lon="6.7317">
        <ele>1251.9</ele>
        <time>2020-02-09T10:27:21Z</time>
      </trkpt>
      <trkpt lat="43.73451" lon="6.73163">
        <ele>1252.1</ele>
        <time>2020-02-09T10:27:24Z</time>
      </trkpt>
      <trkpt lat="43.73449" lon="6.7316">
        <ele>1252.2</ele>
        <time>2020-02-09T10:27:25Z</time>
      </trkpt>
      <trkpt lat="43.73445" lon="6.73151">
        <ele>1252.6</ele>
        <time>2020-02-09T10:27:27Z</time>
      </trkpt>
      <trkpt lat="43.73442" lon="6.73147">
        <ele>1252.8</ele>
        <time>2020-02-09T10:27:30Z</time>
      </trkpt>
      <trkpt lat="43.73437" lon="6.7314">
        <ele>1253.2</ele>
        <time>2020-02-09T10:27:33Z</time>
      </trkpt>
      <trkpt lat="43.73435" lon="6.73137">
        <ele>1253.4</ele>
        <time>2020-02-09T10:27:34Z</time>
      </trkpt>
      <trkpt lat="43.73431" lon="6.7313">
        <ele>1253.8</ele>
        <time>2020-02-09T10:27:35Z</time>
      </trkpt>
      <trkpt lat="43.73428" lon="6.73126">
        <ele>1254.1</ele>
        <time>2020-02-09T10:27:36Z</time>
      </trkpt>
      <trkpt lat="43.73425" lon="6.73123">
        <ele>1254.3</ele>
        <time>2020-02-09T10:27:38Z</time>
      </trkpt>
      <trkpt lat="43.73419" lon="6.73113">
        <ele>1254.9</ele>
        <time>2020-02-09T10:27:41Z</time>
      </trkpt>
      <trkpt lat="43.73416" lon="6.7311">
        <ele>1255.1</ele>
        <time>2020-02-09T10:27:42Z</time>
      </trkpt>
      <trkpt lat="43.73414" lon="6.73107">
        <ele>1255.3</ele>
        <time>2020-02-09T10:27:43Z</time>
      </trkpt>
      <trkpt lat="43.73411" lon="6.73101">
        <ele>1255.6</ele>
        <time>2020-02-09T10:27:44Z</time>
      </trkpt>
      <trkpt lat="43.73407" lon="6.73097">
        <ele>1255.8</ele>
        <time>2020-02-09T10:27:47Z</time>
      </trkpt>
      <trkpt lat="43.73403" lon="6.73089">
        <ele>1256.1</ele>
        <time>2020-02-09T10:27:50Z</time>
      </trkpt>
      <trkpt lat="43.73401" lon="6.73085">
        <ele>1256.3</ele>
        <time>2020-02-09T10:27:51Z</time>
      </trkpt>
      <trkpt lat="43.73397" lon="6.73074">
        <ele>1256.6</ele>
        <time>2020-02-09T10:27:53Z</time>
      </trkpt>
      <trkpt lat="43.73395" lon="6.73068">
        <ele>1256.9</ele>
        <time>2020-02-09T10:27:55Z</time>
      </trkpt>
      <trkpt lat="43.73392" lon="6.73062">
        <ele>1257.1</ele>
        <time>2020-02-09T10:27:58Z</time>
      </trkpt>
      <trkpt lat="43.73389" lon="6.73058">
        <ele>1257.3</ele>
        <time>2020-02-09T10:27:59Z</time>
      </trkpt>
      <trkpt lat="43.73385" lon="6.73052">
        <ele>1257.5</ele>
        <time>2020-02-09T10:28:00Z</time>
      </trkpt>
      <trkpt lat="43.73383" lon="6.73048">
        <ele>1257.6</ele>
        <time>2020-02-09T10:28:02Z</time>
      </trkpt>
      <trkpt lat="43.7338" lon="6.73044">
        <ele>1257.8</ele>
        <time>2020-02-09T10:28:03Z</time>
      </trkpt>
      <trkpt lat="43.73375" lon="6.73038">
        <ele>1258</ele>
        <time>2020-02-09T10:28:06Z</time>
      </trkpt>
      <trkpt lat="43.73372" lon="6.73035">
        <ele>1258.1</ele>
        <time>2020-02-09T10:28:07Z</time>
      </trkpt>
      <trkpt lat="43.73367" lon="6.7303">
        <ele>1258.2</ele>
        <time>2020-02-09T10:28:10Z</time>
      </trkpt>
      <trkpt lat="43.73362" lon="6.73024">
        <ele>1258.3</ele>
        <time>2020-02-09T10:28:13Z</time>
      </trkpt>
      <trkpt lat="43.73358" lon="6.73021">
        <ele>1258.2</ele>
        <time>2020-02-09T10:28:14Z</time>
      </trkpt>
      <trkpt lat="43.73356" lon="6.73018">
        <ele>1258.2</ele>
        <time>2020-02-09T10:28:15Z</time>
      </trkpt>
      <trkpt lat="43.73351" lon="6.73011">
        <ele>1258.1</ele>
        <time>2020-02-09T10:28:16Z</time>
      </trkpt>
      <trkpt lat="43.73348" lon="6.73008">
        <ele>1258</ele>
        <time>2020-02-09T10:28:19Z</time>
      </trkpt>
      <trkpt lat="43.73345" lon="6.73005">
        <ele>1258</ele>
        <time>2020-02-09T10:28:20Z</time>
      </trkpt>
      <trkpt lat="43.73336" lon="6.73">
        <ele>1257.9</ele>
        <time>2020-02-09T10:28:23Z</time>
      </trkpt>
      <trkpt lat="43.73327" lon="6.72996">
        <ele>1257.9</ele>
        <time>2020-02-09T10:28:26Z</time>
      </trkpt>
      <trkpt lat="43.73321" lon="6.72994">
        <ele>1257.8</ele>
        <time>2020-02-09T10:28:28Z</time>
      </trkpt>
      <trkpt lat="43.73317" lon="6.72994">
        <ele>1257.8</ele>
        <time>2020-02-09T10:28:29Z</time>
      </trkpt>
      <trkpt lat="43.73313" lon="6.72993">
        <ele>1257.7</ele>
        <time>2020-02-09T10:28:30Z</time>
      </trkpt>
      <trkpt lat="43.73301" lon="6.72992">
        <ele>1257.4</ele>
        <time>2020-02-09T10:28:33Z</time>
      </trkpt>
      <trkpt lat="43.73297" lon="6.72992">
        <ele>1257.1</ele>
        <time>2020-02-09T10:28:34Z</time>
      </trkpt>
      <trkpt lat="43.73286" lon="6.7299">
        <ele>1256.6</ele>
        <time>2020-02-09T10:28:35Z</time>
      </trkpt>
      <trkpt lat="43.7328" lon="6.72989">
        <ele>1256.3</ele>
        <time>2020-02-09T10:28:38Z</time>
      </trkpt>
      <trkpt lat="43.73272" lon="6.72988">
        <ele>1256.1</ele>
        <time>2020-02-09T10:28:39Z</time>
      </trkpt>
      <trkpt lat="43.73258" lon="6.72986">
        <ele>1255.7</ele>
        <time>2020-02-09T10:28:41Z</time>
      </trkpt>
      <trkpt lat="43.73252" lon="6.72986">
        <ele>1255.7</ele>
        <time>2020-02-09T10:28:42Z</time>
      </trkpt>
      <trkpt lat="43.73245" lon="6.72985">
        <ele>1255.7</ele>
        <time>2020-02-09T10:28:45Z</time>
      </trkpt>
      <trkpt lat="43.7324" lon="6.72986">
        <ele>1255.7</ele>
        <time>2020-02-09T10:28:46Z</time>
      </trkpt>
      <trkpt lat="43.73227" lon="6.72988">
        <ele>1255.7</ele>
        <time>2020-02-09T10:28:49Z</time>
      </trkpt>
      <trkpt lat="43.73222" lon="6.72989">
        <ele>1255.6</ele>
        <time>2020-02-09T10:28:50Z</time>
      </trkpt>
      <trkpt lat="43.7321" lon="6.72991">
        <ele>1255.3</ele>
        <time>2020-02-09T10:28:51Z</time>
      </trkpt>
      <trkpt lat="43.73202" lon="6.72992">
        <ele>1255.1</ele>
        <time>2020-02-09T10:28:54Z</time>
      </trkpt>
      <trkpt lat="43.73198" lon="6.72993">
        <ele>1255.1</ele>
        <time>2020-02-09T10:28:55Z</time>
      </trkpt>
      <trkpt lat="43.73193" lon="6.72996">
        <ele>1254.9</ele>
        <time>2020-02-09T10:28:57Z</time>
      </trkpt>
      <trkpt lat="43.73189" lon="6.72999">
        <ele>1254.8</ele>
        <time>2020-02-09T10:28:58Z</time>
      </trkpt>
      <trkpt lat="43.73183" lon="6.73006">
        <ele>1254.6</ele>
        <time>2020-02-09T10:28:59Z</time>
      </trkpt>
      <trkpt lat="43.73174" lon="6.73016">
        <ele>1254.3</ele>
        <time>2020-02-09T10:29:02Z</time>
      </trkpt>
      <trkpt lat="43.73157" lon="6.7302">
        <ele>1253.9</ele>
        <time>2020-02-09T10:29:05Z</time>
      </trkpt>
      <trkpt lat="43.73152" lon="6.7302">
        <ele>1253.8</ele>
        <time>2020-02-09T10:29:06Z</time>
      </trkpt>
      <trkpt lat="43.73145" lon="6.73019">
        <ele>1253.7</ele>
        <time>2020-02-09T10:29:08Z</time>
      </trkpt>
      <trkpt lat="43.73139" lon="6.73018">
        <ele>1253.6</ele>
        <time>2020-02-09T10:29:09Z</time>
      </trkpt>
      <trkpt lat="43.7313" lon="6.73021">
        <ele>1253.4</ele>
        <time>2020-02-09T10:29:12Z</time>
      </trkpt>
      <trkpt lat="43.73126" lon="6.73025">
        <ele>1253.3</ele>
        <time>2020-02-09T10:29:13Z</time>
      </trkpt>
      <trkpt lat="43.73121" lon="6.7303">
        <ele>1253</ele>
        <time>2020-02-09T10:29:15Z</time>
      </trkpt>
      <trkpt lat="43.73111" lon="6.73041">
        <ele>1252.5</ele>
        <time>2020-02-09T10:29:18Z</time>
      </trkpt>
      <trkpt lat="43.73107" lon="6.73046">
        <ele>1252.3</ele>
        <time>2020-02-09T10:29:19Z</time>
      </trkpt>
      <trkpt lat="43.73102" lon="6.73054">
        <ele>1252</ele>
        <time>2020-02-09T10:29:20Z</time>
      </trkpt>
      <trkpt lat="43.73097" lon="6.73069">
        <ele>1251.9</ele>
        <time>2020-02-09T10:29:23Z</time>
      </trkpt>
      <trkpt lat="43.73093" lon="6.73075">
        <ele>1251.9</ele>
        <time>2020-02-09T10:29:24Z</time>
      </trkpt>
      <trkpt lat="43.7309" lon="6.73081">
        <ele>1251.9</ele>
        <time>2020-02-09T10:29:25Z</time>
      </trkpt>
      <trkpt lat="43.73086" lon="6.73092">
        <ele>1252</ele>
        <time>2020-02-09T10:29:27Z</time>
      </trkpt>
      <trkpt lat="43.7308" lon="6.73111">
        <ele>1252.2</ele>
        <time>2020-02-09T10:29:29Z</time>
      </trkpt>
      <trkpt lat="43.73078" lon="6.73123">
        <ele>1252.4</ele>
        <time>2020-02-09T10:29:32Z</time>
      </trkpt>
      <trkpt lat="43.73075" lon="6.73142">
        <ele>1253</ele>
        <time>2020-02-09T10:29:35Z</time>
      </trkpt>
      <trkpt lat="43.73076" lon="6.73154">
        <ele>1253.5</ele>
        <time>2020-02-09T10:29:37Z</time>
      </trkpt>
      <trkpt lat="43.73075" lon="6.73164">
        <ele>1254</ele>
        <time>2020-02-09T10:29:38Z</time>
      </trkpt>
      <trkpt lat="43.7307" lon="6.73172">
        <ele>1254.4</ele>
        <time>2020-02-09T10:29:41Z</time>
      </trkpt>
      <trkpt lat="43.73066" lon="6.73174">
        <ele>1254.5</ele>
        <time>2020-02-09T10:29:42Z</time>
      </trkpt>
      <trkpt lat="43.73063" lon="6.73175">
        <ele>1254.7</ele>
        <time>2020-02-09T10:29:43Z</time>
      </trkpt>
      <trkpt lat="43.73055" lon="6.73178">
        <ele>1255</ele>
        <time>2020-02-09T10:29:46Z</time>
      </trkpt>
      <trkpt lat="43.73052" lon="6.73179">
        <ele>1255.1</ele>
        <time>2020-02-09T10:29:47Z</time>
      </trkpt>
      <trkpt lat="43.73048" lon="6.73181">
        <ele>1255.3</ele>
        <time>2020-02-09T10:29:48Z</time>
      </trkpt>
      <trkpt lat="43.73041" lon="6.73185">
        <ele>1255.6</ele>
        <time>2020-02-09T10:29:51Z</time>
      </trkpt>
      <trkpt lat="43.73037" lon="6.73189">
        <ele>1255.9</ele>
        <time>2020-02-09T10:29:52Z</time>
      </trkpt>
      <trkpt lat="43.73028" lon="6.73199">
        <ele>1256.5</ele>
        <time>2020-02-09T10:29:56Z</time>
      </trkpt>
      <trkpt lat="43.73019" lon="6.73203">
        <ele>1256.9</ele>
        <time>2020-02-09T10:29:59Z</time>
      </trkpt>
      <trkpt lat="43.73013" lon="6.73206">
        <ele>1257.1</ele>
        <time>2020-02-09T10:30:02Z</time>
      </trkpt>
      <trkpt lat="43.7301" lon="6.73207">
        <ele>1257.3</ele>
        <time>2020-02-09T10:30:03Z</time>
      </trkpt>
      <trkpt lat="43.73006" lon="6.73208">
        <ele>1257.4</ele>
        <time>2020-02-09T10:30:04Z</time>
      </trkpt>
      <trkpt lat="43.73003" lon="6.7321">
        <ele>1257.5</ele>
        <time>2020-02-09T10:30:05Z</time>
      </trkpt>
      <trkpt lat="43.72999" lon="6.73214">
        <ele>1257.7</ele>
        <time>2020-02-09T10:30:07Z</time>
      </trkpt>
      <trkpt lat="43.72998" lon="6.73218">
        <ele>1257.8</ele>
        <time>2020-02-09T10:30:08Z</time>
      </trkpt>
      <trkpt lat="43.72996" lon="6.73222">
        <ele>1257.9</ele>
        <time>2020-02-09T10:30:09Z</time>
      </trkpt>
      <trkpt lat="43.72991" lon="6.73233">
        <ele>1258.2</ele>
        <time>2020-02-09T10:30:12Z</time>
      </trkpt>
      <trkpt lat="43.72988" lon="6.7324">
        <ele>1258.4</ele>
        <time>2020-02-09T10:30:13Z</time>
      </trkpt>
      <trkpt lat="43.72986" lon="6.73244">
        <ele>1258.5</ele>
        <time>2020-02-09T10:30:14Z</time>
      </trkpt>
      <trkpt lat="43.7298" lon="6.73251">
        <ele>1258.7</ele>
        <time>2020-02-09T10:30:15Z</time>
      </trkpt>
      <trkpt lat="43.72977" lon="6.73253">
        <ele>1258.7</ele>
        <time>2020-02-09T10:30:18Z</time>
      </trkpt>
      <trkpt lat="43.72973" lon="6.73255">
        <ele>1258.8</ele>
        <time>2020-02-09T10:30:19Z</time>
      </trkpt>
      <trkpt lat="43.72966" lon="6.73256">
        <ele>1258.9</ele>
        <time>2020-02-09T10:30:21Z</time>
      </trkpt>
      <trkpt lat="43.72962" lon="6.73256">
        <ele>1258.9</ele>
        <time>2020-02-09T10:30:23Z</time>
      </trkpt>
      <trkpt lat="43.72959" lon="6.73257">
        <ele>1258.9</ele>
        <time>2020-02-09T10:30:24Z</time>
      </trkpt>
      <trkpt lat="43.72954" lon="6.73264">
        <ele>1258.9</ele>
        <time>2020-02-09T10:30:27Z</time>
      </trkpt>
      <trkpt lat="43.72952" lon="6.73268">
        <ele>1258.8</ele>
        <time>2020-02-09T10:30:28Z</time>
      </trkpt>
      <trkpt lat="43.7295" lon="6.73272">
        <ele>1258.7</ele>
        <time>2020-02-09T10:30:29Z</time>
      </trkpt>
      <trkpt lat="43.72947" lon="6.73278">
        <ele>1258.6</ele>
        <time>2020-02-09T10:30:30Z</time>
      </trkpt>
      <trkpt lat="43.72942" lon="6.73287">
        <ele>1258.3</ele>
        <time>2020-02-09T10:30:31Z</time>
      </trkpt>
      <trkpt lat="43.72937" lon="6.73297">
        <ele>1257.9</ele>
        <time>2020-02-09T10:30:34Z</time>
      </trkpt>
      <trkpt lat="43.72934" lon="6.73303">
        <ele>1257.8</ele>
        <time>2020-02-09T10:30:35Z</time>
      </trkpt>
      <trkpt lat="43.72929" lon="6.73312">
        <ele>1257.5</ele>
        <time>2020-02-09T10:30:37Z</time>
      </trkpt>
      <trkpt lat="43.72928" lon="6.7332">
        <ele>1257.3</ele>
        <time>2020-02-09T10:30:38Z</time>
      </trkpt>
      <trkpt lat="43.72926" lon="6.73329">
        <ele>1257</ele>
        <time>2020-02-09T10:30:41Z</time>
      </trkpt>
      <trkpt lat="43.72923" lon="6.73345">
        <ele>1256.5</ele>
        <time>2020-02-09T10:30:42Z</time>
      </trkpt>
      <trkpt lat="43.72918" lon="6.7336">
        <ele>1256.3</ele>
        <time>2020-02-09T10:30:45Z</time>
      </trkpt>
      <trkpt lat="43.72917" lon="6.73368">
        <ele>1256.4</ele>
        <time>2020-02-09T10:30:46Z</time>
      </trkpt>
      <trkpt lat="43.72916" lon="6.7338">
        <ele>1256.7</ele>
        <time>2020-02-09T10:30:47Z</time>
      </trkpt>
      <trkpt lat="43.72915" lon="6.73387">
        <ele>1257.1</ele>
        <time>2020-02-09T10:30:50Z</time>
      </trkpt>
      <trkpt lat="43.7291" lon="6.73403">
        <ele>1257.9</ele>
        <time>2020-02-09T10:30:53Z</time>
      </trkpt>
      <trkpt lat="43.72908" lon="6.73411">
        <ele>1258.3</ele>
        <time>2020-02-09T10:30:56Z</time>
      </trkpt>
      <trkpt lat="43.72907" lon="6.73415">
        <ele>1258.4</ele>
        <time>2020-02-09T10:30:57Z</time>
      </trkpt>
      <trkpt lat="43.72905" lon="6.7343">
        <ele>1258.9</ele>
        <time>2020-02-09T10:31:01Z</time>
      </trkpt>
      <trkpt lat="43.72904" lon="6.73435">
        <ele>1259</ele>
        <time>2020-02-09T10:31:02Z</time>
      </trkpt>
      <trkpt lat="43.72903" lon="6.7344">
        <ele>1259.1</ele>
        <time>2020-02-09T10:31:03Z</time>
      </trkpt>
      <trkpt lat="43.729" lon="6.73445">
        <ele>1259.2</ele>
        <time>2020-02-09T10:31:04Z</time>
      </trkpt>
      <trkpt lat="43.72896" lon="6.73448">
        <ele>1259.4</ele>
        <time>2020-02-09T10:31:06Z</time>
      </trkpt>
      <trkpt lat="43.72886" lon="6.73452">
        <ele>1259.9</ele>
        <time>2020-02-09T10:31:09Z</time>
      </trkpt>
      <trkpt lat="43.72877" lon="6.7345">
        <ele>1260.2</ele>
        <time>2020-02-09T10:31:12Z</time>
      </trkpt>
      <trkpt lat="43.7287" lon="6.73448">
        <ele>1260.3</ele>
        <time>2020-02-09T10:31:13Z</time>
      </trkpt>
      <trkpt lat="43.72866" lon="6.73448">
        <ele>1260.3</ele>
        <time>2020-02-09T10:31:16Z</time>
      </trkpt>
      <trkpt lat="43.72863" lon="6.73446">
        <ele>1260.2</ele>
        <time>2020-02-09T10:31:17Z</time>
      </trkpt>
      <trkpt lat="43.72858" lon="6.73444">
        <ele>1260.2</ele>
        <time>2020-02-09T10:31:18Z</time>
      </trkpt>
      <trkpt lat="43.7285" lon="6.73443">
        <ele>1260.3</ele>
        <time>2020-02-09T10:31:19Z</time>
      </trkpt>
      <trkpt lat="43.72843" lon="6.73444">
        <ele>1260.5</ele>
        <time>2020-02-09T10:31:23Z</time>
      </trkpt>
      <trkpt lat="43.7284" lon="6.73444">
        <ele>1260.6</ele>
        <time>2020-02-09T10:31:24Z</time>
      </trkpt>
      <trkpt lat="43.72832" lon="6.73446">
        <ele>1261.1</ele>
        <time>2020-02-09T10:31:27Z</time>
      </trkpt>
      <trkpt lat="43.72825" lon="6.73446">
        <ele>1261.7</ele>
        <time>2020-02-09T10:31:29Z</time>
      </trkpt>
      <trkpt lat="43.72822" lon="6.73445">
        <ele>1262</ele>
        <time>2020-02-09T10:31:31Z</time>
      </trkpt>
      <trkpt lat="43.72819" lon="6.73445">
        <ele>1262.3</ele>
        <time>2020-02-09T10:31:32Z</time>
      </trkpt>
      <trkpt lat="43.72816" lon="6.73444">
        <ele>1262.7</ele>
        <time>2020-02-09T10:31:33Z</time>
      </trkpt>
      <trkpt lat="43.72812" lon="6.73441">
        <ele>1263.2</ele>
        <time>2020-02-09T10:31:36Z</time>
      </trkpt>
      <trkpt lat="43.72804" lon="6.73436">
        <ele>1264.4</ele>
        <time>2020-02-09T10:31:40Z</time>
      </trkpt>
      <trkpt lat="43.72803" lon="6.73436">
        <ele>1264.6</ele>
        <time>2020-02-09T10:31:41Z</time>
      </trkpt>
      <trkpt lat="43.72798" lon="6.73435">
        <ele>1265.2</ele>
        <time>2020-02-09T10:31:45Z</time>
      </trkpt>
      <trkpt lat="43.72793" lon="6.73435">
        <ele>1266.1</ele>
        <time>2020-02-09T10:31:48Z</time>
      </trkpt>
      <trkpt lat="43.72791" lon="6.73436">
        <ele>1266.4</ele>
        <time>2020-02-09T10:31:50Z</time>
      </trkpt>
      <trkpt lat="43.72787" lon="6.73437">
        <ele>1267</ele>
        <time>2020-02-09T10:31:51Z</time>
      </trkpt>
      <trkpt lat="43.72784" lon="6.73439">
        <ele>1267.5</ele>
        <time>2020-02-09T10:31:54Z</time>
      </trkpt>
      <trkpt lat="43.72778" lon="6.73439">
        <ele>1268.3</ele>
        <time>2020-02-09T10:31:57Z</time>
      </trkpt>
      <trkpt lat="43.72772" lon="6.73441">
        <ele>1269.1</ele>
        <time>2020-02-09T10:32:00Z</time>
      </trkpt>
      <trkpt lat="43.72766" lon="6.73447">
        <ele>1270.1</ele>
        <time>2020-02-09T10:32:04Z</time>
      </trkpt>
      <trkpt lat="43.72763" lon="6.73452">
        <ele>1270.6</ele>
        <time>2020-02-09T10:32:06Z</time>
      </trkpt>
      <trkpt lat="43.72757" lon="6.73459">
        <ele>1271.5</ele>
        <time>2020-02-09T10:32:10Z</time>
      </trkpt>
      <trkpt lat="43.72755" lon="6.73462">
        <ele>1271.8</ele>
        <time>2020-02-09T10:32:11Z</time>
      </trkpt>
      <trkpt lat="43.7275" lon="6.73472">
        <ele>1272.5</ele>
        <time>2020-02-09T10:32:14Z</time>
      </trkpt>
      <trkpt lat="43.72749" lon="6.73476">
        <ele>1272.7</ele>
        <time>2020-02-09T10:32:17Z</time>
      </trkpt>
      <trkpt lat="43.72746" lon="6.73486">
        <ele>1273.1</ele>
        <time>2020-02-09T10:32:20Z</time>
      </trkpt>
      <trkpt lat="43.72745" lon="6.7349">
        <ele>1273.2</ele>
        <time>2020-02-09T10:32:21Z</time>
      </trkpt>
      <trkpt lat="43.72744" lon="6.73494">
        <ele>1273.3</ele>
        <time>2020-02-09T10:32:22Z</time>
      </trkpt>
      <trkpt lat="43.72741" lon="6.73502">
        <ele>1273.5</ele>
        <time>2020-02-09T10:32:25Z</time>
      </trkpt>
      <trkpt lat="43.7274" lon="6.73505">
        <ele>1273.6</ele>
        <time>2020-02-09T10:32:26Z</time>
      </trkpt>
      <trkpt lat="43.72735" lon="6.73513">
        <ele>1273.9</ele>
        <time>2020-02-09T10:32:29Z</time>
      </trkpt>
      <trkpt lat="43.72732" lon="6.73517">
        <ele>1274</ele>
        <time>2020-02-09T10:32:31Z</time>
      </trkpt>
      <trkpt lat="43.72728" lon="6.73524">
        <ele>1274.3</ele>
        <time>2020-02-09T10:32:33Z</time>
      </trkpt>
      <trkpt lat="43.72724" lon="6.73535">
        <ele>1274.6</ele>
        <time>2020-02-09T10:32:37Z</time>
      </trkpt>
      <trkpt lat="43.72717" lon="6.73548">
        <ele>1274.8</ele>
        <time>2020-02-09T10:32:41Z</time>
      </trkpt>
      <trkpt lat="43.72715" lon="6.73554">
        <ele>1274.9</ele>
        <time>2020-02-09T10:32:43Z</time>
      </trkpt>
      <trkpt lat="43.72711" lon="6.73569">
        <ele>1274.9</ele>
        <time>2020-02-09T10:32:46Z</time>
      </trkpt>
      <trkpt lat="43.72709" lon="6.73576">
        <ele>1274.7</ele>
        <time>2020-02-09T10:32:47Z</time>
      </trkpt>
      <trkpt lat="43.72708" lon="6.73582">
        <ele>1274.6</ele>
        <time>2020-02-09T10:32:48Z</time>
      </trkpt>
      <trkpt lat="43.72704" lon="6.73594">
        <ele>1274.4</ele>
        <time>2020-02-09T10:32:51Z</time>
      </trkpt>
      <trkpt lat="43.72703" lon="6.73598">
        <ele>1274.3</ele>
        <time>2020-02-09T10:32:54Z</time>
      </trkpt>
      <trkpt lat="43.72702" lon="6.73604">
        <ele>1274.2</ele>
        <time>2020-02-09T10:32:55Z</time>
      </trkpt>
      <trkpt lat="43.727" lon="6.73611">
        <ele>1274.2</ele>
        <time>2020-02-09T10:32:56Z</time>
      </trkpt>
      <trkpt lat="43.72699" lon="6.73616">
        <ele>1274.2</ele>
        <time>2020-02-09T10:32:59Z</time>
      </trkpt>
      <trkpt lat="43.72697" lon="6.73626">
        <ele>1274.2</ele>
        <time>2020-02-09T10:33:00Z</time>
      </trkpt>
      <trkpt lat="43.72696" lon="6.73632">
        <ele>1274.3</ele>
        <time>2020-02-09T10:33:03Z</time>
      </trkpt>
      <trkpt lat="43.72696" lon="6.73637">
        <ele>1274.4</ele>
        <time>2020-02-09T10:33:04Z</time>
      </trkpt>
      <trkpt lat="43.72693" lon="6.73647">
        <ele>1274.7</ele>
        <time>2020-02-09T10:33:05Z</time>
      </trkpt>
      <trkpt lat="43.72692" lon="6.73652">
        <ele>1274.9</ele>
        <time>2020-02-09T10:33:06Z</time>
      </trkpt>
      <trkpt lat="43.72689" lon="6.73658">
        <ele>1275.2</ele>
        <time>2020-02-09T10:33:09Z</time>
      </trkpt>
      <trkpt lat="43.72685" lon="6.73669">
        <ele>1275.9</ele>
        <time>2020-02-09T10:33:12Z</time>
      </trkpt>
      <trkpt lat="43.72684" lon="6.73673">
        <ele>1276.1</ele>
        <time>2020-02-09T10:33:13Z</time>
      </trkpt>
      <trkpt lat="43.72682" lon="6.73676">
        <ele>1276.3</ele>
        <time>2020-02-09T10:33:14Z</time>
      </trkpt>
      <trkpt lat="43.72679" lon="6.73684">
        <ele>1276.9</ele>
        <time>2020-02-09T10:33:17Z</time>
      </trkpt>
      <trkpt lat="43.72676" lon="6.7369">
        <ele>1277.3</ele>
        <time>2020-02-09T10:33:19Z</time>
      </trkpt>
      <trkpt lat="43.72672" lon="6.73697">
        <ele>1277.7</ele>
        <time>2020-02-09T10:33:22Z</time>
      </trkpt>
      <trkpt lat="43.72669" lon="6.73702">
        <ele>1278</ele>
        <time>2020-02-09T10:33:24Z</time>
      </trkpt>
      <trkpt lat="43.72662" lon="6.73711">
        <ele>1278.3</ele>
        <time>2020-02-09T10:33:26Z</time>
      </trkpt>
      <trkpt lat="43.72661" lon="6.73715">
        <ele>1278.4</ele>
        <time>2020-02-09T10:33:27Z</time>
      </trkpt>
      <trkpt lat="43.72659" lon="6.7372">
        <ele>1278.4</ele>
        <time>2020-02-09T10:33:30Z</time>
      </trkpt>
      <trkpt lat="43.72658" lon="6.73724">
        <ele>1278.5</ele>
        <time>2020-02-09T10:33:31Z</time>
      </trkpt>
      <trkpt lat="43.72655" lon="6.73733">
        <ele>1278.6</ele>
        <time>2020-02-09T10:33:34Z</time>
      </trkpt>
      <trkpt lat="43.72654" lon="6.73739">
        <ele>1278.6</ele>
        <time>2020-02-09T10:33:35Z</time>
      </trkpt>
      <trkpt lat="43.72654" lon="6.73744">
        <ele>1278.6</ele>
        <time>2020-02-09T10:33:37Z</time>
      </trkpt>
      <trkpt lat="43.72653" lon="6.73749">
        <ele>1278.6</ele>
        <time>2020-02-09T10:33:38Z</time>
      </trkpt>
      <trkpt lat="43.72651" lon="6.73759">
        <ele>1278.5</ele>
        <time>2020-02-09T10:33:39Z</time>
      </trkpt>
      <trkpt lat="43.7265" lon="6.73765">
        <ele>1278.5</ele>
        <time>2020-02-09T10:33:41Z</time>
      </trkpt>
      <trkpt lat="43.72649" lon="6.73773">
        <ele>1278.4</ele>
        <time>2020-02-09T10:33:44Z</time>
      </trkpt>
      <trkpt lat="43.72647" lon="6.73785">
        <ele>1278.2</ele>
        <time>2020-02-09T10:33:46Z</time>
      </trkpt>
      <trkpt lat="43.72647" lon="6.73795">
        <ele>1278.2</ele>
        <time>2020-02-09T10:33:49Z</time>
      </trkpt>
      <trkpt lat="43.72647" lon="6.738">
        <ele>1278.2</ele>
        <time>2020-02-09T10:33:50Z</time>
      </trkpt>
      <trkpt lat="43.72647" lon="6.73805">
        <ele>1278.2</ele>
        <time>2020-02-09T10:33:53Z</time>
      </trkpt>
      <trkpt lat="43.72646" lon="6.73812">
        <ele>1278.3</ele>
        <time>2020-02-09T10:33:55Z</time>
      </trkpt>
      <trkpt lat="43.72645" lon="6.7382">
        <ele>1278.5</ele>
        <time>2020-02-09T10:33:56Z</time>
      </trkpt>
      <trkpt lat="43.72641" lon="6.73824">
        <ele>1278.7</ele>
        <time>2020-02-09T10:34:00Z</time>
      </trkpt>
      <trkpt lat="43.72637" lon="6.73827">
        <ele>1278.9</ele>
        <time>2020-02-09T10:34:02Z</time>
      </trkpt>
      <trkpt lat="43.72632" lon="6.7383">
        <ele>1279.2</ele>
        <time>2020-02-09T10:34:04Z</time>
      </trkpt>
      <trkpt lat="43.72628" lon="6.73834">
        <ele>1279.5</ele>
        <time>2020-02-09T10:34:05Z</time>
      </trkpt>
      <trkpt lat="43.72625" lon="6.73837">
        <ele>1279.7</ele>
        <time>2020-02-09T10:34:08Z</time>
      </trkpt>
      <trkpt lat="43.72622" lon="6.73841">
        <ele>1280</ele>
        <time>2020-02-09T10:34:10Z</time>
      </trkpt>
      <trkpt lat="43.72618" lon="6.73846">
        <ele>1280.4</ele>
        <time>2020-02-09T10:34:13Z</time>
      </trkpt>
      <trkpt lat="43.72613" lon="6.73852">
        <ele>1281</ele>
        <time>2020-02-09T10:34:15Z</time>
      </trkpt>
      <trkpt lat="43.72609" lon="6.73852">
        <ele>1281.3</ele>
        <time>2020-02-09T10:34:18Z</time>
      </trkpt>
      <trkpt lat="43.72603" lon="6.73856">
        <ele>1281.8</ele>
        <time>2020-02-09T10:34:21Z</time>
      </trkpt>
      <trkpt lat="43.72601" lon="6.73858">
        <ele>1282</ele>
        <time>2020-02-09T10:34:22Z</time>
      </trkpt>
      <trkpt lat="43.72596" lon="6.7386">
        <ele>1282.4</ele>
        <time>2020-02-09T10:34:25Z</time>
      </trkpt>
      <trkpt lat="43.72589" lon="6.73857">
        <ele>1282.9</ele>
        <time>2020-02-09T10:34:28Z</time>
      </trkpt>
      <trkpt lat="43.72585" lon="6.73857">
        <ele>1283.3</ele>
        <time>2020-02-09T10:34:31Z</time>
      </trkpt>
      <trkpt lat="43.72581" lon="6.73856">
        <ele>1283.5</ele>
        <time>2020-02-09T10:34:34Z</time>
      </trkpt>
      <trkpt lat="43.72577" lon="6.73853">
        <ele>1283.9</ele>
        <time>2020-02-09T10:34:38Z</time>
      </trkpt>
      <trkpt lat="43.72573" lon="6.73852">
        <ele>1284.2</ele>
        <time>2020-02-09T10:34:41Z</time>
      </trkpt>
      <trkpt lat="43.72572" lon="6.7385">
        <ele>1284.5</ele>
        <time>2020-02-09T10:34:42Z</time>
      </trkpt>
      <trkpt lat="43.72569" lon="6.73847">
        <ele>1285.1</ele>
        <time>2020-02-09T10:34:44Z</time>
      </trkpt>
      <trkpt lat="43.72562" lon="6.73844">
        <ele>1285.8</ele>
        <time>2020-02-09T10:34:45Z</time>
      </trkpt>
      <trkpt lat="43.72558" lon="6.73841">
        <ele>1286.4</ele>
        <time>2020-02-09T10:34:46Z</time>
      </trkpt>
      <trkpt lat="43.72555" lon="6.73838">
        <ele>1286.8</ele>
        <time>2020-02-09T10:34:47Z</time>
      </trkpt>
      <trkpt lat="43.72552" lon="6.73834">
        <ele>1287.1</ele>
        <time>2020-02-09T10:34:50Z</time>
      </trkpt>
      <trkpt lat="43.72548" lon="6.73832">
        <ele>1287.4</ele>
        <time>2020-02-09T10:34:51Z</time>
      </trkpt>
      <trkpt lat="43.72541" lon="6.73827">
        <ele>1288</ele>
        <time>2020-02-09T10:34:54Z</time>
      </trkpt>
      <trkpt lat="43.7254" lon="6.73826">
        <ele>1288.1</ele>
        <time>2020-02-09T10:34:55Z</time>
      </trkpt>
      <trkpt lat="43.72536" lon="6.73825">
        <ele>1288.4</ele>
        <time>2020-02-09T10:34:57Z</time>
      </trkpt>
      <trkpt lat="43.72533" lon="6.73823">
        <ele>1288.6</ele>
        <time>2020-02-09T10:34:59Z</time>
      </trkpt>
      <trkpt lat="43.72529" lon="6.73817">
        <ele>1289</ele>
        <time>2020-02-09T10:35:02Z</time>
      </trkpt>
      <trkpt lat="43.72526" lon="6.73813">
        <ele>1289.2</ele>
        <time>2020-02-09T10:35:04Z</time>
      </trkpt>
      <trkpt lat="43.72524" lon="6.73809">
        <ele>1289.5</ele>
        <time>2020-02-09T10:35:05Z</time>
      </trkpt>
      <trkpt lat="43.72522" lon="6.73805">
        <ele>1289.7</ele>
        <time>2020-02-09T10:35:08Z</time>
      </trkpt>
      <trkpt lat="43.72517" lon="6.73799">
        <ele>1290</ele>
        <time>2020-02-09T10:35:11Z</time>
      </trkpt>
      <trkpt lat="43.72512" lon="6.73796">
        <ele>1290.3</ele>
        <time>2020-02-09T10:35:14Z</time>
      </trkpt>
      <trkpt lat="43.72509" lon="6.73792">
        <ele>1290.6</ele>
        <time>2020-02-09T10:35:16Z</time>
      </trkpt>
      <trkpt lat="43.72506" lon="6.7379">
        <ele>1290.8</ele>
        <time>2020-02-09T10:35:19Z</time>
      </trkpt>
      <trkpt lat="43.72501" lon="6.73788">
        <ele>1291.2</ele>
        <time>2020-02-09T10:35:22Z</time>
      </trkpt>
      <trkpt lat="43.72496" lon="6.73786">
        <ele>1291.5</ele>
        <time>2020-02-09T10:35:24Z</time>
      </trkpt>
      <trkpt lat="43.7249" lon="6.7378">
        <ele>1292.2</ele>
        <time>2020-02-09T10:35:26Z</time>
      </trkpt>
      <trkpt lat="43.72487" lon="6.73776">
        <ele>1292.5</ele>
        <time>2020-02-09T10:35:29Z</time>
      </trkpt>
      <trkpt lat="43.72482" lon="6.73771">
        <ele>1293</ele>
        <time>2020-02-09T10:35:32Z</time>
      </trkpt>
      <trkpt lat="43.72476" lon="6.73765">
        <ele>1293.6</ele>
        <time>2020-02-09T10:35:35Z</time>
      </trkpt>
      <trkpt lat="43.72473" lon="6.73761">
        <ele>1293.9</ele>
        <time>2020-02-09T10:35:36Z</time>
      </trkpt>
      <trkpt lat="43.72471" lon="6.73759">
        <ele>1294.2</ele>
        <time>2020-02-09T10:35:39Z</time>
      </trkpt>
      <trkpt lat="43.72467" lon="6.73752">
        <ele>1294.7</ele>
        <time>2020-02-09T10:35:43Z</time>
      </trkpt>
      <trkpt lat="43.72464" lon="6.73746">
        <ele>1295.1</ele>
        <time>2020-02-09T10:35:45Z</time>
      </trkpt>
      <trkpt lat="43.7246" lon="6.73742">
        <ele>1295.4</ele>
        <time>2020-02-09T10:35:48Z</time>
      </trkpt>
      <trkpt lat="43.72456" lon="6.73736">
        <ele>1296</ele>
        <time>2020-02-09T10:35:51Z</time>
      </trkpt>
      <trkpt lat="43.72454" lon="6.73733">
        <ele>1296.2</ele>
        <time>2020-02-09T10:35:52Z</time>
      </trkpt>
      <trkpt lat="43.72451" lon="6.73727">
        <ele>1296.5</ele>
        <time>2020-02-09T10:35:54Z</time>
      </trkpt>
      <trkpt lat="43.72447" lon="6.73721">
        <ele>1296.8</ele>
        <time>2020-02-09T10:35:57Z</time>
      </trkpt>
      <trkpt lat="43.72444" lon="6.73715">
        <ele>1297.1</ele>
        <time>2020-02-09T10:35:59Z</time>
      </trkpt>
      <trkpt lat="43.7244" lon="6.73706">
        <ele>1297.4</ele>
        <time>2020-02-09T10:36:01Z</time>
      </trkpt>
      <trkpt lat="43.72437" lon="6.73699">
        <ele>1297.6</ele>
        <time>2020-02-09T10:36:05Z</time>
      </trkpt>
      <trkpt lat="43.72435" lon="6.73694">
        <ele>1297.7</ele>
        <time>2020-02-09T10:36:06Z</time>
      </trkpt>
      <trkpt lat="43.72434" lon="6.7369">
        <ele>1297.8</ele>
        <time>2020-02-09T10:36:09Z</time>
      </trkpt>
      <trkpt lat="43.72432" lon="6.73682">
        <ele>1297.8</ele>
        <time>2020-02-09T10:36:13Z</time>
      </trkpt>
      <trkpt lat="43.7243" lon="6.73676">
        <ele>1297.8</ele>
        <time>2020-02-09T10:36:16Z</time>
      </trkpt>
      <trkpt lat="43.72426" lon="6.73663">
        <ele>1297.8</ele>
        <time>2020-02-09T10:36:18Z</time>
      </trkpt>
      <trkpt lat="43.72425" lon="6.73657">
        <ele>1297.9</ele>
        <time>2020-02-09T10:36:19Z</time>
      </trkpt>
      <trkpt lat="43.72423" lon="6.73651">
        <ele>1297.9</ele>
        <time>2020-02-09T10:36:22Z</time>
      </trkpt>
      <trkpt lat="43.72422" lon="6.73645">
        <ele>1298</ele>
        <time>2020-02-09T10:36:23Z</time>
      </trkpt>
      <trkpt lat="43.7242" lon="6.7364">
        <ele>1298.1</ele>
        <time>2020-02-09T10:36:26Z</time>
      </trkpt>
      <trkpt lat="43.72418" lon="6.73637">
        <ele>1298.1</ele>
        <time>2020-02-09T10:36:27Z</time>
      </trkpt>
      <trkpt lat="43.72415" lon="6.73629">
        <ele>1298.1</ele>
        <time>2020-02-09T10:36:30Z</time>
      </trkpt>
      <trkpt lat="43.72413" lon="6.73624">
        <ele>1298.2</ele>
        <time>2020-02-09T10:36:31Z</time>
      </trkpt>
      <trkpt lat="43.72408" lon="6.73615">
        <ele>1298.2</ele>
        <time>2020-02-09T10:36:34Z</time>
      </trkpt>
      <trkpt lat="43.72405" lon="6.73609">
        <ele>1298.2</ele>
        <time>2020-02-09T10:36:36Z</time>
      </trkpt>
      <trkpt lat="43.72403" lon="6.73607">
        <ele>1298.3</ele>
        <time>2020-02-09T10:36:37Z</time>
      </trkpt>
      <trkpt lat="43.72396" lon="6.73599">
        <ele>1298.5</ele>
        <time>2020-02-09T10:36:39Z</time>
      </trkpt>
      <trkpt lat="43.72394" lon="6.73596">
        <ele>1298.6</ele>
        <time>2020-02-09T10:36:41Z</time>
      </trkpt>
      <trkpt lat="43.72391" lon="6.73594">
        <ele>1298.7</ele>
        <time>2020-02-09T10:36:42Z</time>
      </trkpt>
      <trkpt lat="43.72389" lon="6.73591">
        <ele>1298.8</ele>
        <time>2020-02-09T10:36:43Z</time>
      </trkpt>
      <trkpt lat="43.72384" lon="6.73585">
        <ele>1298.9</ele>
        <time>2020-02-09T10:36:45Z</time>
      </trkpt>
      <trkpt lat="43.72376" lon="6.73578">
        <ele>1299.1</ele>
        <time>2020-02-09T10:36:46Z</time>
      </trkpt>
      <trkpt lat="43.72372" lon="6.73574">
        <ele>1299.1</ele>
        <time>2020-02-09T10:36:48Z</time>
      </trkpt>
      <trkpt lat="43.72367" lon="6.73568">
        <ele>1299.1</ele>
        <time>2020-02-09T10:36:51Z</time>
      </trkpt>
      <trkpt lat="43.72364" lon="6.73564">
        <ele>1299.2</ele>
        <time>2020-02-09T10:36:52Z</time>
      </trkpt>
      <trkpt lat="43.72362" lon="6.73561">
        <ele>1299.2</ele>
        <time>2020-02-09T10:36:53Z</time>
      </trkpt>
      <trkpt lat="43.72356" lon="6.73554">
        <ele>1299.3</ele>
        <time>2020-02-09T10:36:56Z</time>
      </trkpt>
      <trkpt lat="43.72348" lon="6.73546">
        <ele>1299.5</ele>
        <time>2020-02-09T10:36:59Z</time>
      </trkpt>
      <trkpt lat="43.72344" lon="6.73543">
        <ele>1299.5</ele>
        <time>2020-02-09T10:37:00Z</time>
      </trkpt>
      <trkpt lat="43.72338" lon="6.73539">
        <ele>1299.6</ele>
        <time>2020-02-09T10:37:03Z</time>
      </trkpt>
      <trkpt lat="43.72333" lon="6.73537">
        <ele>1299.6</ele>
        <time>2020-02-09T10:37:04Z</time>
      </trkpt>
      <trkpt lat="43.72327" lon="6.73533">
        <ele>1299.5</ele>
        <time>2020-02-09T10:37:05Z</time>
      </trkpt>
      <trkpt lat="43.72324" lon="6.73532">
        <ele>1299.4</ele>
        <time>2020-02-09T10:37:08Z</time>
      </trkpt>
      <trkpt lat="43.72315" lon="6.73527">
        <ele>1299</ele>
        <time>2020-02-09T10:37:11Z</time>
      </trkpt>
      <trkpt lat="43.72311" lon="6.73525">
        <ele>1298.8</ele>
        <time>2020-02-09T10:37:12Z</time>
      </trkpt>
      <trkpt lat="43.72303" lon="6.73522">
        <ele>1298.4</ele>
        <time>2020-02-09T10:37:13Z</time>
      </trkpt>
      <trkpt lat="43.72297" lon="6.73521">
        <ele>1298.2</ele>
        <time>2020-02-09T10:37:14Z</time>
      </trkpt>
      <trkpt lat="43.72289" lon="6.73519">
        <ele>1297.7</ele>
        <time>2020-02-09T10:37:17Z</time>
      </trkpt>
      <trkpt lat="43.72279" lon="6.73517">
        <ele>1297.1</ele>
        <time>2020-02-09T10:37:18Z</time>
      </trkpt>
      <trkpt lat="43.72274" lon="6.73517">
        <ele>1296.8</ele>
        <time>2020-02-09T10:37:19Z</time>
      </trkpt>
      <trkpt lat="43.72268" lon="6.73516">
        <ele>1296.6</ele>
        <time>2020-02-09T10:37:21Z</time>
      </trkpt>
      <trkpt lat="43.72262" lon="6.73516">
        <ele>1296.4</ele>
        <time>2020-02-09T10:37:23Z</time>
      </trkpt>
      <trkpt lat="43.72257" lon="6.73515">
        <ele>1296.3</ele>
        <time>2020-02-09T10:37:24Z</time>
      </trkpt>
      <trkpt lat="43.72252" lon="6.73514">
        <ele>1296.2</ele>
        <time>2020-02-09T10:37:25Z</time>
      </trkpt>
      <trkpt lat="43.72238" lon="6.73509">
        <ele>1296.2</ele>
        <time>2020-02-09T10:37:28Z</time>
      </trkpt>
      <trkpt lat="43.72235" lon="6.73508">
        <ele>1296.2</ele>
        <time>2020-02-09T10:37:29Z</time>
      </trkpt>
      <trkpt lat="43.72231" lon="6.73506">
        <ele>1296.3</ele>
        <time>2020-02-09T10:37:30Z</time>
      </trkpt>
      <trkpt lat="43.72227" lon="6.73504">
        <ele>1296.4</ele>
        <time>2020-02-09T10:37:31Z</time>
      </trkpt>
      <trkpt lat="43.7222" lon="6.735">
        <ele>1296.6</ele>
        <time>2020-02-09T10:37:32Z</time>
      </trkpt>
      <trkpt lat="43.72215" lon="6.73498">
        <ele>1296.8</ele>
        <time>2020-02-09T10:37:35Z</time>
      </trkpt>
      <trkpt lat="43.72211" lon="6.73496">
        <ele>1296.9</ele>
        <time>2020-02-09T10:37:36Z</time>
      </trkpt>
      <trkpt lat="43.72201" lon="6.73491">
        <ele>1297</ele>
        <time>2020-02-09T10:37:39Z</time>
      </trkpt>
      <trkpt lat="43.72198" lon="6.73489">
        <ele>1297.1</ele>
        <time>2020-02-09T10:37:40Z</time>
      </trkpt>
      <trkpt lat="43.72193" lon="6.73486">
        <ele>1297.1</ele>
        <time>2020-02-09T10:37:41Z</time>
      </trkpt>
      <trkpt lat="43.72183" lon="6.73481">
        <ele>1297.2</ele>
        <time>2020-02-09T10:37:43Z</time>
      </trkpt>
      <trkpt lat="43.72179" lon="6.73479">
        <ele>1297.2</ele>
        <time>2020-02-09T10:37:44Z</time>
      </trkpt>
      <trkpt lat="43.72173" lon="6.73476">
        <ele>1297.3</ele>
        <time>2020-02-09T10:37:46Z</time>
      </trkpt>
      <trkpt lat="43.72168" lon="6.73473">
        <ele>1297.4</ele>
        <time>2020-02-09T10:37:49Z</time>
      </trkpt>
      <trkpt lat="43.72165" lon="6.73472">
        <ele>1297.5</ele>
        <time>2020-02-09T10:37:50Z</time>
      </trkpt>
      <trkpt lat="43.72161" lon="6.7347">
        <ele>1297.6</ele>
        <time>2020-02-09T10:37:51Z</time>
      </trkpt>
      <trkpt lat="43.72157" lon="6.73467">
        <ele>1297.7</ele>
        <time>2020-02-09T10:37:53Z</time>
      </trkpt>
      <trkpt lat="43.72154" lon="6.73465">
        <ele>1297.8</ele>
        <time>2020-02-09T10:37:54Z</time>
      </trkpt>
      <trkpt lat="43.72151" lon="6.73464">
        <ele>1297.9</ele>
        <time>2020-02-09T10:37:55Z</time>
      </trkpt>
      <trkpt lat="43.72144" lon="6.73459">
        <ele>1297.9</ele>
        <time>2020-02-09T10:37:57Z</time>
      </trkpt>
      <trkpt lat="43.7214" lon="6.73456">
        <ele>1297.9</ele>
        <time>2020-02-09T10:37:58Z</time>
      </trkpt>
      <trkpt lat="43.72131" lon="6.73451">
        <ele>1297.6</ele>
        <time>2020-02-09T10:38:01Z</time>
      </trkpt>
      <trkpt lat="43.72127" lon="6.73447">
        <ele>1297.5</ele>
        <time>2020-02-09T10:38:02Z</time>
      </trkpt>
      <trkpt lat="43.72123" lon="6.73444">
        <ele>1297.3</ele>
        <time>2020-02-09T10:38:03Z</time>
      </trkpt>
      <trkpt lat="43.72115" lon="6.73436">
        <ele>1296.8</ele>
        <time>2020-02-09T10:38:05Z</time>
      </trkpt>
      <trkpt lat="43.72102" lon="6.73426">
        <ele>1296</ele>
        <time>2020-02-09T10:38:08Z</time>
      </trkpt>
      <trkpt lat="43.72094" lon="6.73421">
        <ele>1295.5</ele>
        <time>2020-02-09T10:38:09Z</time>
      </trkpt>
      <trkpt lat="43.72082" lon="6.73415">
        <ele>1294.8</ele>
        <time>2020-02-09T10:38:10Z</time>
      </trkpt>
      <trkpt lat="43.72068" lon="6.73411">
        <ele>1294.3</ele>
        <time>2020-02-09T10:38:12Z</time>
      </trkpt>
      <trkpt lat="43.72057" lon="6.7341">
        <ele>1294.1</ele>
        <time>2020-02-09T10:38:14Z</time>
      </trkpt>
      <trkpt lat="43.72052" lon="6.73409">
        <ele>1294.1</ele>
        <time>2020-02-09T10:38:15Z</time>
      </trkpt>
      <trkpt lat="43.72047" lon="6.73409">
        <ele>1294.1</ele>
        <time>2020-02-09T10:38:16Z</time>
      </trkpt>
      <trkpt lat="43.72037" lon="6.73408">
        <ele>1294.1</ele>
        <time>2020-02-09T10:38:18Z</time>
      </trkpt>
      <trkpt lat="43.72027" lon="6.73406">
        <ele>1294.1</ele>
        <time>2020-02-09T10:38:20Z</time>
      </trkpt>
      <trkpt lat="43.72018" lon="6.73405">
        <ele>1294.1</ele>
        <time>2020-02-09T10:38:22Z</time>
      </trkpt>
      <trkpt lat="43.7201" lon="6.73405">
        <ele>1294.2</ele>
        <time>2020-02-09T10:38:24Z</time>
      </trkpt>
      <trkpt lat="43.72006" lon="6.73404">
        <ele>1294.3</ele>
        <time>2020-02-09T10:38:25Z</time>
      </trkpt>
      <trkpt lat="43.72002" lon="6.73404">
        <ele>1294.4</ele>
        <time>2020-02-09T10:38:26Z</time>
      </trkpt>
      <trkpt lat="43.71995" lon="6.73405">
        <ele>1294.5</ele>
        <time>2020-02-09T10:38:28Z</time>
      </trkpt>
      <trkpt lat="43.71991" lon="6.73406">
        <ele>1294.5</ele>
        <time>2020-02-09T10:38:29Z</time>
      </trkpt>
      <trkpt lat="43.71983" lon="6.7341">
        <ele>1294.5</ele>
        <time>2020-02-09T10:38:31Z</time>
      </trkpt>
      <trkpt lat="43.7198" lon="6.73414">
        <ele>1294.5</ele>
        <time>2020-02-09T10:38:34Z</time>
      </trkpt>
      <trkpt lat="43.71976" lon="6.73417">
        <ele>1294.4</ele>
        <time>2020-02-09T10:38:35Z</time>
      </trkpt>
      <trkpt lat="43.71971" lon="6.73419">
        <ele>1294.3</ele>
        <time>2020-02-09T10:38:36Z</time>
      </trkpt>
      <trkpt lat="43.71963" lon="6.7342">
        <ele>1294.2</ele>
        <time>2020-02-09T10:38:38Z</time>
      </trkpt>
      <trkpt lat="43.71948" lon="6.7342">
        <ele>1294</ele>
        <time>2020-02-09T10:38:41Z</time>
      </trkpt>
      <trkpt lat="43.71938" lon="6.73417">
        <ele>1293.8</ele>
        <time>2020-02-09T10:38:44Z</time>
      </trkpt>
      <trkpt lat="43.71934" lon="6.73415">
        <ele>1293.7</ele>
        <time>2020-02-09T10:38:45Z</time>
      </trkpt>
      <trkpt lat="43.71927" lon="6.73412">
        <ele>1293.4</ele>
        <time>2020-02-09T10:38:48Z</time>
      </trkpt>
      <trkpt lat="43.7192" lon="6.73405">
        <ele>1293</ele>
        <time>2020-02-09T10:38:51Z</time>
      </trkpt>
      <trkpt lat="43.71917" lon="6.73405">
        <ele>1293</ele>
        <time>2020-02-09T10:38:55Z</time>
      </trkpt>
      <trkpt lat="43.7192" lon="6.73406">
        <ele>1292.9</ele>
        <time>2020-02-09T10:39:02Z</time>
      </trkpt>
      <trkpt lat="43.71916" lon="6.73403">
        <ele>1292.8</ele>
        <time>2020-02-09T10:39:17Z</time>
      </trkpt>
      <trkpt lat="43.71913" lon="6.73399">
        <ele>1292.6</ele>
        <time>2020-02-09T10:39:21Z</time>
      </trkpt>
      <trkpt lat="43.71908" lon="6.73393">
        <ele>1292.5</ele>
        <time>2020-02-09T10:39:24Z</time>
      </trkpt>
      <trkpt lat="43.71904" lon="6.73384">
        <ele>1292.3</ele>
        <time>2020-02-09T10:39:27Z</time>
      </trkpt>
      <trkpt lat="43.71902" lon="6.73379">
        <ele>1292.3</ele>
        <time>2020-02-09T10:39:28Z</time>
      </trkpt>
      <trkpt lat="43.71896" lon="6.73369">
        <ele>1292.2</ele>
        <time>2020-02-09T10:39:29Z</time>
      </trkpt>
      <trkpt lat="43.71895" lon="6.73365">
        <ele>1292.2</ele>
        <time>2020-02-09T10:39:32Z</time>
      </trkpt>
      <trkpt lat="43.71893" lon="6.7336">
        <ele>1292.2</ele>
        <time>2020-02-09T10:39:33Z</time>
      </trkpt>
      <trkpt lat="43.7189" lon="6.73354">
        <ele>1292.2</ele>
        <time>2020-02-09T10:39:34Z</time>
      </trkpt>
      <trkpt lat="43.71885" lon="6.73343">
        <ele>1292.2</ele>
        <time>2020-02-09T10:39:37Z</time>
      </trkpt>
      <trkpt lat="43.71883" lon="6.73338">
        <ele>1292.2</ele>
        <time>2020-02-09T10:39:38Z</time>
      </trkpt>
      <trkpt lat="43.71882" lon="6.73334">
        <ele>1292.2</ele>
        <time>2020-02-09T10:39:39Z</time>
      </trkpt>
      <trkpt lat="43.71879" lon="6.73325">
        <ele>1292</ele>
        <time>2020-02-09T10:39:40Z</time>
      </trkpt>
      <trkpt lat="43.71877" lon="6.73319">
        <ele>1291.9</ele>
        <time>2020-02-09T10:39:43Z</time>
      </trkpt>
      <trkpt lat="43.71875" lon="6.73313">
        <ele>1291.7</ele>
        <time>2020-02-09T10:39:44Z</time>
      </trkpt>
      <trkpt lat="43.71874" lon="6.73308">
        <ele>1291.6</ele>
        <time>2020-02-09T10:39:45Z</time>
      </trkpt>
      <trkpt lat="43.71873" lon="6.73302">
        <ele>1291.4</ele>
        <time>2020-02-09T10:39:46Z</time>
      </trkpt>
      <trkpt lat="43.7187" lon="6.73294">
        <ele>1291.1</ele>
        <time>2020-02-09T10:39:47Z</time>
      </trkpt>
      <trkpt lat="43.71866" lon="6.73281">
        <ele>1290.6</ele>
        <time>2020-02-09T10:39:48Z</time>
      </trkpt>
      <trkpt lat="43.71864" lon="6.73271">
        <ele>1290.2</ele>
        <time>2020-02-09T10:39:51Z</time>
      </trkpt>
      <trkpt lat="43.71862" lon="6.73259">
        <ele>1289.8</ele>
        <time>2020-02-09T10:39:53Z</time>
      </trkpt>
      <trkpt lat="43.71856" lon="6.73238">
        <ele>1289.2</ele>
        <time>2020-02-09T10:39:56Z</time>
      </trkpt>
      <trkpt lat="43.71853" lon="6.73233">
        <ele>1288.9</ele>
        <time>2020-02-09T10:39:57Z</time>
      </trkpt>
      <trkpt lat="43.71848" lon="6.73227">
        <ele>1288.6</ele>
        <time>2020-02-09T10:39:58Z</time>
      </trkpt>
      <trkpt lat="43.7184" lon="6.73216">
        <ele>1287.9</ele>
        <time>2020-02-09T10:40:00Z</time>
      </trkpt>
      <trkpt lat="43.71829" lon="6.73205">
        <ele>1287.2</ele>
        <time>2020-02-09T10:40:01Z</time>
      </trkpt>
      <trkpt lat="43.71825" lon="6.73199">
        <ele>1286.9</ele>
        <time>2020-02-09T10:40:02Z</time>
      </trkpt>
      <trkpt lat="43.71816" lon="6.73189">
        <ele>1286.3</ele>
        <time>2020-02-09T10:40:04Z</time>
      </trkpt>
      <trkpt lat="43.71808" lon="6.7318">
        <ele>1285.7</ele>
        <time>2020-02-09T10:40:06Z</time>
      </trkpt>
      <trkpt lat="43.71805" lon="6.73176">
        <ele>1285.4</ele>
        <time>2020-02-09T10:40:07Z</time>
      </trkpt>
      <trkpt lat="43.71802" lon="6.73171">
        <ele>1284.8</ele>
        <time>2020-02-09T10:40:10Z</time>
      </trkpt>
      <trkpt lat="43.71799" lon="6.7317">
        <ele>1284.8</ele>
        <time>2020-02-09T10:40:13Z</time>
      </trkpt>
      <trkpt lat="43.71794" lon="6.73174">
        <ele>1284.7</ele>
        <time>2020-02-09T10:40:15Z</time>
      </trkpt>
      <trkpt lat="43.71791" lon="6.73175">
        <ele>1284.1</ele>
        <time>2020-02-09T10:40:18Z</time>
      </trkpt>
      <trkpt lat="43.71788" lon="6.73177">
        <ele>1283.4</ele>
        <time>2020-02-09T10:40:19Z</time>
      </trkpt>
      <trkpt lat="43.71787" lon="6.73174">
        <ele>1283</ele>
        <time>2020-02-09T10:40:33Z</time>
      </trkpt>
      <trkpt lat="43.71785" lon="6.73174">
        <ele>1282.5</ele>
        <time>2020-02-09T10:41:47Z</time>
      </trkpt>
      <trkpt lat="43.71782" lon="6.73173">
        <ele>1282.1</ele>
        <time>2020-02-09T10:42:02Z</time>
      </trkpt>
      <trkpt lat="43.71779" lon="6.73173">
        <ele>1281.6</ele>
        <time>2020-02-09T10:46:29Z</time>
      </trkpt>
      <trkpt lat="43.71776" lon="6.73173">
        <ele>1281.1</ele>
        <time>2020-02-09T10:46:32Z</time>
      </trkpt>
      <trkpt lat="43.71774" lon="6.73173">
        <ele>1280.6</ele>
        <time>2020-02-09T10:46:33Z</time>
      </trkpt>
      <trkpt lat="43.71768" lon="6.73169">
        <ele>1279.5</ele>
        <time>2020-02-09T10:46:34Z</time>
      </trkpt>
      <trkpt lat="43.71756" lon="6.73155">
        <ele>1277.5</ele>
        <time>2020-02-09T10:46:37Z</time>
      </trkpt>
      <trkpt lat="43.71751" lon="6.73152">
        <ele>1276.7</ele>
        <time>2020-02-09T10:46:38Z</time>
      </trkpt>
      <trkpt lat="43.71747" lon="6.73146">
        <ele>1275.6</ele>
        <time>2020-02-09T10:46:40Z</time>
      </trkpt>
      <trkpt lat="43.7173" lon="6.73114">
        <ele>1272.5</ele>
        <time>2020-02-09T10:46:42Z</time>
      </trkpt>
      <trkpt lat="43.71724" lon="6.73102">
        <ele>1271.3</ele>
        <time>2020-02-09T10:46:44Z</time>
      </trkpt>
      <trkpt lat="43.71719" lon="6.73097">
        <ele>1270.2</ele>
        <time>2020-02-09T10:46:47Z</time>
      </trkpt>
      <trkpt lat="43.71708" lon="6.73093">
        <ele>1268.5</ele>
        <time>2020-02-09T10:46:48Z</time>
      </trkpt>
      <trkpt lat="43.71702" lon="6.7309">
        <ele>1267.4</ele>
        <time>2020-02-09T10:46:49Z</time>
      </trkpt>
      <trkpt lat="43.71691" lon="6.73084">
        <ele>1265.6</ele>
        <time>2020-02-09T10:46:51Z</time>
      </trkpt>
      <trkpt lat="43.71688" lon="6.7308">
        <ele>1264.8</ele>
        <time>2020-02-09T10:46:54Z</time>
      </trkpt>
      <trkpt lat="43.71685" lon="6.73076">
        <ele>1264.2</ele>
        <time>2020-02-09T10:46:55Z</time>
      </trkpt>
      <trkpt lat="43.71667" lon="6.73066">
        <ele>1261</ele>
        <time>2020-02-09T10:46:57Z</time>
      </trkpt>
      <trkpt lat="43.71655" lon="6.73058">
        <ele>1258.9</ele>
        <time>2020-02-09T10:46:59Z</time>
      </trkpt>
      <trkpt lat="43.71642" lon="6.73051">
        <ele>1256.8</ele>
        <time>2020-02-09T10:47:01Z</time>
      </trkpt>
      <trkpt lat="43.71628" lon="6.7304">
        <ele>1254</ele>
        <time>2020-02-09T10:47:03Z</time>
      </trkpt>
      <trkpt lat="43.71621" lon="6.73034">
        <ele>1252.6</ele>
        <time>2020-02-09T10:47:04Z</time>
      </trkpt>
      <trkpt lat="43.71614" lon="6.73028">
        <ele>1251.4</ele>
        <time>2020-02-09T10:47:05Z</time>
      </trkpt>
      <trkpt lat="43.71602" lon="6.73018">
        <ele>1249.3</ele>
        <time>2020-02-09T10:47:07Z</time>
      </trkpt>
      <trkpt lat="43.71592" lon="6.73007">
        <ele>1247.7</ele>
        <time>2020-02-09T10:47:09Z</time>
      </trkpt>
      <trkpt lat="43.71583" lon="6.73">
        <ele>1245.9</ele>
        <time>2020-02-09T10:47:11Z</time>
      </trkpt>
      <trkpt lat="43.71578" lon="6.72999">
        <ele>1244.7</ele>
        <time>2020-02-09T10:47:12Z</time>
      </trkpt>
      <trkpt lat="43.71573" lon="6.72996">
        <ele>1243.3</ele>
        <time>2020-02-09T10:47:13Z</time>
      </trkpt>
      <trkpt lat="43.71566" lon="6.72983">
        <ele>1242.1</ele>
        <time>2020-02-09T10:47:15Z</time>
      </trkpt>
      <trkpt lat="43.71564" lon="6.72976">
        <ele>1241.4</ele>
        <time>2020-02-09T10:47:16Z</time>
      </trkpt>
      <trkpt lat="43.71561" lon="6.72969">
        <ele>1240.8</ele>
        <time>2020-02-09T10:47:17Z</time>
      </trkpt>
      <trkpt lat="43.7156" lon="6.72953">
        <ele>1239.5</ele>
        <time>2020-02-09T10:47:19Z</time>
      </trkpt>
      <trkpt lat="43.71559" lon="6.72937">
        <ele>1237.6</ele>
        <time>2020-02-09T10:47:21Z</time>
      </trkpt>
      <trkpt lat="43.71557" lon="6.72927">
        <ele>1235.9</ele>
        <time>2020-02-09T10:47:23Z</time>
      </trkpt>
      <trkpt lat="43.71554" lon="6.72915">
        <ele>1235.1</ele>
        <time>2020-02-09T10:47:25Z</time>
      </trkpt>
      <trkpt lat="43.71549" lon="6.72901">
        <ele>1232.5</ele>
        <time>2020-02-09T10:47:27Z</time>
      </trkpt>
      <trkpt lat="43.7154" lon="6.72885">
        <ele>1230.6</ele>
        <time>2020-02-09T10:47:29Z</time>
      </trkpt>
      <trkpt lat="43.7153" lon="6.7287">
        <ele>1227.5</ele>
        <time>2020-02-09T10:47:31Z</time>
      </trkpt>
      <trkpt lat="43.7152" lon="6.72862">
        <ele>1225.5</ele>
        <time>2020-02-09T10:47:33Z</time>
      </trkpt>
      <trkpt lat="43.71513" lon="6.72847">
        <ele>1223</ele>
        <time>2020-02-09T10:47:35Z</time>
      </trkpt>
      <trkpt lat="43.71506" lon="6.72837">
        <ele>1220.5</ele>
        <time>2020-02-09T10:47:37Z</time>
      </trkpt>
      <trkpt lat="43.71502" lon="6.72835">
        <ele>1219.3</ele>
        <time>2020-02-09T10:47:38Z</time>
      </trkpt>
      <trkpt lat="43.71498" lon="6.72831">
        <ele>1217.9</ele>
        <time>2020-02-09T10:47:39Z</time>
      </trkpt>
      <trkpt lat="43.71486" lon="6.72827">
        <ele>1215.4</ele>
        <time>2020-02-09T10:47:41Z</time>
      </trkpt>
      <trkpt lat="43.7148" lon="6.72826">
        <ele>1213.8</ele>
        <time>2020-02-09T10:47:42Z</time>
      </trkpt>
      <trkpt lat="43.71475" lon="6.72822">
        <ele>1212.5</ele>
        <time>2020-02-09T10:47:43Z</time>
      </trkpt>
      <trkpt lat="43.71467" lon="6.72814">
        <ele>1210.6</ele>
        <time>2020-02-09T10:47:45Z</time>
      </trkpt>
      <trkpt lat="43.71462" lon="6.72806">
        <ele>1208.6</ele>
        <time>2020-02-09T10:47:46Z</time>
      </trkpt>
      <trkpt lat="43.71451" lon="6.72788">
        <ele>1205.6</ele>
        <time>2020-02-09T10:47:48Z</time>
      </trkpt>
      <trkpt lat="43.71447" lon="6.72781">
        <ele>1204.2</ele>
        <time>2020-02-09T10:47:49Z</time>
      </trkpt>
      <trkpt lat="43.71444" lon="6.72776">
        <ele>1203</ele>
        <time>2020-02-09T10:47:50Z</time>
      </trkpt>
      <trkpt lat="43.71439" lon="6.7277">
        <ele>1201.5</ele>
        <time>2020-02-09T10:47:51Z</time>
      </trkpt>
      <trkpt lat="43.71435" lon="6.72762">
        <ele>1200.1</ele>
        <time>2020-02-09T10:47:52Z</time>
      </trkpt>
      <trkpt lat="43.71428" lon="6.72746">
        <ele>1198</ele>
        <time>2020-02-09T10:47:54Z</time>
      </trkpt>
      <trkpt lat="43.71423" lon="6.72738">
        <ele>1197.2</ele>
        <time>2020-02-09T10:47:55Z</time>
      </trkpt>
      <trkpt lat="43.71413" lon="6.72719">
        <ele>1194.4</ele>
        <time>2020-02-09T10:47:57Z</time>
      </trkpt>
      <trkpt lat="43.71403" lon="6.72699">
        <ele>1191.4</ele>
        <time>2020-02-09T10:47:59Z</time>
      </trkpt>
      <trkpt lat="43.71395" lon="6.72682">
        <ele>1189.4</ele>
        <time>2020-02-09T10:48:01Z</time>
      </trkpt>
      <trkpt lat="43.71386" lon="6.72665">
        <ele>1186.3</ele>
        <time>2020-02-09T10:48:03Z</time>
      </trkpt>
      <trkpt lat="43.71379" lon="6.72648">
        <ele>1184</ele>
        <time>2020-02-09T10:48:05Z</time>
      </trkpt>
      <trkpt lat="43.7137" lon="6.72635">
        <ele>1181.4</ele>
        <time>2020-02-09T10:48:07Z</time>
      </trkpt>
      <trkpt lat="43.71368" lon="6.72629">
        <ele>1180.5</ele>
        <time>2020-02-09T10:48:08Z</time>
      </trkpt>
      <trkpt lat="43.71367" lon="6.72623">
        <ele>1179.8</ele>
        <time>2020-02-09T10:48:09Z</time>
      </trkpt>
      <trkpt lat="43.71364" lon="6.72612">
        <ele>1178.6</ele>
        <time>2020-02-09T10:48:11Z</time>
      </trkpt>
      <trkpt lat="43.7136" lon="6.726">
        <ele>1176.8</ele>
        <time>2020-02-09T10:48:13Z</time>
      </trkpt>
      <trkpt lat="43.71356" lon="6.72584">
        <ele>1174.6</ele>
        <time>2020-02-09T10:48:15Z</time>
      </trkpt>
      <trkpt lat="43.71354" lon="6.72566">
        <ele>1171.9</ele>
        <time>2020-02-09T10:48:17Z</time>
      </trkpt>
      <trkpt lat="43.71351" lon="6.72558">
        <ele>1170.2</ele>
        <time>2020-02-09T10:48:18Z</time>
      </trkpt>
      <trkpt lat="43.71345" lon="6.72541">
        <ele>1167.9</ele>
        <time>2020-02-09T10:48:20Z</time>
      </trkpt>
      <trkpt lat="43.71338" lon="6.72529">
        <ele>1165.7</ele>
        <time>2020-02-09T10:48:22Z</time>
      </trkpt>
      <trkpt lat="43.71332" lon="6.72526">
        <ele>1164.6</ele>
        <time>2020-02-09T10:48:23Z</time>
      </trkpt>
      <trkpt lat="43.71321" lon="6.72518">
        <ele>1162.1</ele>
        <time>2020-02-09T10:48:25Z</time>
      </trkpt>
      <trkpt lat="43.71315" lon="6.72514">
        <ele>1160.4</ele>
        <time>2020-02-09T10:48:26Z</time>
      </trkpt>
      <trkpt lat="43.71303" lon="6.72508">
        <ele>1157.7</ele>
        <time>2020-02-09T10:48:28Z</time>
      </trkpt>
      <trkpt lat="43.71297" lon="6.72505">
        <ele>1155.9</ele>
        <time>2020-02-09T10:48:29Z</time>
      </trkpt>
      <trkpt lat="43.71284" lon="6.72498">
        <ele>1153</ele>
        <time>2020-02-09T10:48:31Z</time>
      </trkpt>
      <trkpt lat="43.71277" lon="6.72497">
        <ele>1151.2</ele>
        <time>2020-02-09T10:48:32Z</time>
      </trkpt>
      <trkpt lat="43.71263" lon="6.72488">
        <ele>1148.6</ele>
        <time>2020-02-09T10:48:34Z</time>
      </trkpt>
      <trkpt lat="43.7125" lon="6.72479">
        <ele>1145.6</ele>
        <time>2020-02-09T10:48:36Z</time>
      </trkpt>
      <trkpt lat="43.7124" lon="6.72477">
        <ele>1143.8</ele>
        <time>2020-02-09T10:48:38Z</time>
      </trkpt>
      <trkpt lat="43.71228" lon="6.72478">
        <ele>1142.1</ele>
        <time>2020-02-09T10:48:40Z</time>
      </trkpt>
      <trkpt lat="43.71219" lon="6.72478">
        <ele>1141.1</ele>
        <time>2020-02-09T10:48:42Z</time>
      </trkpt>
      <trkpt lat="43.71215" lon="6.72479">
        <ele>1140.6</ele>
        <time>2020-02-09T10:48:43Z</time>
      </trkpt>
      <trkpt lat="43.71211" lon="6.72478">
        <ele>1140.3</ele>
        <time>2020-02-09T10:48:44Z</time>
      </trkpt>
      <trkpt lat="43.71203" lon="6.72478">
        <ele>1139.5</ele>
        <time>2020-02-09T10:48:46Z</time>
      </trkpt>
      <trkpt lat="43.71199" lon="6.72479">
        <ele>1139.1</ele>
        <time>2020-02-09T10:48:47Z</time>
      </trkpt>
      <trkpt lat="43.71195" lon="6.72482">
        <ele>1138.7</ele>
        <time>2020-02-09T10:48:49Z</time>
      </trkpt>
      <trkpt lat="43.71186" lon="6.72485">
        <ele>1138</ele>
        <time>2020-02-09T10:48:55Z</time>
      </trkpt>
      <trkpt lat="43.71182" lon="6.72487">
        <ele>1137.8</ele>
        <time>2020-02-09T10:48:56Z</time>
      </trkpt>
      <trkpt lat="43.71175" lon="6.7249">
        <ele>1137.4</ele>
        <time>2020-02-09T10:48:57Z</time>
      </trkpt>
      <trkpt lat="43.71169" lon="6.72493">
        <ele>1137.1</ele>
        <time>2020-02-09T10:49:00Z</time>
      </trkpt>
      <trkpt lat="43.71165" lon="6.72496">
        <ele>1136.7</ele>
        <time>2020-02-09T10:49:01Z</time>
      </trkpt>
      <trkpt lat="43.71162" lon="6.72497">
        <ele>1136.5</ele>
        <time>2020-02-09T10:49:03Z</time>
      </trkpt>
      <trkpt lat="43.7116" lon="6.72493">
        <ele>1136.3</ele>
        <time>2020-02-09T10:49:09Z</time>
      </trkpt>
      <trkpt lat="43.71157" lon="6.72493">
        <ele>1136</ele>
        <time>2020-02-09T10:49:16Z</time>
      </trkpt>
      <trkpt lat="43.71165" lon="6.72496">
        <ele>1134.9</ele>
        <time>2020-02-09T10:49:21Z</time>
      </trkpt>
      <trkpt lat="43.71168" lon="6.72495">
        <ele>1134.5</ele>
        <time>2020-02-09T10:49:27Z</time>
      </trkpt>
      <trkpt lat="43.71155" lon="6.72496">
        <ele>1132.6</ele>
        <time>2020-02-09T10:51:04Z</time>
      </trkpt>
      <trkpt lat="43.71147" lon="6.72495">
        <ele>1131.2</ele>
        <time>2020-02-09T10:51:07Z</time>
      </trkpt>
      <trkpt lat="43.71142" lon="6.72495">
        <ele>1130.6</ele>
        <time>2020-02-09T10:51:10Z</time>
      </trkpt>
      <trkpt lat="43.71138" lon="6.72494">
        <ele>1130.2</ele>
        <time>2020-02-09T10:51:11Z</time>
      </trkpt>
      <trkpt lat="43.71119" lon="6.725">
        <ele>1126.7</ele>
        <time>2020-02-09T10:51:12Z</time>
      </trkpt>
      <trkpt lat="43.71106" lon="6.72505">
        <ele>1124.5</ele>
        <time>2020-02-09T10:51:14Z</time>
      </trkpt>
      <trkpt lat="43.71099" lon="6.72506">
        <ele>1123.4</ele>
        <time>2020-02-09T10:51:15Z</time>
      </trkpt>
      <trkpt lat="43.71087" lon="6.7251">
        <ele>1121.9</ele>
        <time>2020-02-09T10:51:17Z</time>
      </trkpt>
      <trkpt lat="43.71081" lon="6.72512">
        <ele>1121</ele>
        <time>2020-02-09T10:51:18Z</time>
      </trkpt>
      <trkpt lat="43.71075" lon="6.72514">
        <ele>1120.3</ele>
        <time>2020-02-09T10:51:19Z</time>
      </trkpt>
      <trkpt lat="43.71065" lon="6.72519">
        <ele>1119.1</ele>
        <time>2020-02-09T10:51:21Z</time>
      </trkpt>
      <trkpt lat="43.71059" lon="6.72521">
        <ele>1118.4</ele>
        <time>2020-02-09T10:51:22Z</time>
      </trkpt>
      <trkpt lat="43.71047" lon="6.72524">
        <ele>1116.9</ele>
        <time>2020-02-09T10:51:24Z</time>
      </trkpt>
      <trkpt lat="43.71035" lon="6.72529">
        <ele>1116.3</ele>
        <time>2020-02-09T10:51:26Z</time>
      </trkpt>
      <trkpt lat="43.71029" lon="6.72531">
        <ele>1115.9</ele>
        <time>2020-02-09T10:51:27Z</time>
      </trkpt>
      <trkpt lat="43.71017" lon="6.72535">
        <ele>1114.7</ele>
        <time>2020-02-09T10:51:29Z</time>
      </trkpt>
      <trkpt lat="43.71011" lon="6.72537">
        <ele>1114</ele>
        <time>2020-02-09T10:51:30Z</time>
      </trkpt>
      <trkpt lat="43.71" lon="6.72543">
        <ele>1112.9</ele>
        <time>2020-02-09T10:51:32Z</time>
      </trkpt>
      <trkpt lat="43.70995" lon="6.72547">
        <ele>1112.1</ele>
        <time>2020-02-09T10:51:33Z</time>
      </trkpt>
      <trkpt lat="43.70983" lon="6.72552">
        <ele>1110.7</ele>
        <time>2020-02-09T10:51:35Z</time>
      </trkpt>
      <trkpt lat="43.7097" lon="6.7256">
        <ele>1109.1</ele>
        <time>2020-02-09T10:51:37Z</time>
      </trkpt>
      <trkpt lat="43.70964" lon="6.72563">
        <ele>1108.4</ele>
        <time>2020-02-09T10:51:38Z</time>
      </trkpt>
      <trkpt lat="43.70958" lon="6.72567">
        <ele>1107.5</ele>
        <time>2020-02-09T10:51:39Z</time>
      </trkpt>
      <trkpt lat="43.70951" lon="6.72571">
        <ele>1106.5</ele>
        <time>2020-02-09T10:51:40Z</time>
      </trkpt>
      <trkpt lat="43.70939" lon="6.72583">
        <ele>1103.9</ele>
        <time>2020-02-09T10:51:42Z</time>
      </trkpt>
      <trkpt lat="43.70933" lon="6.7259">
        <ele>1102.8</ele>
        <time>2020-02-09T10:51:43Z</time>
      </trkpt>
      <trkpt lat="43.70918" lon="6.72599">
        <ele>1099.6</ele>
        <time>2020-02-09T10:51:45Z</time>
      </trkpt>
      <trkpt lat="43.70911" lon="6.72604">
        <ele>1097.9</ele>
        <time>2020-02-09T10:51:46Z</time>
      </trkpt>
      <trkpt lat="43.70904" lon="6.72608">
        <ele>1096.3</ele>
        <time>2020-02-09T10:51:47Z</time>
      </trkpt>
      <trkpt lat="43.7089" lon="6.72608">
        <ele>1093.4</ele>
        <time>2020-02-09T10:51:49Z</time>
      </trkpt>
      <trkpt lat="43.70883" lon="6.7261">
        <ele>1091.9</ele>
        <time>2020-02-09T10:51:50Z</time>
      </trkpt>
      <trkpt lat="43.70876" lon="6.72613">
        <ele>1090.3</ele>
        <time>2020-02-09T10:51:51Z</time>
      </trkpt>
      <trkpt lat="43.70862" lon="6.7262">
        <ele>1087</ele>
        <time>2020-02-09T10:51:53Z</time>
      </trkpt>
      <trkpt lat="43.70848" lon="6.72623">
        <ele>1084.7</ele>
        <time>2020-02-09T10:51:55Z</time>
      </trkpt>
      <trkpt lat="43.70837" lon="6.72622">
        <ele>1082.4</ele>
        <time>2020-02-09T10:51:57Z</time>
      </trkpt>
      <trkpt lat="43.70831" lon="6.72621">
        <ele>1081</ele>
        <time>2020-02-09T10:51:58Z</time>
      </trkpt>
      <trkpt lat="43.70821" lon="6.7262">
        <ele>1078.5</ele>
        <time>2020-02-09T10:52:00Z</time>
      </trkpt>
      <trkpt lat="43.70812" lon="6.72616">
        <ele>1077</ele>
        <time>2020-02-09T10:52:02Z</time>
      </trkpt>
      <trkpt lat="43.70802" lon="6.72617">
        <ele>1074.6</ele>
        <time>2020-02-09T10:52:04Z</time>
      </trkpt>
      <trkpt lat="43.7079" lon="6.72613">
        <ele>1072</ele>
        <time>2020-02-09T10:52:06Z</time>
      </trkpt>
      <trkpt lat="43.70785" lon="6.7261">
        <ele>1071.2</ele>
        <time>2020-02-09T10:52:07Z</time>
      </trkpt>
      <trkpt lat="43.70781" lon="6.72606">
        <ele>1070.2</ele>
        <time>2020-02-09T10:52:08Z</time>
      </trkpt>
      <trkpt lat="43.70778" lon="6.72604">
        <ele>1069.6</ele>
        <time>2020-02-09T10:52:09Z</time>
      </trkpt>
      <trkpt lat="43.70778" lon="6.72608">
        <ele>1068.9</ele>
        <time>2020-02-09T10:52:21Z</time>
      </trkpt>
      <trkpt lat="43.70776" lon="6.72606">
        <ele>1068.3</ele>
        <time>2020-02-09T10:52:23Z</time>
      </trkpt>
      <trkpt lat="43.70774" lon="6.72603">
        <ele>1067.6</ele>
        <time>2020-02-09T10:52:24Z</time>
      </trkpt>
      <trkpt lat="43.70759" lon="6.72596">
        <ele>1064.6</ele>
        <time>2020-02-09T10:52:25Z</time>
      </trkpt>
      <trkpt lat="43.70766" lon="6.72595">
        <ele>1063.2</ele>
        <time>2020-02-09T10:52:28Z</time>
      </trkpt>
      <trkpt lat="43.70769" lon="6.72594">
        <ele>1062.3</ele>
        <time>2020-02-09T10:52:29Z</time>
      </trkpt>
      <trkpt lat="43.70728" lon="6.72603">
        <ele>1055.7</ele>
        <time>2020-02-09T10:52:32Z</time>
      </trkpt>
      <trkpt lat="43.7072" lon="6.72605">
        <ele>1054.3</ele>
        <time>2020-02-09T10:52:33Z</time>
      </trkpt>
      <trkpt lat="43.70705" lon="6.72607">
        <ele>1050.8</ele>
        <time>2020-02-09T10:52:35Z</time>
      </trkpt>
      <trkpt lat="43.70698" lon="6.72607">
        <ele>1048.8</ele>
        <time>2020-02-09T10:52:36Z</time>
      </trkpt>
      <trkpt lat="43.70683" lon="6.72604">
        <ele>1045.6</ele>
        <time>2020-02-09T10:52:38Z</time>
      </trkpt>
      <trkpt lat="43.70677" lon="6.72604">
        <ele>1043.6</ele>
        <time>2020-02-09T10:52:39Z</time>
      </trkpt>
      <trkpt lat="43.70671" lon="6.72603">
        <ele>1042.1</ele>
        <time>2020-02-09T10:52:40Z</time>
      </trkpt>
      <trkpt lat="43.70662" lon="6.72602">
        <ele>1040</ele>
        <time>2020-02-09T10:52:42Z</time>
      </trkpt>
      <trkpt lat="43.70658" lon="6.72604">
        <ele>1038.9</ele>
        <time>2020-02-09T10:52:43Z</time>
      </trkpt>
      <trkpt lat="43.70653" lon="6.72607">
        <ele>1037.6</ele>
        <time>2020-02-09T10:52:44Z</time>
      </trkpt>
      <trkpt lat="43.70647" lon="6.72609">
        <ele>1035.8</ele>
        <time>2020-02-09T10:52:45Z</time>
      </trkpt>
      <trkpt lat="43.7064" lon="6.72611">
        <ele>1034</ele>
        <time>2020-02-09T10:52:46Z</time>
      </trkpt>
      <trkpt lat="43.70632" lon="6.72612">
        <ele>1032.4</ele>
        <time>2020-02-09T10:52:47Z</time>
      </trkpt>
      <trkpt lat="43.70625" lon="6.72612">
        <ele>1030.6</ele>
        <time>2020-02-09T10:52:48Z</time>
      </trkpt>
      <trkpt lat="43.70611" lon="6.72609">
        <ele>1026.3</ele>
        <time>2020-02-09T10:52:50Z</time>
      </trkpt>
      <trkpt lat="43.70604" lon="6.72608">
        <ele>1024.4</ele>
        <time>2020-02-09T10:52:51Z</time>
      </trkpt>
      <trkpt lat="43.70597" lon="6.72608">
        <ele>1023</ele>
        <time>2020-02-09T10:52:52Z</time>
      </trkpt>
      <trkpt lat="43.7059" lon="6.72611">
        <ele>1021.6</ele>
        <time>2020-02-09T10:52:53Z</time>
      </trkpt>
      <trkpt lat="43.70576" lon="6.72621">
        <ele>1020.1</ele>
        <time>2020-02-09T10:52:55Z</time>
      </trkpt>
      <trkpt lat="43.7057" lon="6.72628">
        <ele>1018.9</ele>
        <time>2020-02-09T10:52:56Z</time>
      </trkpt>
      <trkpt lat="43.7056" lon="6.72645">
        <ele>1018.4</ele>
        <time>2020-02-09T10:52:58Z</time>
      </trkpt>
      <trkpt lat="43.70555" lon="6.72653">
        <ele>1018</ele>
        <time>2020-02-09T10:52:59Z</time>
      </trkpt>
      <trkpt lat="43.70544" lon="6.72665">
        <ele>1017.2</ele>
        <time>2020-02-09T10:53:01Z</time>
      </trkpt>
      <trkpt lat="43.70536" lon="6.72675">
        <ele>1016.9</ele>
        <time>2020-02-09T10:53:03Z</time>
      </trkpt>
      <trkpt lat="43.70534" lon="6.72683">
        <ele>1016.1</ele>
        <time>2020-02-09T10:53:04Z</time>
      </trkpt>
      <trkpt lat="43.70532" lon="6.7269">
        <ele>1015.5</ele>
        <time>2020-02-09T10:53:05Z</time>
      </trkpt>
      <trkpt lat="43.70526" lon="6.72705">
        <ele>1013.3</ele>
        <time>2020-02-09T10:53:07Z</time>
      </trkpt>
      <trkpt lat="43.7052" lon="6.72717">
        <ele>1011.9</ele>
        <time>2020-02-09T10:53:09Z</time>
      </trkpt>
      <trkpt lat="43.70518" lon="6.72723">
        <ele>1011.3</ele>
        <time>2020-02-09T10:53:10Z</time>
      </trkpt>
      <trkpt lat="43.70514" lon="6.72735">
        <ele>1009.9</ele>
        <time>2020-02-09T10:53:12Z</time>
      </trkpt>
      <trkpt lat="43.70511" lon="6.72739">
        <ele>1008.9</ele>
        <time>2020-02-09T10:53:13Z</time>
      </trkpt>
      <trkpt lat="43.70507" lon="6.72746">
        <ele>1007.6</ele>
        <time>2020-02-09T10:53:15Z</time>
      </trkpt>
      <trkpt lat="43.70505" lon="6.7275">
        <ele>1007.1</ele>
        <time>2020-02-09T10:53:16Z</time>
      </trkpt>
      <trkpt lat="43.70503" lon="6.72755">
        <ele>1006.5</ele>
        <time>2020-02-09T10:53:17Z</time>
      </trkpt>
      <trkpt lat="43.70501" lon="6.72763">
        <ele>1005.6</ele>
        <time>2020-02-09T10:53:19Z</time>
      </trkpt>
      <trkpt lat="43.70492" lon="6.72777">
        <ele>1003.2</ele>
        <time>2020-02-09T10:53:23Z</time>
      </trkpt>
      <trkpt lat="43.70489" lon="6.72788">
        <ele>1001.4</ele>
        <time>2020-02-09T10:53:24Z</time>
      </trkpt>
      <trkpt lat="43.70487" lon="6.72795">
        <ele>1000.6</ele>
        <time>2020-02-09T10:53:25Z</time>
      </trkpt>
      <trkpt lat="43.70483" lon="6.7281">
        <ele>998.5</ele>
        <time>2020-02-09T10:53:27Z</time>
      </trkpt>
      <trkpt lat="43.7048" lon="6.72815">
        <ele>997.3</ele>
        <time>2020-02-09T10:53:28Z</time>
      </trkpt>
      <trkpt lat="43.70475" lon="6.72821">
        <ele>996</ele>
        <time>2020-02-09T10:53:32Z</time>
      </trkpt>
      <trkpt lat="43.70474" lon="6.72825">
        <ele>995.4</ele>
        <time>2020-02-09T10:53:33Z</time>
      </trkpt>
      <trkpt lat="43.70469" lon="6.72834">
        <ele>993.7</ele>
        <time>2020-02-09T10:53:35Z</time>
      </trkpt>
      <trkpt lat="43.70467" lon="6.7284">
        <ele>992.6</ele>
        <time>2020-02-09T10:53:36Z</time>
      </trkpt>
      <trkpt lat="43.70462" lon="6.72849">
        <ele>991.4</ele>
        <time>2020-02-09T10:53:38Z</time>
      </trkpt>
      <trkpt lat="43.70457" lon="6.72858">
        <ele>988.9</ele>
        <time>2020-02-09T10:53:39Z</time>
      </trkpt>
      <trkpt lat="43.70456" lon="6.72864">
        <ele>988.2</ele>
        <time>2020-02-09T10:53:40Z</time>
      </trkpt>
      <trkpt lat="43.70452" lon="6.72874">
        <ele>986.1</ele>
        <time>2020-02-09T10:53:43Z</time>
      </trkpt>
      <trkpt lat="43.70448" lon="6.72884">
        <ele>983.9</ele>
        <time>2020-02-09T10:53:44Z</time>
      </trkpt>
      <trkpt lat="43.70445" lon="6.72892">
        <ele>982.7</ele>
        <time>2020-02-09T10:53:46Z</time>
      </trkpt>
      <trkpt lat="43.70442" lon="6.72896">
        <ele>981.4</ele>
        <time>2020-02-09T10:53:47Z</time>
      </trkpt>
      <trkpt lat="43.70433" lon="6.72904">
        <ele>979.6</ele>
        <time>2020-02-09T10:53:50Z</time>
      </trkpt>
      <trkpt lat="43.70429" lon="6.72907">
        <ele>978.6</ele>
        <time>2020-02-09T10:53:51Z</time>
      </trkpt>
      <trkpt lat="43.70422" lon="6.72917">
        <ele>975.7</ele>
        <time>2020-02-09T10:53:54Z</time>
      </trkpt>
      <trkpt lat="43.70416" lon="6.72926">
        <ele>974</ele>
        <time>2020-02-09T10:53:55Z</time>
      </trkpt>
      <trkpt lat="43.70417" lon="6.72933">
        <ele>974.3</ele>
        <time>2020-02-09T10:53:57Z</time>
      </trkpt>
      <trkpt lat="43.70419" lon="6.72938">
        <ele>975.4</ele>
        <time>2020-02-09T10:53:58Z</time>
      </trkpt>
      <trkpt lat="43.70419" lon="6.72942">
        <ele>976.2</ele>
        <time>2020-02-09T10:53:59Z</time>
      </trkpt>
      <trkpt lat="43.7042" lon="6.72947">
        <ele>976.5</ele>
        <time>2020-02-09T10:54:00Z</time>
      </trkpt>
      <trkpt lat="43.7042" lon="6.72954">
        <ele>977.1</ele>
        <time>2020-02-09T10:54:02Z</time>
      </trkpt>
      <trkpt lat="43.70424" lon="6.72965">
        <ele>978.7</ele>
        <time>2020-02-09T10:54:04Z</time>
      </trkpt>
      <trkpt lat="43.70424" lon="6.72971">
        <ele>978.5</ele>
        <time>2020-02-09T10:54:06Z</time>
      </trkpt>
      <trkpt lat="43.70423" lon="6.72979">
        <ele>978.6</ele>
        <time>2020-02-09T10:54:09Z</time>
      </trkpt>
      <trkpt lat="43.70426" lon="6.72995">
        <ele>978.6</ele>
        <time>2020-02-09T10:54:12Z</time>
      </trkpt>
      <trkpt lat="43.70431" lon="6.73022">
        <ele>976.8</ele>
        <time>2020-02-09T10:54:14Z</time>
      </trkpt>
      <trkpt lat="43.70434" lon="6.73023">
        <ele>976.5</ele>
        <time>2020-02-09T10:54:38Z</time>
      </trkpt>
      <trkpt lat="43.70434" lon="6.73017">
        <ele>976.2</ele>
        <time>2020-02-09T10:55:21Z</time>
      </trkpt>
      <trkpt lat="43.70426" lon="6.73009">
        <ele>974.5</ele>
        <time>2020-02-09T10:55:24Z</time>
      </trkpt>
      <trkpt lat="43.70421" lon="6.73">
        <ele>973</ele>
        <time>2020-02-09T10:55:26Z</time>
      </trkpt>
      <trkpt lat="43.7042" lon="6.73016">
        <ele>970.1</ele>
        <time>2020-02-09T10:55:31Z</time>
      </trkpt>
      <trkpt lat="43.70416" lon="6.73034">
        <ele>968.1</ele>
        <time>2020-02-09T10:55:34Z</time>
      </trkpt>
      <trkpt lat="43.70415" lon="6.73072">
        <ele>963.7</ele>
        <time>2020-02-09T10:55:35Z</time>
      </trkpt>
      <trkpt lat="43.70415" lon="6.73086">
        <ele>963.5</ele>
        <time>2020-02-09T10:55:36Z</time>
      </trkpt>
      <trkpt lat="43.70418" lon="6.7311">
        <ele>962.6</ele>
        <time>2020-02-09T10:55:38Z</time>
      </trkpt>
      <trkpt lat="43.70421" lon="6.73119">
        <ele>962.9</ele>
        <time>2020-02-09T10:55:39Z</time>
      </trkpt>
      <trkpt lat="43.70427" lon="6.73137">
        <ele>962.6</ele>
        <time>2020-02-09T10:55:41Z</time>
      </trkpt>
      <trkpt lat="43.70429" lon="6.73143">
        <ele>962.5</ele>
        <time>2020-02-09T10:55:42Z</time>
      </trkpt>
      <trkpt lat="43.70432" lon="6.73156">
        <ele>962</ele>
        <time>2020-02-09T10:55:44Z</time>
      </trkpt>
      <trkpt lat="43.70433" lon="6.73164">
        <ele>961.7</ele>
        <time>2020-02-09T10:55:47Z</time>
      </trkpt>
      <trkpt lat="43.70435" lon="6.73168">
        <ele>961.6</ele>
        <time>2020-02-09T10:55:48Z</time>
      </trkpt>
      <trkpt lat="43.70437" lon="6.73171">
        <ele>961.4</ele>
        <time>2020-02-09T10:55:49Z</time>
      </trkpt>
      <trkpt lat="43.70443" lon="6.73179">
        <ele>961.3</ele>
        <time>2020-02-09T10:55:53Z</time>
      </trkpt>
      <trkpt lat="43.70446" lon="6.73187">
        <ele>961</ele>
        <time>2020-02-09T10:55:54Z</time>
      </trkpt>
      <trkpt lat="43.70447" lon="6.73193">
        <ele>960.2</ele>
        <time>2020-02-09T10:55:56Z</time>
      </trkpt>
      <trkpt lat="43.70442" lon="6.73196">
        <ele>958.7</ele>
        <time>2020-02-09T10:56:00Z</time>
      </trkpt>
      <trkpt lat="43.70441" lon="6.732">
        <ele>957.4</ele>
        <time>2020-02-09T10:56:03Z</time>
      </trkpt>
      <trkpt lat="43.70432" lon="6.73205">
        <ele>954.3</ele>
        <time>2020-02-09T10:56:06Z</time>
      </trkpt>
      <trkpt lat="43.70431" lon="6.73216">
        <ele>951.6</ele>
        <time>2020-02-09T10:56:09Z</time>
      </trkpt>
      <trkpt lat="43.70425" lon="6.73226">
        <ele>948.5</ele>
        <time>2020-02-09T10:56:12Z</time>
      </trkpt>
      <trkpt lat="43.70422" lon="6.73229">
        <ele>947.4</ele>
        <time>2020-02-09T10:56:13Z</time>
      </trkpt>
      <trkpt lat="43.70412" lon="6.73237">
        <ele>943.9</ele>
        <time>2020-02-09T10:56:16Z</time>
      </trkpt>
      <trkpt lat="43.70408" lon="6.73244">
        <ele>941.8</ele>
        <time>2020-02-09T10:56:17Z</time>
      </trkpt>
      <trkpt lat="43.70402" lon="6.73252">
        <ele>938.9</ele>
        <time>2020-02-09T10:56:18Z</time>
      </trkpt>
      <trkpt lat="43.70399" lon="6.73259">
        <ele>937.1</ele>
        <time>2020-02-09T10:56:20Z</time>
      </trkpt>
      <trkpt lat="43.70393" lon="6.73269">
        <ele>933.8</ele>
        <time>2020-02-09T10:56:22Z</time>
      </trkpt>
      <trkpt lat="43.7039" lon="6.73277">
        <ele>931.6</ele>
        <time>2020-02-09T10:56:25Z</time>
      </trkpt>
      <trkpt lat="43.70387" lon="6.73285">
        <ele>929.7</ele>
        <time>2020-02-09T10:56:26Z</time>
      </trkpt>
      <trkpt lat="43.70387" lon="6.73292">
        <ele>929.4</ele>
        <time>2020-02-09T10:56:29Z</time>
      </trkpt>
      <trkpt lat="43.70388" lon="6.73294">
        <ele>929.3</ele>
        <time>2020-02-09T10:56:30Z</time>
      </trkpt>
      <trkpt lat="43.70388" lon="6.73299">
        <ele>929.1</ele>
        <time>2020-02-09T10:56:31Z</time>
      </trkpt>
      <trkpt lat="43.7039" lon="6.7331">
        <ele>928.1</ele>
        <time>2020-02-09T10:56:33Z</time>
      </trkpt>
      <trkpt lat="43.7039" lon="6.73316">
        <ele>927.2</ele>
        <time>2020-02-09T10:56:34Z</time>
      </trkpt>
      <trkpt lat="43.7039" lon="6.73321">
        <ele>926.8</ele>
        <time>2020-02-09T10:56:35Z</time>
      </trkpt>
      <trkpt lat="43.70386" lon="6.73322">
        <ele>926.2</ele>
        <time>2020-02-09T10:57:01Z</time>
      </trkpt>
      <trkpt lat="43.70383" lon="6.73326">
        <ele>925</ele>
        <time>2020-02-09T10:57:03Z</time>
      </trkpt>
      <trkpt lat="43.70374" lon="6.73332">
        <ele>922.8</ele>
        <time>2020-02-09T10:57:05Z</time>
      </trkpt>
      <trkpt lat="43.7037" lon="6.73333">
        <ele>921.7</ele>
        <time>2020-02-09T10:57:06Z</time>
      </trkpt>
      <trkpt lat="43.70366" lon="6.73335">
        <ele>920.6</ele>
        <time>2020-02-09T10:57:09Z</time>
      </trkpt>
      <trkpt lat="43.70361" lon="6.73337">
        <ele>919</ele>
        <time>2020-02-09T10:57:10Z</time>
      </trkpt>
      <trkpt lat="43.70359" lon="6.73339">
        <ele>918.5</ele>
        <time>2020-02-09T10:57:13Z</time>
      </trkpt>
      <trkpt lat="43.70352" lon="6.73343">
        <ele>917.4</ele>
        <time>2020-02-09T10:57:16Z</time>
      </trkpt>
      <trkpt lat="43.70348" lon="6.73345">
        <ele>916.7</ele>
        <time>2020-02-09T10:57:17Z</time>
      </trkpt>
      <trkpt lat="43.70342" lon="6.73351">
        <ele>915.8</ele>
        <time>2020-02-09T10:57:20Z</time>
      </trkpt>
      <trkpt lat="43.7034" lon="6.73353">
        <ele>915.5</ele>
        <time>2020-02-09T10:57:21Z</time>
      </trkpt>
      <trkpt lat="43.70338" lon="6.73356">
        <ele>915.2</ele>
        <time>2020-02-09T10:57:24Z</time>
      </trkpt>
      <trkpt lat="43.70337" lon="6.7336">
        <ele>914.9</ele>
        <time>2020-02-09T10:57:38Z</time>
      </trkpt>
      <trkpt lat="43.70339" lon="6.73364">
        <ele>914.6</ele>
        <time>2020-02-09T10:57:41Z</time>
      </trkpt>
      <trkpt lat="43.70341" lon="6.73373">
        <ele>914.6</ele>
        <time>2020-02-09T10:57:45Z</time>
      </trkpt>
      <trkpt lat="43.70346" lon="6.73384">
        <ele>913.8</ele>
        <time>2020-02-09T10:57:48Z</time>
      </trkpt>
      <trkpt lat="43.70348" lon="6.73389">
        <ele>913.6</ele>
        <time>2020-02-09T10:57:49Z</time>
      </trkpt>
      <trkpt lat="43.7035" lon="6.73393">
        <ele>913.4</ele>
        <time>2020-02-09T10:57:51Z</time>
      </trkpt>
      <trkpt lat="43.70352" lon="6.73396">
        <ele>913.3</ele>
        <time>2020-02-09T10:57:52Z</time>
      </trkpt>
      <trkpt lat="43.70355" lon="6.73401">
        <ele>913.2</ele>
        <time>2020-02-09T10:57:53Z</time>
      </trkpt>
      <trkpt lat="43.70363" lon="6.73412">
        <ele>912.8</ele>
        <time>2020-02-09T10:57:57Z</time>
      </trkpt>
      <trkpt lat="43.70366" lon="6.73415">
        <ele>912.8</ele>
        <time>2020-02-09T10:57:58Z</time>
      </trkpt>
      <trkpt lat="43.70372" lon="6.73419">
        <ele>912.6</ele>
        <time>2020-02-09T10:58:01Z</time>
      </trkpt>
      <trkpt lat="43.70377" lon="6.73419">
        <ele>912.4</ele>
        <time>2020-02-09T10:58:02Z</time>
      </trkpt>
      <trkpt lat="43.70381" lon="6.73418">
        <ele>912.3</ele>
        <time>2020-02-09T10:58:04Z</time>
      </trkpt>
      <trkpt lat="43.70386" lon="6.73417">
        <ele>912.1</ele>
        <time>2020-02-09T10:58:05Z</time>
      </trkpt>
      <trkpt lat="43.70395" lon="6.73418">
        <ele>911.9</ele>
        <time>2020-02-09T10:58:08Z</time>
      </trkpt>
      <trkpt lat="43.70404" lon="6.73421">
        <ele>911.5</ele>
        <time>2020-02-09T10:58:11Z</time>
      </trkpt>
      <trkpt lat="43.70408" lon="6.73424">
        <ele>911.2</ele>
        <time>2020-02-09T10:58:12Z</time>
      </trkpt>
      <trkpt lat="43.70412" lon="6.73427">
        <ele>911</ele>
        <time>2020-02-09T10:58:14Z</time>
      </trkpt>
      <trkpt lat="43.70418" lon="6.7343">
        <ele>910.7</ele>
        <time>2020-02-09T10:58:17Z</time>
      </trkpt>
      <trkpt lat="43.70421" lon="6.7343">
        <ele>910.5</ele>
        <time>2020-02-09T10:58:18Z</time>
      </trkpt>
      <trkpt lat="43.70425" lon="6.73429">
        <ele>910.4</ele>
        <time>2020-02-09T10:58:19Z</time>
      </trkpt>
      <trkpt lat="43.70435" lon="6.7343">
        <ele>909.9</ele>
        <time>2020-02-09T10:58:22Z</time>
      </trkpt>
      <trkpt lat="43.70446" lon="6.73431">
        <ele>909.2</ele>
        <time>2020-02-09T10:58:25Z</time>
      </trkpt>
      <trkpt lat="43.7045" lon="6.73433">
        <ele>909</ele>
        <time>2020-02-09T10:58:26Z</time>
      </trkpt>
      <trkpt lat="43.70455" lon="6.73436">
        <ele>908.7</ele>
        <time>2020-02-09T10:58:27Z</time>
      </trkpt>
      <trkpt lat="43.7047" lon="6.73447">
        <ele>907.5</ele>
        <time>2020-02-09T10:58:30Z</time>
      </trkpt>
      <trkpt lat="43.70483" lon="6.73451">
        <ele>906.3</ele>
        <time>2020-02-09T10:58:33Z</time>
      </trkpt>
      <trkpt lat="43.705" lon="6.73457">
        <ele>904.8</ele>
        <time>2020-02-09T10:58:36Z</time>
      </trkpt>
      <trkpt lat="43.70504" lon="6.73459">
        <ele>904.3</ele>
        <time>2020-02-09T10:58:37Z</time>
      </trkpt>
      <trkpt lat="43.70511" lon="6.73465">
        <ele>903.4</ele>
        <time>2020-02-09T10:58:40Z</time>
      </trkpt>
      <trkpt lat="43.70515" lon="6.73464">
        <ele>903</ele>
        <time>2020-02-09T10:58:41Z</time>
      </trkpt>
      <trkpt lat="43.70521" lon="6.73471">
        <ele>902.1</ele>
        <time>2020-02-09T10:58:44Z</time>
      </trkpt>
      <trkpt lat="43.70524" lon="6.73475">
        <ele>901.8</ele>
        <time>2020-02-09T10:58:45Z</time>
      </trkpt>
      <trkpt lat="43.70527" lon="6.73479">
        <ele>901.4</ele>
        <time>2020-02-09T10:58:46Z</time>
      </trkpt>
      <trkpt lat="43.7053" lon="6.73481">
        <ele>901</ele>
        <time>2020-02-09T10:58:47Z</time>
      </trkpt>
      <trkpt lat="43.70534" lon="6.73483">
        <ele>900.5</ele>
        <time>2020-02-09T10:58:48Z</time>
      </trkpt>
      <trkpt lat="43.7054" lon="6.73488">
        <ele>899.8</ele>
        <time>2020-02-09T10:58:50Z</time>
      </trkpt>
      <trkpt lat="43.70547" lon="6.73488">
        <ele>899.1</ele>
        <time>2020-02-09T10:58:53Z</time>
      </trkpt>
      <trkpt lat="43.70551" lon="6.73489">
        <ele>898.8</ele>
        <time>2020-02-09T10:58:54Z</time>
      </trkpt>
      <trkpt lat="43.70561" lon="6.73491">
        <ele>898.1</ele>
        <time>2020-02-09T10:58:55Z</time>
      </trkpt>
      <trkpt lat="43.70564" lon="6.73492">
        <ele>898</ele>
        <time>2020-02-09T10:58:56Z</time>
      </trkpt>
      <trkpt lat="43.70573" lon="6.73493">
        <ele>897.5</ele>
        <time>2020-02-09T10:58:59Z</time>
      </trkpt>
      <trkpt lat="43.70578" lon="6.73494">
        <ele>897.2</ele>
        <time>2020-02-09T10:59:00Z</time>
      </trkpt>
      <trkpt lat="43.7059" lon="6.73498">
        <ele>896.6</ele>
        <time>2020-02-09T10:59:01Z</time>
      </trkpt>
      <trkpt lat="43.70598" lon="6.735">
        <ele>896.4</ele>
        <time>2020-02-09T10:59:04Z</time>
      </trkpt>
      <trkpt lat="43.70607" lon="6.73513">
        <ele>896.1</ele>
        <time>2020-02-09T10:59:07Z</time>
      </trkpt>
      <trkpt lat="43.7061" lon="6.73519">
        <ele>896.1</ele>
        <time>2020-02-09T10:59:08Z</time>
      </trkpt>
      <trkpt lat="43.70612" lon="6.73523">
        <ele>896.1</ele>
        <time>2020-02-09T10:59:10Z</time>
      </trkpt>
      <trkpt lat="43.7062" lon="6.73535">
        <ele>896.2</ele>
        <time>2020-02-09T10:59:12Z</time>
      </trkpt>
      <trkpt lat="43.70623" lon="6.7354">
        <ele>896.3</ele>
        <time>2020-02-09T10:59:15Z</time>
      </trkpt>
      <trkpt lat="43.70627" lon="6.73545">
        <ele>896.4</ele>
        <time>2020-02-09T10:59:17Z</time>
      </trkpt>
      <trkpt lat="43.70631" lon="6.73554">
        <ele>896.6</ele>
        <time>2020-02-09T10:59:20Z</time>
      </trkpt>
      <trkpt lat="43.70633" lon="6.73559">
        <ele>896.7</ele>
        <time>2020-02-09T10:59:21Z</time>
      </trkpt>
      <trkpt lat="43.70636" lon="6.73563">
        <ele>896.8</ele>
        <time>2020-02-09T10:59:22Z</time>
      </trkpt>
      <trkpt lat="43.70638" lon="6.73569">
        <ele>896.6</ele>
        <time>2020-02-09T10:59:23Z</time>
      </trkpt>
      <trkpt lat="43.70642" lon="6.7358">
        <ele>896.4</ele>
        <time>2020-02-09T10:59:26Z</time>
      </trkpt>
      <trkpt lat="43.70643" lon="6.73584">
        <ele>896.3</ele>
        <time>2020-02-09T10:59:27Z</time>
      </trkpt>
      <trkpt lat="43.70646" lon="6.73595">
        <ele>896.2</ele>
        <time>2020-02-09T10:59:30Z</time>
      </trkpt>
      <trkpt lat="43.70647" lon="6.73598">
        <ele>896.1</ele>
        <time>2020-02-09T10:59:31Z</time>
      </trkpt>
      <trkpt lat="43.70651" lon="6.73608">
        <ele>896.2</ele>
        <time>2020-02-09T10:59:34Z</time>
      </trkpt>
      <trkpt lat="43.70655" lon="6.73618">
        <ele>896.3</ele>
        <time>2020-02-09T10:59:37Z</time>
      </trkpt>
      <trkpt lat="43.70659" lon="6.73627">
        <ele>896.4</ele>
        <time>2020-02-09T10:59:40Z</time>
      </trkpt>
      <trkpt lat="43.70661" lon="6.73636">
        <ele>896.5</ele>
        <time>2020-02-09T10:59:43Z</time>
      </trkpt>
      <trkpt lat="43.70664" lon="6.73645">
        <ele>896.6</ele>
        <time>2020-02-09T10:59:46Z</time>
      </trkpt>
      <trkpt lat="43.70665" lon="6.73648">
        <ele>896.6</ele>
        <time>2020-02-09T10:59:47Z</time>
      </trkpt>
      <trkpt lat="43.70668" lon="6.73653">
        <ele>896.7</ele>
        <time>2020-02-09T10:59:50Z</time>
      </trkpt>
      <trkpt lat="43.70672" lon="6.73664">
        <ele>896.8</ele>
        <time>2020-02-09T10:59:52Z</time>
      </trkpt>
      <trkpt lat="43.70673" lon="6.73668">
        <ele>896.8</ele>
        <time>2020-02-09T10:59:54Z</time>
      </trkpt>
      <trkpt lat="43.70674" lon="6.73672">
        <ele>896.8</ele>
        <time>2020-02-09T10:59:56Z</time>
      </trkpt>
      <trkpt lat="43.70676" lon="6.73675">
        <ele>896.9</ele>
        <time>2020-02-09T10:59:57Z</time>
      </trkpt>
      <trkpt lat="43.70682" lon="6.73688">
        <ele>896.9</ele>
        <time>2020-02-09T11:00:00Z</time>
      </trkpt>
      <trkpt lat="43.70684" lon="6.73693">
        <ele>896.9</ele>
        <time>2020-02-09T11:00:01Z</time>
      </trkpt>
      <trkpt lat="43.70686" lon="6.73698">
        <ele>896.9</ele>
        <time>2020-02-09T11:00:03Z</time>
      </trkpt>
      <trkpt lat="43.7069" lon="6.73708">
        <ele>896.9</ele>
        <time>2020-02-09T11:00:04Z</time>
      </trkpt>
      <trkpt lat="43.70692" lon="6.73711">
        <ele>896.8</ele>
        <time>2020-02-09T11:00:07Z</time>
      </trkpt>
      <trkpt lat="43.70696" lon="6.7372">
        <ele>896.7</ele>
        <time>2020-02-09T11:00:10Z</time>
      </trkpt>
      <trkpt lat="43.707" lon="6.73728">
        <ele>896.6</ele>
        <time>2020-02-09T11:00:13Z</time>
      </trkpt>
      <trkpt lat="43.70705" lon="6.73743">
        <ele>896.1</ele>
        <time>2020-02-09T11:00:17Z</time>
      </trkpt>
      <trkpt lat="43.70707" lon="6.73751">
        <ele>895.6</ele>
        <time>2020-02-09T11:00:18Z</time>
      </trkpt>
      <trkpt lat="43.70709" lon="6.73759">
        <ele>894.9</ele>
        <time>2020-02-09T11:00:20Z</time>
      </trkpt>
      <trkpt lat="43.70713" lon="6.73774">
        <ele>893.9</ele>
        <time>2020-02-09T11:00:22Z</time>
      </trkpt>
      <trkpt lat="43.70715" lon="6.7378">
        <ele>893.5</ele>
        <time>2020-02-09T11:00:24Z</time>
      </trkpt>
      <trkpt lat="43.70719" lon="6.73792">
        <ele>892.2</ele>
        <time>2020-02-09T11:00:25Z</time>
      </trkpt>
      <trkpt lat="43.70722" lon="6.73799">
        <ele>891.6</ele>
        <time>2020-02-09T11:00:28Z</time>
      </trkpt>
      <trkpt lat="43.70729" lon="6.73811">
        <ele>890.7</ele>
        <time>2020-02-09T11:00:29Z</time>
      </trkpt>
      <trkpt lat="43.70733" lon="6.73819">
        <ele>889.7</ele>
        <time>2020-02-09T11:00:32Z</time>
      </trkpt>
      <trkpt lat="43.70736" lon="6.73823">
        <ele>889.3</ele>
        <time>2020-02-09T11:00:33Z</time>
      </trkpt>
      <trkpt lat="43.70739" lon="6.73824">
        <ele>889</ele>
        <time>2020-02-09T11:00:34Z</time>
      </trkpt>
      <trkpt lat="43.70744" lon="6.73828">
        <ele>888.3</ele>
        <time>2020-02-09T11:00:36Z</time>
      </trkpt>
      <trkpt lat="43.70748" lon="6.73831">
        <ele>887.7</ele>
        <time>2020-02-09T11:00:37Z</time>
      </trkpt>
      <trkpt lat="43.70758" lon="6.73837">
        <ele>886.1</ele>
        <time>2020-02-09T11:00:38Z</time>
      </trkpt>
      <trkpt lat="43.70764" lon="6.73841">
        <ele>885.1</ele>
        <time>2020-02-09T11:00:40Z</time>
      </trkpt>
      <trkpt lat="43.70767" lon="6.73843">
        <ele>884.6</ele>
        <time>2020-02-09T11:00:41Z</time>
      </trkpt>
      <trkpt lat="43.70775" lon="6.73846">
        <ele>883.5</ele>
        <time>2020-02-09T11:00:44Z</time>
      </trkpt>
      <trkpt lat="43.7078" lon="6.73847">
        <ele>882.5</ele>
        <time>2020-02-09T11:00:45Z</time>
      </trkpt>
      <trkpt lat="43.70791" lon="6.73853">
        <ele>880.9</ele>
        <time>2020-02-09T11:00:48Z</time>
      </trkpt>
      <trkpt lat="43.70796" lon="6.73854">
        <ele>880.3</ele>
        <time>2020-02-09T11:00:49Z</time>
      </trkpt>
      <trkpt lat="43.70805" lon="6.73856">
        <ele>879.3</ele>
        <time>2020-02-09T11:00:50Z</time>
      </trkpt>
      <trkpt lat="43.7081" lon="6.73859">
        <ele>878.6</ele>
        <time>2020-02-09T11:00:53Z</time>
      </trkpt>
      <trkpt lat="43.70818" lon="6.73865">
        <ele>877.7</ele>
        <time>2020-02-09T11:00:54Z</time>
      </trkpt>
      <trkpt lat="43.70824" lon="6.73869">
        <ele>877.2</ele>
        <time>2020-02-09T11:00:56Z</time>
      </trkpt>
      <trkpt lat="43.70828" lon="6.73871">
        <ele>877</ele>
        <time>2020-02-09T11:00:57Z</time>
      </trkpt>
      <trkpt lat="43.70831" lon="6.73874">
        <ele>876.9</ele>
        <time>2020-02-09T11:00:58Z</time>
      </trkpt>
      <trkpt lat="43.70835" lon="6.73877">
        <ele>876.8</ele>
        <time>2020-02-09T11:00:59Z</time>
      </trkpt>
      <trkpt lat="43.70839" lon="6.7388">
        <ele>876.6</ele>
        <time>2020-02-09T11:01:00Z</time>
      </trkpt>
      <trkpt lat="43.70849" lon="6.73885">
        <ele>876.6</ele>
        <time>2020-02-09T11:01:03Z</time>
      </trkpt>
      <trkpt lat="43.70853" lon="6.73885">
        <ele>876.6</ele>
        <time>2020-02-09T11:01:04Z</time>
      </trkpt>
      <trkpt lat="43.70856" lon="6.73884">
        <ele>876.6</ele>
        <time>2020-02-09T11:01:05Z</time>
      </trkpt>
      <trkpt lat="43.70863" lon="6.73883">
        <ele>876.7</ele>
        <time>2020-02-09T11:01:06Z</time>
      </trkpt>
      <trkpt lat="43.70867" lon="6.73882">
        <ele>876.8</ele>
        <time>2020-02-09T11:01:08Z</time>
      </trkpt>
      <trkpt lat="43.70871" lon="6.73883">
        <ele>876.9</ele>
        <time>2020-02-09T11:01:10Z</time>
      </trkpt>
      <trkpt lat="43.70878" lon="6.73886">
        <ele>877.2</ele>
        <time>2020-02-09T11:01:11Z</time>
      </trkpt>
      <trkpt lat="43.70882" lon="6.73885">
        <ele>877.4</ele>
        <time>2020-02-09T11:01:13Z</time>
      </trkpt>
      <trkpt lat="43.70886" lon="6.73883">
        <ele>877.6</ele>
        <time>2020-02-09T11:01:16Z</time>
      </trkpt>
      <trkpt lat="43.70889" lon="6.73888">
        <ele>877.9</ele>
        <time>2020-02-09T11:01:19Z</time>
      </trkpt>
      <trkpt lat="43.70889" lon="6.73895">
        <ele>878.2</ele>
        <time>2020-02-09T11:01:22Z</time>
      </trkpt>
      <trkpt lat="43.70888" lon="6.73899">
        <ele>878.5</ele>
        <time>2020-02-09T11:01:23Z</time>
      </trkpt>
      <trkpt lat="43.7089" lon="6.73903">
        <ele>878.8</ele>
        <time>2020-02-09T11:01:27Z</time>
      </trkpt>
      <trkpt lat="43.70891" lon="6.7391">
        <ele>879.2</ele>
        <time>2020-02-09T11:01:33Z</time>
      </trkpt>
      <trkpt lat="43.70892" lon="6.73917">
        <ele>879.6</ele>
        <time>2020-02-09T11:01:37Z</time>
      </trkpt>
      <trkpt lat="43.70893" lon="6.73919">
        <ele>879.7</ele>
        <time>2020-02-09T11:01:38Z</time>
      </trkpt>
      <trkpt lat="43.70894" lon="6.73924">
        <ele>880.1</ele>
        <time>2020-02-09T11:01:39Z</time>
      </trkpt>
      <trkpt lat="43.70897" lon="6.73932">
        <ele>880.7</ele>
        <time>2020-02-09T11:01:44Z</time>
      </trkpt>
      <trkpt lat="43.70897" lon="6.73934">
        <ele>880.7</ele>
        <time>2020-02-09T11:01:47Z</time>
      </trkpt>
      <trkpt lat="43.70902" lon="6.73938">
        <ele>881</ele>
        <time>2020-02-09T11:01:49Z</time>
      </trkpt>
      <trkpt lat="43.70905" lon="6.73941">
        <ele>880.8</ele>
        <time>2020-02-09T11:01:52Z</time>
      </trkpt>
      <trkpt lat="43.7091" lon="6.73946">
        <ele>880.4</ele>
        <time>2020-02-09T11:01:53Z</time>
      </trkpt>
      <trkpt lat="43.70912" lon="6.73949">
        <ele>880.1</ele>
        <time>2020-02-09T11:01:55Z</time>
      </trkpt>
      <trkpt lat="43.70914" lon="6.73952">
        <ele>879.8</ele>
        <time>2020-02-09T11:02:08Z</time>
      </trkpt>
      <trkpt lat="43.70917" lon="6.73949">
        <ele>879.5</ele>
        <time>2020-02-09T11:02:23Z</time>
      </trkpt>
      <trkpt lat="43.70919" lon="6.73947">
        <ele>879.2</ele>
        <time>2020-02-09T11:02:29Z</time>
      </trkpt>
      <trkpt lat="43.70917" lon="6.73945">
        <ele>879</ele>
        <time>2020-02-09T11:04:19Z</time>
      </trkpt>
      <trkpt lat="43.70921" lon="6.73944">
        <ele>878.6</ele>
        <time>2020-02-09T11:05:15Z</time>
      </trkpt>
      <trkpt lat="43.70928" lon="6.73951">
        <ele>877.7</ele>
        <time>2020-02-09T11:05:26Z</time>
      </trkpt>
      <trkpt lat="43.70934" lon="6.73954">
        <ele>877.2</ele>
        <time>2020-02-09T11:05:29Z</time>
      </trkpt>
      <trkpt lat="43.7094" lon="6.73954">
        <ele>877</ele>
        <time>2020-02-09T11:05:30Z</time>
      </trkpt>
      <trkpt lat="43.70944" lon="6.73954">
        <ele>876.8</ele>
        <time>2020-02-09T11:05:31Z</time>
      </trkpt>
      <trkpt lat="43.70954" lon="6.73953">
        <ele>876.6</ele>
        <time>2020-02-09T11:05:34Z</time>
      </trkpt>
      <trkpt lat="43.70957" lon="6.73953">
        <ele>876.6</ele>
        <time>2020-02-09T11:05:35Z</time>
      </trkpt>
      <trkpt lat="43.70966" lon="6.73955">
        <ele>876.9</ele>
        <time>2020-02-09T11:05:38Z</time>
      </trkpt>
      <trkpt lat="43.70968" lon="6.73964">
        <ele>877.4</ele>
        <time>2020-02-09T11:05:41Z</time>
      </trkpt>
      <trkpt lat="43.70972" lon="6.73973">
        <ele>878.2</ele>
        <time>2020-02-09T11:05:44Z</time>
      </trkpt>
      <trkpt lat="43.70975" lon="6.73977">
        <ele>878.5</ele>
        <time>2020-02-09T11:05:45Z</time>
      </trkpt>
      <trkpt lat="43.70978" lon="6.73978">
        <ele>878.9</ele>
        <time>2020-02-09T11:05:57Z</time>
      </trkpt>
      <trkpt lat="43.70982" lon="6.73979">
        <ele>879.3</ele>
        <time>2020-02-09T11:06:01Z</time>
      </trkpt>
      <trkpt lat="43.70985" lon="6.7398">
        <ele>879.6</ele>
        <time>2020-02-09T11:06:04Z</time>
      </trkpt>
      <trkpt lat="43.70987" lon="6.73981">
        <ele>879.8</ele>
        <time>2020-02-09T11:06:07Z</time>
      </trkpt>
      <trkpt lat="43.7099" lon="6.73982">
        <ele>880.2</ele>
        <time>2020-02-09T11:06:11Z</time>
      </trkpt>
      <trkpt lat="43.70994" lon="6.73984">
        <ele>880.7</ele>
        <time>2020-02-09T11:06:15Z</time>
      </trkpt>
      <trkpt lat="43.70997" lon="6.73987">
        <ele>881.2</ele>
        <time>2020-02-09T11:06:19Z</time>
      </trkpt>
      <trkpt lat="43.71002" lon="6.7399">
        <ele>881.8</ele>
        <time>2020-02-09T11:06:23Z</time>
      </trkpt>
      <trkpt lat="43.71003" lon="6.73992">
        <ele>882</ele>
        <time>2020-02-09T11:06:25Z</time>
      </trkpt>
      <trkpt lat="43.71004" lon="6.73995">
        <ele>882.4</ele>
        <time>2020-02-09T11:06:27Z</time>
      </trkpt>
      <trkpt lat="43.71006" lon="6.73999">
        <ele>882.9</ele>
        <time>2020-02-09T11:06:31Z</time>
      </trkpt>
      <trkpt lat="43.71008" lon="6.74004">
        <ele>883.5</ele>
        <time>2020-02-09T11:06:39Z</time>
      </trkpt>
      <trkpt lat="43.71012" lon="6.74007">
        <ele>884.1</ele>
        <time>2020-02-09T11:06:41Z</time>
      </trkpt>
      <trkpt lat="43.71013" lon="6.74008">
        <ele>884.3</ele>
        <time>2020-02-09T11:06:44Z</time>
      </trkpt>
      <trkpt lat="43.71016" lon="6.7401">
        <ele>884.8</ele>
        <time>2020-02-09T11:06:49Z</time>
      </trkpt>
      <trkpt lat="43.71022" lon="6.74009">
        <ele>885.7</ele>
        <time>2020-02-09T11:06:56Z</time>
      </trkpt>
      <trkpt lat="43.71024" lon="6.74009">
        <ele>886</ele>
        <time>2020-02-09T11:06:57Z</time>
      </trkpt>
      <trkpt lat="43.71026" lon="6.74011">
        <ele>886.4</ele>
        <time>2020-02-09T11:07:01Z</time>
      </trkpt>
      <trkpt lat="43.71031" lon="6.74013">
        <ele>887</ele>
        <time>2020-02-09T11:07:07Z</time>
      </trkpt>
      <trkpt lat="43.71033" lon="6.74014">
        <ele>887.4</ele>
        <time>2020-02-09T11:07:08Z</time>
      </trkpt>
      <trkpt lat="43.71035" lon="6.74015">
        <ele>887.7</ele>
        <time>2020-02-09T11:07:11Z</time>
      </trkpt>
      <trkpt lat="43.71039" lon="6.74018">
        <ele>888.5</ele>
        <time>2020-02-09T11:07:15Z</time>
      </trkpt>
      <trkpt lat="43.71042" lon="6.74021">
        <ele>889.1</ele>
        <time>2020-02-09T11:07:21Z</time>
      </trkpt>
      <trkpt lat="43.71044" lon="6.74024">
        <ele>889.6</ele>
        <time>2020-02-09T11:07:24Z</time>
      </trkpt>
      <trkpt lat="43.71047" lon="6.74027">
        <ele>890.3</ele>
        <time>2020-02-09T11:07:26Z</time>
      </trkpt>
      <trkpt lat="43.7105" lon="6.7403">
        <ele>890.9</ele>
        <time>2020-02-09T11:07:30Z</time>
      </trkpt>
      <trkpt lat="43.71052" lon="6.74032">
        <ele>891.5</ele>
        <time>2020-02-09T11:07:33Z</time>
      </trkpt>
      <trkpt lat="43.71055" lon="6.74032">
        <ele>892</ele>
        <time>2020-02-09T11:07:35Z</time>
      </trkpt>
      <trkpt lat="43.7106" lon="6.74031">
        <ele>892.7</ele>
        <time>2020-02-09T11:07:41Z</time>
      </trkpt>
      <trkpt lat="43.71063" lon="6.7403">
        <ele>893.2</ele>
        <time>2020-02-09T11:07:45Z</time>
      </trkpt>
      <trkpt lat="43.71064" lon="6.74027">
        <ele>893.7</ele>
        <time>2020-02-09T11:07:49Z</time>
      </trkpt>
      <trkpt lat="43.71066" lon="6.74022">
        <ele>894.4</ele>
        <time>2020-02-09T11:07:54Z</time>
      </trkpt>
      <trkpt lat="43.71068" lon="6.74018">
        <ele>895</ele>
        <time>2020-02-09T11:07:58Z</time>
      </trkpt>
      <trkpt lat="43.7107" lon="6.74014">
        <ele>896</ele>
        <time>2020-02-09T11:08:02Z</time>
      </trkpt>
      <trkpt lat="43.71074" lon="6.74011">
        <ele>896.9</ele>
        <time>2020-02-09T11:08:06Z</time>
      </trkpt>
      <trkpt lat="43.71076" lon="6.7401">
        <ele>897.3</ele>
        <time>2020-02-09T11:08:07Z</time>
      </trkpt>
      <trkpt lat="43.7108" lon="6.74008">
        <ele>898.2</ele>
        <time>2020-02-09T11:08:11Z</time>
      </trkpt>
      <trkpt lat="43.71083" lon="6.74007">
        <ele>898.9</ele>
        <time>2020-02-09T11:08:14Z</time>
      </trkpt>
      <trkpt lat="43.71085" lon="6.74003">
        <ele>899.8</ele>
        <time>2020-02-09T11:08:16Z</time>
      </trkpt>
      <trkpt lat="43.71087" lon="6.73996">
        <ele>900.9</ele>
        <time>2020-02-09T11:08:22Z</time>
      </trkpt>
      <trkpt lat="43.71086" lon="6.73993">
        <ele>901.4</ele>
        <time>2020-02-09T11:08:25Z</time>
      </trkpt>
      <trkpt lat="43.71086" lon="6.73991">
        <ele>901.8</ele>
        <time>2020-02-09T11:08:26Z</time>
      </trkpt>
      <trkpt lat="43.71085" lon="6.73987">
        <ele>902.5</ele>
        <time>2020-02-09T11:08:30Z</time>
      </trkpt>
      <trkpt lat="43.71083" lon="6.73983">
        <ele>903.3</ele>
        <time>2020-02-09T11:08:32Z</time>
      </trkpt>
      <trkpt lat="43.71085" lon="6.73978">
        <ele>904.1</ele>
        <time>2020-02-09T11:08:38Z</time>
      </trkpt>
      <trkpt lat="43.71087" lon="6.73979">
        <ele>904.8</ele>
        <time>2020-02-09T11:08:42Z</time>
      </trkpt>
      <trkpt lat="43.71091" lon="6.73979">
        <ele>905.7</ele>
        <time>2020-02-09T11:08:46Z</time>
      </trkpt>
      <trkpt lat="43.71094" lon="6.73979">
        <ele>906.4</ele>
        <time>2020-02-09T11:08:49Z</time>
      </trkpt>
      <trkpt lat="43.71098" lon="6.73978">
        <ele>907</ele>
        <time>2020-02-09T11:08:53Z</time>
      </trkpt>
      <trkpt lat="43.71101" lon="6.73976">
        <ele>907.4</ele>
        <time>2020-02-09T11:08:56Z</time>
      </trkpt>
      <trkpt lat="43.71101" lon="6.73971">
        <ele>908</ele>
        <time>2020-02-09T11:09:00Z</time>
      </trkpt>
      <trkpt lat="43.71101" lon="6.73966">
        <ele>908.6</ele>
        <time>2020-02-09T11:09:04Z</time>
      </trkpt>
      <trkpt lat="43.711" lon="6.73963">
        <ele>909.1</ele>
        <time>2020-02-09T11:09:07Z</time>
      </trkpt>
      <trkpt lat="43.71099" lon="6.7396">
        <ele>909.6</ele>
        <time>2020-02-09T11:09:11Z</time>
      </trkpt>
      <trkpt lat="43.71098" lon="6.73956">
        <ele>910.1</ele>
        <time>2020-02-09T11:09:15Z</time>
      </trkpt>
      <trkpt lat="43.71096" lon="6.73952">
        <ele>910.7</ele>
        <time>2020-02-09T11:09:19Z</time>
      </trkpt>
      <trkpt lat="43.71095" lon="6.73946">
        <ele>911.3</ele>
        <time>2020-02-09T11:09:23Z</time>
      </trkpt>
      <trkpt lat="43.71094" lon="6.73941">
        <ele>912</ele>
        <time>2020-02-09T11:09:27Z</time>
      </trkpt>
      <trkpt lat="43.71093" lon="6.73936">
        <ele>912.6</ele>
        <time>2020-02-09T11:09:31Z</time>
      </trkpt>
      <trkpt lat="43.71094" lon="6.73931">
        <ele>913.2</ele>
        <time>2020-02-09T11:09:34Z</time>
      </trkpt>
      <trkpt lat="43.71097" lon="6.73928">
        <ele>913.8</ele>
        <time>2020-02-09T11:09:37Z</time>
      </trkpt>
      <trkpt lat="43.711" lon="6.73927">
        <ele>914.3</ele>
        <time>2020-02-09T11:09:40Z</time>
      </trkpt>
      <trkpt lat="43.71104" lon="6.73933">
        <ele>915.3</ele>
        <time>2020-02-09T11:09:45Z</time>
      </trkpt>
      <trkpt lat="43.71105" lon="6.73935">
        <ele>915.6</ele>
        <time>2020-02-09T11:09:48Z</time>
      </trkpt>
      <trkpt lat="43.71107" lon="6.73937">
        <ele>915.9</ele>
        <time>2020-02-09T11:09:50Z</time>
      </trkpt>
      <trkpt lat="43.7111" lon="6.73938">
        <ele>916.2</ele>
        <time>2020-02-09T11:09:53Z</time>
      </trkpt>
      <trkpt lat="43.71112" lon="6.73939">
        <ele>916.5</ele>
        <time>2020-02-09T11:09:56Z</time>
      </trkpt>
      <trkpt lat="43.71115" lon="6.7394">
        <ele>916.8</ele>
        <time>2020-02-09T11:09:59Z</time>
      </trkpt>
      <trkpt lat="43.71118" lon="6.73941">
        <ele>917.2</ele>
        <time>2020-02-09T11:10:09Z</time>
      </trkpt>
      <trkpt lat="43.71123" lon="6.73941">
        <ele>917.7</ele>
        <time>2020-02-09T11:10:14Z</time>
      </trkpt>
      <trkpt lat="43.71125" lon="6.73941">
        <ele>917.8</ele>
        <time>2020-02-09T11:10:18Z</time>
      </trkpt>
      <trkpt lat="43.71135" lon="6.73935">
        <ele>918.5</ele>
        <time>2020-02-09T11:10:24Z</time>
      </trkpt>
      <trkpt lat="43.71142" lon="6.73935">
        <ele>918.7</ele>
        <time>2020-02-09T11:10:26Z</time>
      </trkpt>
      <trkpt lat="43.71144" lon="6.73935">
        <ele>918.8</ele>
        <time>2020-02-09T11:10:27Z</time>
      </trkpt>
      <trkpt lat="43.71147" lon="6.73934">
        <ele>918.9</ele>
        <time>2020-02-09T11:10:30Z</time>
      </trkpt>
      <trkpt lat="43.71155" lon="6.73933">
        <ele>918.9</ele>
        <time>2020-02-09T11:10:34Z</time>
      </trkpt>
      <trkpt lat="43.71159" lon="6.73931">
        <ele>918.9</ele>
        <time>2020-02-09T11:10:36Z</time>
      </trkpt>
      <trkpt lat="43.71163" lon="6.73929">
        <ele>918.9</ele>
        <time>2020-02-09T11:10:39Z</time>
      </trkpt>
      <trkpt lat="43.7117" lon="6.73918">
        <ele>918.4</ele>
        <time>2020-02-09T11:10:43Z</time>
      </trkpt>
      <trkpt lat="43.71176" lon="6.73919">
        <ele>918.1</ele>
        <time>2020-02-09T11:10:46Z</time>
      </trkpt>
      <trkpt lat="43.71183" lon="6.73928">
        <ele>917.6</ele>
        <time>2020-02-09T11:10:49Z</time>
      </trkpt>
      <trkpt lat="43.71185" lon="6.73932">
        <ele>917.3</ele>
        <time>2020-02-09T11:10:50Z</time>
      </trkpt>
      <trkpt lat="43.71186" lon="6.73938">
        <ele>917</ele>
        <time>2020-02-09T11:10:51Z</time>
      </trkpt>
      <trkpt lat="43.71185" lon="6.73943">
        <ele>916.7</ele>
        <time>2020-02-09T11:10:52Z</time>
      </trkpt>
      <trkpt lat="43.71186" lon="6.73958">
        <ele>915.9</ele>
        <time>2020-02-09T11:10:55Z</time>
      </trkpt>
      <trkpt lat="43.71186" lon="6.73965">
        <ele>915.5</ele>
        <time>2020-02-09T11:10:56Z</time>
      </trkpt>
      <trkpt lat="43.71188" lon="6.73981">
        <ele>914.7</ele>
        <time>2020-02-09T11:10:59Z</time>
      </trkpt>
      <trkpt lat="43.71191" lon="6.7397">
        <ele>914</ele>
        <time>2020-02-09T11:11:34Z</time>
      </trkpt>
      <trkpt lat="43.71192" lon="6.73965">
        <ele>913.8</ele>
        <time>2020-02-09T11:11:51Z</time>
      </trkpt>
      <trkpt lat="43.71194" lon="6.73964">
        <ele>913.6</ele>
        <time>2020-02-09T11:12:02Z</time>
      </trkpt>
      <trkpt lat="43.71192" lon="6.73967">
        <ele>913.4</ele>
        <time>2020-02-09T11:12:40Z</time>
      </trkpt>
      <trkpt lat="43.71187" lon="6.7398">
        <ele>913.3</ele>
        <time>2020-02-09T11:14:06Z</time>
      </trkpt>
      <trkpt lat="43.71186" lon="6.73988">
        <ele>913.4</ele>
        <time>2020-02-09T11:14:08Z</time>
      </trkpt>
      <trkpt lat="43.71186" lon="6.73994">
        <ele>913.8</ele>
        <time>2020-02-09T11:14:12Z</time>
      </trkpt>
      <trkpt lat="43.71188" lon="6.74006">
        <ele>914.7</ele>
        <time>2020-02-09T11:14:15Z</time>
      </trkpt>
      <trkpt lat="43.71191" lon="6.74018">
        <ele>915.7</ele>
        <time>2020-02-09T11:14:18Z</time>
      </trkpt>
      <trkpt lat="43.71193" lon="6.74029">
        <ele>916.7</ele>
        <time>2020-02-09T11:14:21Z</time>
      </trkpt>
      <trkpt lat="43.71197" lon="6.74037">
        <ele>917.4</ele>
        <time>2020-02-09T11:14:23Z</time>
      </trkpt>
      <trkpt lat="43.712" lon="6.7404">
        <ele>917.7</ele>
        <time>2020-02-09T11:14:25Z</time>
      </trkpt>
      <trkpt lat="43.71201" lon="6.74045">
        <ele>917.9</ele>
        <time>2020-02-09T11:14:29Z</time>
      </trkpt>
      <trkpt lat="43.71205" lon="6.74049">
        <ele>918.3</ele>
        <time>2020-02-09T11:14:38Z</time>
      </trkpt>
      <trkpt lat="43.71207" lon="6.74052">
        <ele>918.4</ele>
        <time>2020-02-09T11:14:42Z</time>
      </trkpt>
      <trkpt lat="43.71209" lon="6.74055">
        <ele>918.5</ele>
        <time>2020-02-09T11:14:45Z</time>
      </trkpt>
      <trkpt lat="43.71212" lon="6.7406">
        <ele>918.7</ele>
        <time>2020-02-09T11:14:49Z</time>
      </trkpt>
      <trkpt lat="43.71213" lon="6.74062">
        <ele>918.8</ele>
        <time>2020-02-09T11:14:52Z</time>
      </trkpt>
      <trkpt lat="43.71215" lon="6.74065">
        <ele>918.9</ele>
        <time>2020-02-09T11:14:54Z</time>
      </trkpt>
      <trkpt lat="43.71217" lon="6.74072">
        <ele>919.1</ele>
        <time>2020-02-09T11:15:00Z</time>
      </trkpt>
      <trkpt lat="43.71218" lon="6.74074">
        <ele>919.2</ele>
        <time>2020-02-09T11:15:04Z</time>
      </trkpt>
      <trkpt lat="43.71222" lon="6.74078">
        <ele>919.3</ele>
        <time>2020-02-09T11:15:07Z</time>
      </trkpt>
      <trkpt lat="43.71223" lon="6.74083">
        <ele>919.5</ele>
        <time>2020-02-09T11:15:11Z</time>
      </trkpt>
      <trkpt lat="43.71229" lon="6.74094">
        <ele>919.9</ele>
        <time>2020-02-09T11:15:15Z</time>
      </trkpt>
      <trkpt lat="43.71233" lon="6.74103">
        <ele>920.5</ele>
        <time>2020-02-09T11:15:16Z</time>
      </trkpt>
      <trkpt lat="43.71236" lon="6.74105">
        <ele>920.8</ele>
        <time>2020-02-09T11:15:19Z</time>
      </trkpt>
      <trkpt lat="43.71241" lon="6.7411">
        <ele>921.3</ele>
        <time>2020-02-09T11:15:22Z</time>
      </trkpt>
      <trkpt lat="43.71245" lon="6.74116">
        <ele>922</ele>
        <time>2020-02-09T11:15:25Z</time>
      </trkpt>
      <trkpt lat="43.71247" lon="6.74122">
        <ele>922.7</ele>
        <time>2020-02-09T11:15:27Z</time>
      </trkpt>
      <trkpt lat="43.71249" lon="6.74124">
        <ele>923</ele>
        <time>2020-02-09T11:15:29Z</time>
      </trkpt>
      <trkpt lat="43.7125" lon="6.74127">
        <ele>923.4</ele>
        <time>2020-02-09T11:15:31Z</time>
      </trkpt>
      <trkpt lat="43.71253" lon="6.74129">
        <ele>923.7</ele>
        <time>2020-02-09T11:15:33Z</time>
      </trkpt>
      <trkpt lat="43.71255" lon="6.74134">
        <ele>924.5</ele>
        <time>2020-02-09T11:15:35Z</time>
      </trkpt>
      <trkpt lat="43.71257" lon="6.7414">
        <ele>925.2</ele>
        <time>2020-02-09T11:15:36Z</time>
      </trkpt>
      <trkpt lat="43.71259" lon="6.74143">
        <ele>925.6</ele>
        <time>2020-02-09T11:15:39Z</time>
      </trkpt>
      <trkpt lat="43.71261" lon="6.74148">
        <ele>926.1</ele>
        <time>2020-02-09T11:15:42Z</time>
      </trkpt>
      <trkpt lat="43.71263" lon="6.74153">
        <ele>926.8</ele>
        <time>2020-02-09T11:15:44Z</time>
      </trkpt>
      <trkpt lat="43.71266" lon="6.74157">
        <ele>927.4</ele>
        <time>2020-02-09T11:15:47Z</time>
      </trkpt>
      <trkpt lat="43.71268" lon="6.74159">
        <ele>927.8</ele>
        <time>2020-02-09T11:15:51Z</time>
      </trkpt>
      <trkpt lat="43.71272" lon="6.7416">
        <ele>928.3</ele>
        <time>2020-02-09T11:15:55Z</time>
      </trkpt>
      <trkpt lat="43.71276" lon="6.74161">
        <ele>928.8</ele>
        <time>2020-02-09T11:16:01Z</time>
      </trkpt>
      <trkpt lat="43.71279" lon="6.74162">
        <ele>929.1</ele>
        <time>2020-02-09T11:16:05Z</time>
      </trkpt>
      <trkpt lat="43.71282" lon="6.74163">
        <ele>929.5</ele>
        <time>2020-02-09T11:16:09Z</time>
      </trkpt>
      <trkpt lat="43.71285" lon="6.74164">
        <ele>929.8</ele>
        <time>2020-02-09T11:16:14Z</time>
      </trkpt>
      <trkpt lat="43.71287" lon="6.74166">
        <ele>930</ele>
        <time>2020-02-09T11:16:18Z</time>
      </trkpt>
      <trkpt lat="43.71291" lon="6.74167">
        <ele>930.3</ele>
        <time>2020-02-09T11:16:22Z</time>
      </trkpt>
      <trkpt lat="43.71294" lon="6.74169">
        <ele>930.5</ele>
        <time>2020-02-09T11:16:26Z</time>
      </trkpt>
      <trkpt lat="43.71297" lon="6.74171">
        <ele>930.7</ele>
        <time>2020-02-09T11:16:28Z</time>
      </trkpt>
      <trkpt lat="43.713" lon="6.74172">
        <ele>930.9</ele>
        <time>2020-02-09T11:16:33Z</time>
      </trkpt>
      <trkpt lat="43.71303" lon="6.74175">
        <ele>931.1</ele>
        <time>2020-02-09T11:16:38Z</time>
      </trkpt>
      <trkpt lat="43.71306" lon="6.74179">
        <ele>931.2</ele>
        <time>2020-02-09T11:16:42Z</time>
      </trkpt>
      <trkpt lat="43.71307" lon="6.74182">
        <ele>931.3</ele>
        <time>2020-02-09T11:16:44Z</time>
      </trkpt>
      <trkpt lat="43.71309" lon="6.74184">
        <ele>931.3</ele>
        <time>2020-02-09T11:16:48Z</time>
      </trkpt>
      <trkpt lat="43.71309" lon="6.74188">
        <ele>931.4</ele>
        <time>2020-02-09T11:16:52Z</time>
      </trkpt>
      <trkpt lat="43.71307" lon="6.74193">
        <ele>931.4</ele>
        <time>2020-02-09T11:16:59Z</time>
      </trkpt>
      <trkpt lat="43.71305" lon="6.74197">
        <ele>931.4</ele>
        <time>2020-02-09T11:17:02Z</time>
      </trkpt>
      <trkpt lat="43.71298" lon="6.74204">
        <ele>931.5</ele>
        <time>2020-02-09T11:17:05Z</time>
      </trkpt>
      <trkpt lat="43.71287" lon="6.74208">
        <ele>931.5</ele>
        <time>2020-02-09T11:17:08Z</time>
      </trkpt>
      <trkpt lat="43.71283" lon="6.7421">
        <ele>931.5</ele>
        <time>2020-02-09T11:17:09Z</time>
      </trkpt>
      <trkpt lat="43.71279" lon="6.7421">
        <ele>931.5</ele>
        <time>2020-02-09T11:17:11Z</time>
      </trkpt>
      <trkpt lat="43.71274" lon="6.74211">
        <ele>931.4</ele>
        <time>2020-02-09T11:17:12Z</time>
      </trkpt>
      <trkpt lat="43.71266" lon="6.74213">
        <ele>931.4</ele>
        <time>2020-02-09T11:17:13Z</time>
      </trkpt>
      <trkpt lat="43.71259" lon="6.74216">
        <ele>931.3</ele>
        <time>2020-02-09T11:17:16Z</time>
      </trkpt>
      <trkpt lat="43.71255" lon="6.7422">
        <ele>931.3</ele>
        <time>2020-02-09T11:17:17Z</time>
      </trkpt>
      <trkpt lat="43.71253" lon="6.74224">
        <ele>931.2</ele>
        <time>2020-02-09T11:17:20Z</time>
      </trkpt>
      <trkpt lat="43.71252" lon="6.74228">
        <ele>931.2</ele>
        <time>2020-02-09T11:17:21Z</time>
      </trkpt>
      <trkpt lat="43.71251" lon="6.74233">
        <ele>931.2</ele>
        <time>2020-02-09T11:17:22Z</time>
      </trkpt>
      <trkpt lat="43.7125" lon="6.74241">
        <ele>931.2</ele>
        <time>2020-02-09T11:17:24Z</time>
      </trkpt>
      <trkpt lat="43.7125" lon="6.74245">
        <ele>931.2</ele>
        <time>2020-02-09T11:17:25Z</time>
      </trkpt>
      <trkpt lat="43.71249" lon="6.74251">
        <ele>931.2</ele>
        <time>2020-02-09T11:17:26Z</time>
      </trkpt>
      <trkpt lat="43.71246" lon="6.74259">
        <ele>931.2</ele>
        <time>2020-02-09T11:17:29Z</time>
      </trkpt>
      <trkpt lat="43.71245" lon="6.74263">
        <ele>931.2</ele>
        <time>2020-02-09T11:17:30Z</time>
      </trkpt>
      <trkpt lat="43.71241" lon="6.74275">
        <ele>931.2</ele>
        <time>2020-02-09T11:17:32Z</time>
      </trkpt>
      <trkpt lat="43.7124" lon="6.74281">
        <ele>931.1</ele>
        <time>2020-02-09T11:17:34Z</time>
      </trkpt>
      <trkpt lat="43.71239" lon="6.74288">
        <ele>931.1</ele>
        <time>2020-02-09T11:17:35Z</time>
      </trkpt>
      <trkpt lat="43.71239" lon="6.74298">
        <ele>931</ele>
        <time>2020-02-09T11:17:38Z</time>
      </trkpt>
      <trkpt lat="43.71242" lon="6.74314">
        <ele>930.9</ele>
        <time>2020-02-09T11:17:41Z</time>
      </trkpt>
      <trkpt lat="43.71247" lon="6.74323">
        <ele>930.7</ele>
        <time>2020-02-09T11:17:43Z</time>
      </trkpt>
      <trkpt lat="43.71252" lon="6.74328">
        <ele>930.7</ele>
        <time>2020-02-09T11:17:45Z</time>
      </trkpt>
      <trkpt lat="43.71253" lon="6.74332">
        <ele>930.6</ele>
        <time>2020-02-09T11:17:46Z</time>
      </trkpt>
      <trkpt lat="43.71258" lon="6.74341">
        <ele>930.5</ele>
        <time>2020-02-09T11:17:49Z</time>
      </trkpt>
      <trkpt lat="43.71259" lon="6.74345">
        <ele>930.5</ele>
        <time>2020-02-09T11:17:50Z</time>
      </trkpt>
      <trkpt lat="43.71262" lon="6.74353">
        <ele>930.5</ele>
        <time>2020-02-09T11:17:53Z</time>
      </trkpt>
      <trkpt lat="43.71265" lon="6.7436">
        <ele>930.6</ele>
        <time>2020-02-09T11:17:56Z</time>
      </trkpt>
      <trkpt lat="43.71265" lon="6.74365">
        <ele>930.7</ele>
        <time>2020-02-09T11:17:57Z</time>
      </trkpt>
      <trkpt lat="43.71265" lon="6.74374">
        <ele>930.8</ele>
        <time>2020-02-09T11:18:00Z</time>
      </trkpt>
      <trkpt lat="43.71265" lon="6.74379">
        <ele>930.9</ele>
        <time>2020-02-09T11:18:01Z</time>
      </trkpt>
      <trkpt lat="43.71265" lon="6.74387">
        <ele>931</ele>
        <time>2020-02-09T11:18:03Z</time>
      </trkpt>
      <trkpt lat="43.71266" lon="6.74393">
        <ele>931.1</ele>
        <time>2020-02-09T11:18:04Z</time>
      </trkpt>
      <trkpt lat="43.71268" lon="6.74401">
        <ele>931.3</ele>
        <time>2020-02-09T11:18:06Z</time>
      </trkpt>
      <trkpt lat="43.7127" lon="6.74405">
        <ele>931.5</ele>
        <time>2020-02-09T11:18:07Z</time>
      </trkpt>
      <trkpt lat="43.71273" lon="6.74411">
        <ele>931.8</ele>
        <time>2020-02-09T11:18:09Z</time>
      </trkpt>
      <trkpt lat="43.71276" lon="6.74415">
        <ele>932.1</ele>
        <time>2020-02-09T11:18:11Z</time>
      </trkpt>
      <trkpt lat="43.71279" lon="6.74419">
        <ele>932.3</ele>
        <time>2020-02-09T11:18:12Z</time>
      </trkpt>
      <trkpt lat="43.71282" lon="6.74418">
        <ele>932.6</ele>
        <time>2020-02-09T11:18:20Z</time>
      </trkpt>
      <trkpt lat="43.71285" lon="6.74419">
        <ele>932.8</ele>
        <time>2020-02-09T11:18:22Z</time>
      </trkpt>
      <trkpt lat="43.71287" lon="6.74422">
        <ele>933</ele>
        <time>2020-02-09T11:18:26Z</time>
      </trkpt>
      <trkpt lat="43.71289" lon="6.74427">
        <ele>933.3</ele>
        <time>2020-02-09T11:18:30Z</time>
      </trkpt>
      <trkpt lat="43.7129" lon="6.74432">
        <ele>933.5</ele>
        <time>2020-02-09T11:18:32Z</time>
      </trkpt>
      <trkpt lat="43.71289" lon="6.74436">
        <ele>933.7</ele>
        <time>2020-02-09T11:18:36Z</time>
      </trkpt>
      <trkpt lat="43.71289" lon="6.74441">
        <ele>934</ele>
        <time>2020-02-09T11:18:40Z</time>
      </trkpt>
      <trkpt lat="43.71289" lon="6.74445">
        <ele>934.3</ele>
        <time>2020-02-09T11:18:43Z</time>
      </trkpt>
      <trkpt lat="43.7129" lon="6.74449">
        <ele>934.6</ele>
        <time>2020-02-09T11:18:45Z</time>
      </trkpt>
      <trkpt lat="43.71291" lon="6.74454">
        <ele>935</ele>
        <time>2020-02-09T11:18:51Z</time>
      </trkpt>
      <trkpt lat="43.71292" lon="6.74457">
        <ele>935.4</ele>
        <time>2020-02-09T11:18:55Z</time>
      </trkpt>
      <trkpt lat="43.71294" lon="6.7446">
        <ele>935.7</ele>
        <time>2020-02-09T11:18:57Z</time>
      </trkpt>
      <trkpt lat="43.71295" lon="6.74464">
        <ele>936.1</ele>
        <time>2020-02-09T11:19:01Z</time>
      </trkpt>
      <trkpt lat="43.71295" lon="6.74469">
        <ele>936.5</ele>
        <time>2020-02-09T11:19:05Z</time>
      </trkpt>
      <trkpt lat="43.71297" lon="6.74473">
        <ele>936.9</ele>
        <time>2020-02-09T11:19:10Z</time>
      </trkpt>
      <trkpt lat="43.71298" lon="6.74477">
        <ele>937.2</ele>
        <time>2020-02-09T11:19:15Z</time>
      </trkpt>
      <trkpt lat="43.71299" lon="6.74483">
        <ele>937.7</ele>
        <time>2020-02-09T11:19:19Z</time>
      </trkpt>
      <trkpt lat="43.71301" lon="6.74487">
        <ele>938.1</ele>
        <time>2020-02-09T11:19:24Z</time>
      </trkpt>
      <trkpt lat="43.71305" lon="6.74491">
        <ele>938.8</ele>
        <time>2020-02-09T11:19:29Z</time>
      </trkpt>
      <trkpt lat="43.71307" lon="6.74492">
        <ele>939.1</ele>
        <time>2020-02-09T11:19:32Z</time>
      </trkpt>
      <trkpt lat="43.7131" lon="6.74497">
        <ele>939.6</ele>
        <time>2020-02-09T11:19:38Z</time>
      </trkpt>
      <trkpt lat="43.71312" lon="6.74499">
        <ele>939.9</ele>
        <time>2020-02-09T11:19:41Z</time>
      </trkpt>
      <trkpt lat="43.71314" lon="6.74503">
        <ele>940.2</ele>
        <time>2020-02-09T11:19:43Z</time>
      </trkpt>
      <trkpt lat="43.71317" lon="6.74505">
        <ele>940.5</ele>
        <time>2020-02-09T11:19:47Z</time>
      </trkpt>
      <trkpt lat="43.71319" lon="6.74505">
        <ele>940.8</ele>
        <time>2020-02-09T11:19:50Z</time>
      </trkpt>
      <trkpt lat="43.71323" lon="6.74507">
        <ele>941.1</ele>
        <time>2020-02-09T11:19:54Z</time>
      </trkpt>
      <trkpt lat="43.71327" lon="6.74508">
        <ele>941.5</ele>
        <time>2020-02-09T11:19:58Z</time>
      </trkpt>
      <trkpt lat="43.7133" lon="6.74511">
        <ele>941.8</ele>
        <time>2020-02-09T11:20:02Z</time>
      </trkpt>
      <trkpt lat="43.71335" lon="6.74512">
        <ele>942.2</ele>
        <time>2020-02-09T11:20:06Z</time>
      </trkpt>
      <trkpt lat="43.71338" lon="6.74514">
        <ele>942.5</ele>
        <time>2020-02-09T11:20:10Z</time>
      </trkpt>
      <trkpt lat="43.71341" lon="6.74517">
        <ele>942.8</ele>
        <time>2020-02-09T11:20:14Z</time>
      </trkpt>
      <trkpt lat="43.71343" lon="6.74522">
        <ele>943.1</ele>
        <time>2020-02-09T11:20:18Z</time>
      </trkpt>
      <trkpt lat="43.71345" lon="6.74526">
        <ele>943.4</ele>
        <time>2020-02-09T11:20:20Z</time>
      </trkpt>
      <trkpt lat="43.71347" lon="6.74533">
        <ele>943.9</ele>
        <time>2020-02-09T11:20:24Z</time>
      </trkpt>
      <trkpt lat="43.71349" lon="6.74537">
        <ele>943.9</ele>
        <time>2020-02-09T11:20:28Z</time>
      </trkpt>
      <trkpt lat="43.7135" lon="6.74542">
        <ele>943.9</ele>
        <time>2020-02-09T11:20:32Z</time>
      </trkpt>
      <trkpt lat="43.71351" lon="6.74546">
        <ele>943.9</ele>
        <time>2020-02-09T11:20:36Z</time>
      </trkpt>
      <trkpt lat="43.71353" lon="6.74551">
        <ele>943.9</ele>
        <time>2020-02-09T11:20:42Z</time>
      </trkpt>
      <trkpt lat="43.71354" lon="6.74555">
        <ele>943.9</ele>
        <time>2020-02-09T11:20:49Z</time>
      </trkpt>
      <trkpt lat="43.71356" lon="6.7456">
        <ele>943.9</ele>
        <time>2020-02-09T11:20:50Z</time>
      </trkpt>
      <trkpt lat="43.71356" lon="6.74565">
        <ele>943.9</ele>
        <time>2020-02-09T11:20:53Z</time>
      </trkpt>
      <trkpt lat="43.7136" lon="6.74571">
        <ele>945.1</ele>
        <time>2020-02-09T11:20:56Z</time>
      </trkpt>
      <trkpt lat="43.71363" lon="6.74573">
        <ele>945.4</ele>
        <time>2020-02-09T11:20:58Z</time>
      </trkpt>
      <trkpt lat="43.71365" lon="6.74576">
        <ele>945.8</ele>
        <time>2020-02-09T11:21:00Z</time>
      </trkpt>
      <trkpt lat="43.71369" lon="6.74578">
        <ele>946.2</ele>
        <time>2020-02-09T11:21:02Z</time>
      </trkpt>
      <trkpt lat="43.71372" lon="6.74581">
        <ele>946.7</ele>
        <time>2020-02-09T11:21:04Z</time>
      </trkpt>
      <trkpt lat="43.71375" lon="6.74584">
        <ele>947.3</ele>
        <time>2020-02-09T11:21:08Z</time>
      </trkpt>
      <trkpt lat="43.7138" lon="6.74587">
        <ele>948</ele>
        <time>2020-02-09T11:21:11Z</time>
      </trkpt>
      <trkpt lat="43.71382" lon="6.74588">
        <ele>948.3</ele>
        <time>2020-02-09T11:21:12Z</time>
      </trkpt>
      <trkpt lat="43.71386" lon="6.74591">
        <ele>949</ele>
        <time>2020-02-09T11:21:13Z</time>
      </trkpt>
      <trkpt lat="43.71387" lon="6.74591">
        <ele>949.1</ele>
        <time>2020-02-09T11:21:14Z</time>
      </trkpt>
      <trkpt lat="43.7139" lon="6.74594">
        <ele>949.6</ele>
        <time>2020-02-09T11:21:16Z</time>
      </trkpt>
      <trkpt lat="43.71396" lon="6.74599">
        <ele>950.6</ele>
        <time>2020-02-09T11:21:20Z</time>
      </trkpt>
      <trkpt lat="43.71398" lon="6.74602">
        <ele>951</ele>
        <time>2020-02-09T11:21:23Z</time>
      </trkpt>
      <trkpt lat="43.714" lon="6.74606">
        <ele>951.5</ele>
        <time>2020-02-09T11:21:26Z</time>
      </trkpt>
      <trkpt lat="43.71403" lon="6.74609">
        <ele>951.9</ele>
        <time>2020-02-09T11:21:28Z</time>
      </trkpt>
      <trkpt lat="43.71406" lon="6.74614">
        <ele>952.5</ele>
        <time>2020-02-09T11:21:31Z</time>
      </trkpt>
      <trkpt lat="43.7141" lon="6.74618">
        <ele>953.4</ele>
        <time>2020-02-09T11:21:34Z</time>
      </trkpt>
      <trkpt lat="43.71413" lon="6.74621">
        <ele>953.9</ele>
        <time>2020-02-09T11:21:36Z</time>
      </trkpt>
      <trkpt lat="43.71416" lon="6.74622">
        <ele>954.3</ele>
        <time>2020-02-09T11:21:38Z</time>
      </trkpt>
      <trkpt lat="43.71419" lon="6.74623">
        <ele>954.7</ele>
        <time>2020-02-09T11:21:40Z</time>
      </trkpt>
      <trkpt lat="43.71423" lon="6.74624">
        <ele>955.3</ele>
        <time>2020-02-09T11:21:43Z</time>
      </trkpt>
      <trkpt lat="43.71427" lon="6.74625">
        <ele>956</ele>
        <time>2020-02-09T11:21:45Z</time>
      </trkpt>
      <trkpt lat="43.7143" lon="6.74626">
        <ele>956.6</ele>
        <time>2020-02-09T11:21:48Z</time>
      </trkpt>
      <trkpt lat="43.71433" lon="6.74627">
        <ele>957.2</ele>
        <time>2020-02-09T11:21:50Z</time>
      </trkpt>
      <trkpt lat="43.71437" lon="6.74629">
        <ele>957.8</ele>
        <time>2020-02-09T11:21:53Z</time>
      </trkpt>
      <trkpt lat="43.71441" lon="6.74631">
        <ele>958.5</ele>
        <time>2020-02-09T11:21:55Z</time>
      </trkpt>
      <trkpt lat="43.71444" lon="6.74633">
        <ele>959</ele>
        <time>2020-02-09T11:21:58Z</time>
      </trkpt>
      <trkpt lat="43.71448" lon="6.74635">
        <ele>959.6</ele>
        <time>2020-02-09T11:22:02Z</time>
      </trkpt>
      <trkpt lat="43.71451" lon="6.74636">
        <ele>960.1</ele>
        <time>2020-02-09T11:22:04Z</time>
      </trkpt>
      <trkpt lat="43.71454" lon="6.74637">
        <ele>960.6</ele>
        <time>2020-02-09T11:22:08Z</time>
      </trkpt>
      <trkpt lat="43.71457" lon="6.74638">
        <ele>961.1</ele>
        <time>2020-02-09T11:22:10Z</time>
      </trkpt>
      <trkpt lat="43.7146" lon="6.7464">
        <ele>961.7</ele>
        <time>2020-02-09T11:22:13Z</time>
      </trkpt>
      <trkpt lat="43.71465" lon="6.74644">
        <ele>962.5</ele>
        <time>2020-02-09T11:22:17Z</time>
      </trkpt>
      <trkpt lat="43.71467" lon="6.74647">
        <ele>963</ele>
        <time>2020-02-09T11:22:18Z</time>
      </trkpt>
      <trkpt lat="43.71468" lon="6.74648">
        <ele>963.2</ele>
        <time>2020-02-09T11:22:21Z</time>
      </trkpt>
      <trkpt lat="43.71472" lon="6.74654">
        <ele>963.9</ele>
        <time>2020-02-09T11:22:25Z</time>
      </trkpt>
      <trkpt lat="43.71474" lon="6.74657">
        <ele>964.3</ele>
        <time>2020-02-09T11:22:28Z</time>
      </trkpt>
      <trkpt lat="43.71476" lon="6.7466">
        <ele>964.6</ele>
        <time>2020-02-09T11:22:29Z</time>
      </trkpt>
      <trkpt lat="43.71478" lon="6.74663">
        <ele>965.1</ele>
        <time>2020-02-09T11:22:33Z</time>
      </trkpt>
      <trkpt lat="43.71481" lon="6.74666">
        <ele>965.8</ele>
        <time>2020-02-09T11:22:35Z</time>
      </trkpt>
      <trkpt lat="43.71484" lon="6.74669">
        <ele>966.2</ele>
        <time>2020-02-09T11:22:38Z</time>
      </trkpt>
      <trkpt lat="43.71488" lon="6.74672">
        <ele>966.8</ele>
        <time>2020-02-09T11:22:43Z</time>
      </trkpt>
      <trkpt lat="43.71492" lon="6.74675">
        <ele>967.4</ele>
        <time>2020-02-09T11:22:46Z</time>
      </trkpt>
      <trkpt lat="43.71493" lon="6.74676">
        <ele>967.7</ele>
        <time>2020-02-09T11:22:48Z</time>
      </trkpt>
      <trkpt lat="43.71497" lon="6.74678">
        <ele>968</ele>
        <time>2020-02-09T11:22:52Z</time>
      </trkpt>
      <trkpt lat="43.71501" lon="6.74681">
        <ele>968.5</ele>
        <time>2020-02-09T11:22:56Z</time>
      </trkpt>
      <trkpt lat="43.71503" lon="6.74682">
        <ele>968.7</ele>
        <time>2020-02-09T11:22:57Z</time>
      </trkpt>
      <trkpt lat="43.71508" lon="6.74685">
        <ele>969.1</ele>
        <time>2020-02-09T11:23:00Z</time>
      </trkpt>
      <trkpt lat="43.7151" lon="6.74686">
        <ele>969.3</ele>
        <time>2020-02-09T11:23:01Z</time>
      </trkpt>
      <trkpt lat="43.71514" lon="6.74689">
        <ele>969.6</ele>
        <time>2020-02-09T11:23:02Z</time>
      </trkpt>
      <trkpt lat="43.71517" lon="6.74692">
        <ele>970.1</ele>
        <time>2020-02-09T11:23:06Z</time>
      </trkpt>
      <trkpt lat="43.71521" lon="6.74695">
        <ele>970.6</ele>
        <time>2020-02-09T11:23:09Z</time>
      </trkpt>
      <trkpt lat="43.71525" lon="6.74698">
        <ele>971</ele>
        <time>2020-02-09T11:23:12Z</time>
      </trkpt>
      <trkpt lat="43.7153" lon="6.74702">
        <ele>971.7</ele>
        <time>2020-02-09T11:23:15Z</time>
      </trkpt>
      <trkpt lat="43.71537" lon="6.74704">
        <ele>972.5</ele>
        <time>2020-02-09T11:23:19Z</time>
      </trkpt>
      <trkpt lat="43.7154" lon="6.74704">
        <ele>972.9</ele>
        <time>2020-02-09T11:23:22Z</time>
      </trkpt>
      <trkpt lat="43.71546" lon="6.74704">
        <ele>973.5</ele>
        <time>2020-02-09T11:23:26Z</time>
      </trkpt>
      <trkpt lat="43.71547" lon="6.74705">
        <ele>973.6</ele>
        <time>2020-02-09T11:23:27Z</time>
      </trkpt>
      <trkpt lat="43.71553" lon="6.74706">
        <ele>974</ele>
        <time>2020-02-09T11:23:30Z</time>
      </trkpt>
      <trkpt lat="43.71554" lon="6.74707">
        <ele>974.1</ele>
        <time>2020-02-09T11:23:32Z</time>
      </trkpt>
      <trkpt lat="43.71557" lon="6.74708">
        <ele>974.3</ele>
        <time>2020-02-09T11:23:34Z</time>
      </trkpt>
      <trkpt lat="43.71562" lon="6.74709">
        <ele>974.5</ele>
        <time>2020-02-09T11:23:37Z</time>
      </trkpt>
      <trkpt lat="43.71563" lon="6.74709">
        <ele>974.6</ele>
        <time>2020-02-09T11:23:38Z</time>
      </trkpt>
      <trkpt lat="43.7157" lon="6.74711">
        <ele>974.9</ele>
        <time>2020-02-09T11:23:42Z</time>
      </trkpt>
      <trkpt lat="43.71573" lon="6.74712">
        <ele>975.1</ele>
        <time>2020-02-09T11:23:43Z</time>
      </trkpt>
      <trkpt lat="43.71574" lon="6.74713">
        <ele>975.1</ele>
        <time>2020-02-09T11:23:46Z</time>
      </trkpt>
      <trkpt lat="43.71577" lon="6.74715">
        <ele>975.3</ele>
        <time>2020-02-09T11:23:47Z</time>
      </trkpt>
      <trkpt lat="43.7158" lon="6.74717">
        <ele>975.4</ele>
        <time>2020-02-09T11:23:51Z</time>
      </trkpt>
      <trkpt lat="43.71583" lon="6.74721">
        <ele>975.6</ele>
        <time>2020-02-09T11:23:54Z</time>
      </trkpt>
      <trkpt lat="43.71589" lon="6.74727">
        <ele>975.9</ele>
        <time>2020-02-09T11:23:57Z</time>
      </trkpt>
      <trkpt lat="43.71591" lon="6.74729">
        <ele>976</ele>
        <time>2020-02-09T11:23:59Z</time>
      </trkpt>
      <trkpt lat="43.71596" lon="6.74736">
        <ele>976.4</ele>
        <time>2020-02-09T11:24:03Z</time>
      </trkpt>
      <trkpt lat="43.71598" lon="6.74738">
        <ele>976.6</ele>
        <time>2020-02-09T11:24:05Z</time>
      </trkpt>
      <trkpt lat="43.71601" lon="6.7474">
        <ele>976.7</ele>
        <time>2020-02-09T11:24:07Z</time>
      </trkpt>
      <trkpt lat="43.71606" lon="6.74745">
        <ele>976.9</ele>
        <time>2020-02-09T11:24:11Z</time>
      </trkpt>
      <trkpt lat="43.7161" lon="6.74747">
        <ele>977.1</ele>
        <time>2020-02-09T11:24:13Z</time>
      </trkpt>
      <trkpt lat="43.71617" lon="6.74747">
        <ele>977.2</ele>
        <time>2020-02-09T11:24:17Z</time>
      </trkpt>
      <trkpt lat="43.71619" lon="6.74747">
        <ele>977.2</ele>
        <time>2020-02-09T11:24:18Z</time>
      </trkpt>
      <trkpt lat="43.71622" lon="6.74748">
        <ele>977.2</ele>
        <time>2020-02-09T11:24:19Z</time>
      </trkpt>
      <trkpt lat="43.71626" lon="6.74748">
        <ele>977.2</ele>
        <time>2020-02-09T11:24:23Z</time>
      </trkpt>
      <trkpt lat="43.71633" lon="6.74748">
        <ele>977.2</ele>
        <time>2020-02-09T11:24:26Z</time>
      </trkpt>
      <trkpt lat="43.71636" lon="6.7475">
        <ele>977.2</ele>
        <time>2020-02-09T11:24:30Z</time>
      </trkpt>
      <trkpt lat="43.71643" lon="6.74753">
        <ele>977</ele>
        <time>2020-02-09T11:24:33Z</time>
      </trkpt>
      <trkpt lat="43.71646" lon="6.74754">
        <ele>976.9</ele>
        <time>2020-02-09T11:24:37Z</time>
      </trkpt>
      <trkpt lat="43.7165" lon="6.74755">
        <ele>976.7</ele>
        <time>2020-02-09T11:24:41Z</time>
      </trkpt>
      <trkpt lat="43.71653" lon="6.74755">
        <ele>976.6</ele>
        <time>2020-02-09T11:24:43Z</time>
      </trkpt>
      <trkpt lat="43.71657" lon="6.74757">
        <ele>976.3</ele>
        <time>2020-02-09T11:24:48Z</time>
      </trkpt>
      <trkpt lat="43.71659" lon="6.74758">
        <ele>976.1</ele>
        <time>2020-02-09T11:24:51Z</time>
      </trkpt>
      <trkpt lat="43.71661" lon="6.74762">
        <ele>975.8</ele>
        <time>2020-02-09T11:24:53Z</time>
      </trkpt>
      <trkpt lat="43.71662" lon="6.74769">
        <ele>975.4</ele>
        <time>2020-02-09T11:24:57Z</time>
      </trkpt>
      <trkpt lat="43.71662" lon="6.74774">
        <ele>974.2</ele>
        <time>2020-02-09T11:24:59Z</time>
      </trkpt>
      <trkpt lat="43.71658" lon="6.74782">
        <ele>973.4</ele>
        <time>2020-02-09T11:25:02Z</time>
      </trkpt>
      <trkpt lat="43.71657" lon="6.74786">
        <ele>973.1</ele>
        <time>2020-02-09T11:25:03Z</time>
      </trkpt>
      <trkpt lat="43.71651" lon="6.74795">
        <ele>972.3</ele>
        <time>2020-02-09T11:25:06Z</time>
      </trkpt>
      <trkpt lat="43.71646" lon="6.748">
        <ele>971.6</ele>
        <time>2020-02-09T11:25:07Z</time>
      </trkpt>
      <trkpt lat="43.71641" lon="6.74806">
        <ele>971.1</ele>
        <time>2020-02-09T11:25:10Z</time>
      </trkpt>
      <trkpt lat="43.71637" lon="6.74811">
        <ele>970.6</ele>
        <time>2020-02-09T11:25:12Z</time>
      </trkpt>
      <trkpt lat="43.71634" lon="6.74816">
        <ele>970.2</ele>
        <time>2020-02-09T11:25:14Z</time>
      </trkpt>
      <trkpt lat="43.71632" lon="6.74819">
        <ele>970</ele>
        <time>2020-02-09T11:25:15Z</time>
      </trkpt>
      <trkpt lat="43.71627" lon="6.74825">
        <ele>969.7</ele>
        <time>2020-02-09T11:25:16Z</time>
      </trkpt>
      <trkpt lat="43.71625" lon="6.74829">
        <ele>969.5</ele>
        <time>2020-02-09T11:25:19Z</time>
      </trkpt>
      <trkpt lat="43.71623" lon="6.74833">
        <ele>969.3</ele>
        <time>2020-02-09T11:25:20Z</time>
      </trkpt>
      <trkpt lat="43.7162" lon="6.74837">
        <ele>969.2</ele>
        <time>2020-02-09T11:25:21Z</time>
      </trkpt>
      <trkpt lat="43.71618" lon="6.74841">
        <ele>969</ele>
        <time>2020-02-09T11:25:22Z</time>
      </trkpt>
      <trkpt lat="43.71614" lon="6.74846">
        <ele>968.8</ele>
        <time>2020-02-09T11:25:23Z</time>
      </trkpt>
      <trkpt lat="43.71609" lon="6.74853">
        <ele>968.4</ele>
        <time>2020-02-09T11:25:24Z</time>
      </trkpt>
      <trkpt lat="43.71605" lon="6.74857">
        <ele>968.2</ele>
        <time>2020-02-09T11:25:27Z</time>
      </trkpt>
      <trkpt lat="43.71598" lon="6.7487">
        <ele>967.9</ele>
        <time>2020-02-09T11:25:30Z</time>
      </trkpt>
      <trkpt lat="43.71591" lon="6.7488">
        <ele>967.8</ele>
        <time>2020-02-09T11:25:33Z</time>
      </trkpt>
      <trkpt lat="43.71587" lon="6.74886">
        <ele>967.8</ele>
        <time>2020-02-09T11:25:34Z</time>
      </trkpt>
      <trkpt lat="43.71584" lon="6.7489">
        <ele>967.9</ele>
        <time>2020-02-09T11:25:35Z</time>
      </trkpt>
      <trkpt lat="43.7158" lon="6.74896">
        <ele>968</ele>
        <time>2020-02-09T11:25:37Z</time>
      </trkpt>
      <trkpt lat="43.71577" lon="6.749">
        <ele>968</ele>
        <time>2020-02-09T11:25:38Z</time>
      </trkpt>
      <trkpt lat="43.71574" lon="6.74904">
        <ele>968.1</ele>
        <time>2020-02-09T11:25:39Z</time>
      </trkpt>
      <trkpt lat="43.71569" lon="6.7491">
        <ele>968.2</ele>
        <time>2020-02-09T11:25:41Z</time>
      </trkpt>
      <trkpt lat="43.71566" lon="6.74914">
        <ele>968.2</ele>
        <time>2020-02-09T11:25:42Z</time>
      </trkpt>
      <trkpt lat="43.71554" lon="6.74922">
        <ele>968.4</ele>
        <time>2020-02-09T11:25:44Z</time>
      </trkpt>
      <trkpt lat="43.71549" lon="6.74924">
        <ele>968.5</ele>
        <time>2020-02-09T11:25:47Z</time>
      </trkpt>
      <trkpt lat="43.71541" lon="6.74927">
        <ele>968.6</ele>
        <time>2020-02-09T11:25:50Z</time>
      </trkpt>
      <trkpt lat="43.71536" lon="6.74929">
        <ele>968.7</ele>
        <time>2020-02-09T11:25:52Z</time>
      </trkpt>
      <trkpt lat="43.71532" lon="6.74931">
        <ele>968.7</ele>
        <time>2020-02-09T11:25:54Z</time>
      </trkpt>
      <trkpt lat="43.7153" lon="6.74934">
        <ele>968.8</ele>
        <time>2020-02-09T11:25:55Z</time>
      </trkpt>
      <trkpt lat="43.71527" lon="6.74937">
        <ele>968.8</ele>
        <time>2020-02-09T11:25:57Z</time>
      </trkpt>
      <trkpt lat="43.71525" lon="6.7494">
        <ele>968.8</ele>
        <time>2020-02-09T11:26:00Z</time>
      </trkpt>
      <trkpt lat="43.71521" lon="6.74944">
        <ele>968.9</ele>
        <time>2020-02-09T11:26:04Z</time>
      </trkpt>
      <trkpt lat="43.71516" lon="6.74948">
        <ele>969</ele>
        <time>2020-02-09T11:26:07Z</time>
      </trkpt>
      <trkpt lat="43.71511" lon="6.74954">
        <ele>969.1</ele>
        <time>2020-02-09T11:26:10Z</time>
      </trkpt>
      <trkpt lat="43.71508" lon="6.74958">
        <ele>969.1</ele>
        <time>2020-02-09T11:26:11Z</time>
      </trkpt>
      <trkpt lat="43.71503" lon="6.74965">
        <ele>969.2</ele>
        <time>2020-02-09T11:26:12Z</time>
      </trkpt>
      <trkpt lat="43.715" lon="6.74968">
        <ele>969.3</ele>
        <time>2020-02-09T11:26:15Z</time>
      </trkpt>
      <trkpt lat="43.71493" lon="6.74971">
        <ele>969.4</ele>
        <time>2020-02-09T11:26:18Z</time>
      </trkpt>
      <trkpt lat="43.71484" lon="6.74969">
        <ele>969.5</ele>
        <time>2020-02-09T11:26:21Z</time>
      </trkpt>
      <trkpt lat="43.7148" lon="6.74967">
        <ele>969.6</ele>
        <time>2020-02-09T11:26:22Z</time>
      </trkpt>
      <trkpt lat="43.71475" lon="6.74966">
        <ele>969.7</ele>
        <time>2020-02-09T11:26:23Z</time>
      </trkpt>
      <trkpt lat="43.71471" lon="6.74966">
        <ele>969.9</ele>
        <time>2020-02-09T11:26:25Z</time>
      </trkpt>
      <trkpt lat="43.71468" lon="6.74968">
        <ele>970</ele>
        <time>2020-02-09T11:26:26Z</time>
      </trkpt>
      <trkpt lat="43.71464" lon="6.74971">
        <ele>970.1</ele>
        <time>2020-02-09T11:26:27Z</time>
      </trkpt>
      <trkpt lat="43.71461" lon="6.74976">
        <ele>970.3</ele>
        <time>2020-02-09T11:26:29Z</time>
      </trkpt>
      <trkpt lat="43.71456" lon="6.74979">
        <ele>970.5</ele>
        <time>2020-02-09T11:26:32Z</time>
      </trkpt>
      <trkpt lat="43.71448" lon="6.74986">
        <ele>971.1</ele>
        <time>2020-02-09T11:26:36Z</time>
      </trkpt>
      <trkpt lat="43.71441" lon="6.74992">
        <ele>971.5</ele>
        <time>2020-02-09T11:26:40Z</time>
      </trkpt>
      <trkpt lat="43.71439" lon="6.74996">
        <ele>971.7</ele>
        <time>2020-02-09T11:26:42Z</time>
      </trkpt>
      <trkpt lat="43.71434" lon="6.75004">
        <ele>972.1</ele>
        <time>2020-02-09T11:26:46Z</time>
      </trkpt>
      <trkpt lat="43.71433" lon="6.75006">
        <ele>972.3</ele>
        <time>2020-02-09T11:26:47Z</time>
      </trkpt>
      <trkpt lat="43.71431" lon="6.75011">
        <ele>972.5</ele>
        <time>2020-02-09T11:26:49Z</time>
      </trkpt>
      <trkpt lat="43.71426" lon="6.75018">
        <ele>972.8</ele>
        <time>2020-02-09T11:26:51Z</time>
      </trkpt>
      <trkpt lat="43.71424" lon="6.75022">
        <ele>973.1</ele>
        <time>2020-02-09T11:26:53Z</time>
      </trkpt>
      <trkpt lat="43.71421" lon="6.75027">
        <ele>973.4</ele>
        <time>2020-02-09T11:26:56Z</time>
      </trkpt>
      <trkpt lat="43.71418" lon="6.75033">
        <ele>973.9</ele>
        <time>2020-02-09T11:26:59Z</time>
      </trkpt>
      <trkpt lat="43.71413" lon="6.7504">
        <ele>974.6</ele>
        <time>2020-02-09T11:27:02Z</time>
      </trkpt>
      <trkpt lat="43.7141" lon="6.75045">
        <ele>975.1</ele>
        <time>2020-02-09T11:27:05Z</time>
      </trkpt>
      <trkpt lat="43.71408" lon="6.75053">
        <ele>975.6</ele>
        <time>2020-02-09T11:27:07Z</time>
      </trkpt>
      <trkpt lat="43.71407" lon="6.75057">
        <ele>975.9</ele>
        <time>2020-02-09T11:27:10Z</time>
      </trkpt>
      <trkpt lat="43.71406" lon="6.75066">
        <ele>976.5</ele>
        <time>2020-02-09T11:27:12Z</time>
      </trkpt>
      <trkpt lat="43.71406" lon="6.75069">
        <ele>976.8</ele>
        <time>2020-02-09T11:27:14Z</time>
      </trkpt>
      <trkpt lat="43.71404" lon="6.75074">
        <ele>977.1</ele>
        <time>2020-02-09T11:27:17Z</time>
      </trkpt>
      <trkpt lat="43.71401" lon="6.75083">
        <ele>977.9</ele>
        <time>2020-02-09T11:27:21Z</time>
      </trkpt>
      <trkpt lat="43.71395" lon="6.7509">
        <ele>978.6</ele>
        <time>2020-02-09T11:27:25Z</time>
      </trkpt>
      <trkpt lat="43.71392" lon="6.75094">
        <ele>978.9</ele>
        <time>2020-02-09T11:27:26Z</time>
      </trkpt>
      <trkpt lat="43.71388" lon="6.75096">
        <ele>979.3</ele>
        <time>2020-02-09T11:27:28Z</time>
      </trkpt>
      <trkpt lat="43.71385" lon="6.75099">
        <ele>979.5</ele>
        <time>2020-02-09T11:27:30Z</time>
      </trkpt>
      <trkpt lat="43.71382" lon="6.75104">
        <ele>979.9</ele>
        <time>2020-02-09T11:27:34Z</time>
      </trkpt>
      <trkpt lat="43.7138" lon="6.7511">
        <ele>980.3</ele>
        <time>2020-02-09T11:27:35Z</time>
      </trkpt>
      <trkpt lat="43.71379" lon="6.75112">
        <ele>980.5</ele>
        <time>2020-02-09T11:27:38Z</time>
      </trkpt>
      <trkpt lat="43.71377" lon="6.75115">
        <ele>980.7</ele>
        <time>2020-02-09T11:27:39Z</time>
      </trkpt>
      <trkpt lat="43.71374" lon="6.75118">
        <ele>981</ele>
        <time>2020-02-09T11:27:42Z</time>
      </trkpt>
      <trkpt lat="43.71372" lon="6.75121">
        <ele>981.2</ele>
        <time>2020-02-09T11:27:44Z</time>
      </trkpt>
      <trkpt lat="43.71368" lon="6.75125">
        <ele>981.6</ele>
        <time>2020-02-09T11:27:46Z</time>
      </trkpt>
      <trkpt lat="43.71365" lon="6.75128">
        <ele>981.9</ele>
        <time>2020-02-09T11:27:49Z</time>
      </trkpt>
      <trkpt lat="43.71363" lon="6.7513">
        <ele>982.2</ele>
        <time>2020-02-09T11:27:51Z</time>
      </trkpt>
      <trkpt lat="43.71359" lon="6.75133">
        <ele>982.6</ele>
        <time>2020-02-09T11:27:53Z</time>
      </trkpt>
      <trkpt lat="43.71354" lon="6.75135">
        <ele>983.2</ele>
        <time>2020-02-09T11:27:56Z</time>
      </trkpt>
      <trkpt lat="43.71352" lon="6.75136">
        <ele>983.4</ele>
        <time>2020-02-09T11:27:58Z</time>
      </trkpt>
      <trkpt lat="43.71347" lon="6.75138">
        <ele>984.2</ele>
        <time>2020-02-09T11:28:00Z</time>
      </trkpt>
      <trkpt lat="43.71344" lon="6.75141">
        <ele>984.6</ele>
        <time>2020-02-09T11:28:04Z</time>
      </trkpt>
      <trkpt lat="43.71342" lon="6.75144">
        <ele>984.9</ele>
        <time>2020-02-09T11:28:05Z</time>
      </trkpt>
      <trkpt lat="43.71337" lon="6.75151">
        <ele>985.6</ele>
        <time>2020-02-09T11:28:10Z</time>
      </trkpt>
      <trkpt lat="43.71334" lon="6.75157">
        <ele>986.1</ele>
        <time>2020-02-09T11:28:13Z</time>
      </trkpt>
      <trkpt lat="43.71332" lon="6.75161">
        <ele>986.6</ele>
        <time>2020-02-09T11:28:16Z</time>
      </trkpt>
      <trkpt lat="43.7133" lon="6.75165">
        <ele>986.9</ele>
        <time>2020-02-09T11:28:17Z</time>
      </trkpt>
      <trkpt lat="43.71325" lon="6.75171">
        <ele>987.8</ele>
        <time>2020-02-09T11:28:22Z</time>
      </trkpt>
      <trkpt lat="43.71324" lon="6.75174">
        <ele>988.1</ele>
        <time>2020-02-09T11:28:24Z</time>
      </trkpt>
      <trkpt lat="43.71321" lon="6.75177">
        <ele>988.4</ele>
        <time>2020-02-09T11:28:28Z</time>
      </trkpt>
      <trkpt lat="43.71317" lon="6.75179">
        <ele>988.9</ele>
        <time>2020-02-09T11:28:31Z</time>
      </trkpt>
      <trkpt lat="43.71312" lon="6.75182">
        <ele>989.6</ele>
        <time>2020-02-09T11:28:35Z</time>
      </trkpt>
      <trkpt lat="43.71311" lon="6.75183">
        <ele>989.7</ele>
        <time>2020-02-09T11:28:36Z</time>
      </trkpt>
      <trkpt lat="43.71308" lon="6.75186">
        <ele>990.1</ele>
        <time>2020-02-09T11:28:39Z</time>
      </trkpt>
      <trkpt lat="43.71305" lon="6.75188">
        <ele>990.4</ele>
        <time>2020-02-09T11:28:41Z</time>
      </trkpt>
      <trkpt lat="43.71303" lon="6.75192">
        <ele>990.7</ele>
        <time>2020-02-09T11:28:42Z</time>
      </trkpt>
      <trkpt lat="43.71301" lon="6.75195">
        <ele>991.1</ele>
        <time>2020-02-09T11:28:45Z</time>
      </trkpt>
      <trkpt lat="43.71297" lon="6.75201">
        <ele>991.8</ele>
        <time>2020-02-09T11:28:48Z</time>
      </trkpt>
      <trkpt lat="43.71294" lon="6.75205">
        <ele>992.2</ele>
        <time>2020-02-09T11:28:51Z</time>
      </trkpt>
      <trkpt lat="43.7129" lon="6.75212">
        <ele>993.1</ele>
        <time>2020-02-09T11:28:55Z</time>
      </trkpt>
      <trkpt lat="43.71285" lon="6.75217">
        <ele>993.7</ele>
        <time>2020-02-09T11:28:58Z</time>
      </trkpt>
      <trkpt lat="43.71284" lon="6.75219">
        <ele>993.9</ele>
        <time>2020-02-09T11:28:59Z</time>
      </trkpt>
      <trkpt lat="43.71282" lon="6.75223">
        <ele>994.2</ele>
        <time>2020-02-09T11:29:02Z</time>
      </trkpt>
      <trkpt lat="43.7128" lon="6.7523">
        <ele>994.8</ele>
        <time>2020-02-09T11:29:06Z</time>
      </trkpt>
      <trkpt lat="43.71279" lon="6.75234">
        <ele>995</ele>
        <time>2020-02-09T11:29:08Z</time>
      </trkpt>
      <trkpt lat="43.71275" lon="6.75237">
        <ele>995.4</ele>
        <time>2020-02-09T11:29:09Z</time>
      </trkpt>
      <trkpt lat="43.71271" lon="6.75237">
        <ele>995.7</ele>
        <time>2020-02-09T11:29:13Z</time>
      </trkpt>
      <trkpt lat="43.71267" lon="6.75238">
        <ele>996</ele>
        <time>2020-02-09T11:29:15Z</time>
      </trkpt>
      <trkpt lat="43.71263" lon="6.75239">
        <ele>996.3</ele>
        <time>2020-02-09T11:29:18Z</time>
      </trkpt>
      <trkpt lat="43.7126" lon="6.75242">
        <ele>996.6</ele>
        <time>2020-02-09T11:29:19Z</time>
      </trkpt>
      <trkpt lat="43.71258" lon="6.75245">
        <ele>996.8</ele>
        <time>2020-02-09T11:29:22Z</time>
      </trkpt>
      <trkpt lat="43.71255" lon="6.75251">
        <ele>997.3</ele>
        <time>2020-02-09T11:29:25Z</time>
      </trkpt>
      <trkpt lat="43.71251" lon="6.75258">
        <ele>997.7</ele>
        <time>2020-02-09T11:29:29Z</time>
      </trkpt>
      <trkpt lat="43.71248" lon="6.75262">
        <ele>998.1</ele>
        <time>2020-02-09T11:29:31Z</time>
      </trkpt>
      <trkpt lat="43.71245" lon="6.75265">
        <ele>998.5</ele>
        <time>2020-02-09T11:29:34Z</time>
      </trkpt>
      <trkpt lat="43.7124" lon="6.75269">
        <ele>999</ele>
        <time>2020-02-09T11:29:37Z</time>
      </trkpt>
      <trkpt lat="43.71235" lon="6.75272">
        <ele>999.5</ele>
        <time>2020-02-09T11:29:40Z</time>
      </trkpt>
      <trkpt lat="43.71232" lon="6.75275">
        <ele>999.7</ele>
        <time>2020-02-09T11:29:42Z</time>
      </trkpt>
      <trkpt lat="43.7123" lon="6.75278">
        <ele>1000</ele>
        <time>2020-02-09T11:29:44Z</time>
      </trkpt>
      <trkpt lat="43.71225" lon="6.75284">
        <ele>1000.5</ele>
        <time>2020-02-09T11:29:48Z</time>
      </trkpt>
      <trkpt lat="43.71223" lon="6.75286">
        <ele>1000.7</ele>
        <time>2020-02-09T11:29:49Z</time>
      </trkpt>
      <trkpt lat="43.71221" lon="6.75291">
        <ele>1000.9</ele>
        <time>2020-02-09T11:29:52Z</time>
      </trkpt>
      <trkpt lat="43.71217" lon="6.75294">
        <ele>1001.2</ele>
        <time>2020-02-09T11:29:55Z</time>
      </trkpt>
      <trkpt lat="43.71211" lon="6.75298">
        <ele>1001.6</ele>
        <time>2020-02-09T11:29:57Z</time>
      </trkpt>
      <trkpt lat="43.71209" lon="6.75299">
        <ele>1001.8</ele>
        <time>2020-02-09T11:30:00Z</time>
      </trkpt>
      <trkpt lat="43.71202" lon="6.75302">
        <ele>1002.5</ele>
        <time>2020-02-09T11:30:04Z</time>
      </trkpt>
      <trkpt lat="43.71197" lon="6.75305">
        <ele>1003.1</ele>
        <time>2020-02-09T11:30:07Z</time>
      </trkpt>
      <trkpt lat="43.71193" lon="6.75307">
        <ele>1003.6</ele>
        <time>2020-02-09T11:30:10Z</time>
      </trkpt>
      <trkpt lat="43.71188" lon="6.75311">
        <ele>1004.3</ele>
        <time>2020-02-09T11:30:13Z</time>
      </trkpt>
      <trkpt lat="43.71185" lon="6.75314">
        <ele>1004.7</ele>
        <time>2020-02-09T11:30:16Z</time>
      </trkpt>
      <trkpt lat="43.71183" lon="6.75319">
        <ele>1005.1</ele>
        <time>2020-02-09T11:30:19Z</time>
      </trkpt>
      <trkpt lat="43.71182" lon="6.75322">
        <ele>1005.4</ele>
        <time>2020-02-09T11:30:21Z</time>
      </trkpt>
      <trkpt lat="43.71179" lon="6.75327">
        <ele>1006</ele>
        <time>2020-02-09T11:30:23Z</time>
      </trkpt>
      <trkpt lat="43.71178" lon="6.75329">
        <ele>1006.3</ele>
        <time>2020-02-09T11:30:26Z</time>
      </trkpt>
      <trkpt lat="43.71174" lon="6.75333">
        <ele>1006.9</ele>
        <time>2020-02-09T11:30:29Z</time>
      </trkpt>
      <trkpt lat="43.71171" lon="6.75336">
        <ele>1007.4</ele>
        <time>2020-02-09T11:30:32Z</time>
      </trkpt>
      <trkpt lat="43.71169" lon="6.75339">
        <ele>1007.9</ele>
        <time>2020-02-09T11:30:36Z</time>
      </trkpt>
      <trkpt lat="43.71165" lon="6.75343">
        <ele>1008.5</ele>
        <time>2020-02-09T11:30:38Z</time>
      </trkpt>
      <trkpt lat="43.71164" lon="6.75345">
        <ele>1008.9</ele>
        <time>2020-02-09T11:30:40Z</time>
      </trkpt>
      <trkpt lat="43.71161" lon="6.75348">
        <ele>1009.4</ele>
        <time>2020-02-09T11:30:45Z</time>
      </trkpt>
      <trkpt lat="43.71158" lon="6.75351">
        <ele>1009.9</ele>
        <time>2020-02-09T11:30:47Z</time>
      </trkpt>
      <trkpt lat="43.71156" lon="6.75353">
        <ele>1010.2</ele>
        <time>2020-02-09T11:30:50Z</time>
      </trkpt>
      <trkpt lat="43.71152" lon="6.75358">
        <ele>1011.2</ele>
        <time>2020-02-09T11:30:54Z</time>
      </trkpt>
      <trkpt lat="43.71151" lon="6.7536">
        <ele>1011.6</ele>
        <time>2020-02-09T11:30:55Z</time>
      </trkpt>
      <trkpt lat="43.71148" lon="6.75363">
        <ele>1012.2</ele>
        <time>2020-02-09T11:30:57Z</time>
      </trkpt>
      <trkpt lat="43.71145" lon="6.75366">
        <ele>1012.9</ele>
        <time>2020-02-09T11:31:01Z</time>
      </trkpt>
      <trkpt lat="43.71142" lon="6.75368">
        <ele>1013.6</ele>
        <time>2020-02-09T11:31:04Z</time>
      </trkpt>
      <trkpt lat="43.71137" lon="6.75371">
        <ele>1014.7</ele>
        <time>2020-02-09T11:31:07Z</time>
      </trkpt>
      <trkpt lat="43.71135" lon="6.75372">
        <ele>1015</ele>
        <time>2020-02-09T11:31:09Z</time>
      </trkpt>
      <trkpt lat="43.71132" lon="6.75374">
        <ele>1015.6</ele>
        <time>2020-02-09T11:31:11Z</time>
      </trkpt>
      <trkpt lat="43.71129" lon="6.7538">
        <ele>1016.4</ele>
        <time>2020-02-09T11:31:15Z</time>
      </trkpt>
      <trkpt lat="43.71127" lon="6.75382">
        <ele>1016.8</ele>
        <time>2020-02-09T11:31:18Z</time>
      </trkpt>
      <trkpt lat="43.71125" lon="6.75381">
        <ele>1017.1</ele>
        <time>2020-02-09T11:31:21Z</time>
      </trkpt>
      <trkpt lat="43.71122" lon="6.75385">
        <ele>1017.9</ele>
        <time>2020-02-09T11:31:25Z</time>
      </trkpt>
      <trkpt lat="43.71119" lon="6.75386">
        <ele>1018.4</ele>
        <time>2020-02-09T11:31:27Z</time>
      </trkpt>
      <trkpt lat="43.71114" lon="6.75387">
        <ele>1019.4</ele>
        <time>2020-02-09T11:31:31Z</time>
      </trkpt>
      <trkpt lat="43.71111" lon="6.75387">
        <ele>1019.8</ele>
        <time>2020-02-09T11:31:35Z</time>
      </trkpt>
      <trkpt lat="43.71107" lon="6.75389">
        <ele>1020.5</ele>
        <time>2020-02-09T11:31:40Z</time>
      </trkpt>
      <trkpt lat="43.71105" lon="6.7539">
        <ele>1020.9</ele>
        <time>2020-02-09T11:31:44Z</time>
      </trkpt>
      <trkpt lat="43.71102" lon="6.75392">
        <ele>1021.2</ele>
        <time>2020-02-09T11:31:47Z</time>
      </trkpt>
      <trkpt lat="43.71099" lon="6.75394">
        <ele>1021.6</ele>
        <time>2020-02-09T11:31:51Z</time>
      </trkpt>
      <trkpt lat="43.71095" lon="6.75396">
        <ele>1022</ele>
        <time>2020-02-09T11:31:55Z</time>
      </trkpt>
      <trkpt lat="43.71093" lon="6.75397">
        <ele>1022.3</ele>
        <time>2020-02-09T11:31:58Z</time>
      </trkpt>
      <trkpt lat="43.7109" lon="6.75399">
        <ele>1022.7</ele>
        <time>2020-02-09T11:32:02Z</time>
      </trkpt>
      <trkpt lat="43.71088" lon="6.75405">
        <ele>1023.3</ele>
        <time>2020-02-09T11:32:05Z</time>
      </trkpt>
      <trkpt lat="43.71087" lon="6.75408">
        <ele>1023.6</ele>
        <time>2020-02-09T11:32:07Z</time>
      </trkpt>
      <trkpt lat="43.71086" lon="6.75411">
        <ele>1024.1</ele>
        <time>2020-02-09T11:32:11Z</time>
      </trkpt>
      <trkpt lat="43.71084" lon="6.75418">
        <ele>1025</ele>
        <time>2020-02-09T11:32:15Z</time>
      </trkpt>
      <trkpt lat="43.71084" lon="6.7542">
        <ele>1025.2</ele>
        <time>2020-02-09T11:32:16Z</time>
      </trkpt>
      <trkpt lat="43.71082" lon="6.75424">
        <ele>1025.9</ele>
        <time>2020-02-09T11:32:18Z</time>
      </trkpt>
      <trkpt lat="43.7108" lon="6.75428">
        <ele>1026.5</ele>
        <time>2020-02-09T11:32:22Z</time>
      </trkpt>
      <trkpt lat="43.71078" lon="6.75432">
        <ele>1027.2</ele>
        <time>2020-02-09T11:32:25Z</time>
      </trkpt>
      <trkpt lat="43.71076" lon="6.75436">
        <ele>1027.9</ele>
        <time>2020-02-09T11:32:29Z</time>
      </trkpt>
      <trkpt lat="43.71074" lon="6.7544">
        <ele>1028.5</ele>
        <time>2020-02-09T11:32:31Z</time>
      </trkpt>
      <trkpt lat="43.71072" lon="6.75443">
        <ele>1029.1</ele>
        <time>2020-02-09T11:32:35Z</time>
      </trkpt>
      <trkpt lat="43.71068" lon="6.75447">
        <ele>1029.8</ele>
        <time>2020-02-09T11:32:39Z</time>
      </trkpt>
      <trkpt lat="43.71066" lon="6.75449">
        <ele>1030.3</ele>
        <time>2020-02-09T11:32:42Z</time>
      </trkpt>
      <trkpt lat="43.71062" lon="6.75453">
        <ele>1030.8</ele>
        <time>2020-02-09T11:32:45Z</time>
      </trkpt>
      <trkpt lat="43.7106" lon="6.75455">
        <ele>1031.3</ele>
        <time>2020-02-09T11:32:48Z</time>
      </trkpt>
      <trkpt lat="43.71058" lon="6.75459">
        <ele>1031.7</ele>
        <time>2020-02-09T11:32:51Z</time>
      </trkpt>
      <trkpt lat="43.71055" lon="6.75463">
        <ele>1032.5</ele>
        <time>2020-02-09T11:32:54Z</time>
      </trkpt>
      <trkpt lat="43.71053" lon="6.75465">
        <ele>1032.8</ele>
        <time>2020-02-09T11:32:57Z</time>
      </trkpt>
      <trkpt lat="43.7105" lon="6.7547">
        <ele>1033.4</ele>
        <time>2020-02-09T11:33:00Z</time>
      </trkpt>
      <trkpt lat="43.71048" lon="6.75471">
        <ele>1033.8</ele>
        <time>2020-02-09T11:33:04Z</time>
      </trkpt>
      <trkpt lat="43.71045" lon="6.75474">
        <ele>1034.4</ele>
        <time>2020-02-09T11:33:08Z</time>
      </trkpt>
      <trkpt lat="43.71042" lon="6.75477">
        <ele>1035</ele>
        <time>2020-02-09T11:33:12Z</time>
      </trkpt>
      <trkpt lat="43.71039" lon="6.75478">
        <ele>1035.5</ele>
        <time>2020-02-09T11:33:14Z</time>
      </trkpt>
      <trkpt lat="43.71035" lon="6.75478">
        <ele>1036.1</ele>
        <time>2020-02-09T11:33:18Z</time>
      </trkpt>
      <trkpt lat="43.7103" lon="6.75476">
        <ele>1037.1</ele>
        <time>2020-02-09T11:33:22Z</time>
      </trkpt>
      <trkpt lat="43.71029" lon="6.75476">
        <ele>1037.3</ele>
        <time>2020-02-09T11:33:23Z</time>
      </trkpt>
      <trkpt lat="43.71025" lon="6.75475">
        <ele>1038.1</ele>
        <time>2020-02-09T11:33:26Z</time>
      </trkpt>
      <trkpt lat="43.71021" lon="6.75473">
        <ele>1038.5</ele>
        <time>2020-02-09T11:33:30Z</time>
      </trkpt>
      <trkpt lat="43.71015" lon="6.75472">
        <ele>1039.2</ele>
        <time>2020-02-09T11:33:34Z</time>
      </trkpt>
      <trkpt lat="43.71013" lon="6.75471">
        <ele>1039.4</ele>
        <time>2020-02-09T11:33:37Z</time>
      </trkpt>
      <trkpt lat="43.7101" lon="6.7547">
        <ele>1039.8</ele>
        <time>2020-02-09T11:33:39Z</time>
      </trkpt>
      <trkpt lat="43.71006" lon="6.7547">
        <ele>1040.5</ele>
        <time>2020-02-09T11:33:43Z</time>
      </trkpt>
      <trkpt lat="43.71002" lon="6.75469">
        <ele>1041.1</ele>
        <time>2020-02-09T11:33:46Z</time>
      </trkpt>
      <trkpt lat="43.70999" lon="6.75469">
        <ele>1041.6</ele>
        <time>2020-02-09T11:33:49Z</time>
      </trkpt>
      <trkpt lat="43.70995" lon="6.75468">
        <ele>1042.4</ele>
        <time>2020-02-09T11:33:53Z</time>
      </trkpt>
      <trkpt lat="43.7099" lon="6.75467">
        <ele>1043.4</ele>
        <time>2020-02-09T11:33:58Z</time>
      </trkpt>
      <trkpt lat="43.70989" lon="6.75466">
        <ele>1043.7</ele>
        <time>2020-02-09T11:33:59Z</time>
      </trkpt>
      <trkpt lat="43.70984" lon="6.75465">
        <ele>1044.6</ele>
        <time>2020-02-09T11:34:03Z</time>
      </trkpt>
      <trkpt lat="43.7098" lon="6.75464">
        <ele>1045.4</ele>
        <time>2020-02-09T11:34:08Z</time>
      </trkpt>
      <trkpt lat="43.70977" lon="6.75463">
        <ele>1045.9</ele>
        <time>2020-02-09T11:34:10Z</time>
      </trkpt>
      <trkpt lat="43.70973" lon="6.75462">
        <ele>1046.6</ele>
        <time>2020-02-09T11:34:14Z</time>
      </trkpt>
      <trkpt lat="43.70969" lon="6.75461">
        <ele>1047.5</ele>
        <time>2020-02-09T11:34:18Z</time>
      </trkpt>
      <trkpt lat="43.70966" lon="6.75461">
        <ele>1048.1</ele>
        <time>2020-02-09T11:34:23Z</time>
      </trkpt>
      <trkpt lat="43.70963" lon="6.75462">
        <ele>1048.8</ele>
        <time>2020-02-09T11:34:28Z</time>
      </trkpt>
      <trkpt lat="43.7096" lon="6.75465">
        <ele>1049.5</ele>
        <time>2020-02-09T11:34:32Z</time>
      </trkpt>
      <trkpt lat="43.70957" lon="6.7547">
        <ele>1050.5</ele>
        <time>2020-02-09T11:34:37Z</time>
      </trkpt>
      <trkpt lat="43.70955" lon="6.75471">
        <ele>1051</ele>
        <time>2020-02-09T11:34:39Z</time>
      </trkpt>
      <trkpt lat="43.70951" lon="6.75471">
        <ele>1051.9</ele>
        <time>2020-02-09T11:34:45Z</time>
      </trkpt>
      <trkpt lat="43.70949" lon="6.75471">
        <ele>1052.2</ele>
        <time>2020-02-09T11:34:46Z</time>
      </trkpt>
      <trkpt lat="43.70944" lon="6.75468">
        <ele>1053.1</ele>
        <time>2020-02-09T11:34:50Z</time>
      </trkpt>
      <trkpt lat="43.70943" lon="6.75468">
        <ele>1053.4</ele>
        <time>2020-02-09T11:34:51Z</time>
      </trkpt>
      <trkpt lat="43.70938" lon="6.75468">
        <ele>1054.2</ele>
        <time>2020-02-09T11:34:54Z</time>
      </trkpt>
      <trkpt lat="43.70936" lon="6.75469">
        <ele>1054.7</ele>
        <time>2020-02-09T11:34:58Z</time>
      </trkpt>
      <trkpt lat="43.70932" lon="6.7547">
        <ele>1055.3</ele>
        <time>2020-02-09T11:35:00Z</time>
      </trkpt>
      <trkpt lat="43.7093" lon="6.75472">
        <ele>1055.7</ele>
        <time>2020-02-09T11:35:04Z</time>
      </trkpt>
      <trkpt lat="43.70926" lon="6.75475">
        <ele>1056.3</ele>
        <time>2020-02-09T11:35:08Z</time>
      </trkpt>
      <trkpt lat="43.70924" lon="6.7548">
        <ele>1056.9</ele>
        <time>2020-02-09T11:35:12Z</time>
      </trkpt>
      <trkpt lat="43.70922" lon="6.75484">
        <ele>1057.4</ele>
        <time>2020-02-09T11:35:15Z</time>
      </trkpt>
      <trkpt lat="43.7092" lon="6.75487">
        <ele>1058</ele>
        <time>2020-02-09T11:35:17Z</time>
      </trkpt>
      <trkpt lat="43.70917" lon="6.7549">
        <ele>1058.8</ele>
        <time>2020-02-09T11:35:22Z</time>
      </trkpt>
      <trkpt lat="43.70915" lon="6.75491">
        <ele>1059.1</ele>
        <time>2020-02-09T11:35:26Z</time>
      </trkpt>
      <trkpt lat="43.70911" lon="6.75493">
        <ele>1059.8</ele>
        <time>2020-02-09T11:35:31Z</time>
      </trkpt>
      <trkpt lat="43.70908" lon="6.75493">
        <ele>1060.4</ele>
        <time>2020-02-09T11:35:34Z</time>
      </trkpt>
      <trkpt lat="43.70903" lon="6.75493">
        <ele>1061.5</ele>
        <time>2020-02-09T11:35:39Z</time>
      </trkpt>
      <trkpt lat="43.70901" lon="6.75492">
        <ele>1061.7</ele>
        <time>2020-02-09T11:35:40Z</time>
      </trkpt>
      <trkpt lat="43.70897" lon="6.75493">
        <ele>1062.6</ele>
        <time>2020-02-09T11:35:44Z</time>
      </trkpt>
      <trkpt lat="43.70893" lon="6.75492">
        <ele>1063.3</ele>
        <time>2020-02-09T11:35:48Z</time>
      </trkpt>
      <trkpt lat="43.70889" lon="6.75492">
        <ele>1064.1</ele>
        <time>2020-02-09T11:35:52Z</time>
      </trkpt>
      <trkpt lat="43.70884" lon="6.75494">
        <ele>1065</ele>
        <time>2020-02-09T11:35:55Z</time>
      </trkpt>
      <trkpt lat="43.70882" lon="6.75495">
        <ele>1065.4</ele>
        <time>2020-02-09T11:35:59Z</time>
      </trkpt>
      <trkpt lat="43.70876" lon="6.75497">
        <ele>1066.5</ele>
        <time>2020-02-09T11:36:04Z</time>
      </trkpt>
      <trkpt lat="43.70874" lon="6.75497">
        <ele>1066.8</ele>
        <time>2020-02-09T11:36:07Z</time>
      </trkpt>
      <trkpt lat="43.70872" lon="6.75497">
        <ele>1067.1</ele>
        <time>2020-02-09T11:36:08Z</time>
      </trkpt>
      <trkpt lat="43.70869" lon="6.75497">
        <ele>1067.5</ele>
        <time>2020-02-09T11:36:12Z</time>
      </trkpt>
      <trkpt lat="43.70865" lon="6.75498">
        <ele>1068</ele>
        <time>2020-02-09T11:36:16Z</time>
      </trkpt>
      <trkpt lat="43.70862" lon="6.75498">
        <ele>1068.4</ele>
        <time>2020-02-09T11:36:18Z</time>
      </trkpt>
      <trkpt lat="43.70859" lon="6.75498">
        <ele>1068.8</ele>
        <time>2020-02-09T11:36:20Z</time>
      </trkpt>
      <trkpt lat="43.70856" lon="6.75499">
        <ele>1069.3</ele>
        <time>2020-02-09T11:36:24Z</time>
      </trkpt>
      <trkpt lat="43.70852" lon="6.755">
        <ele>1070</ele>
        <time>2020-02-09T11:36:28Z</time>
      </trkpt>
      <trkpt lat="43.70849" lon="6.75502">
        <ele>1070.6</ele>
        <time>2020-02-09T11:36:30Z</time>
      </trkpt>
      <trkpt lat="43.70845" lon="6.75504">
        <ele>1071.2</ele>
        <time>2020-02-09T11:36:34Z</time>
      </trkpt>
      <trkpt lat="43.70842" lon="6.75505">
        <ele>1071.6</ele>
        <time>2020-02-09T11:36:37Z</time>
      </trkpt>
      <trkpt lat="43.70839" lon="6.75507">
        <ele>1072.2</ele>
        <time>2020-02-09T11:36:40Z</time>
      </trkpt>
      <trkpt lat="43.70836" lon="6.75508">
        <ele>1072.7</ele>
        <time>2020-02-09T11:36:43Z</time>
      </trkpt>
      <trkpt lat="43.70832" lon="6.75508">
        <ele>1073.3</ele>
        <time>2020-02-09T11:36:47Z</time>
      </trkpt>
      <trkpt lat="43.70829" lon="6.75508">
        <ele>1073.8</ele>
        <time>2020-02-09T11:36:50Z</time>
      </trkpt>
      <trkpt lat="43.70825" lon="6.75505">
        <ele>1074.5</ele>
        <time>2020-02-09T11:36:53Z</time>
      </trkpt>
      <trkpt lat="43.70822" lon="6.75504">
        <ele>1074.9</ele>
        <time>2020-02-09T11:36:56Z</time>
      </trkpt>
      <trkpt lat="43.70816" lon="6.75506">
        <ele>1075.7</ele>
        <time>2020-02-09T11:37:05Z</time>
      </trkpt>
      <trkpt lat="43.70814" lon="6.75508">
        <ele>1076</ele>
        <time>2020-02-09T11:37:06Z</time>
      </trkpt>
      <trkpt lat="43.7081" lon="6.75511">
        <ele>1076.7</ele>
        <time>2020-02-09T11:37:09Z</time>
      </trkpt>
      <trkpt lat="43.70807" lon="6.75515">
        <ele>1077.2</ele>
        <time>2020-02-09T11:37:13Z</time>
      </trkpt>
      <trkpt lat="43.70802" lon="6.75519">
        <ele>1077.8</ele>
        <time>2020-02-09T11:37:17Z</time>
      </trkpt>
      <trkpt lat="43.708" lon="6.7552">
        <ele>1077.9</ele>
        <time>2020-02-09T11:37:18Z</time>
      </trkpt>
      <trkpt lat="43.70796" lon="6.75522">
        <ele>1078.3</ele>
        <time>2020-02-09T11:37:21Z</time>
      </trkpt>
      <trkpt lat="43.70791" lon="6.75526">
        <ele>1078.8</ele>
        <time>2020-02-09T11:37:25Z</time>
      </trkpt>
      <trkpt lat="43.70785" lon="6.75531">
        <ele>1079.5</ele>
        <time>2020-02-09T11:37:28Z</time>
      </trkpt>
      <trkpt lat="43.70783" lon="6.75533">
        <ele>1079.7</ele>
        <time>2020-02-09T11:37:29Z</time>
      </trkpt>
      <trkpt lat="43.7078" lon="6.75536">
        <ele>1080.2</ele>
        <time>2020-02-09T11:37:33Z</time>
      </trkpt>
      <trkpt lat="43.70777" lon="6.75538">
        <ele>1080.7</ele>
        <time>2020-02-09T11:37:36Z</time>
      </trkpt>
      <trkpt lat="43.70771" lon="6.75543">
        <ele>1081.7</ele>
        <time>2020-02-09T11:37:39Z</time>
      </trkpt>
      <trkpt lat="43.7077" lon="6.75543">
        <ele>1081.8</ele>
        <time>2020-02-09T11:37:40Z</time>
      </trkpt>
      <trkpt lat="43.70765" lon="6.75548">
        <ele>1082.6</ele>
        <time>2020-02-09T11:37:44Z</time>
      </trkpt>
      <trkpt lat="43.70763" lon="6.7555">
        <ele>1082.8</ele>
        <time>2020-02-09T11:37:48Z</time>
      </trkpt>
      <trkpt lat="43.70761" lon="6.75553">
        <ele>1083.1</ele>
        <time>2020-02-09T11:37:49Z</time>
      </trkpt>
      <trkpt lat="43.70757" lon="6.75556">
        <ele>1083.4</ele>
        <time>2020-02-09T11:37:52Z</time>
      </trkpt>
      <trkpt lat="43.70754" lon="6.7556">
        <ele>1083.8</ele>
        <time>2020-02-09T11:37:53Z</time>
      </trkpt>
      <trkpt lat="43.70752" lon="6.75563">
        <ele>1084</ele>
        <time>2020-02-09T11:37:55Z</time>
      </trkpt>
      <trkpt lat="43.70749" lon="6.75567">
        <ele>1084.2</ele>
        <time>2020-02-09T11:37:59Z</time>
      </trkpt>
      <trkpt lat="43.70748" lon="6.7557">
        <ele>1084.4</ele>
        <time>2020-02-09T11:38:01Z</time>
      </trkpt>
      <trkpt lat="43.70746" lon="6.75574">
        <ele>1084.6</ele>
        <time>2020-02-09T11:38:02Z</time>
      </trkpt>
      <trkpt lat="43.70743" lon="6.75581">
        <ele>1085</ele>
        <time>2020-02-09T11:38:05Z</time>
      </trkpt>
      <trkpt lat="43.70743" lon="6.75584">
        <ele>1085.1</ele>
        <time>2020-02-09T11:38:06Z</time>
      </trkpt>
      <trkpt lat="43.70742" lon="6.7559">
        <ele>1085.5</ele>
        <time>2020-02-09T11:38:10Z</time>
      </trkpt>
      <trkpt lat="43.70738" lon="6.75603">
        <ele>1085.9</ele>
        <time>2020-02-09T11:38:12Z</time>
      </trkpt>
      <trkpt lat="43.70736" lon="6.75605">
        <ele>1086</ele>
        <time>2020-02-09T11:38:15Z</time>
      </trkpt>
      <trkpt lat="43.70731" lon="6.7561">
        <ele>1086.2</ele>
        <time>2020-02-09T11:38:17Z</time>
      </trkpt>
      <trkpt lat="43.70727" lon="6.75612">
        <ele>1086.2</ele>
        <time>2020-02-09T11:38:19Z</time>
      </trkpt>
      <trkpt lat="43.70723" lon="6.75614">
        <ele>1086.2</ele>
        <time>2020-02-09T11:38:21Z</time>
      </trkpt>
      <trkpt lat="43.70716" lon="6.75617">
        <ele>1086</ele>
        <time>2020-02-09T11:38:24Z</time>
      </trkpt>
      <trkpt lat="43.70706" lon="6.75622">
        <ele>1085.7</ele>
        <time>2020-02-09T11:38:28Z</time>
      </trkpt>
      <trkpt lat="43.70699" lon="6.75626">
        <ele>1085.6</ele>
        <time>2020-02-09T11:38:29Z</time>
      </trkpt>
      <trkpt lat="43.70696" lon="6.75628">
        <ele>1085.5</ele>
        <time>2020-02-09T11:38:32Z</time>
      </trkpt>
      <trkpt lat="43.70693" lon="6.75631">
        <ele>1085.4</ele>
        <time>2020-02-09T11:38:34Z</time>
      </trkpt>
      <trkpt lat="43.70688" lon="6.75637">
        <ele>1085.2</ele>
        <time>2020-02-09T11:38:39Z</time>
      </trkpt>
      <trkpt lat="43.70687" lon="6.75638">
        <ele>1085.2</ele>
        <time>2020-02-09T11:38:40Z</time>
      </trkpt>
      <trkpt lat="43.70684" lon="6.75641">
        <ele>1085.1</ele>
        <time>2020-02-09T11:38:43Z</time>
      </trkpt>
      <trkpt lat="43.70682" lon="6.75645">
        <ele>1085.1</ele>
        <time>2020-02-09T11:38:51Z</time>
      </trkpt>
      <trkpt lat="43.70685" lon="6.75637">
        <ele>1085</ele>
        <time>2020-02-09T11:39:51Z</time>
      </trkpt>
      <trkpt lat="43.70682" lon="6.75626">
        <ele>1085</ele>
        <time>2020-02-09T11:39:53Z</time>
      </trkpt>
      <trkpt lat="43.70681" lon="6.75621">
        <ele>1085</ele>
        <time>2020-02-09T11:39:56Z</time>
      </trkpt>
      <trkpt lat="43.7068" lon="6.75617">
        <ele>1085</ele>
        <time>2020-02-09T11:39:57Z</time>
      </trkpt>
      <trkpt lat="43.70671" lon="6.75612">
        <ele>1085.1</ele>
        <time>2020-02-09T11:40:00Z</time>
      </trkpt>
      <trkpt lat="43.70665" lon="6.7561">
        <ele>1085.2</ele>
        <time>2020-02-09T11:40:01Z</time>
      </trkpt>
      <trkpt lat="43.70646" lon="6.75609">
        <ele>1086.1</ele>
        <time>2020-02-09T11:40:02Z</time>
      </trkpt>
      <trkpt lat="43.70639" lon="6.75611">
        <ele>1086.5</ele>
        <time>2020-02-09T11:40:03Z</time>
      </trkpt>
      <trkpt lat="43.70632" lon="6.75612">
        <ele>1087</ele>
        <time>2020-02-09T11:40:04Z</time>
      </trkpt>
      <trkpt lat="43.7062" lon="6.75613">
        <ele>1087.9</ele>
        <time>2020-02-09T11:40:06Z</time>
      </trkpt>
      <trkpt lat="43.70611" lon="6.75611">
        <ele>1088.9</ele>
        <time>2020-02-09T11:40:08Z</time>
      </trkpt>
      <trkpt lat="43.70612" lon="6.75615">
        <ele>1089.1</ele>
        <time>2020-02-09T11:40:13Z</time>
      </trkpt>
      <trkpt lat="43.70608" lon="6.75615">
        <ele>1089.4</ele>
        <time>2020-02-09T11:40:16Z</time>
      </trkpt>
      <trkpt lat="43.70606" lon="6.75613">
        <ele>1089.7</ele>
        <time>2020-02-09T11:40:19Z</time>
      </trkpt>
      <trkpt lat="43.70603" lon="6.7561">
        <ele>1090</ele>
        <time>2020-02-09T11:40:22Z</time>
      </trkpt>
      <trkpt lat="43.70597" lon="6.75607">
        <ele>1090.6</ele>
        <time>2020-02-09T11:40:26Z</time>
      </trkpt>
      <trkpt lat="43.70595" lon="6.75606">
        <ele>1090.8</ele>
        <time>2020-02-09T11:40:27Z</time>
      </trkpt>
      <trkpt lat="43.70591" lon="6.75604">
        <ele>1091.2</ele>
        <time>2020-02-09T11:40:28Z</time>
      </trkpt>
      <trkpt lat="43.70584" lon="6.756">
        <ele>1092.1</ele>
        <time>2020-02-09T11:40:34Z</time>
      </trkpt>
      <trkpt lat="43.70583" lon="6.75598">
        <ele>1092.3</ele>
        <time>2020-02-09T11:40:35Z</time>
      </trkpt>
      <trkpt lat="43.70578" lon="6.75594">
        <ele>1093.1</ele>
        <time>2020-02-09T11:40:36Z</time>
      </trkpt>
      <trkpt lat="43.70574" lon="6.7559">
        <ele>1093.6</ele>
        <time>2020-02-09T11:40:37Z</time>
      </trkpt>
      <trkpt lat="43.7057" lon="6.75586">
        <ele>1093.9</ele>
        <time>2020-02-09T11:40:38Z</time>
      </trkpt>
      <trkpt lat="43.70568" lon="6.75583">
        <ele>1094.3</ele>
        <time>2020-02-09T11:40:42Z</time>
      </trkpt>
      <trkpt lat="43.70567" lon="6.75578">
        <ele>1094.8</ele>
        <time>2020-02-09T11:40:45Z</time>
      </trkpt>
      <trkpt lat="43.70566" lon="6.75573">
        <ele>1095.3</ele>
        <time>2020-02-09T11:40:48Z</time>
      </trkpt>
      <trkpt lat="43.70564" lon="6.75566">
        <ele>1095.9</ele>
        <time>2020-02-09T11:40:52Z</time>
      </trkpt>
      <trkpt lat="43.70563" lon="6.75561">
        <ele>1096.2</ele>
        <time>2020-02-09T11:40:55Z</time>
      </trkpt>
      <trkpt lat="43.70562" lon="6.75558">
        <ele>1096.5</ele>
        <time>2020-02-09T11:40:58Z</time>
      </trkpt>
      <trkpt lat="43.70562" lon="6.75554">
        <ele>1096.6</ele>
        <time>2020-02-09T11:41:00Z</time>
      </trkpt>
      <trkpt lat="43.70561" lon="6.75549">
        <ele>1096.7</ele>
        <time>2020-02-09T11:41:03Z</time>
      </trkpt>
      <trkpt lat="43.70561" lon="6.75541">
        <ele>1097.5</ele>
        <time>2020-02-09T11:41:06Z</time>
      </trkpt>
      <trkpt lat="43.70561" lon="6.75538">
        <ele>1097.8</ele>
        <time>2020-02-09T11:41:09Z</time>
      </trkpt>
      <trkpt lat="43.70561" lon="6.75534">
        <ele>1098.2</ele>
        <time>2020-02-09T11:41:11Z</time>
      </trkpt>
      <trkpt lat="43.70561" lon="6.7553">
        <ele>1098.7</ele>
        <time>2020-02-09T11:41:12Z</time>
      </trkpt>
      <trkpt lat="43.70561" lon="6.75526">
        <ele>1099.1</ele>
        <time>2020-02-09T11:41:16Z</time>
      </trkpt>
      <trkpt lat="43.70561" lon="6.75522">
        <ele>1099.6</ele>
        <time>2020-02-09T11:41:19Z</time>
      </trkpt>
      <trkpt lat="43.7056" lon="6.75518">
        <ele>1100.1</ele>
        <time>2020-02-09T11:41:21Z</time>
      </trkpt>
      <trkpt lat="43.70559" lon="6.75513">
        <ele>1100.8</ele>
        <time>2020-02-09T11:41:25Z</time>
      </trkpt>
      <trkpt lat="43.70557" lon="6.75508">
        <ele>1101.5</ele>
        <time>2020-02-09T11:41:29Z</time>
      </trkpt>
      <trkpt lat="43.70556" lon="6.75506">
        <ele>1101.8</ele>
        <time>2020-02-09T11:41:30Z</time>
      </trkpt>
      <trkpt lat="43.70553" lon="6.75503">
        <ele>1102.6</ele>
        <time>2020-02-09T11:41:34Z</time>
      </trkpt>
      <trkpt lat="43.70549" lon="6.755">
        <ele>1102.9</ele>
        <time>2020-02-09T11:41:36Z</time>
      </trkpt>
      <trkpt lat="43.70547" lon="6.75499">
        <ele>1103.1</ele>
        <time>2020-02-09T11:41:40Z</time>
      </trkpt>
      <trkpt lat="43.70543" lon="6.75497">
        <ele>1103.6</ele>
        <time>2020-02-09T11:41:44Z</time>
      </trkpt>
      <trkpt lat="43.7054" lon="6.75494">
        <ele>1104</ele>
        <time>2020-02-09T11:41:48Z</time>
      </trkpt>
      <trkpt lat="43.70537" lon="6.75491">
        <ele>1104.4</ele>
        <time>2020-02-09T11:41:51Z</time>
      </trkpt>
      <trkpt lat="43.70535" lon="6.75487">
        <ele>1104.7</ele>
        <time>2020-02-09T11:41:56Z</time>
      </trkpt>
      <trkpt lat="43.70534" lon="6.75484">
        <ele>1104.8</ele>
        <time>2020-02-09T11:41:59Z</time>
      </trkpt>
      <trkpt lat="43.70532" lon="6.75482">
        <ele>1104.9</ele>
        <time>2020-02-09T11:42:05Z</time>
      </trkpt>
      <trkpt lat="43.70529" lon="6.75481">
        <ele>1105</ele>
        <time>2020-02-09T11:42:08Z</time>
      </trkpt>
      <trkpt lat="43.70524" lon="6.75479">
        <ele>1105.1</ele>
        <time>2020-02-09T11:42:12Z</time>
      </trkpt>
      <trkpt lat="43.70523" lon="6.75479">
        <ele>1105.3</ele>
        <time>2020-02-09T11:42:13Z</time>
      </trkpt>
      <trkpt lat="43.7052" lon="6.75477">
        <ele>1105.8</ele>
        <time>2020-02-09T11:42:16Z</time>
      </trkpt>
      <trkpt lat="43.70517" lon="6.75475">
        <ele>1106.2</ele>
        <time>2020-02-09T11:42:17Z</time>
      </trkpt>
      <trkpt lat="43.70515" lon="6.75473">
        <ele>1106.8</ele>
        <time>2020-02-09T11:42:21Z</time>
      </trkpt>
      <trkpt lat="43.70513" lon="6.7547">
        <ele>1107.4</ele>
        <time>2020-02-09T11:42:24Z</time>
      </trkpt>
      <trkpt lat="43.70511" lon="6.75465">
        <ele>1108.4</ele>
        <time>2020-02-09T11:42:28Z</time>
      </trkpt>
      <trkpt lat="43.7051" lon="6.7546">
        <ele>1108.8</ele>
        <time>2020-02-09T11:42:32Z</time>
      </trkpt>
      <trkpt lat="43.70508" lon="6.75454">
        <ele>1109.5</ele>
        <time>2020-02-09T11:42:37Z</time>
      </trkpt>
      <trkpt lat="43.70507" lon="6.75452">
        <ele>1109.8</ele>
        <time>2020-02-09T11:42:39Z</time>
      </trkpt>
      <trkpt lat="43.70507" lon="6.75447">
        <ele>1110.4</ele>
        <time>2020-02-09T11:42:43Z</time>
      </trkpt>
      <trkpt lat="43.70508" lon="6.75443">
        <ele>1110.8</ele>
        <time>2020-02-09T11:42:46Z</time>
      </trkpt>
      <trkpt lat="43.70508" lon="6.75438">
        <ele>1111.4</ele>
        <time>2020-02-09T11:42:49Z</time>
      </trkpt>
      <trkpt lat="43.70507" lon="6.75432">
        <ele>1112</ele>
        <time>2020-02-09T11:42:53Z</time>
      </trkpt>
      <trkpt lat="43.70504" lon="6.75427">
        <ele>1112.7</ele>
        <time>2020-02-09T11:42:57Z</time>
      </trkpt>
      <trkpt lat="43.70501" lon="6.75425">
        <ele>1113.3</ele>
        <time>2020-02-09T11:43:01Z</time>
      </trkpt>
      <trkpt lat="43.70496" lon="6.75423">
        <ele>1114</ele>
        <time>2020-02-09T11:43:05Z</time>
      </trkpt>
      <trkpt lat="43.70494" lon="6.75422">
        <ele>1114.3</ele>
        <time>2020-02-09T11:43:07Z</time>
      </trkpt>
      <trkpt lat="43.70491" lon="6.75421">
        <ele>1114.7</ele>
        <time>2020-02-09T11:43:10Z</time>
      </trkpt>
      <trkpt lat="43.70485" lon="6.75419">
        <ele>1115.6</ele>
        <time>2020-02-09T11:43:15Z</time>
      </trkpt>
      <trkpt lat="43.70483" lon="6.75419">
        <ele>1115.8</ele>
        <time>2020-02-09T11:43:16Z</time>
      </trkpt>
      <trkpt lat="43.70478" lon="6.75416">
        <ele>1116.3</ele>
        <time>2020-02-09T11:43:19Z</time>
      </trkpt>
      <trkpt lat="43.70476" lon="6.75416">
        <ele>1116.4</ele>
        <time>2020-02-09T11:43:22Z</time>
      </trkpt>
      <trkpt lat="43.70472" lon="6.75415">
        <ele>1116.8</ele>
        <time>2020-02-09T11:43:26Z</time>
      </trkpt>
      <trkpt lat="43.70469" lon="6.75415">
        <ele>1117.1</ele>
        <time>2020-02-09T11:43:29Z</time>
      </trkpt>
      <trkpt lat="43.70464" lon="6.75414">
        <ele>1117.5</ele>
        <time>2020-02-09T11:43:32Z</time>
      </trkpt>
      <trkpt lat="43.70462" lon="6.75414">
        <ele>1117.6</ele>
        <time>2020-02-09T11:43:35Z</time>
      </trkpt>
      <trkpt lat="43.70456" lon="6.75414">
        <ele>1117.9</ele>
        <time>2020-02-09T11:43:40Z</time>
      </trkpt>
      <trkpt lat="43.70455" lon="6.75413">
        <ele>1118</ele>
        <time>2020-02-09T11:43:41Z</time>
      </trkpt>
      <trkpt lat="43.7045" lon="6.75413">
        <ele>1118.2</ele>
        <time>2020-02-09T11:43:45Z</time>
      </trkpt>
      <trkpt lat="43.70447" lon="6.75413">
        <ele>1118.3</ele>
        <time>2020-02-09T11:43:46Z</time>
      </trkpt>
      <trkpt lat="43.70444" lon="6.75412">
        <ele>1118.5</ele>
        <time>2020-02-09T11:43:50Z</time>
      </trkpt>
      <trkpt lat="43.7044" lon="6.75411">
        <ele>1118.6</ele>
        <time>2020-02-09T11:43:54Z</time>
      </trkpt>
      <trkpt lat="43.70436" lon="6.75411">
        <ele>1118.7</ele>
        <time>2020-02-09T11:43:58Z</time>
      </trkpt>
      <trkpt lat="43.70433" lon="6.75411">
        <ele>1118.8</ele>
        <time>2020-02-09T11:44:01Z</time>
      </trkpt>
      <trkpt lat="43.70428" lon="6.7541">
        <ele>1119.1</ele>
        <time>2020-02-09T11:44:06Z</time>
      </trkpt>
      <trkpt lat="43.70426" lon="6.7541">
        <ele>1119.4</ele>
        <time>2020-02-09T11:44:08Z</time>
      </trkpt>
      <trkpt lat="43.70422" lon="6.75408">
        <ele>1119.8</ele>
        <time>2020-02-09T11:44:12Z</time>
      </trkpt>
      <trkpt lat="43.70419" lon="6.75405">
        <ele>1120.2</ele>
        <time>2020-02-09T11:44:15Z</time>
      </trkpt>
      <trkpt lat="43.70416" lon="6.75403">
        <ele>1120.6</ele>
        <time>2020-02-09T11:44:17Z</time>
      </trkpt>
      <trkpt lat="43.70413" lon="6.754">
        <ele>1121</ele>
        <time>2020-02-09T11:44:21Z</time>
      </trkpt>
      <trkpt lat="43.70409" lon="6.75396">
        <ele>1121.8</ele>
        <time>2020-02-09T11:44:27Z</time>
      </trkpt>
      <trkpt lat="43.70407" lon="6.75395">
        <ele>1121.9</ele>
        <time>2020-02-09T11:44:29Z</time>
      </trkpt>
      <trkpt lat="43.70403" lon="6.75391">
        <ele>1122.3</ele>
        <time>2020-02-09T11:44:32Z</time>
      </trkpt>
      <trkpt lat="43.70399" lon="6.75389">
        <ele>1122.8</ele>
        <time>2020-02-09T11:44:34Z</time>
      </trkpt>
      <trkpt lat="43.70394" lon="6.75386">
        <ele>1123.5</ele>
        <time>2020-02-09T11:44:37Z</time>
      </trkpt>
      <trkpt lat="43.70389" lon="6.75385">
        <ele>1123.7</ele>
        <time>2020-02-09T11:44:40Z</time>
      </trkpt>
      <trkpt lat="43.70385" lon="6.75384">
        <ele>1123.9</ele>
        <time>2020-02-09T11:44:42Z</time>
      </trkpt>
      <trkpt lat="43.70378" lon="6.75382">
        <ele>1124</ele>
        <time>2020-02-09T11:44:45Z</time>
      </trkpt>
      <trkpt lat="43.70377" lon="6.75382">
        <ele>1124.1</ele>
        <time>2020-02-09T11:44:46Z</time>
      </trkpt>
      <trkpt lat="43.7037" lon="6.7538">
        <ele>1124.2</ele>
        <time>2020-02-09T11:44:49Z</time>
      </trkpt>
      <trkpt lat="43.70366" lon="6.75377">
        <ele>1124.4</ele>
        <time>2020-02-09T11:44:52Z</time>
      </trkpt>
      <trkpt lat="43.7036" lon="6.75378">
        <ele>1124.5</ele>
        <time>2020-02-09T11:44:55Z</time>
      </trkpt>
      <trkpt lat="43.70356" lon="6.75376">
        <ele>1124.7</ele>
        <time>2020-02-09T11:44:57Z</time>
      </trkpt>
      <trkpt lat="43.70351" lon="6.75374">
        <ele>1125</ele>
        <time>2020-02-09T11:45:00Z</time>
      </trkpt>
      <trkpt lat="43.70349" lon="6.75372">
        <ele>1125</ele>
        <time>2020-02-09T11:45:01Z</time>
      </trkpt>
      <trkpt lat="43.70346" lon="6.75368">
        <ele>1125.1</ele>
        <time>2020-02-09T11:45:02Z</time>
      </trkpt>
      <trkpt lat="43.70339" lon="6.75362">
        <ele>1125.6</ele>
        <time>2020-02-09T11:45:06Z</time>
      </trkpt>
      <trkpt lat="43.70338" lon="6.7536">
        <ele>1125.7</ele>
        <time>2020-02-09T11:45:09Z</time>
      </trkpt>
      <trkpt lat="43.70335" lon="6.75358">
        <ele>1125.9</ele>
        <time>2020-02-09T11:45:10Z</time>
      </trkpt>
      <trkpt lat="43.70329" lon="6.75354">
        <ele>1126.2</ele>
        <time>2020-02-09T11:45:12Z</time>
      </trkpt>
      <trkpt lat="43.70325" lon="6.75353">
        <ele>1126.3</ele>
        <time>2020-02-09T11:45:16Z</time>
      </trkpt>
      <trkpt lat="43.7032" lon="6.75349">
        <ele>1126.4</ele>
        <time>2020-02-09T11:45:18Z</time>
      </trkpt>
      <trkpt lat="43.70317" lon="6.75348">
        <ele>1126.5</ele>
        <time>2020-02-09T11:45:21Z</time>
      </trkpt>
      <trkpt lat="43.70312" lon="6.75346">
        <ele>1126.6</ele>
        <time>2020-02-09T11:45:24Z</time>
      </trkpt>
      <trkpt lat="43.70309" lon="6.75346">
        <ele>1126.5</ele>
        <time>2020-02-09T11:45:25Z</time>
      </trkpt>
      <trkpt lat="43.70304" lon="6.75347">
        <ele>1126.5</ele>
        <time>2020-02-09T11:45:27Z</time>
      </trkpt>
      <trkpt lat="43.70303" lon="6.75348">
        <ele>1126.7</ele>
        <time>2020-02-09T11:45:29Z</time>
      </trkpt>
      <trkpt lat="43.703" lon="6.75348">
        <ele>1127.1</ele>
        <time>2020-02-09T11:45:31Z</time>
      </trkpt>
      <trkpt lat="43.70296" lon="6.75351">
        <ele>1127.8</ele>
        <time>2020-02-09T11:45:34Z</time>
      </trkpt>
      <trkpt lat="43.70293" lon="6.75352">
        <ele>1128.2</ele>
        <time>2020-02-09T11:45:36Z</time>
      </trkpt>
      <trkpt lat="43.70288" lon="6.75355">
        <ele>1128.2</ele>
        <time>2020-02-09T11:45:38Z</time>
      </trkpt>
      <trkpt lat="43.70281" lon="6.75354">
        <ele>1128.1</ele>
        <time>2020-02-09T11:45:44Z</time>
      </trkpt>
      <trkpt lat="43.70278" lon="6.75349">
        <ele>1128.1</ele>
        <time>2020-02-09T11:45:46Z</time>
      </trkpt>
      <trkpt lat="43.70275" lon="6.75344">
        <ele>1127.9</ele>
        <time>2020-02-09T11:45:49Z</time>
      </trkpt>
      <trkpt lat="43.70272" lon="6.75341">
        <ele>1127.7</ele>
        <time>2020-02-09T11:45:52Z</time>
      </trkpt>
      <trkpt lat="43.70269" lon="6.75341">
        <ele>1127.6</ele>
        <time>2020-02-09T11:45:54Z</time>
      </trkpt>
      <trkpt lat="43.70265" lon="6.7534">
        <ele>1127.5</ele>
        <time>2020-02-09T11:45:56Z</time>
      </trkpt>
      <trkpt lat="43.7026" lon="6.75338">
        <ele>1127.2</ele>
        <time>2020-02-09T11:45:59Z</time>
      </trkpt>
      <trkpt lat="43.70255" lon="6.75335">
        <ele>1126.8</ele>
        <time>2020-02-09T11:46:03Z</time>
      </trkpt>
      <trkpt lat="43.7025" lon="6.75333">
        <ele>1126.3</ele>
        <time>2020-02-09T11:46:05Z</time>
      </trkpt>
      <trkpt lat="43.70247" lon="6.75334">
        <ele>1125.9</ele>
        <time>2020-02-09T11:46:07Z</time>
      </trkpt>
      <trkpt lat="43.7024" lon="6.75331">
        <ele>1125.1</ele>
        <time>2020-02-09T11:46:09Z</time>
      </trkpt>
      <trkpt lat="43.70238" lon="6.75329">
        <ele>1124.8</ele>
        <time>2020-02-09T11:46:12Z</time>
      </trkpt>
      <trkpt lat="43.70233" lon="6.75326">
        <ele>1124</ele>
        <time>2020-02-09T11:46:14Z</time>
      </trkpt>
      <trkpt lat="43.70229" lon="6.75325">
        <ele>1123.3</ele>
        <time>2020-02-09T11:46:17Z</time>
      </trkpt>
      <trkpt lat="43.70226" lon="6.75324">
        <ele>1122.8</ele>
        <time>2020-02-09T11:46:18Z</time>
      </trkpt>
      <trkpt lat="43.7023" lon="6.75321">
        <ele>1121.8</ele>
        <time>2020-02-09T11:52:41Z</time>
      </trkpt>
      <trkpt lat="43.70233" lon="6.75318">
        <ele>1121.1</ele>
        <time>2020-02-09T11:52:50Z</time>
      </trkpt>
      <trkpt lat="43.70236" lon="6.75318">
        <ele>1120.4</ele>
        <time>2020-02-09T12:05:02Z</time>
      </trkpt>
      <trkpt lat="43.70235" lon="6.75323">
        <ele>1119.6</ele>
        <time>2020-02-09T12:05:13Z</time>
      </trkpt>
      <trkpt lat="43.70229" lon="6.7531">
        <ele>1117.2</ele>
        <time>2020-02-09T12:08:08Z</time>
      </trkpt>
      <trkpt lat="43.70226" lon="6.75307">
        <ele>1116.8</ele>
        <time>2020-02-09T12:08:09Z</time>
      </trkpt>
      <trkpt lat="43.70219" lon="6.75305">
        <ele>1115.6</ele>
        <time>2020-02-09T12:08:10Z</time>
      </trkpt>
      <trkpt lat="43.70215" lon="6.75305">
        <ele>1114.6</ele>
        <time>2020-02-09T12:08:13Z</time>
      </trkpt>
      <trkpt lat="43.70212" lon="6.75303">
        <ele>1113.7</ele>
        <time>2020-02-09T12:08:14Z</time>
      </trkpt>
      <trkpt lat="43.70209" lon="6.75297">
        <ele>1112.7</ele>
        <time>2020-02-09T12:08:17Z</time>
      </trkpt>
      <trkpt lat="43.70207" lon="6.75296">
        <ele>1112.1</ele>
        <time>2020-02-09T12:08:18Z</time>
      </trkpt>
      <trkpt lat="43.70202" lon="6.7529">
        <ele>1110.9</ele>
        <time>2020-02-09T12:08:21Z</time>
      </trkpt>
      <trkpt lat="43.70198" lon="6.75286">
        <ele>1109.5</ele>
        <time>2020-02-09T12:08:23Z</time>
      </trkpt>
      <trkpt lat="43.70194" lon="6.75285">
        <ele>1108.6</ele>
        <time>2020-02-09T12:08:24Z</time>
      </trkpt>
      <trkpt lat="43.7019" lon="6.75283">
        <ele>1107.9</ele>
        <time>2020-02-09T12:08:25Z</time>
      </trkpt>
      <trkpt lat="43.70184" lon="6.75282">
        <ele>1106.9</ele>
        <time>2020-02-09T12:08:26Z</time>
      </trkpt>
      <trkpt lat="43.7018" lon="6.75281">
        <ele>1106.1</ele>
        <time>2020-02-09T12:08:29Z</time>
      </trkpt>
      <trkpt lat="43.70175" lon="6.75281">
        <ele>1105.3</ele>
        <time>2020-02-09T12:08:31Z</time>
      </trkpt>
      <trkpt lat="43.70172" lon="6.75281">
        <ele>1104.9</ele>
        <time>2020-02-09T12:08:32Z</time>
      </trkpt>
      <trkpt lat="43.70165" lon="6.75279">
        <ele>1103.3</ele>
        <time>2020-02-09T12:08:33Z</time>
      </trkpt>
      <trkpt lat="43.70162" lon="6.75278">
        <ele>1102.7</ele>
        <time>2020-02-09T12:08:34Z</time>
      </trkpt>
      <trkpt lat="43.70155" lon="6.75274">
        <ele>1101</ele>
        <time>2020-02-09T12:08:37Z</time>
      </trkpt>
      <trkpt lat="43.70144" lon="6.75266">
        <ele>1098.5</ele>
        <time>2020-02-09T12:08:40Z</time>
      </trkpt>
      <trkpt lat="43.70139" lon="6.75263">
        <ele>1097.8</ele>
        <time>2020-02-09T12:08:41Z</time>
      </trkpt>
      <trkpt lat="43.70132" lon="6.75259">
        <ele>1097</ele>
        <time>2020-02-09T12:08:42Z</time>
      </trkpt>
      <trkpt lat="43.70123" lon="6.75258">
        <ele>1095.8</ele>
        <time>2020-02-09T12:08:45Z</time>
      </trkpt>
      <trkpt lat="43.70117" lon="6.75263">
        <ele>1094.9</ele>
        <time>2020-02-09T12:08:48Z</time>
      </trkpt>
      <trkpt lat="43.70113" lon="6.75258">
        <ele>1094.3</ele>
        <time>2020-02-09T12:08:51Z</time>
      </trkpt>
      <trkpt lat="43.70107" lon="6.75254">
        <ele>1093.4</ele>
        <time>2020-02-09T12:08:53Z</time>
      </trkpt>
      <trkpt lat="43.70103" lon="6.75257">
        <ele>1092.9</ele>
        <time>2020-02-09T12:08:56Z</time>
      </trkpt>
      <trkpt lat="43.701" lon="6.75256">
        <ele>1092.5</ele>
        <time>2020-02-09T12:08:57Z</time>
      </trkpt>
      <trkpt lat="43.70096" lon="6.75257">
        <ele>1092.1</ele>
        <time>2020-02-09T12:08:59Z</time>
      </trkpt>
      <trkpt lat="43.70093" lon="6.75255">
        <ele>1091.7</ele>
        <time>2020-02-09T12:09:00Z</time>
      </trkpt>
      <trkpt lat="43.70091" lon="6.75249">
        <ele>1091</ele>
        <time>2020-02-09T12:09:02Z</time>
      </trkpt>
      <trkpt lat="43.7009" lon="6.75245">
        <ele>1090.5</ele>
        <time>2020-02-09T12:09:03Z</time>
      </trkpt>
      <trkpt lat="43.70086" lon="6.75236">
        <ele>1089.7</ele>
        <time>2020-02-09T12:09:04Z</time>
      </trkpt>
      <trkpt lat="43.70084" lon="6.75226">
        <ele>1088.8</ele>
        <time>2020-02-09T12:09:07Z</time>
      </trkpt>
      <trkpt lat="43.70085" lon="6.75215">
        <ele>1088.1</ele>
        <time>2020-02-09T12:09:09Z</time>
      </trkpt>
      <trkpt lat="43.70085" lon="6.75207">
        <ele>1087.4</ele>
        <time>2020-02-09T12:09:10Z</time>
      </trkpt>
      <trkpt lat="43.70084" lon="6.75198">
        <ele>1086.8</ele>
        <time>2020-02-09T12:09:11Z</time>
      </trkpt>
      <trkpt lat="43.70085" lon="6.75164">
        <ele>1084.1</ele>
        <time>2020-02-09T12:09:13Z</time>
      </trkpt>
      <trkpt lat="43.70085" lon="6.75157">
        <ele>1083.2</ele>
        <time>2020-02-09T12:09:14Z</time>
      </trkpt>
      <trkpt lat="43.70085" lon="6.75144">
        <ele>1081.6</ele>
        <time>2020-02-09T12:09:16Z</time>
      </trkpt>
      <trkpt lat="43.70084" lon="6.75139">
        <ele>1080.8</ele>
        <time>2020-02-09T12:09:17Z</time>
      </trkpt>
      <trkpt lat="43.70085" lon="6.75131">
        <ele>1079.6</ele>
        <time>2020-02-09T12:09:19Z</time>
      </trkpt>
      <trkpt lat="43.70085" lon="6.75125">
        <ele>1078.7</ele>
        <time>2020-02-09T12:09:22Z</time>
      </trkpt>
      <trkpt lat="43.70082" lon="6.75121">
        <ele>1077.9</ele>
        <time>2020-02-09T12:09:24Z</time>
      </trkpt>
      <trkpt lat="43.70075" lon="6.75116">
        <ele>1076.3</ele>
        <time>2020-02-09T12:09:27Z</time>
      </trkpt>
      <trkpt lat="43.70072" lon="6.75111">
        <ele>1076.2</ele>
        <time>2020-02-09T12:09:28Z</time>
      </trkpt>
      <trkpt lat="43.70062" lon="6.75096">
        <ele>1075.9</ele>
        <time>2020-02-09T12:09:31Z</time>
      </trkpt>
      <trkpt lat="43.70052" lon="6.75086">
        <ele>1075.2</ele>
        <time>2020-02-09T12:09:34Z</time>
      </trkpt>
      <trkpt lat="43.70049" lon="6.75086">
        <ele>1075</ele>
        <time>2020-02-09T12:09:35Z</time>
      </trkpt>
      <trkpt lat="43.70041" lon="6.75087">
        <ele>1074.7</ele>
        <time>2020-02-09T12:09:37Z</time>
      </trkpt>
      <trkpt lat="43.70032" lon="6.75087">
        <ele>1074.1</ele>
        <time>2020-02-09T12:09:38Z</time>
      </trkpt>
      <trkpt lat="43.70027" lon="6.75086">
        <ele>1073.5</ele>
        <time>2020-02-09T12:09:41Z</time>
      </trkpt>
      <trkpt lat="43.70022" lon="6.75086">
        <ele>1074.1</ele>
        <time>2020-02-09T12:09:42Z</time>
      </trkpt>
      <trkpt lat="43.70009" lon="6.75083">
        <ele>1077</ele>
        <time>2020-02-09T12:09:43Z</time>
      </trkpt>
      <trkpt lat="43.70003" lon="6.75084">
        <ele>1078.1</ele>
        <time>2020-02-09T12:09:46Z</time>
      </trkpt>
      <trkpt lat="43.69998" lon="6.75085">
        <ele>1078.8</ele>
        <time>2020-02-09T12:09:47Z</time>
      </trkpt>
      <trkpt lat="43.69988" lon="6.75085">
        <ele>1079.5</ele>
        <time>2020-02-09T12:09:48Z</time>
      </trkpt>
      <trkpt lat="43.69982" lon="6.7509">
        <ele>1079.8</ele>
        <time>2020-02-09T12:09:51Z</time>
      </trkpt>
      <trkpt lat="43.69979" lon="6.75109">
        <ele>1079.4</ele>
        <time>2020-02-09T12:09:55Z</time>
      </trkpt>
      <trkpt lat="43.69979" lon="6.75114">
        <ele>1079.4</ele>
        <time>2020-02-09T12:09:56Z</time>
      </trkpt>
      <trkpt lat="43.69977" lon="6.75123">
        <ele>1079.2</ele>
        <time>2020-02-09T12:09:59Z</time>
      </trkpt>
      <trkpt lat="43.69976" lon="6.75125">
        <ele>1079.2</ele>
        <time>2020-02-09T12:10:01Z</time>
      </trkpt>
      <trkpt lat="43.69974" lon="6.75128">
        <ele>1079.1</ele>
        <time>2020-02-09T12:10:06Z</time>
      </trkpt>
      <trkpt lat="43.69973" lon="6.7513">
        <ele>1078.9</ele>
        <time>2020-02-09T12:10:47Z</time>
      </trkpt>
      <trkpt lat="43.69971" lon="6.75132">
        <ele>1078.6</ele>
        <time>2020-02-09T12:10:48Z</time>
      </trkpt>
      <trkpt lat="43.69968" lon="6.75135">
        <ele>1078.1</ele>
        <time>2020-02-09T12:10:51Z</time>
      </trkpt>
      <trkpt lat="43.69961" lon="6.75145">
        <ele>1076.7</ele>
        <time>2020-02-09T12:10:53Z</time>
      </trkpt>
      <trkpt lat="43.69956" lon="6.75156">
        <ele>1074.6</ele>
        <time>2020-02-09T12:10:56Z</time>
      </trkpt>
      <trkpt lat="43.69952" lon="6.75161">
        <ele>1073.4</ele>
        <time>2020-02-09T12:10:57Z</time>
      </trkpt>
      <trkpt lat="43.69947" lon="6.75168">
        <ele>1072.3</ele>
        <time>2020-02-09T12:11:00Z</time>
      </trkpt>
      <trkpt lat="43.69937" lon="6.75166">
        <ele>1071.3</ele>
        <time>2020-02-09T12:11:02Z</time>
      </trkpt>
      <trkpt lat="43.69934" lon="6.75164">
        <ele>1070.7</ele>
        <time>2020-02-09T12:11:03Z</time>
      </trkpt>
      <trkpt lat="43.69931" lon="6.75165">
        <ele>1070.1</ele>
        <time>2020-02-09T12:11:06Z</time>
      </trkpt>
      <trkpt lat="43.69923" lon="6.75157">
        <ele>1067.7</ele>
        <time>2020-02-09T12:11:10Z</time>
      </trkpt>
      <trkpt lat="43.69919" lon="6.75153">
        <ele>1066.4</ele>
        <time>2020-02-09T12:11:11Z</time>
      </trkpt>
      <trkpt lat="43.69914" lon="6.75145">
        <ele>1064</ele>
        <time>2020-02-09T12:11:13Z</time>
      </trkpt>
      <trkpt lat="43.69908" lon="6.75137">
        <ele>1061.5</ele>
        <time>2020-02-09T12:11:14Z</time>
      </trkpt>
      <trkpt lat="43.69895" lon="6.75132">
        <ele>1057.2</ele>
        <time>2020-02-09T12:11:17Z</time>
      </trkpt>
      <trkpt lat="43.69883" lon="6.75124">
        <ele>1053</ele>
        <time>2020-02-09T12:11:20Z</time>
      </trkpt>
      <trkpt lat="43.69878" lon="6.75123">
        <ele>1051.3</ele>
        <time>2020-02-09T12:11:21Z</time>
      </trkpt>
      <trkpt lat="43.69869" lon="6.75121">
        <ele>1049.5</ele>
        <time>2020-02-09T12:11:23Z</time>
      </trkpt>
      <trkpt lat="43.69861" lon="6.7512">
        <ele>1046.7</ele>
        <time>2020-02-09T12:11:25Z</time>
      </trkpt>
      <trkpt lat="43.6985" lon="6.75116">
        <ele>1042.9</ele>
        <time>2020-02-09T12:11:26Z</time>
      </trkpt>
      <trkpt lat="43.69839" lon="6.75117">
        <ele>1039.8</ele>
        <time>2020-02-09T12:11:29Z</time>
      </trkpt>
      <trkpt lat="43.69832" lon="6.75117">
        <ele>1037.6</ele>
        <time>2020-02-09T12:11:30Z</time>
      </trkpt>
      <trkpt lat="43.69819" lon="6.75121">
        <ele>1033.2</ele>
        <time>2020-02-09T12:11:31Z</time>
      </trkpt>
      <trkpt lat="43.69813" lon="6.75116">
        <ele>1031.1</ele>
        <time>2020-02-09T12:11:34Z</time>
      </trkpt>
      <trkpt lat="43.69809" lon="6.75111">
        <ele>1029.9</ele>
        <time>2020-02-09T12:11:35Z</time>
      </trkpt>
      <trkpt lat="43.69803" lon="6.75107">
        <ele>1028.4</ele>
        <time>2020-02-09T12:11:38Z</time>
      </trkpt>
      <trkpt lat="43.698" lon="6.75106">
        <ele>1027.7</ele>
        <time>2020-02-09T12:11:39Z</time>
      </trkpt>
      <trkpt lat="43.69797" lon="6.75105">
        <ele>1027</ele>
        <time>2020-02-09T12:11:40Z</time>
      </trkpt>
      <trkpt lat="43.69794" lon="6.75103">
        <ele>1026.2</ele>
        <time>2020-02-09T12:11:41Z</time>
      </trkpt>
      <trkpt lat="43.69787" lon="6.75091">
        <ele>1023.9</ele>
        <time>2020-02-09T12:11:44Z</time>
      </trkpt>
      <trkpt lat="43.69784" lon="6.75087">
        <ele>1022.9</ele>
        <time>2020-02-09T12:11:45Z</time>
      </trkpt>
      <trkpt lat="43.69781" lon="6.75075">
        <ele>1020.5</ele>
        <time>2020-02-09T12:11:47Z</time>
      </trkpt>
      <trkpt lat="43.69778" lon="6.75068">
        <ele>1018.8</ele>
        <time>2020-02-09T12:11:48Z</time>
      </trkpt>
      <trkpt lat="43.69776" lon="6.75053">
        <ele>1016.5</ele>
        <time>2020-02-09T12:11:49Z</time>
      </trkpt>
      <trkpt lat="43.69773" lon="6.75048">
        <ele>1015.3</ele>
        <time>2020-02-09T12:11:52Z</time>
      </trkpt>
      <trkpt lat="43.6977" lon="6.75046">
        <ele>1014.5</ele>
        <time>2020-02-09T12:11:53Z</time>
      </trkpt>
      <trkpt lat="43.69769" lon="6.75042">
        <ele>1013.6</ele>
        <time>2020-02-09T12:11:54Z</time>
      </trkpt>
      <trkpt lat="43.69768" lon="6.75031">
        <ele>1011.3</ele>
        <time>2020-02-09T12:11:55Z</time>
      </trkpt>
      <trkpt lat="43.69764" lon="6.75019">
        <ele>1011</ele>
        <time>2020-02-09T12:11:58Z</time>
      </trkpt>
      <trkpt lat="43.69762" lon="6.75011">
        <ele>1010.1</ele>
        <time>2020-02-09T12:11:59Z</time>
      </trkpt>
      <trkpt lat="43.69761" lon="6.75004">
        <ele>1009.3</ele>
        <time>2020-02-09T12:12:00Z</time>
      </trkpt>
      <trkpt lat="43.69765" lon="6.74991">
        <ele>1009.2</ele>
        <time>2020-02-09T12:12:02Z</time>
      </trkpt>
      <trkpt lat="43.69773" lon="6.7498">
        <ele>1009.9</ele>
        <time>2020-02-09T12:12:03Z</time>
      </trkpt>
      <trkpt lat="43.69777" lon="6.74976">
        <ele>1010</ele>
        <time>2020-02-09T12:12:04Z</time>
      </trkpt>
      <trkpt lat="43.69783" lon="6.74974">
        <ele>1009.1</ele>
        <time>2020-02-09T12:12:06Z</time>
      </trkpt>
      <trkpt lat="43.69789" lon="6.74971">
        <ele>1007.3</ele>
        <time>2020-02-09T12:12:09Z</time>
      </trkpt>
      <trkpt lat="43.69794" lon="6.74965">
        <ele>1006.3</ele>
        <time>2020-02-09T12:12:10Z</time>
      </trkpt>
      <trkpt lat="43.69797" lon="6.74955">
        <ele>1003.9</ele>
        <time>2020-02-09T12:12:13Z</time>
      </trkpt>
      <trkpt lat="43.69806" lon="6.74939">
        <ele>998.3</ele>
        <time>2020-02-09T12:12:16Z</time>
      </trkpt>
      <trkpt lat="43.69812" lon="6.74936">
        <ele>997</ele>
        <time>2020-02-09T12:12:17Z</time>
      </trkpt>
      <trkpt lat="43.69814" lon="6.74937">
        <ele>996.4</ele>
        <time>2020-02-09T12:12:19Z</time>
      </trkpt>
      <trkpt lat="43.69812" lon="6.74938">
        <ele>995.8</ele>
        <time>2020-02-09T12:12:23Z</time>
      </trkpt>
      <trkpt lat="43.69812" lon="6.74934">
        <ele>995.3</ele>
        <time>2020-02-09T12:12:29Z</time>
      </trkpt>
      <trkpt lat="43.69815" lon="6.74929">
        <ele>994.6</ele>
        <time>2020-02-09T12:12:33Z</time>
      </trkpt>
      <trkpt lat="43.69816" lon="6.74927">
        <ele>994.5</ele>
        <time>2020-02-09T12:12:34Z</time>
      </trkpt>
      <trkpt lat="43.69818" lon="6.74923">
        <ele>994.5</ele>
        <time>2020-02-09T12:12:38Z</time>
      </trkpt>
      <trkpt lat="43.69822" lon="6.74921">
        <ele>994.5</ele>
        <time>2020-02-09T12:12:41Z</time>
      </trkpt>
      <trkpt lat="43.69823" lon="6.7492">
        <ele>994.5</ele>
        <time>2020-02-09T12:12:46Z</time>
      </trkpt>
      <trkpt lat="43.69837" lon="6.74913">
        <ele>993.4</ele>
        <time>2020-02-09T12:12:56Z</time>
      </trkpt>
      <trkpt lat="43.6984" lon="6.74912">
        <ele>993.4</ele>
        <time>2020-02-09T12:12:57Z</time>
      </trkpt>
      <trkpt lat="43.69845" lon="6.74909">
        <ele>993.4</ele>
        <time>2020-02-09T12:13:00Z</time>
      </trkpt>
      <trkpt lat="43.69864" lon="6.74905">
        <ele>992.1</ele>
        <time>2020-02-09T12:13:03Z</time>
      </trkpt>
      <trkpt lat="43.6987" lon="6.74903">
        <ele>991.7</ele>
        <time>2020-02-09T12:13:04Z</time>
      </trkpt>
      <trkpt lat="43.6988" lon="6.74899">
        <ele>990.9</ele>
        <time>2020-02-09T12:13:06Z</time>
      </trkpt>
      <trkpt lat="43.69898" lon="6.74891">
        <ele>988.6</ele>
        <time>2020-02-09T12:13:09Z</time>
      </trkpt>
      <trkpt lat="43.69904" lon="6.74889">
        <ele>987.9</ele>
        <time>2020-02-09T12:13:10Z</time>
      </trkpt>
      <trkpt lat="43.69913" lon="6.74886">
        <ele>988.8</ele>
        <time>2020-02-09T12:13:12Z</time>
      </trkpt>
      <trkpt lat="43.69919" lon="6.74883">
        <ele>989</ele>
        <time>2020-02-09T12:13:13Z</time>
      </trkpt>
      <trkpt lat="43.69925" lon="6.74877">
        <ele>986.9</ele>
        <time>2020-02-09T12:13:14Z</time>
      </trkpt>
      <trkpt lat="43.6993" lon="6.74871">
        <ele>985.8</ele>
        <time>2020-02-09T12:13:15Z</time>
      </trkpt>
      <trkpt lat="43.69935" lon="6.74865">
        <ele>984.4</ele>
        <time>2020-02-09T12:13:16Z</time>
      </trkpt>
      <trkpt lat="43.69955" lon="6.74837">
        <ele>976.8</ele>
        <time>2020-02-09T12:13:18Z</time>
      </trkpt>
      <trkpt lat="43.69962" lon="6.74821">
        <ele>971.6</ele>
        <time>2020-02-09T12:13:20Z</time>
      </trkpt>
      <trkpt lat="43.69965" lon="6.74816">
        <ele>969.3</ele>
        <time>2020-02-09T12:13:21Z</time>
      </trkpt>
      <trkpt lat="43.69968" lon="6.74809">
        <ele>966.1</ele>
        <time>2020-02-09T12:13:24Z</time>
      </trkpt>
      <trkpt lat="43.69962" lon="6.74793">
        <ele>960.2</ele>
        <time>2020-02-09T12:13:28Z</time>
      </trkpt>
      <trkpt lat="43.69963" lon="6.74789">
        <ele>958.3</ele>
        <time>2020-02-09T12:13:31Z</time>
      </trkpt>
      <trkpt lat="43.69962" lon="6.74784">
        <ele>956.5</ele>
        <time>2020-02-09T12:13:33Z</time>
      </trkpt>
      <trkpt lat="43.69964" lon="6.74778">
        <ele>954.6</ele>
        <time>2020-02-09T12:13:36Z</time>
      </trkpt>
      <trkpt lat="43.69966" lon="6.74764">
        <ele>949.4</ele>
        <time>2020-02-09T12:13:39Z</time>
      </trkpt>
      <trkpt lat="43.69971" lon="6.74752">
        <ele>946.9</ele>
        <time>2020-02-09T12:13:42Z</time>
      </trkpt>
      <trkpt lat="43.69974" lon="6.74744">
        <ele>945.9</ele>
        <time>2020-02-09T12:13:43Z</time>
      </trkpt>
      <trkpt lat="43.69979" lon="6.74737">
        <ele>944.4</ele>
        <time>2020-02-09T12:13:45Z</time>
      </trkpt>
      <trkpt lat="43.69982" lon="6.74732">
        <ele>943.7</ele>
        <time>2020-02-09T12:13:48Z</time>
      </trkpt>
      <trkpt lat="43.69985" lon="6.74727">
        <ele>943.1</ele>
        <time>2020-02-09T12:13:49Z</time>
      </trkpt>
      <trkpt lat="43.69989" lon="6.74715">
        <ele>940.9</ele>
        <time>2020-02-09T12:13:52Z</time>
      </trkpt>
      <trkpt lat="43.69991" lon="6.74695">
        <ele>938.1</ele>
        <time>2020-02-09T12:13:55Z</time>
      </trkpt>
      <trkpt lat="43.69988" lon="6.74687">
        <ele>936.4</ele>
        <time>2020-02-09T12:13:56Z</time>
      </trkpt>
      <trkpt lat="43.69988" lon="6.74686">
        <ele>936.1</ele>
        <time>2020-02-09T12:13:59Z</time>
      </trkpt>
      <trkpt lat="43.69988" lon="6.7468">
        <ele>934.3</ele>
        <time>2020-02-09T12:14:01Z</time>
      </trkpt>
      <trkpt lat="43.69986" lon="6.74676">
        <ele>933</ele>
        <time>2020-02-09T12:14:03Z</time>
      </trkpt>
      <trkpt lat="43.6998" lon="6.74668">
        <ele>931.3</ele>
        <time>2020-02-09T12:14:04Z</time>
      </trkpt>
      <trkpt lat="43.69978" lon="6.74663">
        <ele>930</ele>
        <time>2020-02-09T12:14:06Z</time>
      </trkpt>
      <trkpt lat="43.69973" lon="6.74655">
        <ele>927.7</ele>
        <time>2020-02-09T12:14:08Z</time>
      </trkpt>
      <trkpt lat="43.6997" lon="6.74645">
        <ele>925.6</ele>
        <time>2020-02-09T12:14:09Z</time>
      </trkpt>
      <trkpt lat="43.69969" lon="6.7463">
        <ele>923.1</ele>
        <time>2020-02-09T12:14:12Z</time>
      </trkpt>
      <trkpt lat="43.69966" lon="6.7462">
        <ele>921</ele>
        <time>2020-02-09T12:14:13Z</time>
      </trkpt>
      <trkpt lat="43.69961" lon="6.74612">
        <ele>918.7</ele>
        <time>2020-02-09T12:14:14Z</time>
      </trkpt>
      <trkpt lat="43.69958" lon="6.74605">
        <ele>916.8</ele>
        <time>2020-02-09T12:14:16Z</time>
      </trkpt>
      <trkpt lat="43.69961" lon="6.74599">
        <ele>915.6</ele>
        <time>2020-02-09T12:14:19Z</time>
      </trkpt>
      <trkpt lat="43.6996" lon="6.74595">
        <ele>914.8</ele>
        <time>2020-02-09T12:14:20Z</time>
      </trkpt>
      <trkpt lat="43.69955" lon="6.74588">
        <ele>913.2</ele>
        <time>2020-02-09T12:14:22Z</time>
      </trkpt>
      <trkpt lat="43.69952" lon="6.74581">
        <ele>911.7</ele>
        <time>2020-02-09T12:14:24Z</time>
      </trkpt>
      <trkpt lat="43.69948" lon="6.7458">
        <ele>910.4</ele>
        <time>2020-02-09T12:14:25Z</time>
      </trkpt>
      <trkpt lat="43.69936" lon="6.74574">
        <ele>907.3</ele>
        <time>2020-02-09T12:14:28Z</time>
      </trkpt>
      <trkpt lat="43.69932" lon="6.74569">
        <ele>906.1</ele>
        <time>2020-02-09T12:14:29Z</time>
      </trkpt>
      <trkpt lat="43.69921" lon="6.74563">
        <ele>903.4</ele>
        <time>2020-02-09T12:14:32Z</time>
      </trkpt>
      <trkpt lat="43.69916" lon="6.74553">
        <ele>901.4</ele>
        <time>2020-02-09T12:14:35Z</time>
      </trkpt>
      <trkpt lat="43.69916" lon="6.74546">
        <ele>900.3</ele>
        <time>2020-02-09T12:14:36Z</time>
      </trkpt>
      <trkpt lat="43.69914" lon="6.74533">
        <ele>896.7</ele>
        <time>2020-02-09T12:14:39Z</time>
      </trkpt>
      <trkpt lat="43.69907" lon="6.7452">
        <ele>893.2</ele>
        <time>2020-02-09T12:14:40Z</time>
      </trkpt>
      <trkpt lat="43.69905" lon="6.7451">
        <ele>889.9</ele>
        <time>2020-02-09T12:14:43Z</time>
      </trkpt>
      <trkpt lat="43.69904" lon="6.74501">
        <ele>888.6</ele>
        <time>2020-02-09T12:14:44Z</time>
      </trkpt>
      <trkpt lat="43.69901" lon="6.74496">
        <ele>886.6</ele>
        <time>2020-02-09T12:14:45Z</time>
      </trkpt>
      <trkpt lat="43.69896" lon="6.74493">
        <ele>884.6</ele>
        <time>2020-02-09T12:14:47Z</time>
      </trkpt>
      <trkpt lat="43.69892" lon="6.74491">
        <ele>883.2</ele>
        <time>2020-02-09T12:14:48Z</time>
      </trkpt>
      <trkpt lat="43.69881" lon="6.74484">
        <ele>879.6</ele>
        <time>2020-02-09T12:14:50Z</time>
      </trkpt>
      <trkpt lat="43.69872" lon="6.7447">
        <ele>877.6</ele>
        <time>2020-02-09T12:14:51Z</time>
      </trkpt>
      <trkpt lat="43.69862" lon="6.74466">
        <ele>874.6</ele>
        <time>2020-02-09T12:14:54Z</time>
      </trkpt>
      <trkpt lat="43.69848" lon="6.74459">
        <ele>870.8</ele>
        <time>2020-02-09T12:14:55Z</time>
      </trkpt>
      <trkpt lat="43.69842" lon="6.74453">
        <ele>868.6</ele>
        <time>2020-02-09T12:14:56Z</time>
      </trkpt>
      <trkpt lat="43.69826" lon="6.74438">
        <ele>864.3</ele>
        <time>2020-02-09T12:14:58Z</time>
      </trkpt>
      <trkpt lat="43.69813" lon="6.7444">
        <ele>861.6</ele>
        <time>2020-02-09T12:15:00Z</time>
      </trkpt>
      <trkpt lat="43.69801" lon="6.74439">
        <ele>860.7</ele>
        <time>2020-02-09T12:15:02Z</time>
      </trkpt>
      <trkpt lat="43.69796" lon="6.74438">
        <ele>860.1</ele>
        <time>2020-02-09T12:15:03Z</time>
      </trkpt>
      <trkpt lat="43.69787" lon="6.74432">
        <ele>857.2</ele>
        <time>2020-02-09T12:15:05Z</time>
      </trkpt>
      <trkpt lat="43.6978" lon="6.74432">
        <ele>857.2</ele>
        <time>2020-02-09T12:15:07Z</time>
      </trkpt>
      <trkpt lat="43.6978" lon="6.74437">
        <ele>857.2</ele>
        <time>2020-02-09T12:15:09Z</time>
      </trkpt>
      <trkpt lat="43.69785" lon="6.7443">
        <ele>857.4</ele>
        <time>2020-02-09T12:15:11Z</time>
      </trkpt>
      <trkpt lat="43.69782" lon="6.74431">
        <ele>857.5</ele>
        <time>2020-02-09T12:15:16Z</time>
      </trkpt>
      <trkpt lat="43.69778" lon="6.74434">
        <ele>857.4</ele>
        <time>2020-02-09T12:19:14Z</time>
      </trkpt>
      <trkpt lat="43.69781" lon="6.74432">
        <ele>857.3</ele>
        <time>2020-02-09T12:19:17Z</time>
      </trkpt>
      <trkpt lat="43.69785" lon="6.74429">
        <ele>857.3</ele>
        <time>2020-02-09T12:19:20Z</time>
      </trkpt>
      <trkpt lat="43.69789" lon="6.74426">
        <ele>857.8</ele>
        <time>2020-02-09T12:19:27Z</time>
      </trkpt>
      <trkpt lat="43.69795" lon="6.74422">
        <ele>857.8</ele>
        <time>2020-02-09T12:19:30Z</time>
      </trkpt>
      <trkpt lat="43.698" lon="6.74419">
        <ele>857.7</ele>
        <time>2020-02-09T12:19:31Z</time>
      </trkpt>
      <trkpt lat="43.69802" lon="6.74418">
        <ele>858</ele>
        <time>2020-02-09T12:19:32Z</time>
      </trkpt>
      <trkpt lat="43.69805" lon="6.74417">
        <ele>858.3</ele>
        <time>2020-02-09T12:19:34Z</time>
      </trkpt>
      <trkpt lat="43.69809" lon="6.74415">
        <ele>858.6</ele>
        <time>2020-02-09T12:19:36Z</time>
      </trkpt>
      <trkpt lat="43.69813" lon="6.74413">
        <ele>858.5</ele>
        <time>2020-02-09T12:19:39Z</time>
      </trkpt>
      <trkpt lat="43.69818" lon="6.74411">
        <ele>859.1</ele>
        <time>2020-02-09T12:19:42Z</time>
      </trkpt>
      <trkpt lat="43.69826" lon="6.74409">
        <ele>861.7</ele>
        <time>2020-02-09T12:19:44Z</time>
      </trkpt>
      <trkpt lat="43.69829" lon="6.74409">
        <ele>862.5</ele>
        <time>2020-02-09T12:19:47Z</time>
      </trkpt>
      <trkpt lat="43.69833" lon="6.74409">
        <ele>863.1</ele>
        <time>2020-02-09T12:19:48Z</time>
      </trkpt>
      <trkpt lat="43.69841" lon="6.74408">
        <ele>864.6</ele>
        <time>2020-02-09T12:19:51Z</time>
      </trkpt>
      <trkpt lat="43.69846" lon="6.74407">
        <ele>865</ele>
        <time>2020-02-09T12:19:52Z</time>
      </trkpt>
      <trkpt lat="43.6985" lon="6.74407">
        <ele>864.8</ele>
        <time>2020-02-09T12:19:55Z</time>
      </trkpt>
      <trkpt lat="43.69853" lon="6.74407">
        <ele>864.8</ele>
        <time>2020-02-09T12:19:56Z</time>
      </trkpt>
      <trkpt lat="43.69859" lon="6.74409">
        <ele>864.7</ele>
        <time>2020-02-09T12:19:57Z</time>
      </trkpt>
      <trkpt lat="43.69865" lon="6.74412">
        <ele>864.9</ele>
        <time>2020-02-09T12:20:01Z</time>
      </trkpt>
      <trkpt lat="43.6987" lon="6.74414">
        <ele>865.3</ele>
        <time>2020-02-09T12:20:03Z</time>
      </trkpt>
      <trkpt lat="43.69873" lon="6.74415">
        <ele>865.2</ele>
        <time>2020-02-09T12:20:04Z</time>
      </trkpt>
      <trkpt lat="43.69877" lon="6.74415">
        <ele>865.2</ele>
        <time>2020-02-09T12:20:07Z</time>
      </trkpt>
      <trkpt lat="43.6988" lon="6.74415">
        <ele>865.2</ele>
        <time>2020-02-09T12:20:08Z</time>
      </trkpt>
      <trkpt lat="43.69892" lon="6.74409">
        <ele>865</ele>
        <time>2020-02-09T12:20:12Z</time>
      </trkpt>
      <trkpt lat="43.69895" lon="6.74407">
        <ele>865</ele>
        <time>2020-02-09T12:20:13Z</time>
      </trkpt>
      <trkpt lat="43.69899" lon="6.74405">
        <ele>865.4</ele>
        <time>2020-02-09T12:20:14Z</time>
      </trkpt>
      <trkpt lat="43.69904" lon="6.74403">
        <ele>865.7</ele>
        <time>2020-02-09T12:20:16Z</time>
      </trkpt>
      <trkpt lat="43.69913" lon="6.74401">
        <ele>865.3</ele>
        <time>2020-02-09T12:20:17Z</time>
      </trkpt>
      <trkpt lat="43.69918" lon="6.74399">
        <ele>865.1</ele>
        <time>2020-02-09T12:20:19Z</time>
      </trkpt>
      <trkpt lat="43.69924" lon="6.74397">
        <ele>865</ele>
        <time>2020-02-09T12:20:21Z</time>
      </trkpt>
      <trkpt lat="43.69928" lon="6.74395">
        <ele>865</ele>
        <time>2020-02-09T12:20:22Z</time>
      </trkpt>
      <trkpt lat="43.69939" lon="6.74392">
        <ele>865.8</ele>
        <time>2020-02-09T12:20:25Z</time>
      </trkpt>
      <trkpt lat="43.69944" lon="6.7439">
        <ele>866.2</ele>
        <time>2020-02-09T12:20:26Z</time>
      </trkpt>
      <trkpt lat="43.69949" lon="6.74389">
        <ele>866.3</ele>
        <time>2020-02-09T12:20:27Z</time>
      </trkpt>
      <trkpt lat="43.69964" lon="6.74383">
        <ele>865.7</ele>
        <time>2020-02-09T12:20:29Z</time>
      </trkpt>
      <trkpt lat="43.6997" lon="6.7438">
        <ele>865.1</ele>
        <time>2020-02-09T12:20:30Z</time>
      </trkpt>
      <trkpt lat="43.69976" lon="6.74377">
        <ele>864.4</ele>
        <time>2020-02-09T12:20:33Z</time>
      </trkpt>
      <trkpt lat="43.69989" lon="6.74368">
        <ele>862.4</ele>
        <time>2020-02-09T12:20:36Z</time>
      </trkpt>
      <trkpt lat="43.69996" lon="6.74359">
        <ele>862.1</ele>
        <time>2020-02-09T12:20:39Z</time>
      </trkpt>
      <trkpt lat="43.70001" lon="6.74352">
        <ele>861.6</ele>
        <time>2020-02-09T12:20:40Z</time>
      </trkpt>
      <trkpt lat="43.70003" lon="6.74345">
        <ele>861</ele>
        <time>2020-02-09T12:20:42Z</time>
      </trkpt>
      <trkpt lat="43.70007" lon="6.74334">
        <ele>858.8</ele>
        <time>2020-02-09T12:20:45Z</time>
      </trkpt>
      <trkpt lat="43.70009" lon="6.7433">
        <ele>857.9</ele>
        <time>2020-02-09T12:20:46Z</time>
      </trkpt>
      <trkpt lat="43.70015" lon="6.74315">
        <ele>856.7</ele>
        <time>2020-02-09T12:20:48Z</time>
      </trkpt>
      <trkpt lat="43.70017" lon="6.74309">
        <ele>856</ele>
        <time>2020-02-09T12:20:49Z</time>
      </trkpt>
      <trkpt lat="43.70021" lon="6.74299">
        <ele>855.4</ele>
        <time>2020-02-09T12:20:52Z</time>
      </trkpt>
      <trkpt lat="43.70025" lon="6.74289">
        <ele>855.1</ele>
        <time>2020-02-09T12:20:53Z</time>
      </trkpt>
      <trkpt lat="43.70031" lon="6.74279">
        <ele>854.7</ele>
        <time>2020-02-09T12:20:56Z</time>
      </trkpt>
      <trkpt lat="43.70035" lon="6.74274">
        <ele>854</ele>
        <time>2020-02-09T12:20:57Z</time>
      </trkpt>
      <trkpt lat="43.7004" lon="6.7427">
        <ele>853.2</ele>
        <time>2020-02-09T12:21:00Z</time>
      </trkpt>
      <trkpt lat="43.70046" lon="6.74264">
        <ele>852.6</ele>
        <time>2020-02-09T12:21:02Z</time>
      </trkpt>
      <trkpt lat="43.7005" lon="6.74262">
        <ele>852.3</ele>
        <time>2020-02-09T12:21:03Z</time>
      </trkpt>
      <trkpt lat="43.70057" lon="6.74255">
        <ele>850.9</ele>
        <time>2020-02-09T12:21:06Z</time>
      </trkpt>
      <trkpt lat="43.70059" lon="6.74252">
        <ele>850.2</ele>
        <time>2020-02-09T12:21:07Z</time>
      </trkpt>
      <trkpt lat="43.70062" lon="6.7425">
        <ele>849.9</ele>
        <time>2020-02-09T12:21:08Z</time>
      </trkpt>
      <trkpt lat="43.7007" lon="6.74242">
        <ele>849</ele>
        <time>2020-02-09T12:21:11Z</time>
      </trkpt>
      <trkpt lat="43.70073" lon="6.74237">
        <ele>848.3</ele>
        <time>2020-02-09T12:21:12Z</time>
      </trkpt>
      <trkpt lat="43.70083" lon="6.74227">
        <ele>845</ele>
        <time>2020-02-09T12:21:15Z</time>
      </trkpt>
      <trkpt lat="43.70087" lon="6.74223">
        <ele>844.3</ele>
        <time>2020-02-09T12:21:16Z</time>
      </trkpt>
      <trkpt lat="43.70106" lon="6.74212">
        <ele>842.8</ele>
        <time>2020-02-09T12:21:17Z</time>
      </trkpt>
      <trkpt lat="43.70114" lon="6.7421">
        <ele>842.5</ele>
        <time>2020-02-09T12:21:18Z</time>
      </trkpt>
      <trkpt lat="43.70123" lon="6.74209">
        <ele>843.6</ele>
        <time>2020-02-09T12:21:19Z</time>
      </trkpt>
      <trkpt lat="43.70139" lon="6.7421">
        <ele>843.5</ele>
        <time>2020-02-09T12:21:21Z</time>
      </trkpt>
      <trkpt lat="43.70147" lon="6.7421">
        <ele>844.4</ele>
        <time>2020-02-09T12:21:22Z</time>
      </trkpt>
      <trkpt lat="43.70161" lon="6.74213">
        <ele>845.9</ele>
        <time>2020-02-09T12:21:24Z</time>
      </trkpt>
      <trkpt lat="43.70167" lon="6.74216">
        <ele>846.5</ele>
        <time>2020-02-09T12:21:25Z</time>
      </trkpt>
      <trkpt lat="43.70179" lon="6.74221">
        <ele>847.4</ele>
        <time>2020-02-09T12:21:27Z</time>
      </trkpt>
      <trkpt lat="43.70184" lon="6.74224">
        <ele>847.8</ele>
        <time>2020-02-09T12:21:28Z</time>
      </trkpt>
      <trkpt lat="43.70189" lon="6.74227">
        <ele>848.3</ele>
        <time>2020-02-09T12:21:29Z</time>
      </trkpt>
      <trkpt lat="43.702" lon="6.74232">
        <ele>848.5</ele>
        <time>2020-02-09T12:21:31Z</time>
      </trkpt>
      <trkpt lat="43.70213" lon="6.74238">
        <ele>849.3</ele>
        <time>2020-02-09T12:21:33Z</time>
      </trkpt>
      <trkpt lat="43.7022" lon="6.74241">
        <ele>850.3</ele>
        <time>2020-02-09T12:21:34Z</time>
      </trkpt>
      <trkpt lat="43.70233" lon="6.74243">
        <ele>850.3</ele>
        <time>2020-02-09T12:21:36Z</time>
      </trkpt>
      <trkpt lat="43.7024" lon="6.74242">
        <ele>849.7</ele>
        <time>2020-02-09T12:21:37Z</time>
      </trkpt>
      <trkpt lat="43.70247" lon="6.7424">
        <ele>849.9</ele>
        <time>2020-02-09T12:21:38Z</time>
      </trkpt>
      <trkpt lat="43.70253" lon="6.74238">
        <ele>849.5</ele>
        <time>2020-02-09T12:21:39Z</time>
      </trkpt>
      <trkpt lat="43.70264" lon="6.74233">
        <ele>847.7</ele>
        <time>2020-02-09T12:21:41Z</time>
      </trkpt>
      <trkpt lat="43.70274" lon="6.74227">
        <ele>846.6</ele>
        <time>2020-02-09T12:21:43Z</time>
      </trkpt>
      <trkpt lat="43.70279" lon="6.74224">
        <ele>846.1</ele>
        <time>2020-02-09T12:21:44Z</time>
      </trkpt>
      <trkpt lat="43.70284" lon="6.7422">
        <ele>845.5</ele>
        <time>2020-02-09T12:21:45Z</time>
      </trkpt>
      <trkpt lat="43.70292" lon="6.74213">
        <ele>844.7</ele>
        <time>2020-02-09T12:21:47Z</time>
      </trkpt>
      <trkpt lat="43.70296" lon="6.7421">
        <ele>844.4</ele>
        <time>2020-02-09T12:21:48Z</time>
      </trkpt>
      <trkpt lat="43.70304" lon="6.74206">
        <ele>844.5</ele>
        <time>2020-02-09T12:21:50Z</time>
      </trkpt>
      <trkpt lat="43.70312" lon="6.74203">
        <ele>844.5</ele>
        <time>2020-02-09T12:21:52Z</time>
      </trkpt>
      <trkpt lat="43.70321" lon="6.74201">
        <ele>845.4</ele>
        <time>2020-02-09T12:21:54Z</time>
      </trkpt>
      <trkpt lat="43.70332" lon="6.74201">
        <ele>845.6</ele>
        <time>2020-02-09T12:21:56Z</time>
      </trkpt>
      <trkpt lat="43.70345" lon="6.74203">
        <ele>845.8</ele>
        <time>2020-02-09T12:21:58Z</time>
      </trkpt>
      <trkpt lat="43.7036" lon="6.74206">
        <ele>845.9</ele>
        <time>2020-02-09T12:22:00Z</time>
      </trkpt>
      <trkpt lat="43.70367" lon="6.74207">
        <ele>845.9</ele>
        <time>2020-02-09T12:22:01Z</time>
      </trkpt>
      <trkpt lat="43.7038" lon="6.74208">
        <ele>846.6</ele>
        <time>2020-02-09T12:22:03Z</time>
      </trkpt>
      <trkpt lat="43.70386" lon="6.74207">
        <ele>846.4</ele>
        <time>2020-02-09T12:22:04Z</time>
      </trkpt>
      <trkpt lat="43.70393" lon="6.74208">
        <ele>846.2</ele>
        <time>2020-02-09T12:22:05Z</time>
      </trkpt>
      <trkpt lat="43.70405" lon="6.74208">
        <ele>845.7</ele>
        <time>2020-02-09T12:22:07Z</time>
      </trkpt>
      <trkpt lat="43.70411" lon="6.74209">
        <ele>845.3</ele>
        <time>2020-02-09T12:22:08Z</time>
      </trkpt>
      <trkpt lat="43.70417" lon="6.74209">
        <ele>844.9</ele>
        <time>2020-02-09T12:22:09Z</time>
      </trkpt>
      <trkpt lat="43.70429" lon="6.74211">
        <ele>844.1</ele>
        <time>2020-02-09T12:22:11Z</time>
      </trkpt>
      <trkpt lat="43.70435" lon="6.74211">
        <ele>843.8</ele>
        <time>2020-02-09T12:22:12Z</time>
      </trkpt>
      <trkpt lat="43.70448" lon="6.74213">
        <ele>843.1</ele>
        <time>2020-02-09T12:22:14Z</time>
      </trkpt>
      <trkpt lat="43.70455" lon="6.74214">
        <ele>842.5</ele>
        <time>2020-02-09T12:22:15Z</time>
      </trkpt>
      <trkpt lat="43.70462" lon="6.74215">
        <ele>841.9</ele>
        <time>2020-02-09T12:22:16Z</time>
      </trkpt>
      <trkpt lat="43.70469" lon="6.74215">
        <ele>841.5</ele>
        <time>2020-02-09T12:22:17Z</time>
      </trkpt>
      <trkpt lat="43.70484" lon="6.74215">
        <ele>840.2</ele>
        <time>2020-02-09T12:22:19Z</time>
      </trkpt>
      <trkpt lat="43.70491" lon="6.74214">
        <ele>839.4</ele>
        <time>2020-02-09T12:22:20Z</time>
      </trkpt>
      <trkpt lat="43.70506" lon="6.74216">
        <ele>839</ele>
        <time>2020-02-09T12:22:22Z</time>
      </trkpt>
      <trkpt lat="43.7052" lon="6.74216">
        <ele>838.7</ele>
        <time>2020-02-09T12:22:24Z</time>
      </trkpt>
      <trkpt lat="43.70526" lon="6.74216">
        <ele>838.2</ele>
        <time>2020-02-09T12:22:25Z</time>
      </trkpt>
      <trkpt lat="43.70532" lon="6.74216">
        <ele>838.1</ele>
        <time>2020-02-09T12:22:26Z</time>
      </trkpt>
      <trkpt lat="43.70543" lon="6.74215">
        <ele>838.4</ele>
        <time>2020-02-09T12:22:28Z</time>
      </trkpt>
      <trkpt lat="43.70553" lon="6.74214">
        <ele>838.6</ele>
        <time>2020-02-09T12:22:30Z</time>
      </trkpt>
      <trkpt lat="43.70558" lon="6.74214">
        <ele>838.6</ele>
        <time>2020-02-09T12:22:31Z</time>
      </trkpt>
      <trkpt lat="43.70568" lon="6.74215">
        <ele>838.8</ele>
        <time>2020-02-09T12:22:33Z</time>
      </trkpt>
      <trkpt lat="43.70579" lon="6.74216">
        <ele>839.2</ele>
        <time>2020-02-09T12:22:35Z</time>
      </trkpt>
      <trkpt lat="43.70585" lon="6.74216">
        <ele>839.4</ele>
        <time>2020-02-09T12:22:36Z</time>
      </trkpt>
      <trkpt lat="43.70591" lon="6.74216">
        <ele>839.7</ele>
        <time>2020-02-09T12:22:37Z</time>
      </trkpt>
      <trkpt lat="43.70602" lon="6.74217">
        <ele>840.3</ele>
        <time>2020-02-09T12:22:39Z</time>
      </trkpt>
      <trkpt lat="43.70613" lon="6.74217">
        <ele>840.8</ele>
        <time>2020-02-09T12:22:41Z</time>
      </trkpt>
      <trkpt lat="43.70623" lon="6.74218">
        <ele>841.4</ele>
        <time>2020-02-09T12:22:43Z</time>
      </trkpt>
      <trkpt lat="43.70633" lon="6.74218">
        <ele>842</ele>
        <time>2020-02-09T12:22:45Z</time>
      </trkpt>
      <trkpt lat="43.70638" lon="6.74218">
        <ele>842.3</ele>
        <time>2020-02-09T12:22:46Z</time>
      </trkpt>
      <trkpt lat="43.70643" lon="6.74218">
        <ele>842.6</ele>
        <time>2020-02-09T12:22:47Z</time>
      </trkpt>
      <trkpt lat="43.70648" lon="6.74218">
        <ele>842.8</ele>
        <time>2020-02-09T12:22:48Z</time>
      </trkpt>
      <trkpt lat="43.70658" lon="6.74218">
        <ele>842.9</ele>
        <time>2020-02-09T12:22:50Z</time>
      </trkpt>
      <trkpt lat="43.70663" lon="6.74217">
        <ele>843.2</ele>
        <time>2020-02-09T12:22:51Z</time>
      </trkpt>
      <trkpt lat="43.70669" lon="6.74217">
        <ele>843.5</ele>
        <time>2020-02-09T12:22:52Z</time>
      </trkpt>
      <trkpt lat="43.70681" lon="6.74217">
        <ele>843.4</ele>
        <time>2020-02-09T12:22:54Z</time>
      </trkpt>
      <trkpt lat="43.70687" lon="6.74217">
        <ele>843.4</ele>
        <time>2020-02-09T12:22:55Z</time>
      </trkpt>
      <trkpt lat="43.70698" lon="6.74217">
        <ele>843.5</ele>
        <time>2020-02-09T12:22:57Z</time>
      </trkpt>
      <trkpt lat="43.70705" lon="6.74217">
        <ele>843.7</ele>
        <time>2020-02-09T12:22:58Z</time>
      </trkpt>
      <trkpt lat="43.70711" lon="6.74217">
        <ele>843.7</ele>
        <time>2020-02-09T12:22:59Z</time>
      </trkpt>
      <trkpt lat="43.70723" lon="6.74217">
        <ele>843.9</ele>
        <time>2020-02-09T12:23:01Z</time>
      </trkpt>
      <trkpt lat="43.70728" lon="6.74217">
        <ele>844.1</ele>
        <time>2020-02-09T12:23:02Z</time>
      </trkpt>
      <trkpt lat="43.70739" lon="6.74217">
        <ele>844.5</ele>
        <time>2020-02-09T12:23:04Z</time>
      </trkpt>
      <trkpt lat="43.70749" lon="6.74217">
        <ele>845.2</ele>
        <time>2020-02-09T12:23:06Z</time>
      </trkpt>
      <trkpt lat="43.70759" lon="6.74217">
        <ele>846</ele>
        <time>2020-02-09T12:23:08Z</time>
      </trkpt>
      <trkpt lat="43.70768" lon="6.74218">
        <ele>846.5</ele>
        <time>2020-02-09T12:23:10Z</time>
      </trkpt>
      <trkpt lat="43.70773" lon="6.74217">
        <ele>846.8</ele>
        <time>2020-02-09T12:23:11Z</time>
      </trkpt>
      <trkpt lat="43.70781" lon="6.74212">
        <ele>847</ele>
        <time>2020-02-09T12:23:13Z</time>
      </trkpt>
      <trkpt lat="43.70784" lon="6.74206">
        <ele>847.2</ele>
        <time>2020-02-09T12:23:14Z</time>
      </trkpt>
      <trkpt lat="43.70786" lon="6.74193">
        <ele>847</ele>
        <time>2020-02-09T12:23:16Z</time>
      </trkpt>
      <trkpt lat="43.70787" lon="6.74187">
        <ele>846.8</ele>
        <time>2020-02-09T12:23:17Z</time>
      </trkpt>
      <trkpt lat="43.70785" lon="6.74175">
        <ele>846.6</ele>
        <time>2020-02-09T12:23:19Z</time>
      </trkpt>
      <trkpt lat="43.70782" lon="6.74166">
        <ele>846.6</ele>
        <time>2020-02-09T12:23:21Z</time>
      </trkpt>
      <trkpt lat="43.70778" lon="6.7416">
        <ele>846.6</ele>
        <time>2020-02-09T12:23:23Z</time>
      </trkpt>
      <trkpt lat="43.70774" lon="6.74156">
        <ele>846.6</ele>
        <time>2020-02-09T12:23:25Z</time>
      </trkpt>
      <trkpt lat="43.70772" lon="6.74153">
        <ele>846.6</ele>
        <time>2020-02-09T12:23:26Z</time>
      </trkpt>
      <trkpt lat="43.70766" lon="6.74149">
        <ele>846.7</ele>
        <time>2020-02-09T12:23:28Z</time>
      </trkpt>
      <trkpt lat="43.70764" lon="6.74147">
        <ele>846.7</ele>
        <time>2020-02-09T12:23:29Z</time>
      </trkpt>
      <trkpt lat="43.70755" lon="6.74137">
        <ele>846.8</ele>
        <time>2020-02-09T12:23:34Z</time>
      </trkpt>
      <trkpt lat="43.70751" lon="6.74134">
        <ele>846.8</ele>
        <time>2020-02-09T12:23:35Z</time>
      </trkpt>
      <trkpt lat="43.70744" lon="6.74129">
        <ele>846.8</ele>
        <time>2020-02-09T12:23:38Z</time>
      </trkpt>
      <trkpt lat="43.70741" lon="6.74125">
        <ele>846.9</ele>
        <time>2020-02-09T12:23:39Z</time>
      </trkpt>
      <trkpt lat="43.70737" lon="6.74121">
        <ele>846.9</ele>
        <time>2020-02-09T12:23:40Z</time>
      </trkpt>
      <trkpt lat="43.7073" lon="6.74114">
        <ele>846.9</ele>
        <time>2020-02-09T12:23:43Z</time>
      </trkpt>
      <trkpt lat="43.70723" lon="6.74107">
        <ele>846.8</ele>
        <time>2020-02-09T12:23:44Z</time>
      </trkpt>
      <trkpt lat="43.70719" lon="6.74104">
        <ele>846.8</ele>
        <time>2020-02-09T12:23:45Z</time>
      </trkpt>
      <trkpt lat="43.70715" lon="6.74099">
        <ele>846.7</ele>
        <time>2020-02-09T12:23:48Z</time>
      </trkpt>
      <trkpt lat="43.70707" lon="6.74091">
        <ele>846.6</ele>
        <time>2020-02-09T12:23:51Z</time>
      </trkpt>
      <trkpt lat="43.70702" lon="6.74084">
        <ele>846.5</ele>
        <time>2020-02-09T12:23:53Z</time>
      </trkpt>
      <trkpt lat="43.70699" lon="6.74079">
        <ele>846.3</ele>
        <time>2020-02-09T12:23:54Z</time>
      </trkpt>
      <trkpt lat="43.70696" lon="6.74074">
        <ele>846.1</ele>
        <time>2020-02-09T12:23:55Z</time>
      </trkpt>
      <trkpt lat="43.7069" lon="6.74054">
        <ele>845.4</ele>
        <time>2020-02-09T12:23:57Z</time>
      </trkpt>
      <trkpt lat="43.70686" lon="6.74042">
        <ele>845.4</ele>
        <time>2020-02-09T12:24:00Z</time>
      </trkpt>
      <trkpt lat="43.70683" lon="6.74034">
        <ele>845.5</ele>
        <time>2020-02-09T12:24:01Z</time>
      </trkpt>
      <trkpt lat="43.70678" lon="6.7402">
        <ele>845.9</ele>
        <time>2020-02-09T12:24:04Z</time>
      </trkpt>
      <trkpt lat="43.70676" lon="6.74016">
        <ele>846.1</ele>
        <time>2020-02-09T12:24:05Z</time>
      </trkpt>
      <trkpt lat="43.7067" lon="6.74006">
        <ele>846.5</ele>
        <time>2020-02-09T12:24:08Z</time>
      </trkpt>
      <trkpt lat="43.70667" lon="6.74001">
        <ele>846.8</ele>
        <time>2020-02-09T12:24:09Z</time>
      </trkpt>
      <trkpt lat="43.70664" lon="6.73996">
        <ele>847</ele>
        <time>2020-02-09T12:24:10Z</time>
      </trkpt>
      <trkpt lat="43.70658" lon="6.73986">
        <ele>847.6</ele>
        <time>2020-02-09T12:24:11Z</time>
      </trkpt>
      <trkpt lat="43.70654" lon="6.73981">
        <ele>847.8</ele>
        <time>2020-02-09T12:24:14Z</time>
      </trkpt>
      <trkpt lat="43.7065" lon="6.73976">
        <ele>847.9</ele>
        <time>2020-02-09T12:24:15Z</time>
      </trkpt>
      <trkpt lat="43.70646" lon="6.73971">
        <ele>847.9</ele>
        <time>2020-02-09T12:24:16Z</time>
      </trkpt>
      <trkpt lat="43.70642" lon="6.7396">
        <ele>848</ele>
        <time>2020-02-09T12:24:19Z</time>
      </trkpt>
      <trkpt lat="43.70639" lon="6.73952">
        <ele>848</ele>
        <time>2020-02-09T12:24:20Z</time>
      </trkpt>
      <trkpt lat="43.70634" lon="6.73939">
        <ele>848.1</ele>
        <time>2020-02-09T12:24:23Z</time>
      </trkpt>
      <trkpt lat="43.70632" lon="6.73933">
        <ele>848.1</ele>
        <time>2020-02-09T12:24:24Z</time>
      </trkpt>
      <trkpt lat="43.70628" lon="6.73924">
        <ele>848.1</ele>
        <time>2020-02-09T12:24:25Z</time>
      </trkpt>
      <trkpt lat="43.70623" lon="6.73908">
        <ele>847.8</ele>
        <time>2020-02-09T12:24:28Z</time>
      </trkpt>
      <trkpt lat="43.70617" lon="6.73892">
        <ele>847.2</ele>
        <time>2020-02-09T12:24:29Z</time>
      </trkpt>
      <trkpt lat="43.70612" lon="6.73884">
        <ele>846.8</ele>
        <time>2020-02-09T12:24:32Z</time>
      </trkpt>
      <trkpt lat="43.70607" lon="6.73874">
        <ele>846.6</ele>
        <time>2020-02-09T12:24:33Z</time>
      </trkpt>
      <trkpt lat="43.70605" lon="6.73869">
        <ele>846.5</ele>
        <time>2020-02-09T12:24:34Z</time>
      </trkpt>
      <trkpt lat="43.70602" lon="6.73864">
        <ele>846.4</ele>
        <time>2020-02-09T12:24:35Z</time>
      </trkpt>
      <trkpt lat="43.70595" lon="6.73855">
        <ele>846.2</ele>
        <time>2020-02-09T12:24:38Z</time>
      </trkpt>
      <trkpt lat="43.70592" lon="6.73852">
        <ele>846.1</ele>
        <time>2020-02-09T12:24:39Z</time>
      </trkpt>
      <trkpt lat="43.70589" lon="6.73847">
        <ele>846.1</ele>
        <time>2020-02-09T12:24:40Z</time>
      </trkpt>
      <trkpt lat="43.7058" lon="6.73839">
        <ele>846.1</ele>
        <time>2020-02-09T12:24:42Z</time>
      </trkpt>
      <trkpt lat="43.70572" lon="6.73832">
        <ele>846.2</ele>
        <time>2020-02-09T12:24:44Z</time>
      </trkpt>
      <trkpt lat="43.70566" lon="6.73827">
        <ele>846.3</ele>
        <time>2020-02-09T12:24:45Z</time>
      </trkpt>
      <trkpt lat="43.70551" lon="6.73816">
        <ele>846.8</ele>
        <time>2020-02-09T12:24:46Z</time>
      </trkpt>
      <trkpt lat="43.70546" lon="6.73813">
        <ele>847.1</ele>
        <time>2020-02-09T12:24:47Z</time>
      </trkpt>
      <trkpt lat="43.70542" lon="6.7381">
        <ele>847.3</ele>
        <time>2020-02-09T12:24:48Z</time>
      </trkpt>
      <trkpt lat="43.70534" lon="6.73804">
        <ele>847.7</ele>
        <time>2020-02-09T12:24:50Z</time>
      </trkpt>
      <trkpt lat="43.70527" lon="6.73799">
        <ele>847.9</ele>
        <time>2020-02-09T12:24:52Z</time>
      </trkpt>
      <trkpt lat="43.70522" lon="6.73794">
        <ele>847.9</ele>
        <time>2020-02-09T12:24:55Z</time>
      </trkpt>
      <trkpt lat="43.7051" lon="6.73782">
        <ele>847.9</ele>
        <time>2020-02-09T12:24:57Z</time>
      </trkpt>
      <trkpt lat="43.70505" lon="6.73776">
        <ele>847.8</ele>
        <time>2020-02-09T12:24:58Z</time>
      </trkpt>
      <trkpt lat="43.70495" lon="6.73765">
        <ele>847.4</ele>
        <time>2020-02-09T12:25:00Z</time>
      </trkpt>
      <trkpt lat="43.70485" lon="6.73755">
        <ele>846.9</ele>
        <time>2020-02-09T12:25:02Z</time>
      </trkpt>
      <trkpt lat="43.70476" lon="6.73747">
        <ele>846.6</ele>
        <time>2020-02-09T12:25:04Z</time>
      </trkpt>
      <trkpt lat="43.70471" lon="6.73744">
        <ele>846.5</ele>
        <time>2020-02-09T12:25:05Z</time>
      </trkpt>
      <trkpt lat="43.70462" lon="6.73742">
        <ele>846.5</ele>
        <time>2020-02-09T12:25:07Z</time>
      </trkpt>
      <trkpt lat="43.70457" lon="6.73743">
        <ele>846.5</ele>
        <time>2020-02-09T12:25:08Z</time>
      </trkpt>
      <trkpt lat="43.70448" lon="6.73746">
        <ele>846.6</ele>
        <time>2020-02-09T12:25:10Z</time>
      </trkpt>
      <trkpt lat="43.70444" lon="6.73749">
        <ele>846.7</ele>
        <time>2020-02-09T12:25:11Z</time>
      </trkpt>
      <trkpt lat="43.70437" lon="6.73753">
        <ele>846.9</ele>
        <time>2020-02-09T12:25:13Z</time>
      </trkpt>
      <trkpt lat="43.70434" lon="6.73755">
        <ele>847</ele>
        <time>2020-02-09T12:25:14Z</time>
      </trkpt>
      <trkpt lat="43.70431" lon="6.73755">
        <ele>847</ele>
        <time>2020-02-09T12:25:15Z</time>
      </trkpt>
      <trkpt lat="43.70427" lon="6.73754">
        <ele>847.1</ele>
        <time>2020-02-09T12:25:16Z</time>
      </trkpt>
      <trkpt lat="43.70421" lon="6.73754">
        <ele>847.3</ele>
        <time>2020-02-09T12:25:18Z</time>
      </trkpt>
      <trkpt lat="43.70415" lon="6.73752">
        <ele>847.5</ele>
        <time>2020-02-09T12:25:20Z</time>
      </trkpt>
      <trkpt lat="43.70412" lon="6.73751">
        <ele>847.6</ele>
        <time>2020-02-09T12:25:21Z</time>
      </trkpt>
      <trkpt lat="43.70406" lon="6.73748">
        <ele>847.8</ele>
        <time>2020-02-09T12:25:23Z</time>
      </trkpt>
      <trkpt lat="43.70398" lon="6.73745">
        <ele>848.3</ele>
        <time>2020-02-09T12:25:25Z</time>
      </trkpt>
      <trkpt lat="43.70396" lon="6.73744">
        <ele>848.4</ele>
        <time>2020-02-09T12:25:26Z</time>
      </trkpt>
      <trkpt lat="43.7039" lon="6.73741">
        <ele>848.8</ele>
        <time>2020-02-09T12:25:28Z</time>
      </trkpt>
      <trkpt lat="43.70385" lon="6.7374">
        <ele>849</ele>
        <time>2020-02-09T12:25:31Z</time>
      </trkpt>
      <trkpt lat="43.70376" lon="6.73736">
        <ele>849.4</ele>
        <time>2020-02-09T12:25:34Z</time>
      </trkpt>
      <trkpt lat="43.70366" lon="6.73732">
        <ele>850</ele>
        <time>2020-02-09T12:25:36Z</time>
      </trkpt>
      <trkpt lat="43.70359" lon="6.73729">
        <ele>850.4</ele>
        <time>2020-02-09T12:25:39Z</time>
      </trkpt>
      <trkpt lat="43.70354" lon="6.73726">
        <ele>850.8</ele>
        <time>2020-02-09T12:25:41Z</time>
      </trkpt>
      <trkpt lat="43.70349" lon="6.73723">
        <ele>851.1</ele>
        <time>2020-02-09T12:25:43Z</time>
      </trkpt>
      <trkpt lat="43.70345" lon="6.73719">
        <ele>851.3</ele>
        <time>2020-02-09T12:25:45Z</time>
      </trkpt>
      <trkpt lat="43.70342" lon="6.73718">
        <ele>851.5</ele>
        <time>2020-02-09T12:25:46Z</time>
      </trkpt>
      <trkpt lat="43.70336" lon="6.73712">
        <ele>851.8</ele>
        <time>2020-02-09T12:25:50Z</time>
      </trkpt>
      <trkpt lat="43.7033" lon="6.73707">
        <ele>852.2</ele>
        <time>2020-02-09T12:25:51Z</time>
      </trkpt>
      <trkpt lat="43.70327" lon="6.73706">
        <ele>852.4</ele>
        <time>2020-02-09T12:25:54Z</time>
      </trkpt>
      <trkpt lat="43.70321" lon="6.73702">
        <ele>852.7</ele>
        <time>2020-02-09T12:25:55Z</time>
      </trkpt>
      <trkpt lat="43.70318" lon="6.737">
        <ele>852.8</ele>
        <time>2020-02-09T12:25:56Z</time>
      </trkpt>
      <trkpt lat="43.70312" lon="6.73696">
        <ele>853</ele>
        <time>2020-02-09T12:26:00Z</time>
      </trkpt>
      <trkpt lat="43.70304" lon="6.73692">
        <ele>853.4</ele>
        <time>2020-02-09T12:26:03Z</time>
      </trkpt>
      <trkpt lat="43.70297" lon="6.73688">
        <ele>853.8</ele>
        <time>2020-02-09T12:26:04Z</time>
      </trkpt>
      <trkpt lat="43.70289" lon="6.73685">
        <ele>854.4</ele>
        <time>2020-02-09T12:26:07Z</time>
      </trkpt>
      <trkpt lat="43.70286" lon="6.73683">
        <ele>854.6</ele>
        <time>2020-02-09T12:26:08Z</time>
      </trkpt>
      <trkpt lat="43.70281" lon="6.73681">
        <ele>855</ele>
        <time>2020-02-09T12:26:10Z</time>
      </trkpt>
      <trkpt lat="43.70274" lon="6.73679">
        <ele>855.4</ele>
        <time>2020-02-09T12:26:12Z</time>
      </trkpt>
      <trkpt lat="43.7027" lon="6.73677">
        <ele>855.6</ele>
        <time>2020-02-09T12:26:14Z</time>
      </trkpt>
      <trkpt lat="43.70265" lon="6.73674">
        <ele>855.8</ele>
        <time>2020-02-09T12:26:16Z</time>
      </trkpt>
      <trkpt lat="43.7026" lon="6.7367">
        <ele>856</ele>
        <time>2020-02-09T12:26:18Z</time>
      </trkpt>
      <trkpt lat="43.70254" lon="6.73667">
        <ele>856.2</ele>
        <time>2020-02-09T12:26:21Z</time>
      </trkpt>
      <trkpt lat="43.70244" lon="6.73662">
        <ele>856.5</ele>
        <time>2020-02-09T12:26:24Z</time>
      </trkpt>
      <trkpt lat="43.70239" lon="6.73659">
        <ele>856.7</ele>
        <time>2020-02-09T12:26:25Z</time>
      </trkpt>
      <trkpt lat="43.70236" lon="6.73657">
        <ele>856.8</ele>
        <time>2020-02-09T12:26:26Z</time>
      </trkpt>
      <trkpt lat="43.70233" lon="6.73655">
        <ele>856.9</ele>
        <time>2020-02-09T12:26:29Z</time>
      </trkpt>
      <trkpt lat="43.7023" lon="6.73653">
        <ele>856.9</ele>
        <time>2020-02-09T12:26:30Z</time>
      </trkpt>
      <trkpt lat="43.70227" lon="6.73649">
        <ele>857</ele>
        <time>2020-02-09T12:26:31Z</time>
      </trkpt>
      <trkpt lat="43.70219" lon="6.73634">
        <ele>857.1</ele>
        <time>2020-02-09T12:26:34Z</time>
      </trkpt>
      <trkpt lat="43.70213" lon="6.73622">
        <ele>857</ele>
        <time>2020-02-09T12:26:37Z</time>
      </trkpt>
      <trkpt lat="43.70205" lon="6.73608">
        <ele>856.9</ele>
        <time>2020-02-09T12:26:39Z</time>
      </trkpt>
      <trkpt lat="43.70202" lon="6.73604">
        <ele>856.8</ele>
        <time>2020-02-09T12:26:40Z</time>
      </trkpt>
      <trkpt lat="43.70197" lon="6.73598">
        <ele>856.6</ele>
        <time>2020-02-09T12:26:42Z</time>
      </trkpt>
      <trkpt lat="43.70194" lon="6.73594">
        <ele>856.5</ele>
        <time>2020-02-09T12:26:43Z</time>
      </trkpt>
      <trkpt lat="43.70191" lon="6.73591">
        <ele>856.4</ele>
        <time>2020-02-09T12:26:44Z</time>
      </trkpt>
      <trkpt lat="43.70187" lon="6.73585">
        <ele>856.1</ele>
        <time>2020-02-09T12:26:46Z</time>
      </trkpt>
      <trkpt lat="43.70183" lon="6.73581">
        <ele>855.7</ele>
        <time>2020-02-09T12:26:47Z</time>
      </trkpt>
      <trkpt lat="43.70176" lon="6.73573">
        <ele>854.9</ele>
        <time>2020-02-09T12:26:49Z</time>
      </trkpt>
      <trkpt lat="43.70173" lon="6.7357">
        <ele>854.7</ele>
        <time>2020-02-09T12:26:50Z</time>
      </trkpt>
      <trkpt lat="43.70168" lon="6.73566">
        <ele>854.3</ele>
        <time>2020-02-09T12:26:51Z</time>
      </trkpt>
      <trkpt lat="43.70163" lon="6.7356">
        <ele>853.7</ele>
        <time>2020-02-09T12:26:52Z</time>
      </trkpt>
      <trkpt lat="43.70151" lon="6.73543">
        <ele>853.1</ele>
        <time>2020-02-09T12:26:54Z</time>
      </trkpt>
      <trkpt lat="43.70144" lon="6.73527">
        <ele>853.4</ele>
        <time>2020-02-09T12:26:56Z</time>
      </trkpt>
      <trkpt lat="43.70137" lon="6.73509">
        <ele>853.8</ele>
        <time>2020-02-09T12:26:58Z</time>
      </trkpt>
      <trkpt lat="43.70131" lon="6.73494">
        <ele>854.1</ele>
        <time>2020-02-09T12:27:00Z</time>
      </trkpt>
      <trkpt lat="43.70125" lon="6.73479">
        <ele>854.3</ele>
        <time>2020-02-09T12:27:02Z</time>
      </trkpt>
      <trkpt lat="43.70121" lon="6.73471">
        <ele>854.5</ele>
        <time>2020-02-09T12:27:03Z</time>
      </trkpt>
      <trkpt lat="43.70115" lon="6.73453">
        <ele>854.8</ele>
        <time>2020-02-09T12:27:05Z</time>
      </trkpt>
      <trkpt lat="43.7011" lon="6.73434">
        <ele>855.2</ele>
        <time>2020-02-09T12:27:07Z</time>
      </trkpt>
      <trkpt lat="43.70108" lon="6.73424">
        <ele>855.4</ele>
        <time>2020-02-09T12:27:08Z</time>
      </trkpt>
      <trkpt lat="43.70107" lon="6.73405">
        <ele>856.2</ele>
        <time>2020-02-09T12:27:10Z</time>
      </trkpt>
      <trkpt lat="43.70108" lon="6.73396">
        <ele>856.6</ele>
        <time>2020-02-09T12:27:11Z</time>
      </trkpt>
      <trkpt lat="43.70107" lon="6.7338">
        <ele>857.1</ele>
        <time>2020-02-09T12:27:13Z</time>
      </trkpt>
      <trkpt lat="43.70103" lon="6.73375">
        <ele>857.4</ele>
        <time>2020-02-09T12:27:14Z</time>
      </trkpt>
      <trkpt lat="43.70099" lon="6.7337">
        <ele>857.8</ele>
        <time>2020-02-09T12:27:15Z</time>
      </trkpt>
      <trkpt lat="43.70089" lon="6.73362">
        <ele>857.4</ele>
        <time>2020-02-09T12:27:17Z</time>
      </trkpt>
      <trkpt lat="43.70079" lon="6.73353">
        <ele>856.7</ele>
        <time>2020-02-09T12:27:19Z</time>
      </trkpt>
      <trkpt lat="43.7007" lon="6.73337">
        <ele>855.9</ele>
        <time>2020-02-09T12:27:21Z</time>
      </trkpt>
      <trkpt lat="43.70063" lon="6.73321">
        <ele>855.3</ele>
        <time>2020-02-09T12:27:23Z</time>
      </trkpt>
      <trkpt lat="43.70059" lon="6.73313">
        <ele>854.8</ele>
        <time>2020-02-09T12:27:24Z</time>
      </trkpt>
      <trkpt lat="43.70051" lon="6.73299">
        <ele>854.3</ele>
        <time>2020-02-09T12:27:26Z</time>
      </trkpt>
      <trkpt lat="43.70043" lon="6.73284">
        <ele>853.8</ele>
        <time>2020-02-09T12:27:28Z</time>
      </trkpt>
      <trkpt lat="43.70034" lon="6.73271">
        <ele>853.2</ele>
        <time>2020-02-09T12:27:30Z</time>
      </trkpt>
      <trkpt lat="43.7003" lon="6.73265">
        <ele>852.9</ele>
        <time>2020-02-09T12:27:31Z</time>
      </trkpt>
      <trkpt lat="43.70026" lon="6.73259">
        <ele>852.7</ele>
        <time>2020-02-09T12:27:32Z</time>
      </trkpt>
      <trkpt lat="43.70023" lon="6.73253">
        <ele>852.5</ele>
        <time>2020-02-09T12:27:33Z</time>
      </trkpt>
      <trkpt lat="43.7002" lon="6.73247">
        <ele>852.4</ele>
        <time>2020-02-09T12:27:34Z</time>
      </trkpt>
      <trkpt lat="43.70018" lon="6.7324">
        <ele>852.2</ele>
        <time>2020-02-09T12:27:35Z</time>
      </trkpt>
      <trkpt lat="43.70016" lon="6.73227">
        <ele>851.9</ele>
        <time>2020-02-09T12:27:37Z</time>
      </trkpt>
      <trkpt lat="43.70015" lon="6.73221">
        <ele>851.7</ele>
        <time>2020-02-09T12:27:38Z</time>
      </trkpt>
      <trkpt lat="43.70015" lon="6.73214">
        <ele>851.5</ele>
        <time>2020-02-09T12:27:39Z</time>
      </trkpt>
      <trkpt lat="43.70015" lon="6.73201">
        <ele>851.1</ele>
        <time>2020-02-09T12:27:41Z</time>
      </trkpt>
      <trkpt lat="43.70014" lon="6.73195">
        <ele>850.9</ele>
        <time>2020-02-09T12:27:42Z</time>
      </trkpt>
      <trkpt lat="43.70013" lon="6.7319">
        <ele>850.8</ele>
        <time>2020-02-09T12:27:43Z</time>
      </trkpt>
      <trkpt lat="43.7001" lon="6.7318">
        <ele>850.6</ele>
        <time>2020-02-09T12:27:45Z</time>
      </trkpt>
      <trkpt lat="43.70006" lon="6.73168">
        <ele>850.5</ele>
        <time>2020-02-09T12:27:47Z</time>
      </trkpt>
      <trkpt lat="43.70002" lon="6.73166">
        <ele>850.5</ele>
        <time>2020-02-09T12:27:49Z</time>
      </trkpt>
      <trkpt lat="43.7" lon="6.7316">
        <ele>850.5</ele>
        <time>2020-02-09T12:27:50Z</time>
      </trkpt>
      <trkpt lat="43.69998" lon="6.73154">
        <ele>850.4</ele>
        <time>2020-02-09T12:27:52Z</time>
      </trkpt>
      <trkpt lat="43.69996" lon="6.73143">
        <ele>850.5</ele>
        <time>2020-02-09T12:27:53Z</time>
      </trkpt>
      <trkpt lat="43.69995" lon="6.73133">
        <ele>850.5</ele>
        <time>2020-02-09T12:27:55Z</time>
      </trkpt>
      <trkpt lat="43.69995" lon="6.73127">
        <ele>850.6</ele>
        <time>2020-02-09T12:27:56Z</time>
      </trkpt>
      <trkpt lat="43.69993" lon="6.73112">
        <ele>850.7</ele>
        <time>2020-02-09T12:27:59Z</time>
      </trkpt>
      <trkpt lat="43.69991" lon="6.73102">
        <ele>851</ele>
        <time>2020-02-09T12:28:01Z</time>
      </trkpt>
      <trkpt lat="43.69988" lon="6.73093">
        <ele>851.3</ele>
        <time>2020-02-09T12:28:04Z</time>
      </trkpt>
      <trkpt lat="43.69985" lon="6.73084">
        <ele>851.4</ele>
        <time>2020-02-09T12:28:05Z</time>
      </trkpt>
      <trkpt lat="43.6998" lon="6.73079">
        <ele>851.5</ele>
        <time>2020-02-09T12:28:08Z</time>
      </trkpt>
      <trkpt lat="43.6997" lon="6.73076">
        <ele>851.7</ele>
        <time>2020-02-09T12:28:10Z</time>
      </trkpt>
      <trkpt lat="43.69967" lon="6.73076">
        <ele>851.7</ele>
        <time>2020-02-09T12:28:11Z</time>
      </trkpt>
      <trkpt lat="43.69958" lon="6.73075">
        <ele>851.5</ele>
        <time>2020-02-09T12:28:13Z</time>
      </trkpt>
      <trkpt lat="43.69951" lon="6.73073">
        <ele>851.2</ele>
        <time>2020-02-09T12:28:15Z</time>
      </trkpt>
      <trkpt lat="43.69944" lon="6.7307">
        <ele>850.8</ele>
        <time>2020-02-09T12:28:16Z</time>
      </trkpt>
      <trkpt lat="43.69928" lon="6.73059">
        <ele>849.1</ele>
        <time>2020-02-09T12:28:18Z</time>
      </trkpt>
      <trkpt lat="43.69923" lon="6.73039">
        <ele>847.3</ele>
        <time>2020-02-09T12:28:20Z</time>
      </trkpt>
      <trkpt lat="43.69921" lon="6.73015">
        <ele>844.4</ele>
        <time>2020-02-09T12:28:22Z</time>
      </trkpt>
      <trkpt lat="43.6992" lon="6.73001">
        <ele>843.3</ele>
        <time>2020-02-09T12:28:23Z</time>
      </trkpt>
      <trkpt lat="43.6992" lon="6.72986">
        <ele>841.9</ele>
        <time>2020-02-09T12:28:24Z</time>
      </trkpt>
      <trkpt lat="43.69914" lon="6.72961">
        <ele>840</ele>
        <time>2020-02-09T12:28:26Z</time>
      </trkpt>
      <trkpt lat="43.69906" lon="6.72954">
        <ele>839.3</ele>
        <time>2020-02-09T12:28:27Z</time>
      </trkpt>
      <trkpt lat="43.69891" lon="6.72947">
        <ele>838.1</ele>
        <time>2020-02-09T12:28:29Z</time>
      </trkpt>
      <trkpt lat="43.69876" lon="6.72937">
        <ele>837.3</ele>
        <time>2020-02-09T12:28:31Z</time>
      </trkpt>
      <trkpt lat="43.69864" lon="6.72928">
        <ele>836.5</ele>
        <time>2020-02-09T12:28:33Z</time>
      </trkpt>
      <trkpt lat="43.69858" lon="6.72924">
        <ele>836.2</ele>
        <time>2020-02-09T12:28:34Z</time>
      </trkpt>
      <trkpt lat="43.69852" lon="6.72922">
        <ele>836.1</ele>
        <time>2020-02-09T12:28:35Z</time>
      </trkpt>
      <trkpt lat="43.69841" lon="6.72919">
        <ele>835.8</ele>
        <time>2020-02-09T12:28:37Z</time>
      </trkpt>
      <trkpt lat="43.69835" lon="6.72918">
        <ele>835.7</ele>
        <time>2020-02-09T12:28:38Z</time>
      </trkpt>
      <trkpt lat="43.69823" lon="6.72917">
        <ele>835.3</ele>
        <time>2020-02-09T12:28:40Z</time>
      </trkpt>
      <trkpt lat="43.69812" lon="6.72916">
        <ele>835</ele>
        <time>2020-02-09T12:28:42Z</time>
      </trkpt>
      <trkpt lat="43.69806" lon="6.72915">
        <ele>834.9</ele>
        <time>2020-02-09T12:28:43Z</time>
      </trkpt>
      <trkpt lat="43.69801" lon="6.72915">
        <ele>834.8</ele>
        <time>2020-02-09T12:28:44Z</time>
      </trkpt>
      <trkpt lat="43.69796" lon="6.72915">
        <ele>834.7</ele>
        <time>2020-02-09T12:28:45Z</time>
      </trkpt>
      <trkpt lat="43.69791" lon="6.72914">
        <ele>834.5</ele>
        <time>2020-02-09T12:28:46Z</time>
      </trkpt>
      <trkpt lat="43.69781" lon="6.72913">
        <ele>834.1</ele>
        <time>2020-02-09T12:28:48Z</time>
      </trkpt>
      <trkpt lat="43.69772" lon="6.72913">
        <ele>833.8</ele>
        <time>2020-02-09T12:28:50Z</time>
      </trkpt>
      <trkpt lat="43.69768" lon="6.72913">
        <ele>833.6</ele>
        <time>2020-02-09T12:28:51Z</time>
      </trkpt>
      <trkpt lat="43.6976" lon="6.72912">
        <ele>833.4</ele>
        <time>2020-02-09T12:28:53Z</time>
      </trkpt>
      <trkpt lat="43.69755" lon="6.72911">
        <ele>833.2</ele>
        <time>2020-02-09T12:28:54Z</time>
      </trkpt>
      <trkpt lat="43.69747" lon="6.72909">
        <ele>832.9</ele>
        <time>2020-02-09T12:28:56Z</time>
      </trkpt>
      <trkpt lat="43.69738" lon="6.72907">
        <ele>832.6</ele>
        <time>2020-02-09T12:28:58Z</time>
      </trkpt>
      <trkpt lat="43.6973" lon="6.72905">
        <ele>832.4</ele>
        <time>2020-02-09T12:29:00Z</time>
      </trkpt>
      <trkpt lat="43.69726" lon="6.72903">
        <ele>832.3</ele>
        <time>2020-02-09T12:29:01Z</time>
      </trkpt>
      <trkpt lat="43.69722" lon="6.729">
        <ele>832.2</ele>
        <time>2020-02-09T12:29:02Z</time>
      </trkpt>
      <trkpt lat="43.69715" lon="6.72897">
        <ele>832.1</ele>
        <time>2020-02-09T12:29:05Z</time>
      </trkpt>
      <trkpt lat="43.69703" lon="6.72888">
        <ele>831.8</ele>
        <time>2020-02-09T12:29:07Z</time>
      </trkpt>
      <trkpt lat="43.69699" lon="6.72884">
        <ele>831.6</ele>
        <time>2020-02-09T12:29:08Z</time>
      </trkpt>
      <trkpt lat="43.69695" lon="6.72879">
        <ele>831.6</ele>
        <time>2020-02-09T12:29:11Z</time>
      </trkpt>
      <trkpt lat="43.69691" lon="6.72875">
        <ele>831.6</ele>
        <time>2020-02-09T12:29:12Z</time>
      </trkpt>
      <trkpt lat="43.69679" lon="6.7286">
        <ele>831.7</ele>
        <time>2020-02-09T12:29:14Z</time>
      </trkpt>
      <trkpt lat="43.69674" lon="6.72852">
        <ele>831.8</ele>
        <time>2020-02-09T12:29:17Z</time>
      </trkpt>
      <trkpt lat="43.69666" lon="6.72842">
        <ele>831.8</ele>
        <time>2020-02-09T12:29:19Z</time>
      </trkpt>
      <trkpt lat="43.69658" lon="6.72829">
        <ele>832</ele>
        <time>2020-02-09T12:29:21Z</time>
      </trkpt>
      <trkpt lat="43.69653" lon="6.72821">
        <ele>832</ele>
        <time>2020-02-09T12:29:24Z</time>
      </trkpt>
      <trkpt lat="43.69647" lon="6.72806">
        <ele>832.1</ele>
        <time>2020-02-09T12:29:25Z</time>
      </trkpt>
      <trkpt lat="43.69643" lon="6.72797">
        <ele>832.2</ele>
        <time>2020-02-09T12:29:28Z</time>
      </trkpt>
      <trkpt lat="43.69638" lon="6.72782">
        <ele>832.3</ele>
        <time>2020-02-09T12:29:31Z</time>
      </trkpt>
      <trkpt lat="43.69635" lon="6.72776">
        <ele>832.3</ele>
        <time>2020-02-09T12:29:32Z</time>
      </trkpt>
      <trkpt lat="43.69631" lon="6.72764">
        <ele>832.4</ele>
        <time>2020-02-09T12:29:33Z</time>
      </trkpt>
      <trkpt lat="43.69629" lon="6.72758">
        <ele>832.4</ele>
        <time>2020-02-09T12:29:34Z</time>
      </trkpt>
      <trkpt lat="43.69626" lon="6.72751">
        <ele>832</ele>
        <time>2020-02-09T12:29:37Z</time>
      </trkpt>
      <trkpt lat="43.69624" lon="6.72746">
        <ele>831.9</ele>
        <time>2020-02-09T12:29:38Z</time>
      </trkpt>
      <trkpt lat="43.69616" lon="6.7273">
        <ele>831.6</ele>
        <time>2020-02-09T12:29:40Z</time>
      </trkpt>
      <trkpt lat="43.69612" lon="6.72723">
        <ele>831.3</ele>
        <time>2020-02-09T12:29:43Z</time>
      </trkpt>
      <trkpt lat="43.69609" lon="6.72717">
        <ele>831</ele>
        <time>2020-02-09T12:29:44Z</time>
      </trkpt>
      <trkpt lat="43.69601" lon="6.727">
        <ele>830.3</ele>
        <time>2020-02-09T12:29:46Z</time>
      </trkpt>
      <trkpt lat="43.69594" lon="6.72687">
        <ele>829.7</ele>
        <time>2020-02-09T12:29:48Z</time>
      </trkpt>
      <trkpt lat="43.6959" lon="6.7268">
        <ele>829.2</ele>
        <time>2020-02-09T12:29:49Z</time>
      </trkpt>
      <trkpt lat="43.69583" lon="6.72667">
        <ele>828.6</ele>
        <time>2020-02-09T12:29:51Z</time>
      </trkpt>
      <trkpt lat="43.69575" lon="6.72656">
        <ele>827.8</ele>
        <time>2020-02-09T12:29:53Z</time>
      </trkpt>
      <trkpt lat="43.69566" lon="6.72646">
        <ele>826.9</ele>
        <time>2020-02-09T12:29:55Z</time>
      </trkpt>
      <trkpt lat="43.69562" lon="6.72641">
        <ele>826.5</ele>
        <time>2020-02-09T12:29:56Z</time>
      </trkpt>
      <trkpt lat="43.69556" lon="6.72637">
        <ele>826</ele>
        <time>2020-02-09T12:29:58Z</time>
      </trkpt>
      <trkpt lat="43.69554" lon="6.72643">
        <ele>825.4</ele>
        <time>2020-02-09T12:30:01Z</time>
      </trkpt>
      <trkpt lat="43.69554" lon="6.72647">
        <ele>825.4</ele>
        <time>2020-02-09T12:30:02Z</time>
      </trkpt>
      <trkpt lat="43.69555" lon="6.72655">
        <ele>825.7</ele>
        <time>2020-02-09T12:30:04Z</time>
      </trkpt>
      <trkpt lat="43.69556" lon="6.7266">
        <ele>825.7</ele>
        <time>2020-02-09T12:30:05Z</time>
      </trkpt>
      <trkpt lat="43.69557" lon="6.72665">
        <ele>825.8</ele>
        <time>2020-02-09T12:30:06Z</time>
      </trkpt>
      <trkpt lat="43.69558" lon="6.72673">
        <ele>825.9</ele>
        <time>2020-02-09T12:30:09Z</time>
      </trkpt>
      <trkpt lat="43.69558" lon="6.72678">
        <ele>825.8</ele>
        <time>2020-02-09T12:30:10Z</time>
      </trkpt>
      <trkpt lat="43.69556" lon="6.72689">
        <ele>825.6</ele>
        <time>2020-02-09T12:30:13Z</time>
      </trkpt>
      <trkpt lat="43.69552" lon="6.72697">
        <ele>825.4</ele>
        <time>2020-02-09T12:30:14Z</time>
      </trkpt>
      <trkpt lat="43.69545" lon="6.72705">
        <ele>825.2</ele>
        <time>2020-02-09T12:30:17Z</time>
      </trkpt>
      <trkpt lat="43.6954" lon="6.72709">
        <ele>825</ele>
        <time>2020-02-09T12:30:18Z</time>
      </trkpt>
      <trkpt lat="43.69535" lon="6.72713">
        <ele>824.8</ele>
        <time>2020-02-09T12:30:19Z</time>
      </trkpt>
      <trkpt lat="43.69527" lon="6.72719">
        <ele>824.5</ele>
        <time>2020-02-09T12:30:21Z</time>
      </trkpt>
      <trkpt lat="43.69522" lon="6.72723">
        <ele>824.3</ele>
        <time>2020-02-09T12:30:22Z</time>
      </trkpt>
      <trkpt lat="43.69501" lon="6.72742">
        <ele>823.2</ele>
        <time>2020-02-09T12:30:24Z</time>
      </trkpt>
      <trkpt lat="43.69496" lon="6.72746">
        <ele>823</ele>
        <time>2020-02-09T12:30:25Z</time>
      </trkpt>
      <trkpt lat="43.69485" lon="6.72754">
        <ele>822.5</ele>
        <time>2020-02-09T12:30:27Z</time>
      </trkpt>
      <trkpt lat="43.6948" lon="6.72758">
        <ele>822.2</ele>
        <time>2020-02-09T12:30:28Z</time>
      </trkpt>
      <trkpt lat="43.69469" lon="6.72766">
        <ele>821.6</ele>
        <time>2020-02-09T12:30:30Z</time>
      </trkpt>
      <trkpt lat="43.69458" lon="6.72773">
        <ele>821.1</ele>
        <time>2020-02-09T12:30:32Z</time>
      </trkpt>
      <trkpt lat="43.69454" lon="6.72776">
        <ele>820.7</ele>
        <time>2020-02-09T12:30:33Z</time>
      </trkpt>
      <trkpt lat="43.69445" lon="6.72783">
        <ele>820.2</ele>
        <time>2020-02-09T12:30:35Z</time>
      </trkpt>
      <trkpt lat="43.69436" lon="6.72789">
        <ele>819.8</ele>
        <time>2020-02-09T12:30:37Z</time>
      </trkpt>
      <trkpt lat="43.69431" lon="6.72792">
        <ele>819.6</ele>
        <time>2020-02-09T12:30:38Z</time>
      </trkpt>
      <trkpt lat="43.69422" lon="6.72795">
        <ele>819.2</ele>
        <time>2020-02-09T12:30:40Z</time>
      </trkpt>
      <trkpt lat="43.69412" lon="6.72797">
        <ele>818.7</ele>
        <time>2020-02-09T12:30:42Z</time>
      </trkpt>
      <trkpt lat="43.69404" lon="6.72798">
        <ele>818.4</ele>
        <time>2020-02-09T12:30:44Z</time>
      </trkpt>
      <trkpt lat="43.69399" lon="6.72796">
        <ele>818.2</ele>
        <time>2020-02-09T12:30:45Z</time>
      </trkpt>
      <trkpt lat="43.69392" lon="6.72792">
        <ele>817.9</ele>
        <time>2020-02-09T12:30:47Z</time>
      </trkpt>
      <trkpt lat="43.6939" lon="6.72794">
        <ele>817.8</ele>
        <time>2020-02-09T12:30:48Z</time>
      </trkpt>
      <trkpt lat="43.69387" lon="6.72797">
        <ele>817.7</ele>
        <time>2020-02-09T12:30:49Z</time>
      </trkpt>
      <trkpt lat="43.69385" lon="6.72802">
        <ele>817.6</ele>
        <time>2020-02-09T12:30:50Z</time>
      </trkpt>
      <trkpt lat="43.69381" lon="6.72809">
        <ele>817.4</ele>
        <time>2020-02-09T12:30:52Z</time>
      </trkpt>
      <trkpt lat="43.69378" lon="6.7281">
        <ele>817.3</ele>
        <time>2020-02-09T12:30:56Z</time>
      </trkpt>
      <trkpt lat="43.69375" lon="6.72812">
        <ele>817.1</ele>
        <time>2020-02-09T12:30:57Z</time>
      </trkpt>
      <trkpt lat="43.69372" lon="6.72814">
        <ele>816.9</ele>
        <time>2020-02-09T12:30:58Z</time>
      </trkpt>
      <trkpt lat="43.69366" lon="6.72819">
        <ele>816.7</ele>
        <time>2020-02-09T12:31:00Z</time>
      </trkpt>
      <trkpt lat="43.69362" lon="6.72824">
        <ele>816.6</ele>
        <time>2020-02-09T12:31:01Z</time>
      </trkpt>
      <trkpt lat="43.69359" lon="6.72833">
        <ele>816.5</ele>
        <time>2020-02-09T12:31:03Z</time>
      </trkpt>
      <trkpt lat="43.69359" lon="6.72839">
        <ele>816.5</ele>
        <time>2020-02-09T12:31:04Z</time>
      </trkpt>
      <trkpt lat="43.69358" lon="6.72845">
        <ele>816.5</ele>
        <time>2020-02-09T12:31:05Z</time>
      </trkpt>
      <trkpt lat="43.69359" lon="6.72858">
        <ele>816.6</ele>
        <time>2020-02-09T12:31:06Z</time>
      </trkpt>
      <trkpt lat="43.69359" lon="6.72865">
        <ele>816.6</ele>
        <time>2020-02-09T12:31:07Z</time>
      </trkpt>
      <trkpt lat="43.69359" lon="6.72874">
        <ele>816.7</ele>
        <time>2020-02-09T12:31:10Z</time>
      </trkpt>
      <trkpt lat="43.69359" lon="6.7288">
        <ele>816.7</ele>
        <time>2020-02-09T12:31:11Z</time>
      </trkpt>
      <trkpt lat="43.6936" lon="6.72886">
        <ele>816.8</ele>
        <time>2020-02-09T12:31:12Z</time>
      </trkpt>
      <trkpt lat="43.69361" lon="6.72898">
        <ele>816.9</ele>
        <time>2020-02-09T12:31:14Z</time>
      </trkpt>
      <trkpt lat="43.6936" lon="6.72908">
        <ele>816.9</ele>
        <time>2020-02-09T12:31:15Z</time>
      </trkpt>
      <trkpt lat="43.69357" lon="6.72914">
        <ele>816.8</ele>
        <time>2020-02-09T12:31:17Z</time>
      </trkpt>
      <trkpt lat="43.69356" lon="6.72919">
        <ele>816.7</ele>
        <time>2020-02-09T12:31:19Z</time>
      </trkpt>
      <trkpt lat="43.69353" lon="6.72933">
        <ele>816.5</ele>
        <time>2020-02-09T12:31:21Z</time>
      </trkpt>
      <trkpt lat="43.69351" lon="6.72939">
        <ele>816.4</ele>
        <time>2020-02-09T12:31:22Z</time>
      </trkpt>
      <trkpt lat="43.69348" lon="6.72944">
        <ele>816.2</ele>
        <time>2020-02-09T12:31:24Z</time>
      </trkpt>
      <trkpt lat="43.69346" lon="6.72949">
        <ele>816</ele>
        <time>2020-02-09T12:31:25Z</time>
      </trkpt>
      <trkpt lat="43.69344" lon="6.72954">
        <ele>815.9</ele>
        <time>2020-02-09T12:31:26Z</time>
      </trkpt>
      <trkpt lat="43.69341" lon="6.72966">
        <ele>815.5</ele>
        <time>2020-02-09T12:31:27Z</time>
      </trkpt>
      <trkpt lat="43.69337" lon="6.72975">
        <ele>815.3</ele>
        <time>2020-02-09T12:31:30Z</time>
      </trkpt>
      <trkpt lat="43.69331" lon="6.72983">
        <ele>815</ele>
        <time>2020-02-09T12:31:32Z</time>
      </trkpt>
      <trkpt lat="43.69328" lon="6.72988">
        <ele>814.8</ele>
        <time>2020-02-09T12:31:33Z</time>
      </trkpt>
      <trkpt lat="43.69325" lon="6.72992">
        <ele>814.6</ele>
        <time>2020-02-09T12:31:34Z</time>
      </trkpt>
      <trkpt lat="43.69322" lon="6.72997">
        <ele>814.4</ele>
        <time>2020-02-09T12:31:35Z</time>
      </trkpt>
      <trkpt lat="43.69313" lon="6.73009">
        <ele>813.9</ele>
        <time>2020-02-09T12:31:38Z</time>
      </trkpt>
      <trkpt lat="43.6931" lon="6.73012">
        <ele>813.7</ele>
        <time>2020-02-09T12:31:39Z</time>
      </trkpt>
      <trkpt lat="43.69306" lon="6.73014">
        <ele>813.4</ele>
        <time>2020-02-09T12:31:40Z</time>
      </trkpt>
      <trkpt lat="43.69299" lon="6.73016">
        <ele>813.1</ele>
        <time>2020-02-09T12:31:43Z</time>
      </trkpt>
      <trkpt lat="43.69294" lon="6.73017">
        <ele>812.9</ele>
        <time>2020-02-09T12:31:44Z</time>
      </trkpt>
      <trkpt lat="43.69288" lon="6.73017">
        <ele>812.6</ele>
        <time>2020-02-09T12:31:45Z</time>
      </trkpt>
      <trkpt lat="43.69279" lon="6.7302">
        <ele>812</ele>
        <time>2020-02-09T12:31:46Z</time>
      </trkpt>
      <trkpt lat="43.69275" lon="6.73025">
        <ele>811.8</ele>
        <time>2020-02-09T12:31:49Z</time>
      </trkpt>
      <trkpt lat="43.69271" lon="6.73029">
        <ele>811.4</ele>
        <time>2020-02-09T12:31:50Z</time>
      </trkpt>
      <trkpt lat="43.69264" lon="6.73044">
        <ele>810.3</ele>
        <time>2020-02-09T12:31:53Z</time>
      </trkpt>
      <trkpt lat="43.69262" lon="6.7305">
        <ele>809.9</ele>
        <time>2020-02-09T12:31:54Z</time>
      </trkpt>
      <trkpt lat="43.6926" lon="6.73056">
        <ele>809.6</ele>
        <time>2020-02-09T12:31:55Z</time>
      </trkpt>
      <trkpt lat="43.69256" lon="6.73073">
        <ele>808.4</ele>
        <time>2020-02-09T12:31:58Z</time>
      </trkpt>
      <trkpt lat="43.69255" lon="6.73079">
        <ele>808</ele>
        <time>2020-02-09T12:31:59Z</time>
      </trkpt>
      <trkpt lat="43.69253" lon="6.73096">
        <ele>807.2</ele>
        <time>2020-02-09T12:32:02Z</time>
      </trkpt>
      <trkpt lat="43.69251" lon="6.73102">
        <ele>806.7</ele>
        <time>2020-02-09T12:32:03Z</time>
      </trkpt>
      <trkpt lat="43.69247" lon="6.73121">
        <ele>805.4</ele>
        <time>2020-02-09T12:32:06Z</time>
      </trkpt>
      <trkpt lat="43.69244" lon="6.73125">
        <ele>805.1</ele>
        <time>2020-02-09T12:32:07Z</time>
      </trkpt>
      <trkpt lat="43.69238" lon="6.73132">
        <ele>804.2</ele>
        <time>2020-02-09T12:32:09Z</time>
      </trkpt>
      <trkpt lat="43.69231" lon="6.73132">
        <ele>803.4</ele>
        <time>2020-02-09T12:32:10Z</time>
      </trkpt>
      <trkpt lat="43.69225" lon="6.7313">
        <ele>802.5</ele>
        <time>2020-02-09T12:32:11Z</time>
      </trkpt>
      <trkpt lat="43.69201" lon="6.73128">
        <ele>799.8</ele>
        <time>2020-02-09T12:32:13Z</time>
      </trkpt>
      <trkpt lat="43.69194" lon="6.73129">
        <ele>799</ele>
        <time>2020-02-09T12:32:14Z</time>
      </trkpt>
      <trkpt lat="43.69182" lon="6.73136">
        <ele>797.1</ele>
        <time>2020-02-09T12:32:16Z</time>
      </trkpt>
      <trkpt lat="43.69177" lon="6.7314">
        <ele>796.2</ele>
        <time>2020-02-09T12:32:17Z</time>
      </trkpt>
      <trkpt lat="43.69164" lon="6.73146">
        <ele>794.2</ele>
        <time>2020-02-09T12:32:19Z</time>
      </trkpt>
      <trkpt lat="43.69157" lon="6.7315">
        <ele>793.2</ele>
        <time>2020-02-09T12:32:20Z</time>
      </trkpt>
      <trkpt lat="43.69145" lon="6.73162">
        <ele>791.1</ele>
        <time>2020-02-09T12:32:22Z</time>
      </trkpt>
      <trkpt lat="43.6914" lon="6.73172">
        <ele>790.1</ele>
        <time>2020-02-09T12:32:23Z</time>
      </trkpt>
      <trkpt lat="43.69136" lon="6.73191">
        <ele>788.3</ele>
        <time>2020-02-09T12:32:25Z</time>
      </trkpt>
      <trkpt lat="43.69131" lon="6.73202">
        <ele>787.1</ele>
        <time>2020-02-09T12:32:27Z</time>
      </trkpt>
      <trkpt lat="43.69125" lon="6.73208">
        <ele>786.3</ele>
        <time>2020-02-09T12:32:30Z</time>
      </trkpt>
      <trkpt lat="43.69119" lon="6.73213">
        <ele>786.4</ele>
        <time>2020-02-09T12:32:32Z</time>
      </trkpt>
      <trkpt lat="43.69111" lon="6.73227">
        <ele>786.3</ele>
        <time>2020-02-09T12:32:35Z</time>
      </trkpt>
      <trkpt lat="43.69104" lon="6.73243">
        <ele>786</ele>
        <time>2020-02-09T12:32:37Z</time>
      </trkpt>
      <trkpt lat="43.69103" lon="6.73252">
        <ele>785.8</ele>
        <time>2020-02-09T12:32:38Z</time>
      </trkpt>
      <trkpt lat="43.691" lon="6.73267">
        <ele>785.3</ele>
        <time>2020-02-09T12:32:40Z</time>
      </trkpt>
      <trkpt lat="43.69098" lon="6.73282">
        <ele>784.6</ele>
        <time>2020-02-09T12:32:42Z</time>
      </trkpt>
      <trkpt lat="43.69097" lon="6.7329">
        <ele>784.2</ele>
        <time>2020-02-09T12:32:43Z</time>
      </trkpt>
      <trkpt lat="43.69096" lon="6.73302">
        <ele>783.8</ele>
        <time>2020-02-09T12:32:45Z</time>
      </trkpt>
      <trkpt lat="43.69095" lon="6.73308">
        <ele>783.5</ele>
        <time>2020-02-09T12:32:46Z</time>
      </trkpt>
      <trkpt lat="43.69094" lon="6.73323">
        <ele>782.8</ele>
        <time>2020-02-09T12:32:48Z</time>
      </trkpt>
      <trkpt lat="43.69091" lon="6.73342">
        <ele>781.6</ele>
        <time>2020-02-09T12:32:50Z</time>
      </trkpt>
      <trkpt lat="43.6909" lon="6.73353">
        <ele>781</ele>
        <time>2020-02-09T12:32:51Z</time>
      </trkpt>
      <trkpt lat="43.69086" lon="6.73373">
        <ele>779.5</ele>
        <time>2020-02-09T12:32:53Z</time>
      </trkpt>
      <trkpt lat="43.69084" lon="6.73384">
        <ele>778.7</ele>
        <time>2020-02-09T12:32:54Z</time>
      </trkpt>
      <trkpt lat="43.69081" lon="6.73403">
        <ele>777</ele>
        <time>2020-02-09T12:32:56Z</time>
      </trkpt>
      <trkpt lat="43.69076" lon="6.7342">
        <ele>775.5</ele>
        <time>2020-02-09T12:32:58Z</time>
      </trkpt>
      <trkpt lat="43.69068" lon="6.73426">
        <ele>774.4</ele>
        <time>2020-02-09T12:33:00Z</time>
      </trkpt>
      <trkpt lat="43.69061" lon="6.73422">
        <ele>773.1</ele>
        <time>2020-02-09T12:33:02Z</time>
      </trkpt>
      <trkpt lat="43.69056" lon="6.73427">
        <ele>771.8</ele>
        <time>2020-02-09T12:33:04Z</time>
      </trkpt>
      <trkpt lat="43.69056" lon="6.73439">
        <ele>770.4</ele>
        <time>2020-02-09T12:33:06Z</time>
      </trkpt>
      <trkpt lat="43.69057" lon="6.73444">
        <ele>769.5</ele>
        <time>2020-02-09T12:33:07Z</time>
      </trkpt>
      <trkpt lat="43.69062" lon="6.73451">
        <ele>768.7</ele>
        <time>2020-02-09T12:33:10Z</time>
      </trkpt>
      <trkpt lat="43.69068" lon="6.73454">
        <ele>767.9</ele>
        <time>2020-02-09T12:33:12Z</time>
      </trkpt>
      <trkpt lat="43.69076" lon="6.73462">
        <ele>767</ele>
        <time>2020-02-09T12:33:15Z</time>
      </trkpt>
      <trkpt lat="43.69081" lon="6.73474">
        <ele>766.4</ele>
        <time>2020-02-09T12:33:18Z</time>
      </trkpt>
      <trkpt lat="43.69084" lon="6.73482">
        <ele>766</ele>
        <time>2020-02-09T12:33:20Z</time>
      </trkpt>
      <trkpt lat="43.69085" lon="6.73486">
        <ele>765.8</ele>
        <time>2020-02-09T12:33:22Z</time>
      </trkpt>
      <trkpt lat="43.69085" lon="6.73497">
        <ele>765.5</ele>
        <time>2020-02-09T12:33:25Z</time>
      </trkpt>
      <trkpt lat="43.69083" lon="6.73502">
        <ele>765.4</ele>
        <time>2020-02-09T12:33:26Z</time>
      </trkpt>
      <trkpt lat="43.69081" lon="6.73507">
        <ele>765.3</ele>
        <time>2020-02-09T12:33:27Z</time>
      </trkpt>
      <trkpt lat="43.69079" lon="6.73513">
        <ele>765.2</ele>
        <time>2020-02-09T12:33:28Z</time>
      </trkpt>
      <trkpt lat="43.69077" lon="6.73522">
        <ele>765.1</ele>
        <time>2020-02-09T12:33:29Z</time>
      </trkpt>
      <trkpt lat="43.69076" lon="6.73529">
        <ele>765.1</ele>
        <time>2020-02-09T12:33:31Z</time>
      </trkpt>
      <trkpt lat="43.69075" lon="6.73544">
        <ele>764.8</ele>
        <time>2020-02-09T12:33:34Z</time>
      </trkpt>
      <trkpt lat="43.69077" lon="6.73556">
        <ele>764.6</ele>
        <time>2020-02-09T12:33:37Z</time>
      </trkpt>
      <trkpt lat="43.69078" lon="6.73561">
        <ele>764.5</ele>
        <time>2020-02-09T12:33:38Z</time>
      </trkpt>
      <trkpt lat="43.69079" lon="6.73574">
        <ele>764.3</ele>
        <time>2020-02-09T12:33:41Z</time>
      </trkpt>
      <trkpt lat="43.6908" lon="6.7358">
        <ele>764.2</ele>
        <time>2020-02-09T12:33:42Z</time>
      </trkpt>
      <trkpt lat="43.6908" lon="6.73595">
        <ele>763.6</ele>
        <time>2020-02-09T12:33:45Z</time>
      </trkpt>
      <trkpt lat="43.69079" lon="6.73609">
        <ele>762.5</ele>
        <time>2020-02-09T12:33:46Z</time>
      </trkpt>
      <trkpt lat="43.69078" lon="6.73623">
        <ele>761.4</ele>
        <time>2020-02-09T12:33:50Z</time>
      </trkpt>
      <trkpt lat="43.69081" lon="6.73634">
        <ele>760.4</ele>
        <time>2020-02-09T12:33:53Z</time>
      </trkpt>
      <trkpt lat="43.69082" lon="6.73638">
        <ele>760.1</ele>
        <time>2020-02-09T12:33:54Z</time>
      </trkpt>
      <trkpt lat="43.69081" lon="6.73642">
        <ele>759.8</ele>
        <time>2020-02-09T12:33:57Z</time>
      </trkpt>
      <trkpt lat="43.6908" lon="6.73646">
        <ele>759.2</ele>
        <time>2020-02-09T12:34:02Z</time>
      </trkpt>
      <trkpt lat="43.69079" lon="6.73652">
        <ele>758.8</ele>
        <time>2020-02-09T12:34:06Z</time>
      </trkpt>
      <trkpt lat="43.69076" lon="6.73658">
        <ele>758.3</ele>
        <time>2020-02-09T12:34:09Z</time>
      </trkpt>
      <trkpt lat="43.69071" lon="6.73671">
        <ele>757.1</ele>
        <time>2020-02-09T12:34:10Z</time>
      </trkpt>
      <trkpt lat="43.69068" lon="6.73681">
        <ele>756.2</ele>
        <time>2020-02-09T12:34:12Z</time>
      </trkpt>
      <trkpt lat="43.69064" lon="6.73709">
        <ele>753.4</ele>
        <time>2020-02-09T12:34:14Z</time>
      </trkpt>
      <trkpt lat="43.69062" lon="6.73736">
        <ele>750.5</ele>
        <time>2020-02-09T12:34:16Z</time>
      </trkpt>
      <trkpt lat="43.69061" lon="6.73748">
        <ele>749.3</ele>
        <time>2020-02-09T12:34:17Z</time>
      </trkpt>
      <trkpt lat="43.69059" lon="6.73767">
        <ele>747.2</ele>
        <time>2020-02-09T12:34:19Z</time>
      </trkpt>
      <trkpt lat="43.69056" lon="6.73774">
        <ele>746.3</ele>
        <time>2020-02-09T12:34:20Z</time>
      </trkpt>
      <trkpt lat="43.69045" lon="6.73775">
        <ele>746.2</ele>
        <time>2020-02-09T12:34:22Z</time>
      </trkpt>
      <trkpt lat="43.69039" lon="6.73774">
        <ele>746.2</ele>
        <time>2020-02-09T12:34:23Z</time>
      </trkpt>
      <trkpt lat="43.69028" lon="6.73771">
        <ele>746.2</ele>
        <time>2020-02-09T12:34:25Z</time>
      </trkpt>
      <trkpt lat="43.69023" lon="6.73769">
        <ele>746.2</ele>
        <time>2020-02-09T12:34:26Z</time>
      </trkpt>
      <trkpt lat="43.69018" lon="6.73766">
        <ele>746.3</ele>
        <time>2020-02-09T12:34:27Z</time>
      </trkpt>
      <trkpt lat="43.69006" lon="6.73757">
        <ele>746.8</ele>
        <time>2020-02-09T12:34:29Z</time>
      </trkpt>
      <trkpt lat="43.68993" lon="6.73746">
        <ele>747.5</ele>
        <time>2020-02-09T12:34:31Z</time>
      </trkpt>
      <trkpt lat="43.68986" lon="6.73741">
        <ele>747.8</ele>
        <time>2020-02-09T12:34:32Z</time>
      </trkpt>
      <trkpt lat="43.68973" lon="6.7373">
        <ele>748.3</ele>
        <time>2020-02-09T12:34:34Z</time>
      </trkpt>
      <trkpt lat="43.68967" lon="6.73724">
        <ele>748.5</ele>
        <time>2020-02-09T12:34:35Z</time>
      </trkpt>
      <trkpt lat="43.68958" lon="6.73718">
        <ele>748</ele>
        <time>2020-02-09T12:34:37Z</time>
      </trkpt>
      <trkpt lat="43.68951" lon="6.73723">
        <ele>746.8</ele>
        <time>2020-02-09T12:34:39Z</time>
      </trkpt>
      <trkpt lat="43.68944" lon="6.73731">
        <ele>745.5</ele>
        <time>2020-02-09T12:34:41Z</time>
      </trkpt>
      <trkpt lat="43.68939" lon="6.73735">
        <ele>744.7</ele>
        <time>2020-02-09T12:34:42Z</time>
      </trkpt>
      <trkpt lat="43.68934" lon="6.73742">
        <ele>743.8</ele>
        <time>2020-02-09T12:34:43Z</time>
      </trkpt>
      <trkpt lat="43.68926" lon="6.73758">
        <ele>741.9</ele>
        <time>2020-02-09T12:34:45Z</time>
      </trkpt>
      <trkpt lat="43.6892" lon="6.73761">
        <ele>740.9</ele>
        <time>2020-02-09T12:34:46Z</time>
      </trkpt>
      <trkpt lat="43.68909" lon="6.73756">
        <ele>736.9</ele>
        <time>2020-02-09T12:34:48Z</time>
      </trkpt>
      <trkpt lat="43.689" lon="6.73746">
        <ele>733.6</ele>
        <time>2020-02-09T12:34:50Z</time>
      </trkpt>
      <trkpt lat="43.68896" lon="6.73746">
        <ele>732.6</ele>
        <time>2020-02-09T12:34:51Z</time>
      </trkpt>
      <trkpt lat="43.68891" lon="6.73752">
        <ele>730.5</ele>
        <time>2020-02-09T12:34:53Z</time>
      </trkpt>
      <trkpt lat="43.68888" lon="6.73754">
        <ele>729.3</ele>
        <time>2020-02-09T12:34:54Z</time>
      </trkpt>
      <trkpt lat="43.68881" lon="6.7376">
        <ele>726.7</ele>
        <time>2020-02-09T12:34:56Z</time>
      </trkpt>
      <trkpt lat="43.68879" lon="6.73763">
        <ele>726.1</ele>
        <time>2020-02-09T12:34:57Z</time>
      </trkpt>
      <trkpt lat="43.68875" lon="6.73761">
        <ele>725.2</ele>
        <time>2020-02-09T12:35:01Z</time>
      </trkpt>
      <trkpt lat="43.68873" lon="6.73764">
        <ele>724.6</ele>
        <time>2020-02-09T12:35:03Z</time>
      </trkpt>
      <trkpt lat="43.68873" lon="6.73768">
        <ele>724</ele>
        <time>2020-02-09T12:35:04Z</time>
      </trkpt>
      <trkpt lat="43.6887" lon="6.73795">
        <ele>720.2</ele>
        <time>2020-02-09T12:35:06Z</time>
      </trkpt>
      <trkpt lat="43.68872" lon="6.73801">
        <ele>719.2</ele>
        <time>2020-02-09T12:35:07Z</time>
      </trkpt>
      <trkpt lat="43.68874" lon="6.73809">
        <ele>717.7</ele>
        <time>2020-02-09T12:35:10Z</time>
      </trkpt>
      <trkpt lat="43.68871" lon="6.73813">
        <ele>716.6</ele>
        <time>2020-02-09T12:35:12Z</time>
      </trkpt>
      <trkpt lat="43.68867" lon="6.73815">
        <ele>715.4</ele>
        <time>2020-02-09T12:35:14Z</time>
      </trkpt>
      <trkpt lat="43.68867" lon="6.7382">
        <ele>714.4</ele>
        <time>2020-02-09T12:35:16Z</time>
      </trkpt>
      <trkpt lat="43.68869" lon="6.7383">
        <ele>712.4</ele>
        <time>2020-02-09T12:35:19Z</time>
      </trkpt>
      <trkpt lat="43.68865" lon="6.73842">
        <ele>710</ele>
        <time>2020-02-09T12:35:20Z</time>
      </trkpt>
      <trkpt lat="43.68862" lon="6.73846">
        <ele>708.7</ele>
        <time>2020-02-09T12:35:21Z</time>
      </trkpt>
      <trkpt lat="43.68859" lon="6.73854">
        <ele>706.9</ele>
        <time>2020-02-09T12:35:24Z</time>
      </trkpt>
      <trkpt lat="43.68849" lon="6.73858">
        <ele>704.1</ele>
        <time>2020-02-09T12:35:27Z</time>
      </trkpt>
      <trkpt lat="43.68847" lon="6.73855">
        <ele>703.1</ele>
        <time>2020-02-09T12:35:30Z</time>
      </trkpt>
      <trkpt lat="43.68844" lon="6.73859">
        <ele>702</ele>
        <time>2020-02-09T12:35:31Z</time>
      </trkpt>
      <trkpt lat="43.68844" lon="6.73866">
        <ele>700.7</ele>
        <time>2020-02-09T12:35:34Z</time>
      </trkpt>
      <trkpt lat="43.68843" lon="6.73871">
        <ele>699.7</ele>
        <time>2020-02-09T12:35:35Z</time>
      </trkpt>
      <trkpt lat="43.68839" lon="6.7388">
        <ele>697.8</ele>
        <time>2020-02-09T12:35:37Z</time>
      </trkpt>
      <trkpt lat="43.68835" lon="6.73892">
        <ele>695.4</ele>
        <time>2020-02-09T12:35:38Z</time>
      </trkpt>
      <trkpt lat="43.68829" lon="6.73903">
        <ele>693.2</ele>
        <time>2020-02-09T12:35:40Z</time>
      </trkpt>
      <trkpt lat="43.68823" lon="6.73912">
        <ele>690.9</ele>
        <time>2020-02-09T12:35:43Z</time>
      </trkpt>
      <trkpt lat="43.68816" lon="6.73928">
        <ele>687.7</ele>
        <time>2020-02-09T12:35:46Z</time>
      </trkpt>
      <trkpt lat="43.68814" lon="6.73939">
        <ele>685.9</ele>
        <time>2020-02-09T12:35:47Z</time>
      </trkpt>
      <trkpt lat="43.68808" lon="6.73943">
        <ele>684.7</ele>
        <time>2020-02-09T12:35:50Z</time>
      </trkpt>
      <trkpt lat="43.68807" lon="6.73948">
        <ele>683.7</ele>
        <time>2020-02-09T12:35:51Z</time>
      </trkpt>
      <trkpt lat="43.68807" lon="6.73955">
        <ele>683.2</ele>
        <time>2020-02-09T12:35:54Z</time>
      </trkpt>
      <trkpt lat="43.68809" lon="6.7396">
        <ele>682.7</ele>
        <time>2020-02-09T12:35:56Z</time>
      </trkpt>
      <trkpt lat="43.68813" lon="6.73961">
        <ele>682.9</ele>
        <time>2020-02-09T12:35:59Z</time>
      </trkpt>
      <trkpt lat="43.68821" lon="6.73961">
        <ele>683.2</ele>
        <time>2020-02-09T12:36:02Z</time>
      </trkpt>
      <trkpt lat="43.68823" lon="6.73962">
        <ele>683.4</ele>
        <time>2020-02-09T12:36:03Z</time>
      </trkpt>
      <trkpt lat="43.68831" lon="6.73963">
        <ele>683.3</ele>
        <time>2020-02-09T12:36:05Z</time>
      </trkpt>
      <trkpt lat="43.68834" lon="6.73964">
        <ele>683</ele>
        <time>2020-02-09T12:36:08Z</time>
      </trkpt>
      <trkpt lat="43.68837" lon="6.73965">
        <ele>682.7</ele>
        <time>2020-02-09T12:36:09Z</time>
      </trkpt>
      <trkpt lat="43.68842" lon="6.73964">
        <ele>684.3</ele>
        <time>2020-02-09T12:36:21Z</time>
      </trkpt>
      <trkpt lat="43.68847" lon="6.73963">
        <ele>685.7</ele>
        <time>2020-02-09T12:36:24Z</time>
      </trkpt>
      <trkpt lat="43.68851" lon="6.73964">
        <ele>686.1</ele>
        <time>2020-02-09T12:36:25Z</time>
      </trkpt>
      <trkpt lat="43.68856" lon="6.73964">
        <ele>686.7</ele>
        <time>2020-02-09T12:36:27Z</time>
      </trkpt>
      <trkpt lat="43.68859" lon="6.73964">
        <ele>687.2</ele>
        <time>2020-02-09T12:36:28Z</time>
      </trkpt>
      <trkpt lat="43.68869" lon="6.73963">
        <ele>689.2</ele>
        <time>2020-02-09T12:36:32Z</time>
      </trkpt>
      <trkpt lat="43.68872" lon="6.73963">
        <ele>690.1</ele>
        <time>2020-02-09T12:36:33Z</time>
      </trkpt>
      <trkpt lat="43.68877" lon="6.73962">
        <ele>691.8</ele>
        <time>2020-02-09T12:36:36Z</time>
      </trkpt>
      <trkpt lat="43.68882" lon="6.7396">
        <ele>692.6</ele>
        <time>2020-02-09T12:36:37Z</time>
      </trkpt>
      <trkpt lat="43.68889" lon="6.73959">
        <ele>694</ele>
        <time>2020-02-09T12:36:40Z</time>
      </trkpt>
      <trkpt lat="43.68896" lon="6.7396">
        <ele>695.7</ele>
        <time>2020-02-09T12:36:43Z</time>
      </trkpt>
      <trkpt lat="43.68902" lon="6.7396">
        <ele>697.3</ele>
        <time>2020-02-09T12:36:46Z</time>
      </trkpt>
      <trkpt lat="43.68904" lon="6.73959">
        <ele>697.9</ele>
        <time>2020-02-09T12:36:47Z</time>
      </trkpt>
      <trkpt lat="43.68908" lon="6.73959">
        <ele>698.9</ele>
        <time>2020-02-09T12:36:48Z</time>
      </trkpt>
      <trkpt lat="43.68911" lon="6.73959">
        <ele>700.7</ele>
        <time>2020-02-09T12:36:51Z</time>
      </trkpt>
      <trkpt lat="43.68919" lon="6.73958">
        <ele>703.8</ele>
        <time>2020-02-09T12:36:53Z</time>
      </trkpt>
      <trkpt lat="43.68923" lon="6.73958">
        <ele>704.7</ele>
        <time>2020-02-09T12:36:56Z</time>
      </trkpt>
      <trkpt lat="43.68933" lon="6.73956">
        <ele>707.4</ele>
        <time>2020-02-09T12:36:59Z</time>
      </trkpt>
      <trkpt lat="43.68936" lon="6.73957">
        <ele>708.3</ele>
        <time>2020-02-09T12:37:00Z</time>
      </trkpt>
      <trkpt lat="43.6894" lon="6.73958">
        <ele>709.7</ele>
        <time>2020-02-09T12:37:01Z</time>
      </trkpt>
      <trkpt lat="43.68946" lon="6.7396">
        <ele>712.3</ele>
        <time>2020-02-09T12:37:02Z</time>
      </trkpt>
      <trkpt lat="43.68952" lon="6.73964">
        <ele>713.6</ele>
        <time>2020-02-09T12:37:05Z</time>
      </trkpt>
      <trkpt lat="43.68955" lon="6.73965">
        <ele>714</ele>
        <time>2020-02-09T12:37:06Z</time>
      </trkpt>
      <trkpt lat="43.68961" lon="6.73965">
        <ele>715.3</ele>
        <time>2020-02-09T12:37:08Z</time>
      </trkpt>
      <trkpt lat="43.68973" lon="6.73968">
        <ele>717.9</ele>
        <time>2020-02-09T12:37:11Z</time>
      </trkpt>
      <trkpt lat="43.68977" lon="6.73969">
        <ele>718.7</ele>
        <time>2020-02-09T12:37:12Z</time>
      </trkpt>
      <trkpt lat="43.68986" lon="6.73965">
        <ele>720.5</ele>
        <time>2020-02-09T12:37:15Z</time>
      </trkpt>
      <trkpt lat="43.6899" lon="6.73964">
        <ele>721.3</ele>
        <time>2020-02-09T12:37:16Z</time>
      </trkpt>
      <trkpt lat="43.68995" lon="6.73966">
        <ele>721.9</ele>
        <time>2020-02-09T12:37:18Z</time>
      </trkpt>
      <trkpt lat="43.68999" lon="6.73968">
        <ele>721.6</ele>
        <time>2020-02-09T12:37:19Z</time>
      </trkpt>
      <trkpt lat="43.69009" lon="6.73972">
        <ele>722</ele>
        <time>2020-02-09T12:37:22Z</time>
      </trkpt>
      <trkpt lat="43.69015" lon="6.73976">
        <ele>722</ele>
        <time>2020-02-09T12:37:25Z</time>
      </trkpt>
      <trkpt lat="43.69021" lon="6.73979">
        <ele>721.4</ele>
        <time>2020-02-09T12:37:26Z</time>
      </trkpt>
      <trkpt lat="43.69029" lon="6.73983">
        <ele>720.5</ele>
        <time>2020-02-09T12:37:27Z</time>
      </trkpt>
      <trkpt lat="43.69043" lon="6.73989">
        <ele>718.1</ele>
        <time>2020-02-09T12:37:28Z</time>
      </trkpt>
      <trkpt lat="43.69046" lon="6.7399">
        <ele>717.3</ele>
        <time>2020-02-09T12:37:29Z</time>
      </trkpt>
      <trkpt lat="43.69054" lon="6.73997">
        <ele>715.2</ele>
        <time>2020-02-09T12:37:32Z</time>
      </trkpt>
      <trkpt lat="43.69057" lon="6.74002">
        <ele>713.5</ele>
        <time>2020-02-09T12:37:33Z</time>
      </trkpt>
      <trkpt lat="43.69061" lon="6.74006">
        <ele>710.9</ele>
        <time>2020-02-09T12:37:36Z</time>
      </trkpt>
      <trkpt lat="43.69063" lon="6.74006">
        <ele>710.2</ele>
        <time>2020-02-09T12:37:37Z</time>
      </trkpt>
      <trkpt lat="43.69059" lon="6.74004">
        <ele>709.1</ele>
        <time>2020-02-09T12:37:41Z</time>
      </trkpt>
      <trkpt lat="43.69064" lon="6.74005">
        <ele>707.6</ele>
        <time>2020-02-09T12:38:02Z</time>
      </trkpt>
      <trkpt lat="43.69068" lon="6.74006">
        <ele>705.5</ele>
        <time>2020-02-09T12:38:04Z</time>
      </trkpt>
      <trkpt lat="43.69072" lon="6.74007">
        <ele>703.7</ele>
        <time>2020-02-09T12:38:05Z</time>
      </trkpt>
      <trkpt lat="43.69076" lon="6.74009">
        <ele>702</ele>
        <time>2020-02-09T12:38:06Z</time>
      </trkpt>
      <trkpt lat="43.69083" lon="6.74011">
        <ele>699.5</ele>
        <time>2020-02-09T12:38:07Z</time>
      </trkpt>
      <trkpt lat="43.69089" lon="6.74011">
        <ele>696</ele>
        <time>2020-02-09T12:38:08Z</time>
      </trkpt>
      <trkpt lat="43.69103" lon="6.74007">
        <ele>693</ele>
        <time>2020-02-09T12:38:10Z</time>
      </trkpt>
      <trkpt lat="43.69108" lon="6.74004">
        <ele>692.3</ele>
        <time>2020-02-09T12:38:11Z</time>
      </trkpt>
      <trkpt lat="43.69114" lon="6.73999">
        <ele>690.1</ele>
        <time>2020-02-09T12:38:14Z</time>
      </trkpt>
      <trkpt lat="43.69123" lon="6.73987">
        <ele>687.4</ele>
        <time>2020-02-09T12:38:15Z</time>
      </trkpt>
      <trkpt lat="43.6913" lon="6.73974">
        <ele>686.2</ele>
        <time>2020-02-09T12:38:17Z</time>
      </trkpt>
      <trkpt lat="43.69132" lon="6.7397">
        <ele>686</ele>
        <time>2020-02-09T12:38:20Z</time>
      </trkpt>
      <trkpt lat="43.69133" lon="6.73975">
        <ele>685.8</ele>
        <time>2020-02-09T12:38:21Z</time>
      </trkpt>
      <trkpt lat="43.69132" lon="6.73985">
        <ele>685.5</ele>
        <time>2020-02-09T12:38:22Z</time>
      </trkpt>
      <trkpt lat="43.69129" lon="6.73983">
        <ele>685.3</ele>
        <time>2020-02-09T12:38:25Z</time>
      </trkpt>
      <trkpt lat="43.69129" lon="6.73977">
        <ele>684.6</ele>
        <time>2020-02-09T12:38:26Z</time>
      </trkpt>
      <trkpt lat="43.69135" lon="6.73962">
        <ele>682.9</ele>
        <time>2020-02-09T12:38:28Z</time>
      </trkpt>
      <trkpt lat="43.69138" lon="6.73952">
        <ele>683.3</ele>
        <time>2020-02-09T12:38:31Z</time>
      </trkpt>
      <trkpt lat="43.69141" lon="6.73952">
        <ele>681.7</ele>
        <time>2020-02-09T12:38:32Z</time>
      </trkpt>
      <trkpt lat="43.69143" lon="6.73965">
        <ele>677.3</ele>
        <time>2020-02-09T12:38:35Z</time>
      </trkpt>
      <trkpt lat="43.69144" lon="6.73971">
        <ele>676.1</ele>
        <time>2020-02-09T12:38:36Z</time>
      </trkpt>
      <trkpt lat="43.69148" lon="6.73989">
        <ele>670.1</ele>
        <time>2020-02-09T12:38:37Z</time>
      </trkpt>
      <trkpt lat="43.69151" lon="6.73996">
        <ele>666.3</ele>
        <time>2020-02-09T12:38:40Z</time>
      </trkpt>
      <trkpt lat="43.69154" lon="6.74004">
        <ele>662.7</ele>
        <time>2020-02-09T12:38:41Z</time>
      </trkpt>
      <trkpt lat="43.6916" lon="6.74028">
        <ele>654.2</ele>
        <time>2020-02-09T12:38:44Z</time>
      </trkpt>
      <trkpt lat="43.69162" lon="6.74033">
        <ele>650.4</ele>
        <time>2020-02-09T12:38:45Z</time>
      </trkpt>
      <trkpt lat="43.69165" lon="6.74032">
        <ele>650.3</ele>
        <time>2020-02-09T12:38:48Z</time>
      </trkpt>
      <trkpt lat="43.69161" lon="6.74048">
        <ele>647.7</ele>
        <time>2020-02-09T12:38:55Z</time>
      </trkpt>
      <trkpt lat="43.69157" lon="6.74057">
        <ele>646.5</ele>
        <time>2020-02-09T12:38:56Z</time>
      </trkpt>
      <trkpt lat="43.69151" lon="6.74076">
        <ele>642.7</ele>
        <time>2020-02-09T12:38:59Z</time>
      </trkpt>
      <trkpt lat="43.69152" lon="6.74079">
        <ele>641.6</ele>
        <time>2020-02-09T12:39:00Z</time>
      </trkpt>
      <trkpt lat="43.69157" lon="6.74078">
        <ele>640.5</ele>
        <time>2020-02-09T12:39:01Z</time>
      </trkpt>
      <trkpt lat="43.6916" lon="6.74082">
        <ele>638.4</ele>
        <time>2020-02-09T12:39:05Z</time>
      </trkpt>
      <trkpt lat="43.69164" lon="6.74079">
        <ele>638.4</ele>
        <time>2020-02-09T12:39:07Z</time>
      </trkpt>
      <trkpt lat="43.69171" lon="6.74078">
        <ele>636.5</ele>
        <time>2020-02-09T12:39:08Z</time>
      </trkpt>
      <trkpt lat="43.69173" lon="6.74081">
        <ele>634.1</ele>
        <time>2020-02-09T12:39:11Z</time>
      </trkpt>
      <trkpt lat="43.69175" lon="6.74077">
        <ele>634.1</ele>
        <time>2020-02-09T12:39:17Z</time>
      </trkpt>
      <trkpt lat="43.69178" lon="6.74078">
        <ele>633.2</ele>
        <time>2020-02-09T12:39:24Z</time>
      </trkpt>
      <trkpt lat="43.69183" lon="6.74081">
        <ele>631.7</ele>
        <time>2020-02-09T12:39:27Z</time>
      </trkpt>
      <trkpt lat="43.69187" lon="6.74084">
        <ele>629.9</ele>
        <time>2020-02-09T12:39:28Z</time>
      </trkpt>
      <trkpt lat="43.69192" lon="6.74086">
        <ele>629.3</ele>
        <time>2020-02-09T12:39:30Z</time>
      </trkpt>
      <trkpt lat="43.69195" lon="6.74087">
        <ele>629.1</ele>
        <time>2020-02-09T12:39:33Z</time>
      </trkpt>
      <trkpt lat="43.69194" lon="6.74092">
        <ele>629</ele>
        <time>2020-02-09T12:39:36Z</time>
      </trkpt>
      <trkpt lat="43.6919" lon="6.74103">
        <ele>628.8</ele>
        <time>2020-02-09T12:39:39Z</time>
      </trkpt>
      <trkpt lat="43.69181" lon="6.74117">
        <ele>628</ele>
        <time>2020-02-09T12:39:40Z</time>
      </trkpt>
      <trkpt lat="43.69174" lon="6.74127">
        <ele>627.6</ele>
        <time>2020-02-09T12:39:43Z</time>
      </trkpt>
      <trkpt lat="43.69169" lon="6.74135">
        <ele>627.2</ele>
        <time>2020-02-09T12:39:44Z</time>
      </trkpt>
      <trkpt lat="43.69158" lon="6.74155">
        <ele>625.7</ele>
        <time>2020-02-09T12:39:47Z</time>
      </trkpt>
      <trkpt lat="43.69148" lon="6.74165">
        <ele>623.5</ele>
        <time>2020-02-09T12:39:48Z</time>
      </trkpt>
      <trkpt lat="43.69145" lon="6.74169">
        <ele>622.9</ele>
        <time>2020-02-09T12:39:49Z</time>
      </trkpt>
      <trkpt lat="43.69146" lon="6.74176">
        <ele>622.3</ele>
        <time>2020-02-09T12:39:52Z</time>
      </trkpt>
      <trkpt lat="43.69148" lon="6.74181">
        <ele>621.5</ele>
        <time>2020-02-09T12:39:53Z</time>
      </trkpt>
      <trkpt lat="43.69146" lon="6.74185">
        <ele>620.7</ele>
        <time>2020-02-09T12:39:54Z</time>
      </trkpt>
      <trkpt lat="43.69142" lon="6.74191">
        <ele>619.9</ele>
        <time>2020-02-09T12:39:56Z</time>
      </trkpt>
      <trkpt lat="43.6914" lon="6.74195">
        <ele>619.4</ele>
        <time>2020-02-09T12:39:57Z</time>
      </trkpt>
      <trkpt lat="43.69139" lon="6.742">
        <ele>618.9</ele>
        <time>2020-02-09T12:39:58Z</time>
      </trkpt>
      <trkpt lat="43.69141" lon="6.74206">
        <ele>618.2</ele>
        <time>2020-02-09T12:40:01Z</time>
      </trkpt>
      <trkpt lat="43.69145" lon="6.74203">
        <ele>617.4</ele>
        <time>2020-02-09T12:40:04Z</time>
      </trkpt>
      <trkpt lat="43.69147" lon="6.74206">
        <ele>616.8</ele>
        <time>2020-02-09T12:40:05Z</time>
      </trkpt>
      <trkpt lat="43.69145" lon="6.74211">
        <ele>616</ele>
        <time>2020-02-09T12:40:09Z</time>
      </trkpt>
      <trkpt lat="43.69143" lon="6.74215">
        <ele>615.4</ele>
        <time>2020-02-09T12:40:11Z</time>
      </trkpt>
      <trkpt lat="43.69141" lon="6.74218">
        <ele>614.9</ele>
        <time>2020-02-09T12:40:12Z</time>
      </trkpt>
      <trkpt lat="43.6913" lon="6.74235">
        <ele>611.6</ele>
        <time>2020-02-09T12:40:14Z</time>
      </trkpt>
      <trkpt lat="43.69124" lon="6.74246">
        <ele>610.3</ele>
        <time>2020-02-09T12:40:17Z</time>
      </trkpt>
      <trkpt lat="43.69121" lon="6.74252">
        <ele>609.5</ele>
        <time>2020-02-09T12:40:18Z</time>
      </trkpt>
      <trkpt lat="43.69118" lon="6.74256">
        <ele>608.8</ele>
        <time>2020-02-09T12:40:19Z</time>
      </trkpt>
      <trkpt lat="43.69115" lon="6.74259">
        <ele>608.3</ele>
        <time>2020-02-09T12:40:20Z</time>
      </trkpt>
      <trkpt lat="43.69109" lon="6.74262">
        <ele>607.1</ele>
        <time>2020-02-09T12:40:23Z</time>
      </trkpt>
      <trkpt lat="43.69101" lon="6.74263">
        <ele>606.4</ele>
        <time>2020-02-09T12:40:26Z</time>
      </trkpt>
      <trkpt lat="43.69093" lon="6.74262">
        <ele>605.6</ele>
        <time>2020-02-09T12:40:27Z</time>
      </trkpt>
      <trkpt lat="43.69089" lon="6.7426">
        <ele>605.1</ele>
        <time>2020-02-09T12:40:30Z</time>
      </trkpt>
      <trkpt lat="43.69086" lon="6.74257">
        <ele>604.7</ele>
        <time>2020-02-09T12:40:31Z</time>
      </trkpt>
      <trkpt lat="43.69078" lon="6.74255">
        <ele>604.1</ele>
        <time>2020-02-09T12:40:32Z</time>
      </trkpt>
      <trkpt lat="43.6907" lon="6.74254">
        <ele>603.8</ele>
        <time>2020-02-09T12:40:36Z</time>
      </trkpt>
      <trkpt lat="43.69066" lon="6.74253">
        <ele>603.7</ele>
        <time>2020-02-09T12:40:37Z</time>
      </trkpt>
      <trkpt lat="43.6906" lon="6.74251">
        <ele>603.4</ele>
        <time>2020-02-09T12:40:39Z</time>
      </trkpt>
      <trkpt lat="43.69057" lon="6.74248">
        <ele>603.2</ele>
        <time>2020-02-09T12:40:40Z</time>
      </trkpt>
      <trkpt lat="43.69054" lon="6.74245">
        <ele>603.1</ele>
        <time>2020-02-09T12:40:41Z</time>
      </trkpt>
      <trkpt lat="43.69049" lon="6.7424">
        <ele>603</ele>
        <time>2020-02-09T12:40:42Z</time>
      </trkpt>
      <trkpt lat="43.69044" lon="6.74237">
        <ele>602.9</ele>
        <time>2020-02-09T12:40:44Z</time>
      </trkpt>
      <trkpt lat="43.6904" lon="6.74235">
        <ele>602.8</ele>
        <time>2020-02-09T12:40:47Z</time>
      </trkpt>
      <trkpt lat="43.69037" lon="6.74231">
        <ele>602.8</ele>
        <time>2020-02-09T12:40:48Z</time>
      </trkpt>
      <trkpt lat="43.69034" lon="6.74226">
        <ele>603</ele>
        <time>2020-02-09T12:40:49Z</time>
      </trkpt>
      <trkpt lat="43.6903" lon="6.74224">
        <ele>603.1</ele>
        <time>2020-02-09T12:40:50Z</time>
      </trkpt>
      <trkpt lat="43.6902" lon="6.74222">
        <ele>602.5</ele>
        <time>2020-02-09T12:40:54Z</time>
      </trkpt>
      <trkpt lat="43.69018" lon="6.74219">
        <ele>602.3</ele>
        <time>2020-02-09T12:40:55Z</time>
      </trkpt>
      <trkpt lat="43.69015" lon="6.74217">
        <ele>602</ele>
        <time>2020-02-09T12:40:58Z</time>
      </trkpt>
      <trkpt lat="43.69015" lon="6.74213">
        <ele>602</ele>
        <time>2020-02-09T12:41:01Z</time>
      </trkpt>
      <trkpt lat="43.69013" lon="6.7421">
        <ele>602</ele>
        <time>2020-02-09T12:41:09Z</time>
      </trkpt>
      <trkpt lat="43.6901" lon="6.74208">
        <ele>602</ele>
        <time>2020-02-09T12:41:12Z</time>
      </trkpt>
      <trkpt lat="43.69008" lon="6.74205">
        <ele>601.9</ele>
        <time>2020-02-09T12:41:14Z</time>
      </trkpt>
      <trkpt lat="43.69005" lon="6.74202">
        <ele>601.9</ele>
        <time>2020-02-09T12:41:17Z</time>
      </trkpt>
      <trkpt lat="43.69001" lon="6.74202">
        <ele>601.9</ele>
        <time>2020-02-09T12:41:22Z</time>
      </trkpt>
      <trkpt lat="43.68999" lon="6.74204">
        <ele>602</ele>
        <time>2020-02-09T12:41:23Z</time>
      </trkpt>
      <trkpt lat="43.68995" lon="6.74205">
        <ele>601.9</ele>
        <time>2020-02-09T12:41:29Z</time>
      </trkpt>
      <trkpt lat="43.68989" lon="6.74203">
        <ele>601.3</ele>
        <time>2020-02-09T12:41:39Z</time>
      </trkpt>
      <trkpt lat="43.68981" lon="6.742">
        <ele>601.2</ele>
        <time>2020-02-09T12:41:41Z</time>
      </trkpt>
      <trkpt lat="43.68973" lon="6.74198">
        <ele>600.7</ele>
        <time>2020-02-09T12:41:45Z</time>
      </trkpt>
      <trkpt lat="43.68968" lon="6.74198">
        <ele>600.3</ele>
        <time>2020-02-09T12:41:47Z</time>
      </trkpt>
      <trkpt lat="43.68964" lon="6.74196">
        <ele>599.6</ele>
        <time>2020-02-09T12:41:48Z</time>
      </trkpt>
      <trkpt lat="43.68956" lon="6.74193">
        <ele>599</ele>
        <time>2020-02-09T12:41:49Z</time>
      </trkpt>
      <trkpt lat="43.6895" lon="6.74194">
        <ele>597.9</ele>
        <time>2020-02-09T12:41:52Z</time>
      </trkpt>
      <trkpt lat="43.68946" lon="6.74197">
        <ele>596.8</ele>
        <time>2020-02-09T12:41:53Z</time>
      </trkpt>
      <trkpt lat="43.68939" lon="6.74197">
        <ele>595.2</ele>
        <time>2020-02-09T12:41:55Z</time>
      </trkpt>
      <trkpt lat="43.68934" lon="6.74197">
        <ele>594</ele>
        <time>2020-02-09T12:41:56Z</time>
      </trkpt>
      <trkpt lat="43.68928" lon="6.74195">
        <ele>592.6</ele>
        <time>2020-02-09T12:41:57Z</time>
      </trkpt>
      <trkpt lat="43.6892" lon="6.74193">
        <ele>590.5</ele>
        <time>2020-02-09T12:41:59Z</time>
      </trkpt>
      <trkpt lat="43.68915" lon="6.74194">
        <ele>589.7</ele>
        <time>2020-02-09T12:42:00Z</time>
      </trkpt>
      <trkpt lat="43.6891" lon="6.74195">
        <ele>588.4</ele>
        <time>2020-02-09T12:42:01Z</time>
      </trkpt>
      <trkpt lat="43.68906" lon="6.74196">
        <ele>587.3</ele>
        <time>2020-02-09T12:42:04Z</time>
      </trkpt>
      <trkpt lat="43.689" lon="6.74194">
        <ele>585.9</ele>
        <time>2020-02-09T12:42:06Z</time>
      </trkpt>
      <trkpt lat="43.6889" lon="6.7419">
        <ele>583.6</ele>
        <time>2020-02-09T12:42:09Z</time>
      </trkpt>
      <trkpt lat="43.68883" lon="6.74189">
        <ele>582.6</ele>
        <time>2020-02-09T12:42:10Z</time>
      </trkpt>
      <trkpt lat="43.68873" lon="6.74187">
        <ele>582</ele>
        <time>2020-02-09T12:42:13Z</time>
      </trkpt>
      <trkpt lat="43.68871" lon="6.7419">
        <ele>582.1</ele>
        <time>2020-02-09T12:42:14Z</time>
      </trkpt>
      <trkpt lat="43.68865" lon="6.74193">
        <ele>582.4</ele>
        <time>2020-02-09T12:42:15Z</time>
      </trkpt>
      <trkpt lat="43.68862" lon="6.7419">
        <ele>582.9</ele>
        <time>2020-02-09T12:42:18Z</time>
      </trkpt>
      <trkpt lat="43.68858" lon="6.74189">
        <ele>583.6</ele>
        <time>2020-02-09T12:42:20Z</time>
      </trkpt>
      <trkpt lat="43.68854" lon="6.7419">
        <ele>584.7</ele>
        <time>2020-02-09T12:42:22Z</time>
      </trkpt>
      <trkpt lat="43.68851" lon="6.74189">
        <ele>585.6</ele>
        <time>2020-02-09T12:42:30Z</time>
      </trkpt>
      <trkpt lat="43.68849" lon="6.7419">
        <ele>586.5</ele>
        <time>2020-02-09T12:42:34Z</time>
      </trkpt>
      <trkpt lat="43.68847" lon="6.74195">
        <ele>587.9</ele>
        <time>2020-02-09T12:42:38Z</time>
      </trkpt>
      <trkpt lat="43.68845" lon="6.74198">
        <ele>588.7</ele>
        <time>2020-02-09T12:42:40Z</time>
      </trkpt>
      <trkpt lat="43.68841" lon="6.74206">
        <ele>587.9</ele>
        <time>2020-02-09T12:42:42Z</time>
      </trkpt>
      <trkpt lat="43.68837" lon="6.7421">
        <ele>587.4</ele>
        <time>2020-02-09T12:42:45Z</time>
      </trkpt>
      <trkpt lat="43.68835" lon="6.74214">
        <ele>587</ele>
        <time>2020-02-09T12:42:47Z</time>
      </trkpt>
      <trkpt lat="43.68835" lon="6.7422">
        <ele>586.2</ele>
        <time>2020-02-09T12:42:53Z</time>
      </trkpt>
      <trkpt lat="43.68834" lon="6.74222">
        <ele>585.9</ele>
        <time>2020-02-09T12:42:54Z</time>
      </trkpt>
      <trkpt lat="43.68831" lon="6.7423">
        <ele>584.6</ele>
        <time>2020-02-09T12:43:00Z</time>
      </trkpt>
      <trkpt lat="43.6883" lon="6.74232">
        <ele>584.4</ele>
        <time>2020-02-09T12:43:01Z</time>
      </trkpt>
      <trkpt lat="43.68829" lon="6.74237">
        <ele>583.7</ele>
        <time>2020-02-09T12:43:04Z</time>
      </trkpt>
      <trkpt lat="43.68828" lon="6.7424">
        <ele>583.8</ele>
        <time>2020-02-09T12:43:06Z</time>
      </trkpt>
      <trkpt lat="43.68826" lon="6.74245">
        <ele>584.2</ele>
        <time>2020-02-09T12:43:08Z</time>
      </trkpt>
      <trkpt lat="43.68823" lon="6.74252">
        <ele>584.5</ele>
        <time>2020-02-09T12:43:14Z</time>
      </trkpt>
      <trkpt lat="43.68821" lon="6.74256">
        <ele>584.5</ele>
        <time>2020-02-09T12:43:17Z</time>
      </trkpt>
      <trkpt lat="43.68818" lon="6.74262">
        <ele>584.1</ele>
        <time>2020-02-09T12:43:20Z</time>
      </trkpt>
      <trkpt lat="43.68818" lon="6.74267">
        <ele>584.4</ele>
        <time>2020-02-09T12:43:23Z</time>
      </trkpt>
      <trkpt lat="43.68817" lon="6.74271">
        <ele>584.7</ele>
        <time>2020-02-09T12:43:26Z</time>
      </trkpt>
      <trkpt lat="43.68816" lon="6.74274">
        <ele>584.7</ele>
        <time>2020-02-09T12:43:28Z</time>
      </trkpt>
      <trkpt lat="43.68816" lon="6.74278">
        <ele>584.5</ele>
        <time>2020-02-09T12:43:31Z</time>
      </trkpt>
      <trkpt lat="43.68816" lon="6.74286">
        <ele>583</ele>
        <time>2020-02-09T12:43:35Z</time>
      </trkpt>
      <trkpt lat="43.68817" lon="6.74288">
        <ele>582.1</ele>
        <time>2020-02-09T12:43:36Z</time>
      </trkpt>
      <trkpt lat="43.68818" lon="6.74301">
        <ele>579.5</ele>
        <time>2020-02-09T12:43:40Z</time>
      </trkpt>
      <trkpt lat="43.68819" lon="6.74307">
        <ele>578.2</ele>
        <time>2020-02-09T12:43:41Z</time>
      </trkpt>
      <trkpt lat="43.68819" lon="6.74315">
        <ele>575.9</ele>
        <time>2020-02-09T12:43:44Z</time>
      </trkpt>
      <trkpt lat="43.68816" lon="6.74322">
        <ele>574.9</ele>
        <time>2020-02-09T12:43:48Z</time>
      </trkpt>
      <trkpt lat="43.68815" lon="6.74324">
        <ele>574.4</ele>
        <time>2020-02-09T12:43:49Z</time>
      </trkpt>
      <trkpt lat="43.68811" lon="6.74332">
        <ele>571.7</ele>
        <time>2020-02-09T12:43:54Z</time>
      </trkpt>
      <trkpt lat="43.6881" lon="6.74335">
        <ele>572</ele>
        <time>2020-02-09T12:43:57Z</time>
      </trkpt>
      <trkpt lat="43.68808" lon="6.7434">
        <ele>572.9</ele>
        <time>2020-02-09T12:44:00Z</time>
      </trkpt>
      <trkpt lat="43.68806" lon="6.74344">
        <ele>573.5</ele>
        <time>2020-02-09T12:44:03Z</time>
      </trkpt>
      <trkpt lat="43.68804" lon="6.74349">
        <ele>574.1</ele>
        <time>2020-02-09T12:44:04Z</time>
      </trkpt>
      <trkpt lat="43.68802" lon="6.74355">
        <ele>574.7</ele>
        <time>2020-02-09T12:44:07Z</time>
      </trkpt>
      <trkpt lat="43.68801" lon="6.74359">
        <ele>575.1</ele>
        <time>2020-02-09T12:44:09Z</time>
      </trkpt>
      <trkpt lat="43.68797" lon="6.74363">
        <ele>575.7</ele>
        <time>2020-02-09T12:44:12Z</time>
      </trkpt>
      <trkpt lat="43.68794" lon="6.74368">
        <ele>576.2</ele>
        <time>2020-02-09T12:44:14Z</time>
      </trkpt>
      <trkpt lat="43.68788" lon="6.74374">
        <ele>576.1</ele>
        <time>2020-02-09T12:44:16Z</time>
      </trkpt>
      <trkpt lat="43.68786" lon="6.74377">
        <ele>576.1</ele>
        <time>2020-02-09T12:44:19Z</time>
      </trkpt>
      <trkpt lat="43.68783" lon="6.7438">
        <ele>576.4</ele>
        <time>2020-02-09T12:44:21Z</time>
      </trkpt>
      <trkpt lat="43.68781" lon="6.74383">
        <ele>576.7</ele>
        <time>2020-02-09T12:44:23Z</time>
      </trkpt>
      <trkpt lat="43.68779" lon="6.74386">
        <ele>577.1</ele>
        <time>2020-02-09T12:44:29Z</time>
      </trkpt>
      <trkpt lat="43.68777" lon="6.74388">
        <ele>577.4</ele>
        <time>2020-02-09T12:44:33Z</time>
      </trkpt>
      <trkpt lat="43.68775" lon="6.74391">
        <ele>577.7</ele>
        <time>2020-02-09T12:44:34Z</time>
      </trkpt>
      <trkpt lat="43.68772" lon="6.74393">
        <ele>577.9</ele>
        <time>2020-02-09T12:44:38Z</time>
      </trkpt>
      <trkpt lat="43.68768" lon="6.74395">
        <ele>578.1</ele>
        <time>2020-02-09T12:44:43Z</time>
      </trkpt>
      <trkpt lat="43.68764" lon="6.74396">
        <ele>578.2</ele>
        <time>2020-02-09T12:44:46Z</time>
      </trkpt>
      <trkpt lat="43.68762" lon="6.74397">
        <ele>578.2</ele>
        <time>2020-02-09T12:44:55Z</time>
      </trkpt>
      <trkpt lat="43.68759" lon="6.74399">
        <ele>578.2</ele>
        <time>2020-02-09T12:44:59Z</time>
      </trkpt>
      <trkpt lat="43.68754" lon="6.744">
        <ele>578.8</ele>
        <time>2020-02-09T12:45:07Z</time>
      </trkpt>
      <trkpt lat="43.68748" lon="6.74409">
        <ele>579.2</ele>
        <time>2020-02-09T12:46:31Z</time>
      </trkpt>
      <trkpt lat="43.68741" lon="6.74418">
        <ele>578.9</ele>
        <time>2020-02-09T12:46:35Z</time>
      </trkpt>
      <trkpt lat="43.68734" lon="6.74422">
        <ele>579.4</ele>
        <time>2020-02-09T12:46:37Z</time>
      </trkpt>
      <trkpt lat="43.68729" lon="6.74424">
        <ele>578.8</ele>
        <time>2020-02-09T12:46:40Z</time>
      </trkpt>
      <trkpt lat="43.68726" lon="6.74426">
        <ele>578.4</ele>
        <time>2020-02-09T12:46:41Z</time>
      </trkpt>
      <trkpt lat="43.68723" lon="6.74427">
        <ele>579.1</ele>
        <time>2020-02-09T12:46:42Z</time>
      </trkpt>
      <trkpt lat="43.6872" lon="6.74429">
        <ele>580.2</ele>
        <time>2020-02-09T12:46:43Z</time>
      </trkpt>
      <trkpt lat="43.68717" lon="6.7443">
        <ele>581.2</ele>
        <time>2020-02-09T12:46:44Z</time>
      </trkpt>
      <trkpt lat="43.68712" lon="6.74433">
        <ele>582.8</ele>
        <time>2020-02-09T12:46:46Z</time>
      </trkpt>
      <trkpt lat="43.68709" lon="6.74433">
        <ele>583.8</ele>
        <time>2020-02-09T12:46:47Z</time>
      </trkpt>
      <trkpt lat="43.68696" lon="6.74437">
        <ele>586.6</ele>
        <time>2020-02-09T12:46:50Z</time>
      </trkpt>
      <trkpt lat="43.68683" lon="6.74441">
        <ele>588.6</ele>
        <time>2020-02-09T12:46:53Z</time>
      </trkpt>
      <trkpt lat="43.6868" lon="6.74442">
        <ele>589.3</ele>
        <time>2020-02-09T12:46:54Z</time>
      </trkpt>
      <trkpt lat="43.68676" lon="6.74443">
        <ele>590.1</ele>
        <time>2020-02-09T12:46:55Z</time>
      </trkpt>
      <trkpt lat="43.68665" lon="6.74448">
        <ele>590.1</ele>
        <time>2020-02-09T12:46:58Z</time>
      </trkpt>
      <trkpt lat="43.6866" lon="6.74448">
        <ele>589.8</ele>
        <time>2020-02-09T12:46:59Z</time>
      </trkpt>
      <trkpt lat="43.68646" lon="6.74451">
        <ele>588.3</ele>
        <time>2020-02-09T12:47:01Z</time>
      </trkpt>
      <trkpt lat="43.68642" lon="6.74454">
        <ele>587.8</ele>
        <time>2020-02-09T12:47:02Z</time>
      </trkpt>
      <trkpt lat="43.68637" lon="6.74456">
        <ele>587.3</ele>
        <time>2020-02-09T12:47:05Z</time>
      </trkpt>
      <trkpt lat="43.68634" lon="6.74457">
        <ele>586.9</ele>
        <time>2020-02-09T12:47:06Z</time>
      </trkpt>
      <trkpt lat="43.6863" lon="6.7446">
        <ele>586.3</ele>
        <time>2020-02-09T12:47:07Z</time>
      </trkpt>
      <trkpt lat="43.68624" lon="6.74463">
        <ele>585.5</ele>
        <time>2020-02-09T12:47:08Z</time>
      </trkpt>
      <trkpt lat="43.68619" lon="6.74465">
        <ele>584.8</ele>
        <time>2020-02-09T12:47:11Z</time>
      </trkpt>
      <trkpt lat="43.68615" lon="6.74466">
        <ele>584.4</ele>
        <time>2020-02-09T12:47:12Z</time>
      </trkpt>
      <trkpt lat="43.68606" lon="6.74471">
        <ele>584</ele>
        <time>2020-02-09T12:47:15Z</time>
      </trkpt>
      <trkpt lat="43.686" lon="6.74475">
        <ele>583</ele>
        <time>2020-02-09T12:47:17Z</time>
      </trkpt>
      <trkpt lat="43.68597" lon="6.74477">
        <ele>582.4</ele>
        <time>2020-02-09T12:47:19Z</time>
      </trkpt>
      <trkpt lat="43.68588" lon="6.74481">
        <ele>580.6</ele>
        <time>2020-02-09T12:47:22Z</time>
      </trkpt>
      <trkpt lat="43.68583" lon="6.74484">
        <ele>580</ele>
        <time>2020-02-09T12:47:23Z</time>
      </trkpt>
      <trkpt lat="43.6858" lon="6.74485">
        <ele>579.9</ele>
        <time>2020-02-09T12:47:24Z</time>
      </trkpt>
      <trkpt lat="43.68577" lon="6.74486">
        <ele>579.7</ele>
        <time>2020-02-09T12:47:26Z</time>
      </trkpt>
      <trkpt lat="43.68574" lon="6.74486">
        <ele>579.2</ele>
        <time>2020-02-09T12:47:27Z</time>
      </trkpt>
      <trkpt lat="43.68571" lon="6.74485">
        <ele>578.6</ele>
        <time>2020-02-09T12:47:28Z</time>
      </trkpt>
      <trkpt lat="43.68561" lon="6.74488">
        <ele>577.1</ele>
        <time>2020-02-09T12:47:32Z</time>
      </trkpt>
      <trkpt lat="43.68547" lon="6.74489">
        <ele>576.8</ele>
        <time>2020-02-09T12:47:35Z</time>
      </trkpt>
      <trkpt lat="43.68532" lon="6.74488">
        <ele>576.1</ele>
        <time>2020-02-09T12:47:38Z</time>
      </trkpt>
      <trkpt lat="43.68526" lon="6.7449">
        <ele>575.7</ele>
        <time>2020-02-09T12:47:39Z</time>
      </trkpt>
      <trkpt lat="43.68525" lon="6.74494">
        <ele>575.5</ele>
        <time>2020-02-09T12:47:40Z</time>
      </trkpt>
      <trkpt lat="43.68525" lon="6.74498">
        <ele>575.3</ele>
        <time>2020-02-09T12:47:41Z</time>
      </trkpt>
      <trkpt lat="43.68527" lon="6.7451">
        <ele>574.3</ele>
        <time>2020-02-09T12:47:44Z</time>
      </trkpt>
      <trkpt lat="43.68515" lon="6.74524">
        <ele>572.2</ele>
        <time>2020-02-09T12:47:47Z</time>
      </trkpt>
      <trkpt lat="43.68498" lon="6.74541">
        <ele>569.3</ele>
        <time>2020-02-09T12:47:48Z</time>
      </trkpt>
      <trkpt lat="43.68491" lon="6.74546">
        <ele>568.2</ele>
        <time>2020-02-09T12:47:51Z</time>
      </trkpt>
      <trkpt lat="43.68486" lon="6.74548">
        <ele>567.3</ele>
        <time>2020-02-09T12:47:53Z</time>
      </trkpt>
      <trkpt lat="43.68486" lon="6.74553">
        <ele>566.7</ele>
        <time>2020-02-09T12:48:00Z</time>
      </trkpt>
      <trkpt lat="43.68488" lon="6.74556">
        <ele>566.2</ele>
        <time>2020-02-09T12:48:06Z</time>
      </trkpt>
      <trkpt lat="43.6849" lon="6.7455">
        <ele>565.4</ele>
        <time>2020-02-09T12:48:13Z</time>
      </trkpt>
      <trkpt lat="43.68486" lon="6.74549">
        <ele>565</ele>
        <time>2020-02-09T12:48:27Z</time>
      </trkpt>
      <trkpt lat="43.68471" lon="6.74553">
        <ele>563.3</ele>
        <time>2020-02-09T12:48:33Z</time>
      </trkpt>
      <trkpt lat="43.68461" lon="6.74557">
        <ele>562.3</ele>
        <time>2020-02-09T12:48:34Z</time>
      </trkpt>
      <trkpt lat="43.68453" lon="6.74559">
        <ele>562</ele>
        <time>2020-02-09T12:48:37Z</time>
      </trkpt>
      <trkpt lat="43.68448" lon="6.7456">
        <ele>561.8</ele>
        <time>2020-02-09T12:48:39Z</time>
      </trkpt>
      <trkpt lat="43.68445" lon="6.74561">
        <ele>561.7</ele>
        <time>2020-02-09T12:48:40Z</time>
      </trkpt>
      <trkpt lat="43.68441" lon="6.74562">
        <ele>561.5</ele>
        <time>2020-02-09T12:48:41Z</time>
      </trkpt>
      <trkpt lat="43.68434" lon="6.74564">
        <ele>561.3</ele>
        <time>2020-02-09T12:48:43Z</time>
      </trkpt>
      <trkpt lat="43.68429" lon="6.74564">
        <ele>560.9</ele>
        <time>2020-02-09T12:48:44Z</time>
      </trkpt>
      <trkpt lat="43.68418" lon="6.74564">
        <ele>559.7</ele>
        <time>2020-02-09T12:48:46Z</time>
      </trkpt>
      <trkpt lat="43.68402" lon="6.74564">
        <ele>555.9</ele>
        <time>2020-02-09T12:48:47Z</time>
      </trkpt>
      <trkpt lat="43.68394" lon="6.74564">
        <ele>553.1</ele>
        <time>2020-02-09T12:48:50Z</time>
      </trkpt>
      <trkpt lat="43.68388" lon="6.74564">
        <ele>550.4</ele>
        <time>2020-02-09T12:48:51Z</time>
      </trkpt>
      <trkpt lat="43.68386" lon="6.74568">
        <ele>548.8</ele>
        <time>2020-02-09T12:48:52Z</time>
      </trkpt>
      <trkpt lat="43.68381" lon="6.74573">
        <ele>547.3</ele>
        <time>2020-02-09T12:48:54Z</time>
      </trkpt>
      <trkpt lat="43.68379" lon="6.74573">
        <ele>546.7</ele>
        <time>2020-02-09T12:49:03Z</time>
      </trkpt>
      <trkpt lat="43.68379" lon="6.74577">
        <ele>545.9</ele>
        <time>2020-02-09T12:49:06Z</time>
      </trkpt>
      <trkpt lat="43.68376" lon="6.74586">
        <ele>544</ele>
        <time>2020-02-09T12:49:09Z</time>
      </trkpt>
      <trkpt lat="43.68374" lon="6.74595">
        <ele>542.6</ele>
        <time>2020-02-09T12:49:11Z</time>
      </trkpt>
      <trkpt lat="43.68372" lon="6.74601">
        <ele>541.5</ele>
        <time>2020-02-09T12:49:12Z</time>
      </trkpt>
      <trkpt lat="43.68364" lon="6.74618">
        <ele>538</ele>
        <time>2020-02-09T12:49:15Z</time>
      </trkpt>
      <trkpt lat="43.68356" lon="6.74635">
        <ele>533.8</ele>
        <time>2020-02-09T12:49:18Z</time>
      </trkpt>
      <trkpt lat="43.68352" lon="6.74641">
        <ele>532.3</ele>
        <time>2020-02-09T12:49:19Z</time>
      </trkpt>
      <trkpt lat="43.68348" lon="6.74647">
        <ele>531.2</ele>
        <time>2020-02-09T12:49:21Z</time>
      </trkpt>
      <trkpt lat="43.68346" lon="6.74653">
        <ele>530.3</ele>
        <time>2020-02-09T12:49:22Z</time>
      </trkpt>
      <trkpt lat="43.68343" lon="6.74662">
        <ele>528.7</ele>
        <time>2020-02-09T12:49:24Z</time>
      </trkpt>
      <trkpt lat="43.68337" lon="6.74684">
        <ele>526</ele>
        <time>2020-02-09T12:49:26Z</time>
      </trkpt>
      <trkpt lat="43.68322" lon="6.74708">
        <ele>522.2</ele>
        <time>2020-02-09T12:49:28Z</time>
      </trkpt>
      <trkpt lat="43.68306" lon="6.74726">
        <ele>518.4</ele>
        <time>2020-02-09T12:49:30Z</time>
      </trkpt>
      <trkpt lat="43.683" lon="6.74731">
        <ele>517.1</ele>
        <time>2020-02-09T12:49:31Z</time>
      </trkpt>
      <trkpt lat="43.68291" lon="6.74737">
        <ele>515.9</ele>
        <time>2020-02-09T12:49:33Z</time>
      </trkpt>
      <trkpt lat="43.6828" lon="6.74733">
        <ele>514.3</ele>
        <time>2020-02-09T12:49:35Z</time>
      </trkpt>
      <trkpt lat="43.68267" lon="6.74728">
        <ele>512.6</ele>
        <time>2020-02-09T12:49:37Z</time>
      </trkpt>
      <trkpt lat="43.68257" lon="6.74716">
        <ele>511.4</ele>
        <time>2020-02-09T12:49:39Z</time>
      </trkpt>
      <trkpt lat="43.68254" lon="6.74709">
        <ele>510.8</ele>
        <time>2020-02-09T12:49:40Z</time>
      </trkpt>
      <trkpt lat="43.6825" lon="6.74703">
        <ele>510.3</ele>
        <time>2020-02-09T12:49:41Z</time>
      </trkpt>
      <trkpt lat="43.68244" lon="6.74692">
        <ele>509.4</ele>
        <time>2020-02-09T12:49:43Z</time>
      </trkpt>
      <trkpt lat="43.68238" lon="6.74683">
        <ele>508.9</ele>
        <time>2020-02-09T12:49:45Z</time>
      </trkpt>
      <trkpt lat="43.68237" lon="6.74681">
        <ele>508.8</ele>
        <time>2020-02-09T12:49:46Z</time>
      </trkpt>
      <trkpt lat="43.68234" lon="6.74678">
        <ele>508.6</ele>
        <time>2020-02-09T12:49:49Z</time>
      </trkpt>
      <trkpt lat="43.68236" lon="6.74681">
        <ele>508.5</ele>
        <time>2020-02-09T12:49:57Z</time>
      </trkpt>
      <trkpt lat="43.68233" lon="6.74678">
        <ele>508.4</ele>
        <time>2020-02-09T12:50:06Z</time>
      </trkpt>
      <trkpt lat="43.68227" lon="6.74678">
        <ele>508.4</ele>
        <time>2020-02-09T12:51:36Z</time>
      </trkpt>
      <trkpt lat="43.68223" lon="6.74673">
        <ele>508.5</ele>
        <time>2020-02-09T12:52:05Z</time>
      </trkpt>
      <trkpt lat="43.68218" lon="6.74668">
        <ele>508.7</ele>
        <time>2020-02-09T12:52:07Z</time>
      </trkpt>
      <trkpt lat="43.68212" lon="6.74664">
        <ele>508.8</ele>
        <time>2020-02-09T12:52:10Z</time>
      </trkpt>
      <trkpt lat="43.68209" lon="6.74661">
        <ele>508.9</ele>
        <time>2020-02-09T12:52:11Z</time>
      </trkpt>
      <trkpt lat="43.68204" lon="6.74659">
        <ele>509</ele>
        <time>2020-02-09T12:52:13Z</time>
      </trkpt>
      <trkpt lat="43.682" lon="6.74659">
        <ele>509.1</ele>
        <time>2020-02-09T12:52:14Z</time>
      </trkpt>
      <trkpt lat="43.68197" lon="6.74658">
        <ele>509.3</ele>
        <time>2020-02-09T12:52:17Z</time>
      </trkpt>
      <trkpt lat="43.68193" lon="6.74658">
        <ele>509.5</ele>
        <time>2020-02-09T12:52:18Z</time>
      </trkpt>
      <trkpt lat="43.68185" lon="6.74657">
        <ele>510</ele>
        <time>2020-02-09T12:52:21Z</time>
      </trkpt>
      <trkpt lat="43.68177" lon="6.74658">
        <ele>510.8</ele>
        <time>2020-02-09T12:52:23Z</time>
      </trkpt>
      <trkpt lat="43.68174" lon="6.74658">
        <ele>511.1</ele>
        <time>2020-02-09T12:52:25Z</time>
      </trkpt>
      <trkpt lat="43.68168" lon="6.74659">
        <ele>511.6</ele>
        <time>2020-02-09T12:52:26Z</time>
      </trkpt>
      <trkpt lat="43.68164" lon="6.74661">
        <ele>512.1</ele>
        <time>2020-02-09T12:52:29Z</time>
      </trkpt>
      <trkpt lat="43.68161" lon="6.74664">
        <ele>512.5</ele>
        <time>2020-02-09T12:52:30Z</time>
      </trkpt>
      <trkpt lat="43.68155" lon="6.7467">
        <ele>510.8</ele>
        <time>2020-02-09T12:52:33Z</time>
      </trkpt>
      <trkpt lat="43.68148" lon="6.74678">
        <ele>509.5</ele>
        <time>2020-02-09T12:52:34Z</time>
      </trkpt>
      <trkpt lat="43.68144" lon="6.74686">
        <ele>508.6</ele>
        <time>2020-02-09T12:52:37Z</time>
      </trkpt>
      <trkpt lat="43.68145" lon="6.7472">
        <ele>505.9</ele>
        <time>2020-02-09T12:52:39Z</time>
      </trkpt>
      <trkpt lat="43.68147" lon="6.74737">
        <ele>505.2</ele>
        <time>2020-02-09T12:52:40Z</time>
      </trkpt>
      <trkpt lat="43.68145" lon="6.74754">
        <ele>504.4</ele>
        <time>2020-02-09T12:52:41Z</time>
      </trkpt>
      <trkpt lat="43.68138" lon="6.74785">
        <ele>501.8</ele>
        <time>2020-02-09T12:52:43Z</time>
      </trkpt>
      <trkpt lat="43.68134" lon="6.748">
        <ele>500.3</ele>
        <time>2020-02-09T12:52:44Z</time>
      </trkpt>
      <trkpt lat="43.68124" lon="6.74819">
        <ele>499</ele>
        <time>2020-02-09T12:52:46Z</time>
      </trkpt>
      <trkpt lat="43.68119" lon="6.74824">
        <ele>498.9</ele>
        <time>2020-02-09T12:52:47Z</time>
      </trkpt>
      <trkpt lat="43.68109" lon="6.74825">
        <ele>498.6</ele>
        <time>2020-02-09T12:52:49Z</time>
      </trkpt>
      <trkpt lat="43.68102" lon="6.74825">
        <ele>498.4</ele>
        <time>2020-02-09T12:52:52Z</time>
      </trkpt>
      <trkpt lat="43.68097" lon="6.74827">
        <ele>498.3</ele>
        <time>2020-02-09T12:52:54Z</time>
      </trkpt>
      <trkpt lat="43.68089" lon="6.74824">
        <ele>498</ele>
        <time>2020-02-09T12:52:55Z</time>
      </trkpt>
      <trkpt lat="43.68074" lon="6.74828">
        <ele>497.3</ele>
        <time>2020-02-09T12:52:56Z</time>
      </trkpt>
      <trkpt lat="43.68068" lon="6.74832">
        <ele>497.1</ele>
        <time>2020-02-09T12:52:57Z</time>
      </trkpt>
      <trkpt lat="43.68057" lon="6.74838">
        <ele>496.4</ele>
        <time>2020-02-09T12:52:59Z</time>
      </trkpt>
      <trkpt lat="43.68048" lon="6.74846">
        <ele>495.5</ele>
        <time>2020-02-09T12:53:01Z</time>
      </trkpt>
      <trkpt lat="43.68044" lon="6.74852">
        <ele>495.2</ele>
        <time>2020-02-09T12:53:02Z</time>
      </trkpt>
      <trkpt lat="43.68042" lon="6.74868">
        <ele>494.6</ele>
        <time>2020-02-09T12:53:04Z</time>
      </trkpt>
      <trkpt lat="43.68042" lon="6.74877">
        <ele>494.3</ele>
        <time>2020-02-09T12:53:05Z</time>
      </trkpt>
      <trkpt lat="43.68042" lon="6.74896">
        <ele>493.4</ele>
        <time>2020-02-09T12:53:07Z</time>
      </trkpt>
      <trkpt lat="43.68042" lon="6.74914">
        <ele>492.8</ele>
        <time>2020-02-09T12:53:09Z</time>
      </trkpt>
      <trkpt lat="43.68041" lon="6.74929">
        <ele>492.3</ele>
        <time>2020-02-09T12:53:11Z</time>
      </trkpt>
      <trkpt lat="43.6804" lon="6.74938">
        <ele>492</ele>
        <time>2020-02-09T12:53:12Z</time>
      </trkpt>
      <trkpt lat="43.68039" lon="6.74947">
        <ele>491.7</ele>
        <time>2020-02-09T12:53:13Z</time>
      </trkpt>
      <trkpt lat="43.68034" lon="6.74968">
        <ele>490.6</ele>
        <time>2020-02-09T12:53:15Z</time>
      </trkpt>
      <trkpt lat="43.68031" lon="6.74977">
        <ele>490.1</ele>
        <time>2020-02-09T12:53:16Z</time>
      </trkpt>
      <trkpt lat="43.68028" lon="6.74985">
        <ele>489.7</ele>
        <time>2020-02-09T12:53:17Z</time>
      </trkpt>
      <trkpt lat="43.68023" lon="6.74996">
        <ele>489.1</ele>
        <time>2020-02-09T12:53:19Z</time>
      </trkpt>
      <trkpt lat="43.68021" lon="6.7499">
        <ele>488.8</ele>
        <time>2020-02-09T12:53:22Z</time>
      </trkpt>
      <trkpt lat="43.68022" lon="6.74976">
        <ele>488.9</ele>
        <time>2020-02-09T12:53:24Z</time>
      </trkpt>
      <trkpt lat="43.68021" lon="6.74969">
        <ele>488.8</ele>
        <time>2020-02-09T12:53:25Z</time>
      </trkpt>
      <trkpt lat="43.68021" lon="6.74961">
        <ele>488.9</ele>
        <time>2020-02-09T12:53:26Z</time>
      </trkpt>
      <trkpt lat="43.68021" lon="6.74953">
        <ele>488.9</ele>
        <time>2020-02-09T12:53:27Z</time>
      </trkpt>
      <trkpt lat="43.68019" lon="6.74944">
        <ele>488.5</ele>
        <time>2020-02-09T12:53:28Z</time>
      </trkpt>
      <trkpt lat="43.68012" lon="6.74927">
        <ele>487.9</ele>
        <time>2020-02-09T12:53:30Z</time>
      </trkpt>
      <trkpt lat="43.68004" lon="6.74915">
        <ele>486.8</ele>
        <time>2020-02-09T12:53:32Z</time>
      </trkpt>
      <trkpt lat="43.67999" lon="6.74913">
        <ele>486.2</ele>
        <time>2020-02-09T12:53:33Z</time>
      </trkpt>
      <trkpt lat="43.67997" lon="6.74914">
        <ele>485.7</ele>
        <time>2020-02-09T12:53:36Z</time>
      </trkpt>
      <trkpt lat="43.67995" lon="6.74918">
        <ele>485.4</ele>
        <time>2020-02-09T12:53:37Z</time>
      </trkpt>
      <trkpt lat="43.67999" lon="6.74928">
        <ele>485.3</ele>
        <time>2020-02-09T12:53:39Z</time>
      </trkpt>
      <trkpt lat="43.68" lon="6.74935">
        <ele>485.1</ele>
        <time>2020-02-09T12:53:41Z</time>
      </trkpt>
      <trkpt lat="43.67999" lon="6.74942">
        <ele>485</ele>
        <time>2020-02-09T12:53:43Z</time>
      </trkpt>
      <trkpt lat="43.67995" lon="6.7496">
        <ele>484.6</ele>
        <time>2020-02-09T12:53:46Z</time>
      </trkpt>
      <trkpt lat="43.67993" lon="6.74965">
        <ele>484.4</ele>
        <time>2020-02-09T12:53:47Z</time>
      </trkpt>
      <trkpt lat="43.67989" lon="6.74974">
        <ele>484.3</ele>
        <time>2020-02-09T12:53:49Z</time>
      </trkpt>
      <trkpt lat="43.67985" lon="6.74981">
        <ele>484.2</ele>
        <time>2020-02-09T12:53:50Z</time>
      </trkpt>
      <trkpt lat="43.67969" lon="6.75006">
        <ele>484.1</ele>
        <time>2020-02-09T12:53:52Z</time>
      </trkpt>
      <trkpt lat="43.67965" lon="6.75011">
        <ele>484.2</ele>
        <time>2020-02-09T12:53:53Z</time>
      </trkpt>
      <trkpt lat="43.67959" lon="6.75023">
        <ele>484.2</ele>
        <time>2020-02-09T12:53:55Z</time>
      </trkpt>
      <trkpt lat="43.67958" lon="6.75038">
        <ele>484.3</ele>
        <time>2020-02-09T12:53:57Z</time>
      </trkpt>
      <trkpt lat="43.67958" lon="6.75045">
        <ele>484.4</ele>
        <time>2020-02-09T12:53:58Z</time>
      </trkpt>
      <trkpt lat="43.67958" lon="6.7506">
        <ele>484.4</ele>
        <time>2020-02-09T12:54:00Z</time>
      </trkpt>
      <trkpt lat="43.6796" lon="6.75074">
        <ele>484.4</ele>
        <time>2020-02-09T12:54:02Z</time>
      </trkpt>
      <trkpt lat="43.6796" lon="6.75089">
        <ele>484.4</ele>
        <time>2020-02-09T12:54:04Z</time>
      </trkpt>
      <trkpt lat="43.67961" lon="6.75101">
        <ele>484.4</ele>
        <time>2020-02-09T12:54:06Z</time>
      </trkpt>
      <trkpt lat="43.67961" lon="6.75106">
        <ele>484.4</ele>
        <time>2020-02-09T12:54:07Z</time>
      </trkpt>
      <trkpt lat="43.67961" lon="6.75111">
        <ele>484.2</ele>
        <time>2020-02-09T12:54:08Z</time>
      </trkpt>
      <trkpt lat="43.67961" lon="6.75115">
        <ele>484</ele>
        <time>2020-02-09T12:54:09Z</time>
      </trkpt>
      <trkpt lat="43.67962" lon="6.75123">
        <ele>483.8</ele>
        <time>2020-02-09T12:54:11Z</time>
      </trkpt>
      <trkpt lat="43.67964" lon="6.75127">
        <ele>483.7</ele>
        <time>2020-02-09T12:54:12Z</time>
      </trkpt>
      <trkpt lat="43.67965" lon="6.75131">
        <ele>483.6</ele>
        <time>2020-02-09T12:54:13Z</time>
      </trkpt>
      <trkpt lat="43.67967" lon="6.75135">
        <ele>483.5</ele>
        <time>2020-02-09T12:54:15Z</time>
      </trkpt>
      <trkpt lat="43.67972" lon="6.75145">
        <ele>483.2</ele>
        <time>2020-02-09T12:54:19Z</time>
      </trkpt>
      <trkpt lat="43.67974" lon="6.75153">
        <ele>483</ele>
        <time>2020-02-09T12:54:22Z</time>
      </trkpt>
      <trkpt lat="43.67975" lon="6.75157">
        <ele>482.9</ele>
        <time>2020-02-09T12:54:23Z</time>
      </trkpt>
      <trkpt lat="43.67979" lon="6.75168">
        <ele>482.9</ele>
        <time>2020-02-09T12:54:26Z</time>
      </trkpt>
      <trkpt lat="43.67981" lon="6.75175">
        <ele>482.8</ele>
        <time>2020-02-09T12:54:27Z</time>
      </trkpt>
      <trkpt lat="43.67982" lon="6.7518">
        <ele>482.8</ele>
        <time>2020-02-09T12:54:29Z</time>
      </trkpt>
      <trkpt lat="43.67985" lon="6.75197">
        <ele>482.9</ele>
        <time>2020-02-09T12:54:32Z</time>
      </trkpt>
      <trkpt lat="43.67986" lon="6.75209">
        <ele>483.1</ele>
        <time>2020-02-09T12:54:35Z</time>
      </trkpt>
      <trkpt lat="43.67987" lon="6.75221">
        <ele>483.2</ele>
        <time>2020-02-09T12:54:38Z</time>
      </trkpt>
      <trkpt lat="43.67988" lon="6.7523">
        <ele>483.3</ele>
        <time>2020-02-09T12:54:39Z</time>
      </trkpt>
      <trkpt lat="43.67989" lon="6.75241">
        <ele>483.4</ele>
        <time>2020-02-09T12:54:42Z</time>
      </trkpt>
      <trkpt lat="43.67989" lon="6.75245">
        <ele>483.4</ele>
        <time>2020-02-09T12:54:43Z</time>
      </trkpt>
      <trkpt lat="43.6799" lon="6.75254">
        <ele>483.4</ele>
        <time>2020-02-09T12:54:45Z</time>
      </trkpt>
      <trkpt lat="43.6799" lon="6.75261">
        <ele>483.5</ele>
        <time>2020-02-09T12:54:48Z</time>
      </trkpt>
      <trkpt lat="43.6799" lon="6.75266">
        <ele>483.5</ele>
        <time>2020-02-09T12:54:49Z</time>
      </trkpt>
      <trkpt lat="43.6799" lon="6.75271">
        <ele>483.5</ele>
        <time>2020-02-09T12:54:50Z</time>
      </trkpt>
      <trkpt lat="43.67991" lon="6.75276">
        <ele>483.6</ele>
        <time>2020-02-09T12:54:51Z</time>
      </trkpt>
      <trkpt lat="43.6799" lon="6.75285">
        <ele>483.6</ele>
        <time>2020-02-09T12:54:53Z</time>
      </trkpt>
      <trkpt lat="43.67989" lon="6.75292">
        <ele>483.6</ele>
        <time>2020-02-09T12:54:54Z</time>
      </trkpt>
      <trkpt lat="43.67986" lon="6.75311">
        <ele>483.4</ele>
        <time>2020-02-09T12:54:57Z</time>
      </trkpt>
      <trkpt lat="43.67982" lon="6.75329">
        <ele>483</ele>
        <time>2020-02-09T12:54:58Z</time>
      </trkpt>
      <trkpt lat="43.67979" lon="6.75342">
        <ele>482.7</ele>
        <time>2020-02-09T12:55:00Z</time>
      </trkpt>
      <trkpt lat="43.67976" lon="6.75349">
        <ele>482.5</ele>
        <time>2020-02-09T12:55:01Z</time>
      </trkpt>
      <trkpt lat="43.67971" lon="6.75361">
        <ele>482.1</ele>
        <time>2020-02-09T12:55:03Z</time>
      </trkpt>
      <trkpt lat="43.67966" lon="6.75372">
        <ele>481.8</ele>
        <time>2020-02-09T12:55:06Z</time>
      </trkpt>
      <trkpt lat="43.67962" lon="6.75381">
        <ele>481.4</ele>
        <time>2020-02-09T12:55:07Z</time>
      </trkpt>
      <trkpt lat="43.67954" lon="6.75413">
        <ele>479.5</ele>
        <time>2020-02-09T12:55:09Z</time>
      </trkpt>
      <trkpt lat="43.67953" lon="6.75426">
        <ele>478.5</ele>
        <time>2020-02-09T12:55:10Z</time>
      </trkpt>
      <trkpt lat="43.67952" lon="6.75439">
        <ele>477.7</ele>
        <time>2020-02-09T12:55:11Z</time>
      </trkpt>
      <trkpt lat="43.67952" lon="6.75451">
        <ele>477</ele>
        <time>2020-02-09T12:55:12Z</time>
      </trkpt>
      <trkpt lat="43.67952" lon="6.75462">
        <ele>476</ele>
        <time>2020-02-09T12:55:13Z</time>
      </trkpt>
      <trkpt lat="43.67951" lon="6.7547">
        <ele>475.3</ele>
        <time>2020-02-09T12:55:14Z</time>
      </trkpt>
      <trkpt lat="43.67949" lon="6.75482">
        <ele>474</ele>
        <time>2020-02-09T12:55:16Z</time>
      </trkpt>
      <trkpt lat="43.67948" lon="6.75493">
        <ele>473.5</ele>
        <time>2020-02-09T12:55:20Z</time>
      </trkpt>
      <trkpt lat="43.67947" lon="6.75502">
        <ele>473.1</ele>
        <time>2020-02-09T12:55:21Z</time>
      </trkpt>
      <trkpt lat="43.67946" lon="6.75512">
        <ele>472.7</ele>
        <time>2020-02-09T12:55:23Z</time>
      </trkpt>
      <trkpt lat="43.67945" lon="6.7552">
        <ele>472.3</ele>
        <time>2020-02-09T12:55:26Z</time>
      </trkpt>
      <trkpt lat="43.67945" lon="6.75525">
        <ele>472</ele>
        <time>2020-02-09T12:55:27Z</time>
      </trkpt>
      <trkpt lat="43.67944" lon="6.75538">
        <ele>471.1</ele>
        <time>2020-02-09T12:55:30Z</time>
      </trkpt>
      <trkpt lat="43.67943" lon="6.75545">
        <ele>470.8</ele>
        <time>2020-02-09T12:55:31Z</time>
      </trkpt>
      <trkpt lat="43.67943" lon="6.7556">
        <ele>470</ele>
        <time>2020-02-09T12:55:34Z</time>
      </trkpt>
      <trkpt lat="43.67942" lon="6.7558">
        <ele>469.1</ele>
        <time>2020-02-09T12:55:36Z</time>
      </trkpt>
      <trkpt lat="43.67941" lon="6.75591">
        <ele>468.6</ele>
        <time>2020-02-09T12:55:38Z</time>
      </trkpt>
      <trkpt lat="43.6794" lon="6.75609">
        <ele>467.5</ele>
        <time>2020-02-09T12:55:39Z</time>
      </trkpt>
      <trkpt lat="43.67941" lon="6.75619">
        <ele>466.8</ele>
        <time>2020-02-09T12:55:41Z</time>
      </trkpt>
      <trkpt lat="43.67942" lon="6.75631">
        <ele>466.5</ele>
        <time>2020-02-09T12:55:43Z</time>
      </trkpt>
      <trkpt lat="43.67944" lon="6.75643">
        <ele>466.3</ele>
        <time>2020-02-09T12:55:45Z</time>
      </trkpt>
      <trkpt lat="43.67943" lon="6.75678">
        <ele>465.6</ele>
        <time>2020-02-09T12:55:47Z</time>
      </trkpt>
      <trkpt lat="43.67943" lon="6.75688">
        <ele>465.2</ele>
        <time>2020-02-09T12:55:48Z</time>
      </trkpt>
      <trkpt lat="43.67942" lon="6.75699">
        <ele>464.9</ele>
        <time>2020-02-09T12:55:49Z</time>
      </trkpt>
      <trkpt lat="43.67939" lon="6.75721">
        <ele>464.1</ele>
        <time>2020-02-09T12:55:51Z</time>
      </trkpt>
      <trkpt lat="43.67931" lon="6.75739">
        <ele>462.8</ele>
        <time>2020-02-09T12:55:53Z</time>
      </trkpt>
      <trkpt lat="43.67922" lon="6.75756">
        <ele>461.9</ele>
        <time>2020-02-09T12:55:55Z</time>
      </trkpt>
      <trkpt lat="43.67917" lon="6.75765">
        <ele>461.3</ele>
        <time>2020-02-09T12:55:56Z</time>
      </trkpt>
      <trkpt lat="43.67905" lon="6.75784">
        <ele>459.4</ele>
        <time>2020-02-09T12:55:58Z</time>
      </trkpt>
      <trkpt lat="43.67898" lon="6.75795">
        <ele>458.4</ele>
        <time>2020-02-09T12:55:59Z</time>
      </trkpt>
      <trkpt lat="43.67885" lon="6.75812">
        <ele>456.5</ele>
        <time>2020-02-09T12:56:01Z</time>
      </trkpt>
      <trkpt lat="43.67872" lon="6.7582">
        <ele>454.9</ele>
        <time>2020-02-09T12:56:03Z</time>
      </trkpt>
      <trkpt lat="43.6786" lon="6.75821">
        <ele>453.5</ele>
        <time>2020-02-09T12:56:05Z</time>
      </trkpt>
      <trkpt lat="43.67853" lon="6.75821">
        <ele>452.7</ele>
        <time>2020-02-09T12:56:06Z</time>
      </trkpt>
      <trkpt lat="43.6784" lon="6.75822">
        <ele>451</ele>
        <time>2020-02-09T12:56:08Z</time>
      </trkpt>
      <trkpt lat="43.67827" lon="6.75825">
        <ele>449.2</ele>
        <time>2020-02-09T12:56:10Z</time>
      </trkpt>
      <trkpt lat="43.67812" lon="6.75829">
        <ele>447.4</ele>
        <time>2020-02-09T12:56:12Z</time>
      </trkpt>
      <trkpt lat="43.67795" lon="6.75834">
        <ele>446.2</ele>
        <time>2020-02-09T12:56:14Z</time>
      </trkpt>
      <trkpt lat="43.67786" lon="6.75838">
        <ele>444.2</ele>
        <time>2020-02-09T12:56:15Z</time>
      </trkpt>
      <trkpt lat="43.67778" lon="6.75842">
        <ele>441.9</ele>
        <time>2020-02-09T12:56:16Z</time>
      </trkpt>
      <trkpt lat="43.67771" lon="6.75845">
        <ele>439.7</ele>
        <time>2020-02-09T12:56:17Z</time>
      </trkpt>
      <trkpt lat="43.67763" lon="6.75851">
        <ele>437.3</ele>
        <time>2020-02-09T12:56:19Z</time>
      </trkpt>
      <trkpt lat="43.67766" lon="6.75856">
        <ele>434.6</ele>
        <time>2020-02-09T12:56:23Z</time>
      </trkpt>
      <trkpt lat="43.67769" lon="6.75859">
        <ele>431.9</ele>
        <time>2020-02-09T12:56:24Z</time>
      </trkpt>
      <trkpt lat="43.67774" lon="6.75862">
        <ele>429.2</ele>
        <time>2020-02-09T12:56:25Z</time>
      </trkpt>
      <trkpt lat="43.67785" lon="6.75865">
        <ele>426.3</ele>
        <time>2020-02-09T12:56:27Z</time>
      </trkpt>
      <trkpt lat="43.67796" lon="6.75867">
        <ele>424.9</ele>
        <time>2020-02-09T12:56:29Z</time>
      </trkpt>
      <trkpt lat="43.67798" lon="6.75871">
        <ele>422.2</ele>
        <time>2020-02-09T12:56:32Z</time>
      </trkpt>
      <trkpt lat="43.67797" lon="6.75874">
        <ele>419.6</ele>
        <time>2020-02-09T12:56:35Z</time>
      </trkpt>
      <trkpt lat="43.67792" lon="6.75879">
        <ele>417.1</ele>
        <time>2020-02-09T12:56:37Z</time>
      </trkpt>
      <trkpt lat="43.67789" lon="6.75882">
        <ele>416.7</ele>
        <time>2020-02-09T12:56:38Z</time>
      </trkpt>
      <trkpt lat="43.67773" lon="6.75894">
        <ele>414.8</ele>
        <time>2020-02-09T12:56:39Z</time>
      </trkpt>
      <trkpt lat="43.67765" lon="6.75899">
        <ele>413.8</ele>
        <time>2020-02-09T12:56:40Z</time>
      </trkpt>
      <trkpt lat="43.67748" lon="6.75906">
        <ele>412</ele>
        <time>2020-02-09T12:56:42Z</time>
      </trkpt>
      <trkpt lat="43.67736" lon="6.75908">
        <ele>410.5</ele>
        <time>2020-02-09T12:56:44Z</time>
      </trkpt>
      <trkpt lat="43.6773" lon="6.75913">
        <ele>409.8</ele>
        <time>2020-02-09T12:56:48Z</time>
      </trkpt>
      <trkpt lat="43.67727" lon="6.75915">
        <ele>409.5</ele>
        <time>2020-02-09T12:56:51Z</time>
      </trkpt>
      <trkpt lat="43.67725" lon="6.75917">
        <ele>409.1</ele>
        <time>2020-02-09T12:56:53Z</time>
      </trkpt>
      <trkpt lat="43.67722" lon="6.75919">
        <ele>408.7</ele>
        <time>2020-02-09T12:56:56Z</time>
      </trkpt>
      <trkpt lat="43.67719" lon="6.7592">
        <ele>408.4</ele>
        <time>2020-02-09T12:56:57Z</time>
      </trkpt>
      <trkpt lat="43.67713" lon="6.75921">
        <ele>407.8</ele>
        <time>2020-02-09T12:57:00Z</time>
      </trkpt>
      <trkpt lat="43.67707" lon="6.7592">
        <ele>407</ele>
        <time>2020-02-09T12:57:01Z</time>
      </trkpt>
      <trkpt lat="43.67702" lon="6.7592">
        <ele>406.4</ele>
        <time>2020-02-09T12:57:02Z</time>
      </trkpt>
      <trkpt lat="43.67692" lon="6.75917">
        <ele>401.4</ele>
        <time>2020-02-09T12:57:06Z</time>
      </trkpt>
      <trkpt lat="43.67688" lon="6.75915">
        <ele>401.1</ele>
        <time>2020-02-09T12:57:07Z</time>
      </trkpt>
      <trkpt lat="43.67686" lon="6.75914">
        <ele>401.5</ele>
        <time>2020-02-09T12:57:10Z</time>
      </trkpt>
      <trkpt lat="43.6768" lon="6.75916">
        <ele>402.4</ele>
        <time>2020-02-09T12:57:12Z</time>
      </trkpt>
      <trkpt lat="43.67677" lon="6.75916">
        <ele>402.9</ele>
        <time>2020-02-09T12:57:16Z</time>
      </trkpt>
      <trkpt lat="43.6768" lon="6.75916">
        <ele>403.4</ele>
        <time>2020-02-09T12:57:21Z</time>
      </trkpt>
      <trkpt lat="43.67682" lon="6.75918">
        <ele>403.9</ele>
        <time>2020-02-09T12:57:25Z</time>
      </trkpt>
      <trkpt lat="43.67678" lon="6.75919">
        <ele>403.7</ele>
        <time>2020-02-09T12:57:28Z</time>
      </trkpt>
      <trkpt lat="43.6767" lon="6.75917">
        <ele>403</ele>
        <time>2020-02-09T12:57:31Z</time>
      </trkpt>
      <trkpt lat="43.67666" lon="6.75915">
        <ele>403.2</ele>
        <time>2020-02-09T12:57:33Z</time>
      </trkpt>
      <trkpt lat="43.67659" lon="6.75913">
        <ele>402.9</ele>
        <time>2020-02-09T12:57:36Z</time>
      </trkpt>
      <trkpt lat="43.67654" lon="6.75912">
        <ele>402.4</ele>
        <time>2020-02-09T12:57:37Z</time>
      </trkpt>
      <trkpt lat="43.67647" lon="6.75912">
        <ele>401</ele>
        <time>2020-02-09T12:57:39Z</time>
      </trkpt>
      <trkpt lat="43.67632" lon="6.75912">
        <ele>397.5</ele>
        <time>2020-02-09T12:57:42Z</time>
      </trkpt>
      <trkpt lat="43.67618" lon="6.75912">
        <ele>394</ele>
        <time>2020-02-09T12:57:43Z</time>
      </trkpt>
      <trkpt lat="43.6761" lon="6.75913">
        <ele>391.7</ele>
        <time>2020-02-09T12:57:44Z</time>
      </trkpt>
      <trkpt lat="43.67601" lon="6.75913">
        <ele>388.9</ele>
        <time>2020-02-09T12:57:45Z</time>
      </trkpt>
      <trkpt lat="43.67585" lon="6.75914">
        <ele>384.7</ele>
        <time>2020-02-09T12:57:47Z</time>
      </trkpt>
      <trkpt lat="43.67576" lon="6.75915">
        <ele>381.7</ele>
        <time>2020-02-09T12:57:48Z</time>
      </trkpt>
      <trkpt lat="43.67569" lon="6.75916">
        <ele>379.5</ele>
        <time>2020-02-09T12:57:49Z</time>
      </trkpt>
      <trkpt lat="43.67559" lon="6.75916">
        <ele>379.2</ele>
        <time>2020-02-09T12:57:51Z</time>
      </trkpt>
      <trkpt lat="43.67555" lon="6.75917">
        <ele>376.1</ele>
        <time>2020-02-09T12:57:52Z</time>
      </trkpt>
      <trkpt lat="43.67556" lon="6.75921">
        <ele>374.3</ele>
        <time>2020-02-09T12:57:54Z</time>
      </trkpt>
      <trkpt lat="43.67554" lon="6.75919">
        <ele>375.2</ele>
        <time>2020-02-09T12:57:55Z</time>
      </trkpt>
      <trkpt lat="43.6755" lon="6.75912">
        <ele>378.2</ele>
        <time>2020-02-09T12:57:57Z</time>
      </trkpt>
      <trkpt lat="43.67546" lon="6.75907">
        <ele>379.2</ele>
        <time>2020-02-09T12:58:01Z</time>
      </trkpt>
      <trkpt lat="43.67543" lon="6.75905">
        <ele>378.2</ele>
        <time>2020-02-09T12:58:13Z</time>
      </trkpt>
      <trkpt lat="43.6754" lon="6.75901">
        <ele>379.1</ele>
        <time>2020-02-09T12:58:16Z</time>
      </trkpt>
      <trkpt lat="43.67536" lon="6.75905">
        <ele>376.2</ele>
        <time>2020-02-09T12:58:20Z</time>
      </trkpt>
      <trkpt lat="43.67535" lon="6.75913">
        <ele>371.2</ele>
        <time>2020-02-09T12:58:22Z</time>
      </trkpt>
      <trkpt lat="43.67535" lon="6.75917">
        <ele>369.4</ele>
        <time>2020-02-09T12:58:24Z</time>
      </trkpt>
      <trkpt lat="43.67536" lon="6.75923">
        <ele>368.8</ele>
        <time>2020-02-09T12:58:25Z</time>
      </trkpt>
      <trkpt lat="43.67539" lon="6.75931">
        <ele>366.5</ele>
        <time>2020-02-09T12:58:27Z</time>
      </trkpt>
      <trkpt lat="43.67548" lon="6.75935">
        <ele>367.9</ele>
        <time>2020-02-09T12:58:30Z</time>
      </trkpt>
      <trkpt lat="43.67559" lon="6.75941">
        <ele>369.5</ele>
        <time>2020-02-09T12:58:32Z</time>
      </trkpt>
      <trkpt lat="43.6756" lon="6.75944">
        <ele>369</ele>
        <time>2020-02-09T12:58:35Z</time>
      </trkpt>
      <trkpt lat="43.6756" lon="6.7595">
        <ele>366.2</ele>
        <time>2020-02-09T12:58:40Z</time>
      </trkpt>
      <trkpt lat="43.67556" lon="6.75957">
        <ele>361.6</ele>
        <time>2020-02-09T12:58:42Z</time>
      </trkpt>
      <trkpt lat="43.67547" lon="6.75966">
        <ele>355.2</ele>
        <time>2020-02-09T12:58:45Z</time>
      </trkpt>
      <trkpt lat="43.67542" lon="6.75968">
        <ele>354.4</ele>
        <time>2020-02-09T12:58:46Z</time>
      </trkpt>
      <trkpt lat="43.67533" lon="6.75968">
        <ele>351.3</ele>
        <time>2020-02-09T12:58:48Z</time>
      </trkpt>
      <trkpt lat="43.67527" lon="6.75964">
        <ele>350.6</ele>
        <time>2020-02-09T12:58:49Z</time>
      </trkpt>
      <trkpt lat="43.67518" lon="6.75952">
        <ele>350.3</ele>
        <time>2020-02-09T12:58:52Z</time>
      </trkpt>
      <trkpt lat="43.67515" lon="6.75947">
        <ele>350.8</ele>
        <time>2020-02-09T12:58:53Z</time>
      </trkpt>
      <trkpt lat="43.6751" lon="6.75938">
        <ele>351.5</ele>
        <time>2020-02-09T12:58:56Z</time>
      </trkpt>
      <trkpt lat="43.67506" lon="6.75937">
        <ele>351.8</ele>
        <time>2020-02-09T12:58:58Z</time>
      </trkpt>
      <trkpt lat="43.6751" lon="6.75935">
        <ele>353.4</ele>
        <time>2020-02-09T12:59:02Z</time>
      </trkpt>
      <trkpt lat="43.6751" lon="6.75931">
        <ele>355.1</ele>
        <time>2020-02-09T12:59:06Z</time>
      </trkpt>
      <trkpt lat="43.67517" lon="6.75933">
        <ele>359.2</ele>
        <time>2020-02-09T13:01:42Z</time>
      </trkpt>
      <trkpt lat="43.67519" lon="6.75937">
        <ele>357.7</ele>
        <time>2020-02-09T13:01:51Z</time>
      </trkpt>
      <trkpt lat="43.6752" lon="6.75942">
        <ele>357.4</ele>
        <time>2020-02-09T13:01:54Z</time>
      </trkpt>
      <trkpt lat="43.67521" lon="6.75946">
        <ele>355.8</ele>
        <time>2020-02-09T13:01:56Z</time>
      </trkpt>
      <trkpt lat="43.6752" lon="6.7595">
        <ele>352.9</ele>
        <time>2020-02-09T13:02:13Z</time>
      </trkpt>
      <trkpt lat="43.67521" lon="6.75955">
        <ele>350.9</ele>
        <time>2020-02-09T13:02:15Z</time>
      </trkpt>
      <trkpt lat="43.6752" lon="6.75961">
        <ele>349.2</ele>
        <time>2020-02-09T13:02:18Z</time>
      </trkpt>
      <trkpt lat="43.67518" lon="6.75964">
        <ele>348</ele>
        <time>2020-02-09T13:02:22Z</time>
      </trkpt>
      <trkpt lat="43.6751" lon="6.75953">
        <ele>347.5</ele>
        <time>2020-02-09T13:02:24Z</time>
      </trkpt>
      <trkpt lat="43.67507" lon="6.75949">
        <ele>347.8</ele>
        <time>2020-02-09T13:02:27Z</time>
      </trkpt>
      <trkpt lat="43.67505" lon="6.75947">
        <ele>347.9</ele>
        <time>2020-02-09T13:02:28Z</time>
      </trkpt>
      <trkpt lat="43.675" lon="6.75944">
        <ele>346.6</ele>
        <time>2020-02-09T13:02:31Z</time>
      </trkpt>
      <trkpt lat="43.67501" lon="6.75953">
        <ele>344.9</ele>
        <time>2020-02-09T13:02:34Z</time>
      </trkpt>
      <trkpt lat="43.67501" lon="6.75958">
        <ele>341.6</ele>
        <time>2020-02-09T13:02:36Z</time>
      </trkpt>
      <trkpt lat="43.675" lon="6.75967">
        <ele>338.2</ele>
        <time>2020-02-09T13:02:40Z</time>
      </trkpt>
      <trkpt lat="43.675" lon="6.75971">
        <ele>336.6</ele>
        <time>2020-02-09T13:02:41Z</time>
      </trkpt>
      <trkpt lat="43.67497" lon="6.75973">
        <ele>333.4</ele>
        <time>2020-02-09T13:02:42Z</time>
      </trkpt>
      <trkpt lat="43.67497" lon="6.75969">
        <ele>335.1</ele>
        <time>2020-02-09T13:02:45Z</time>
      </trkpt>
      <trkpt lat="43.67495" lon="6.75966">
        <ele>336.9</ele>
        <time>2020-02-09T13:02:46Z</time>
      </trkpt>
      <trkpt lat="43.67492" lon="6.75962">
        <ele>336.5</ele>
        <time>2020-02-09T13:02:47Z</time>
      </trkpt>
      <trkpt lat="43.67489" lon="6.75953">
        <ele>336.2</ele>
        <time>2020-02-09T13:02:48Z</time>
      </trkpt>
      <trkpt lat="43.67485" lon="6.75942">
        <ele>335.9</ele>
        <time>2020-02-09T13:02:51Z</time>
      </trkpt>
      <trkpt lat="43.67479" lon="6.75925">
        <ele>335.5</ele>
        <time>2020-02-09T13:02:52Z</time>
      </trkpt>
      <trkpt lat="43.67475" lon="6.75917">
        <ele>335.5</ele>
        <time>2020-02-09T13:02:55Z</time>
      </trkpt>
      <trkpt lat="43.67471" lon="6.7591">
        <ele>335.6</ele>
        <time>2020-02-09T13:02:56Z</time>
      </trkpt>
      <trkpt lat="43.67466" lon="6.75905">
        <ele>335.8</ele>
        <time>2020-02-09T13:02:57Z</time>
      </trkpt>
      <trkpt lat="43.67456" lon="6.75895">
        <ele>336.1</ele>
        <time>2020-02-09T13:02:59Z</time>
      </trkpt>
      <trkpt lat="43.67446" lon="6.75879">
        <ele>336.5</ele>
        <time>2020-02-09T13:03:00Z</time>
      </trkpt>
      <trkpt lat="43.67437" lon="6.75869">
        <ele>336.5</ele>
        <time>2020-02-09T13:03:02Z</time>
      </trkpt>
      <trkpt lat="43.67429" lon="6.75862">
        <ele>336.4</ele>
        <time>2020-02-09T13:03:04Z</time>
      </trkpt>
      <trkpt lat="43.67425" lon="6.75861">
        <ele>336.2</ele>
        <time>2020-02-09T13:03:07Z</time>
      </trkpt>
      <trkpt lat="43.67412" lon="6.75862">
        <ele>335.6</ele>
        <time>2020-02-09T13:03:09Z</time>
      </trkpt>
      <trkpt lat="43.67406" lon="6.75866">
        <ele>334.5</ele>
        <time>2020-02-09T13:03:12Z</time>
      </trkpt>
      <trkpt lat="43.67401" lon="6.75875">
        <ele>334.1</ele>
        <time>2020-02-09T13:03:13Z</time>
      </trkpt>
      <trkpt lat="43.67407" lon="6.75871">
        <ele>333.7</ele>
        <time>2020-02-09T13:03:18Z</time>
      </trkpt>
      <trkpt lat="43.67409" lon="6.75871">
        <ele>333.6</ele>
        <time>2020-02-09T13:03:20Z</time>
      </trkpt>
      <trkpt lat="43.67408" lon="6.75876">
        <ele>333.4</ele>
        <time>2020-02-09T13:03:40Z</time>
      </trkpt>
      <trkpt lat="43.67406" lon="6.75879">
        <ele>333.2</ele>
        <time>2020-02-09T13:03:50Z</time>
      </trkpt>
      <trkpt lat="43.674" lon="6.75879">
        <ele>332.9</ele>
        <time>2020-02-09T13:03:54Z</time>
      </trkpt>
      <trkpt lat="43.67395" lon="6.7588">
        <ele>332.5</ele>
        <time>2020-02-09T13:03:56Z</time>
      </trkpt>
      <trkpt lat="43.67392" lon="6.7588">
        <ele>332.1</ele>
        <time>2020-02-09T13:03:59Z</time>
      </trkpt>
      <trkpt lat="43.67389" lon="6.7588">
        <ele>331.8</ele>
        <time>2020-02-09T13:04:00Z</time>
      </trkpt>
      <trkpt lat="43.67381" lon="6.7588">
        <ele>331.1</ele>
        <time>2020-02-09T13:04:02Z</time>
      </trkpt>
      <trkpt lat="43.67373" lon="6.75878">
        <ele>330.4</ele>
        <time>2020-02-09T13:04:03Z</time>
      </trkpt>
      <trkpt lat="43.67358" lon="6.75879">
        <ele>329.2</ele>
        <time>2020-02-09T13:04:04Z</time>
      </trkpt>
      <trkpt lat="43.67348" lon="6.75892">
        <ele>328</ele>
        <time>2020-02-09T13:04:07Z</time>
      </trkpt>
      <trkpt lat="43.67342" lon="6.75902">
        <ele>327.2</ele>
        <time>2020-02-09T13:04:08Z</time>
      </trkpt>
      <trkpt lat="43.6733" lon="6.75918">
        <ele>325.8</ele>
        <time>2020-02-09T13:04:10Z</time>
      </trkpt>
      <trkpt lat="43.67325" lon="6.75928">
        <ele>325.1</ele>
        <time>2020-02-09T13:04:11Z</time>
      </trkpt>
      <trkpt lat="43.67315" lon="6.7595">
        <ele>324.1</ele>
        <time>2020-02-09T13:04:13Z</time>
      </trkpt>
      <trkpt lat="43.67303" lon="6.75966">
        <ele>323.2</ele>
        <time>2020-02-09T13:04:15Z</time>
      </trkpt>
      <trkpt lat="43.67295" lon="6.75971">
        <ele>322.7</ele>
        <time>2020-02-09T13:04:16Z</time>
      </trkpt>
      <trkpt lat="43.67275" lon="6.75975">
        <ele>321.6</ele>
        <time>2020-02-09T13:04:18Z</time>
      </trkpt>
      <trkpt lat="43.67254" lon="6.75976">
        <ele>320.2</ele>
        <time>2020-02-09T13:04:20Z</time>
      </trkpt>
      <trkpt lat="43.67231" lon="6.75975">
        <ele>318.6</ele>
        <time>2020-02-09T13:04:22Z</time>
      </trkpt>
      <trkpt lat="43.67209" lon="6.75973">
        <ele>316.5</ele>
        <time>2020-02-09T13:04:24Z</time>
      </trkpt>
      <trkpt lat="43.67197" lon="6.75971">
        <ele>315.4</ele>
        <time>2020-02-09T13:04:25Z</time>
      </trkpt>
      <trkpt lat="43.67176" lon="6.75971">
        <ele>313.3</ele>
        <time>2020-02-09T13:04:27Z</time>
      </trkpt>
      <trkpt lat="43.67156" lon="6.75972">
        <ele>311.5</ele>
        <time>2020-02-09T13:04:29Z</time>
      </trkpt>
      <trkpt lat="43.67137" lon="6.75967">
        <ele>309.5</ele>
        <time>2020-02-09T13:04:31Z</time>
      </trkpt>
      <trkpt lat="43.67128" lon="6.75969">
        <ele>308.5</ele>
        <time>2020-02-09T13:04:32Z</time>
      </trkpt>
      <trkpt lat="43.67118" lon="6.75971">
        <ele>307.7</ele>
        <time>2020-02-09T13:04:33Z</time>
      </trkpt>
      <trkpt lat="43.67099" lon="6.75978">
        <ele>306.2</ele>
        <time>2020-02-09T13:04:35Z</time>
      </trkpt>
      <trkpt lat="43.67089" lon="6.75984">
        <ele>305.4</ele>
        <time>2020-02-09T13:04:36Z</time>
      </trkpt>
      <trkpt lat="43.67072" lon="6.76001">
        <ele>304.4</ele>
        <time>2020-02-09T13:04:38Z</time>
      </trkpt>
      <trkpt lat="43.67066" lon="6.76012">
        <ele>303.7</ele>
        <time>2020-02-09T13:04:39Z</time>
      </trkpt>
      <trkpt lat="43.67052" lon="6.76023">
        <ele>302.7</ele>
        <time>2020-02-09T13:04:41Z</time>
      </trkpt>
      <trkpt lat="43.67034" lon="6.76027">
        <ele>301.6</ele>
        <time>2020-02-09T13:04:43Z</time>
      </trkpt>
      <trkpt lat="43.67017" lon="6.76035">
        <ele>300.4</ele>
        <time>2020-02-09T13:04:45Z</time>
      </trkpt>
      <trkpt lat="43.67005" lon="6.7605">
        <ele>299</ele>
        <time>2020-02-09T13:04:47Z</time>
      </trkpt>
      <trkpt lat="43.6699" lon="6.76058">
        <ele>297.4</ele>
        <time>2020-02-09T13:04:49Z</time>
      </trkpt>
      <trkpt lat="43.66982" lon="6.76061">
        <ele>296.6</ele>
        <time>2020-02-09T13:04:50Z</time>
      </trkpt>
      <trkpt lat="43.66974" lon="6.76068">
        <ele>295.9</ele>
        <time>2020-02-09T13:04:51Z</time>
      </trkpt>
      <trkpt lat="43.6696" lon="6.76086">
        <ele>294.1</ele>
        <time>2020-02-09T13:04:53Z</time>
      </trkpt>
      <trkpt lat="43.66952" lon="6.76095">
        <ele>293.1</ele>
        <time>2020-02-09T13:04:54Z</time>
      </trkpt>
      <trkpt lat="43.66944" lon="6.76104">
        <ele>292</ele>
        <time>2020-02-09T13:04:55Z</time>
      </trkpt>
      <trkpt lat="43.66925" lon="6.76117">
        <ele>289.9</ele>
        <time>2020-02-09T13:04:57Z</time>
      </trkpt>
      <trkpt lat="43.66915" lon="6.76121">
        <ele>288.9</ele>
        <time>2020-02-09T13:04:58Z</time>
      </trkpt>
      <trkpt lat="43.66894" lon="6.76124">
        <ele>287.3</ele>
        <time>2020-02-09T13:05:00Z</time>
      </trkpt>
      <trkpt lat="43.66876" lon="6.76122">
        <ele>285.7</ele>
        <time>2020-02-09T13:05:02Z</time>
      </trkpt>
      <trkpt lat="43.66858" lon="6.76121">
        <ele>284.2</ele>
        <time>2020-02-09T13:05:04Z</time>
      </trkpt>
      <trkpt lat="43.66838" lon="6.7612">
        <ele>282.4</ele>
        <time>2020-02-09T13:05:06Z</time>
      </trkpt>
      <trkpt lat="43.66827" lon="6.76115">
        <ele>281.4</ele>
        <time>2020-02-09T13:05:07Z</time>
      </trkpt>
      <trkpt lat="43.66805" lon="6.76104">
        <ele>279.6</ele>
        <time>2020-02-09T13:05:09Z</time>
      </trkpt>
      <trkpt lat="43.66786" lon="6.76088">
        <ele>277.8</ele>
        <time>2020-02-09T13:05:11Z</time>
      </trkpt>
      <trkpt lat="43.66776" lon="6.76081">
        <ele>276.8</ele>
        <time>2020-02-09T13:05:12Z</time>
      </trkpt>
      <trkpt lat="43.66766" lon="6.76073">
        <ele>275.9</ele>
        <time>2020-02-09T13:05:13Z</time>
      </trkpt>
      <trkpt lat="43.66747" lon="6.76057">
        <ele>274.2</ele>
        <time>2020-02-09T13:05:15Z</time>
      </trkpt>
      <trkpt lat="43.66728" lon="6.76047">
        <ele>272.6</ele>
        <time>2020-02-09T13:05:17Z</time>
      </trkpt>
      <trkpt lat="43.66718" lon="6.76044">
        <ele>265.4</ele>
        <time>2020-02-09T13:05:18Z</time>
      </trkpt>
      <trkpt lat="43.667" lon="6.76035">
        <ele>257.3</ele>
        <time>2020-02-09T13:05:20Z</time>
      </trkpt>
      <trkpt lat="43.66683" lon="6.76023">
        <ele>259.1</ele>
        <time>2020-02-09T13:05:22Z</time>
      </trkpt>
      <trkpt lat="43.66675" lon="6.7602">
        <ele>259.8</ele>
        <time>2020-02-09T13:05:23Z</time>
      </trkpt>
      <trkpt lat="43.66668" lon="6.7602">
        <ele>260.4</ele>
        <time>2020-02-09T13:05:24Z</time>
      </trkpt>
      <trkpt lat="43.66662" lon="6.7602">
        <ele>260.7</ele>
        <time>2020-02-09T13:05:25Z</time>
      </trkpt>
      <trkpt lat="43.66658" lon="6.76021">
        <ele>260.5</ele>
        <time>2020-02-09T13:05:26Z</time>
      </trkpt>
      <trkpt lat="43.66653" lon="6.76023">
        <ele>260.2</ele>
        <time>2020-02-09T13:05:28Z</time>
      </trkpt>
      <trkpt lat="43.66652" lon="6.76026">
        <ele>260</ele>
        <time>2020-02-09T13:05:30Z</time>
      </trkpt>
      <trkpt lat="43.66659" lon="6.76028">
        <ele>259.6</ele>
        <time>2020-02-09T13:05:33Z</time>
      </trkpt>
      <trkpt lat="43.66665" lon="6.76027">
        <ele>259.2</ele>
        <time>2020-02-09T13:05:36Z</time>
      </trkpt>
      <trkpt lat="43.66677" lon="6.76034">
        <ele>258.3</ele>
        <time>2020-02-09T13:05:38Z</time>
      </trkpt>
      <trkpt lat="43.6669" lon="6.76048">
        <ele>257.1</ele>
        <time>2020-02-09T13:05:40Z</time>
      </trkpt>
      <trkpt lat="43.66695" lon="6.76055">
        <ele>256.4</ele>
        <time>2020-02-09T13:05:41Z</time>
      </trkpt>
    </trkseg>
  </trk>
</gpx>